<?xml version="1.0" encoding="UTF-8" standalone="no" ?>
<gpx xmlns="http://www.topografix.com/GPX/1/1" xmlns:xsi="http://www.w3.org/2001/XMLSchema-instance" xsi:schemaLocation="http://www.topografix.com/GPX/1/1 http://www.topografix.com/GPX/1/1/gpx.xsd" version="1.1" creator="VisuGPX - https://www.visugpx.com">
  <metadata>
    <name>Brevet Randonneur 300 km_2022</name>
    <desc><![CDATA[Brevet Randonneur 300 km du 10 septembre

Départ de 5 à 6 heures
Local du CTH 6 rue de la Guerche
85500 Les Herbiers

inscriptions avant le 06 septembre
renseignements:
daniel.bousseau@orange.fr
0612548005]]></desc>
  </metadata>
  <trk>
    <name><![CDATA[13808887-B300 Candé 2022]]></name>
    <trkseg>
      <trkpt lat="46.86357" lon="-1.0059">
        <ele>120</ele>
        <time>2022-04-25T09:58:39Z</time>
      </trkpt>
      <trkpt lat="46.86335" lon="-1.00614">
        <ele>119</ele>
        <time>2022-04-25T09:58:44Z</time>
      </trkpt>
      <trkpt lat="46.86315" lon="-1.00632">
        <ele>119</ele>
        <time>2022-04-25T09:58:48Z</time>
      </trkpt>
      <trkpt lat="46.8627" lon="-1.00662">
        <ele>118</ele>
        <time>2022-04-25T09:58:57Z</time>
      </trkpt>
      <trkpt lat="46.86234" lon="-1.00681">
        <ele>117</ele>
        <time>2022-04-25T09:59:04Z</time>
      </trkpt>
      <trkpt lat="46.86228" lon="-1.00664">
        <ele>117</ele>
        <time>2022-04-25T09:59:06Z</time>
      </trkpt>
      <trkpt lat="46.86189" lon="-1.00512">
        <ele>115</ele>
        <time>2022-04-25T09:59:26Z</time>
      </trkpt>
      <trkpt lat="46.8617" lon="-1.00489">
        <ele>115</ele>
        <time>2022-04-25T09:59:30Z</time>
      </trkpt>
      <trkpt lat="46.8614" lon="-1.00467">
        <ele>116</ele>
        <time>2022-04-25T09:59:36Z</time>
      </trkpt>
      <trkpt lat="46.86041" lon="-1.00409">
        <ele>115</ele>
        <time>2022-04-25T09:59:55Z</time>
      </trkpt>
      <trkpt lat="46.86052" lon="-1.00363">
        <ele>115</ele>
        <time>2022-04-25T10:00:01Z</time>
      </trkpt>
      <trkpt lat="46.86171" lon="-0.99914">
        <ele>118</ele>
        <time>2022-04-25T10:01:00Z</time>
      </trkpt>
      <trkpt lat="46.86212" lon="-0.99771">
        <ele>120</ele>
        <time>2022-04-25T10:01:18Z</time>
      </trkpt>
      <trkpt lat="46.86221" lon="-0.99734">
        <ele>120</ele>
        <time>2022-04-25T10:01:23Z</time>
      </trkpt>
      <trkpt lat="46.86312" lon="-0.99257">
        <ele>125</ele>
        <time>2022-04-25T10:02:23Z</time>
      </trkpt>
      <trkpt lat="46.86335" lon="-0.99141">
        <ele>128</ele>
        <time>2022-04-25T10:02:38Z</time>
      </trkpt>
      <trkpt lat="46.86345" lon="-0.99102">
        <ele>129</ele>
        <time>2022-04-25T10:02:43Z</time>
      </trkpt>
      <trkpt lat="46.86362" lon="-0.9905">
        <ele>131</ele>
        <time>2022-04-25T10:02:50Z</time>
      </trkpt>
      <trkpt lat="46.86373" lon="-0.99021">
        <ele>132</ele>
        <time>2022-04-25T10:02:54Z</time>
      </trkpt>
      <trkpt lat="46.86399" lon="-0.98966">
        <ele>134</ele>
        <time>2022-04-25T10:03:02Z</time>
      </trkpt>
      <trkpt lat="46.86448" lon="-0.98872">
        <ele>139</ele>
        <time>2022-04-25T10:03:17Z</time>
      </trkpt>
      <trkpt lat="46.86514" lon="-0.98737">
        <ele>145</ele>
        <time>2022-04-25T10:03:37Z</time>
      </trkpt>
      <trkpt lat="46.86527" lon="-0.98706">
        <ele>145</ele>
        <time>2022-04-25T10:03:41Z</time>
      </trkpt>
      <trkpt lat="46.86563" lon="-0.98597">
        <ele>148</ele>
        <time>2022-04-25T10:03:56Z</time>
      </trkpt>
      <trkpt lat="46.86601" lon="-0.98456">
        <ele>149</ele>
        <time>2022-04-25T10:04:15Z</time>
      </trkpt>
      <trkpt lat="46.86614" lon="-0.98397">
        <ele>148</ele>
        <time>2022-04-25T10:04:22Z</time>
      </trkpt>
      <trkpt lat="46.86619" lon="-0.98385">
        <ele>147</ele>
        <time>2022-04-25T10:04:24Z</time>
      </trkpt>
      <trkpt lat="46.86629" lon="-0.9837">
        <ele>146</ele>
        <time>2022-04-25T10:04:26Z</time>
      </trkpt>
      <trkpt lat="46.86629" lon="-0.98233">
        <ele>147</ele>
        <time>2022-04-25T10:04:43Z</time>
      </trkpt>
      <trkpt lat="46.86624" lon="-0.98135">
        <ele>150</ele>
        <time>2022-04-25T10:04:55Z</time>
      </trkpt>
      <trkpt lat="46.86637" lon="-0.98132">
        <ele>148</ele>
        <time>2022-04-25T10:04:57Z</time>
      </trkpt>
      <trkpt lat="46.8665" lon="-0.98123">
        <ele>147</ele>
        <time>2022-04-25T10:05:00Z</time>
      </trkpt>
      <trkpt lat="46.86692" lon="-0.98032">
        <ele>144</ele>
        <time>2022-04-25T10:05:13Z</time>
      </trkpt>
      <trkpt lat="46.86837" lon="-0.97683">
        <ele>138</ele>
        <time>2022-04-25T10:06:03Z</time>
      </trkpt>
      <trkpt lat="46.86945" lon="-0.97416">
        <ele>139</ele>
        <time>2022-04-25T10:06:41Z</time>
      </trkpt>
      <trkpt lat="46.86953" lon="-0.97379">
        <ele>140</ele>
        <time>2022-04-25T10:06:45Z</time>
      </trkpt>
      <trkpt lat="46.86954" lon="-0.9736">
        <ele>141</ele>
        <time>2022-04-25T10:06:48Z</time>
      </trkpt>
      <trkpt lat="46.86951" lon="-0.97352">
        <ele>141</ele>
        <time>2022-04-25T10:06:49Z</time>
      </trkpt>
      <trkpt lat="46.8695" lon="-0.97339">
        <ele>142</ele>
        <time>2022-04-25T10:06:50Z</time>
      </trkpt>
      <trkpt lat="46.86956" lon="-0.97324">
        <ele>142</ele>
        <time>2022-04-25T10:06:53Z</time>
      </trkpt>
      <trkpt lat="46.86964" lon="-0.97316">
        <ele>142</ele>
        <time>2022-04-25T10:06:54Z</time>
      </trkpt>
      <trkpt lat="46.86971" lon="-0.97303">
        <ele>142</ele>
        <time>2022-04-25T10:06:56Z</time>
      </trkpt>
      <trkpt lat="46.86978" lon="-0.97274">
        <ele>142</ele>
        <time>2022-04-25T10:07:00Z</time>
      </trkpt>
      <trkpt lat="46.86982" lon="-0.9725">
        <ele>142</ele>
        <time>2022-04-25T10:07:03Z</time>
      </trkpt>
      <trkpt lat="46.86985" lon="-0.97194">
        <ele>143</ele>
        <time>2022-04-25T10:07:10Z</time>
      </trkpt>
      <trkpt lat="46.87001" lon="-0.96834">
        <ele>144</ele>
        <time>2022-04-25T10:07:54Z</time>
      </trkpt>
      <trkpt lat="46.87009" lon="-0.96763">
        <ele>143</ele>
        <time>2022-04-25T10:08:02Z</time>
      </trkpt>
      <trkpt lat="46.87018" lon="-0.96705">
        <ele>143</ele>
        <time>2022-04-25T10:08:10Z</time>
      </trkpt>
      <trkpt lat="46.87037" lon="-0.96619">
        <ele>143</ele>
        <time>2022-04-25T10:08:21Z</time>
      </trkpt>
      <trkpt lat="46.87048" lon="-0.96579">
        <ele>143</ele>
        <time>2022-04-25T10:08:26Z</time>
      </trkpt>
      <trkpt lat="46.87062" lon="-0.96534">
        <ele>142</ele>
        <time>2022-04-25T10:08:32Z</time>
      </trkpt>
      <trkpt lat="46.87246" lon="-0.96059">
        <ele>147</ele>
        <time>2022-04-25T10:09:38Z</time>
      </trkpt>
      <trkpt lat="46.87266" lon="-0.95997">
        <ele>149</ele>
        <time>2022-04-25T10:09:47Z</time>
      </trkpt>
      <trkpt lat="46.87274" lon="-0.95957">
        <ele>149</ele>
        <time>2022-04-25T10:09:52Z</time>
      </trkpt>
      <trkpt lat="46.87283" lon="-0.95879">
        <ele>149</ele>
        <time>2022-04-25T10:10:01Z</time>
      </trkpt>
      <trkpt lat="46.87311" lon="-0.95551">
        <ele>151</ele>
        <time>2022-04-25T10:10:42Z</time>
      </trkpt>
      <trkpt lat="46.87312" lon="-0.95518">
        <ele>152</ele>
        <time>2022-04-25T10:10:46Z</time>
      </trkpt>
      <trkpt lat="46.8731" lon="-0.95485">
        <ele>152</ele>
        <time>2022-04-25T10:10:50Z</time>
      </trkpt>
      <trkpt lat="46.87308" lon="-0.9545">
        <ele>153</ele>
        <time>2022-04-25T10:10:54Z</time>
      </trkpt>
      <trkpt lat="46.87302" lon="-0.9541">
        <ele>153</ele>
        <time>2022-04-25T10:10:59Z</time>
      </trkpt>
      <trkpt lat="46.87283" lon="-0.95333">
        <ele>149</ele>
        <time>2022-04-25T10:11:09Z</time>
      </trkpt>
      <trkpt lat="46.87229" lon="-0.95185">
        <ele>145</ele>
        <time>2022-04-25T10:11:29Z</time>
      </trkpt>
      <trkpt lat="46.87213" lon="-0.95127">
        <ele>143</ele>
        <time>2022-04-25T10:11:37Z</time>
      </trkpt>
      <trkpt lat="46.87206" lon="-0.95091">
        <ele>142</ele>
        <time>2022-04-25T10:11:41Z</time>
      </trkpt>
      <trkpt lat="46.872" lon="-0.95052">
        <ele>140</ele>
        <time>2022-04-25T10:11:46Z</time>
      </trkpt>
      <trkpt lat="46.87197" lon="-0.95003">
        <ele>139</ele>
        <time>2022-04-25T10:11:52Z</time>
      </trkpt>
      <trkpt lat="46.87196" lon="-0.94969">
        <ele>137</ele>
        <time>2022-04-25T10:11:56Z</time>
      </trkpt>
      <trkpt lat="46.87198" lon="-0.94913">
        <ele>134</ele>
        <time>2022-04-25T10:12:03Z</time>
      </trkpt>
      <trkpt lat="46.87202" lon="-0.94879">
        <ele>133</ele>
        <time>2022-04-25T10:12:07Z</time>
      </trkpt>
      <trkpt lat="46.87254" lon="-0.94604">
        <ele>122</ele>
        <time>2022-04-25T10:12:42Z</time>
      </trkpt>
      <trkpt lat="46.87262" lon="-0.94569">
        <ele>123</ele>
        <time>2022-04-25T10:12:47Z</time>
      </trkpt>
      <trkpt lat="46.87415" lon="-0.93784">
        <ele>149</ele>
        <time>2022-04-25T10:14:26Z</time>
      </trkpt>
      <trkpt lat="46.87426" lon="-0.93717">
        <ele>151</ele>
        <time>2022-04-25T10:14:34Z</time>
      </trkpt>
      <trkpt lat="46.8743" lon="-0.93681">
        <ele>151</ele>
        <time>2022-04-25T10:14:39Z</time>
      </trkpt>
      <trkpt lat="46.87443" lon="-0.93435">
        <ele>156</ele>
        <time>2022-04-25T10:15:09Z</time>
      </trkpt>
      <trkpt lat="46.87451" lon="-0.93323">
        <ele>159</ele>
        <time>2022-04-25T10:15:22Z</time>
      </trkpt>
      <trkpt lat="46.8746" lon="-0.93278">
        <ele>160</ele>
        <time>2022-04-25T10:15:28Z</time>
      </trkpt>
      <trkpt lat="46.8747" lon="-0.93251">
        <ele>161</ele>
        <time>2022-04-25T10:15:32Z</time>
      </trkpt>
      <trkpt lat="46.87487" lon="-0.93218">
        <ele>162</ele>
        <time>2022-04-25T10:15:37Z</time>
      </trkpt>
      <trkpt lat="46.87498" lon="-0.93201">
        <ele>163</ele>
        <time>2022-04-25T10:15:40Z</time>
      </trkpt>
      <trkpt lat="46.87531" lon="-0.93159">
        <ele>168</ele>
        <time>2022-04-25T10:15:48Z</time>
      </trkpt>
      <trkpt lat="46.87543" lon="-0.93135">
        <ele>170</ele>
        <time>2022-04-25T10:15:51Z</time>
      </trkpt>
      <trkpt lat="46.87556" lon="-0.931">
        <ele>172</ele>
        <time>2022-04-25T10:15:56Z</time>
      </trkpt>
      <trkpt lat="46.87577" lon="-0.93016">
        <ele>178</ele>
        <time>2022-04-25T10:16:07Z</time>
      </trkpt>
      <trkpt lat="46.87589" lon="-0.92964">
        <ele>181</ele>
        <time>2022-04-25T10:16:14Z</time>
      </trkpt>
      <trkpt lat="46.87604" lon="-0.92876">
        <ele>186</ele>
        <time>2022-04-25T10:16:25Z</time>
      </trkpt>
      <trkpt lat="46.87621" lon="-0.92754">
        <ele>191</ele>
        <time>2022-04-25T10:16:40Z</time>
      </trkpt>
      <trkpt lat="46.87625" lon="-0.92684">
        <ele>189</ele>
        <time>2022-04-25T10:16:48Z</time>
      </trkpt>
      <trkpt lat="46.8762" lon="-0.92678">
        <ele>188</ele>
        <time>2022-04-25T10:16:49Z</time>
      </trkpt>
      <trkpt lat="46.87617" lon="-0.92669">
        <ele>187</ele>
        <time>2022-04-25T10:16:51Z</time>
      </trkpt>
      <trkpt lat="46.87616" lon="-0.9266">
        <ele>187</ele>
        <time>2022-04-25T10:16:52Z</time>
      </trkpt>
      <trkpt lat="46.87617" lon="-0.92651">
        <ele>187</ele>
        <time>2022-04-25T10:16:53Z</time>
      </trkpt>
      <trkpt lat="46.87619" lon="-0.92643">
        <ele>187</ele>
        <time>2022-04-25T10:16:54Z</time>
      </trkpt>
      <trkpt lat="46.87624" lon="-0.92636">
        <ele>187</ele>
        <time>2022-04-25T10:16:55Z</time>
      </trkpt>
      <trkpt lat="46.8764" lon="-0.92621">
        <ele>188</ele>
        <time>2022-04-25T10:16:59Z</time>
      </trkpt>
      <trkpt lat="46.8765" lon="-0.92592">
        <ele>188</ele>
        <time>2022-04-25T10:17:02Z</time>
      </trkpt>
      <trkpt lat="46.87677" lon="-0.92536">
        <ele>190</ele>
        <time>2022-04-25T10:17:11Z</time>
      </trkpt>
      <trkpt lat="46.87739" lon="-0.9242">
        <ele>193</ele>
        <time>2022-04-25T10:17:29Z</time>
      </trkpt>
      <trkpt lat="46.87753" lon="-0.92387">
        <ele>194</ele>
        <time>2022-04-25T10:17:33Z</time>
      </trkpt>
      <trkpt lat="46.87762" lon="-0.9235">
        <ele>195</ele>
        <time>2022-04-25T10:17:38Z</time>
      </trkpt>
      <trkpt lat="46.87791" lon="-0.92192">
        <ele>195</ele>
        <time>2022-04-25T10:17:58Z</time>
      </trkpt>
      <trkpt lat="46.878" lon="-0.92151">
        <ele>195</ele>
        <time>2022-04-25T10:18:03Z</time>
      </trkpt>
      <trkpt lat="46.87812" lon="-0.92111">
        <ele>194</ele>
        <time>2022-04-25T10:18:09Z</time>
      </trkpt>
      <trkpt lat="46.87907" lon="-0.91829">
        <ele>198</ele>
        <time>2022-04-25T10:18:47Z</time>
      </trkpt>
      <trkpt lat="46.87931" lon="-0.91762">
        <ele>201</ele>
        <time>2022-04-25T10:18:56Z</time>
      </trkpt>
      <trkpt lat="46.87944" lon="-0.91729">
        <ele>202</ele>
        <time>2022-04-25T10:19:01Z</time>
      </trkpt>
      <trkpt lat="46.88045" lon="-0.91505">
        <ele>206</ele>
        <time>2022-04-25T10:19:33Z</time>
      </trkpt>
      <trkpt lat="46.88064" lon="-0.91467">
        <ele>206</ele>
        <time>2022-04-25T10:19:39Z</time>
      </trkpt>
      <trkpt lat="46.88101" lon="-0.91411">
        <ele>207</ele>
        <time>2022-04-25T10:19:49Z</time>
      </trkpt>
      <trkpt lat="46.88187" lon="-0.91313">
        <ele>208</ele>
        <time>2022-04-25T10:20:08Z</time>
      </trkpt>
      <trkpt lat="46.88217" lon="-0.91275">
        <ele>210</ele>
        <time>2022-04-25T10:20:15Z</time>
      </trkpt>
      <trkpt lat="46.8828" lon="-0.91166">
        <ele>209</ele>
        <time>2022-04-25T10:20:32Z</time>
      </trkpt>
      <trkpt lat="46.88293" lon="-0.91139">
        <ele>208</ele>
        <time>2022-04-25T10:20:36Z</time>
      </trkpt>
      <trkpt lat="46.88303" lon="-0.91113">
        <ele>207</ele>
        <time>2022-04-25T10:20:40Z</time>
      </trkpt>
      <trkpt lat="46.88307" lon="-0.91064">
        <ele>205</ele>
        <time>2022-04-25T10:20:46Z</time>
      </trkpt>
      <trkpt lat="46.88301" lon="-0.91052">
        <ele>205</ele>
        <time>2022-04-25T10:20:48Z</time>
      </trkpt>
      <trkpt lat="46.88299" lon="-0.91044">
        <ele>205</ele>
        <time>2022-04-25T10:20:49Z</time>
      </trkpt>
      <trkpt lat="46.883" lon="-0.91029">
        <ele>204</ele>
        <time>2022-04-25T10:20:51Z</time>
      </trkpt>
      <trkpt lat="46.88303" lon="-0.91021">
        <ele>204</ele>
        <time>2022-04-25T10:20:52Z</time>
      </trkpt>
      <trkpt lat="46.88308" lon="-0.91013">
        <ele>204</ele>
        <time>2022-04-25T10:20:53Z</time>
      </trkpt>
      <trkpt lat="46.88315" lon="-0.91008">
        <ele>204</ele>
        <time>2022-04-25T10:20:55Z</time>
      </trkpt>
      <trkpt lat="46.8832" lon="-0.91006">
        <ele>205</ele>
        <time>2022-04-25T10:20:55Z</time>
      </trkpt>
      <trkpt lat="46.88327" lon="-0.90994">
        <ele>205</ele>
        <time>2022-04-25T10:20:57Z</time>
      </trkpt>
      <trkpt lat="46.88339" lon="-0.90958">
        <ele>206</ele>
        <time>2022-04-25T10:21:02Z</time>
      </trkpt>
      <trkpt lat="46.88363" lon="-0.90858">
        <ele>208</ele>
        <time>2022-04-25T10:21:15Z</time>
      </trkpt>
      <trkpt lat="46.88367" lon="-0.90812">
        <ele>208</ele>
        <time>2022-04-25T10:21:21Z</time>
      </trkpt>
      <trkpt lat="46.88365" lon="-0.90783">
        <ele>208</ele>
        <time>2022-04-25T10:21:24Z</time>
      </trkpt>
      <trkpt lat="46.88359" lon="-0.90744">
        <ele>207</ele>
        <time>2022-04-25T10:21:29Z</time>
      </trkpt>
      <trkpt lat="46.88315" lon="-0.90558">
        <ele>202</ele>
        <time>2022-04-25T10:21:53Z</time>
      </trkpt>
      <trkpt lat="46.88309" lon="-0.90521">
        <ele>201</ele>
        <time>2022-04-25T10:21:58Z</time>
      </trkpt>
      <trkpt lat="46.88307" lon="-0.90513">
        <ele>200</ele>
        <time>2022-04-25T10:21:59Z</time>
      </trkpt>
      <trkpt lat="46.88304" lon="-0.90508">
        <ele>200</ele>
        <time>2022-04-25T10:22:00Z</time>
      </trkpt>
      <trkpt lat="46.88299" lon="-0.90505">
        <ele>199</ele>
        <time>2022-04-25T10:22:01Z</time>
      </trkpt>
      <trkpt lat="46.88288" lon="-0.90507">
        <ele>198</ele>
        <time>2022-04-25T10:22:03Z</time>
      </trkpt>
      <trkpt lat="46.88241" lon="-0.90562">
        <ele>195</ele>
        <time>2022-04-25T10:22:13Z</time>
      </trkpt>
      <trkpt lat="46.88233" lon="-0.90568">
        <ele>195</ele>
        <time>2022-04-25T10:22:15Z</time>
      </trkpt>
      <trkpt lat="46.88221" lon="-0.90573">
        <ele>194</ele>
        <time>2022-04-25T10:22:17Z</time>
      </trkpt>
      <trkpt lat="46.88173" lon="-0.90583">
        <ele>191</ele>
        <time>2022-04-25T10:22:26Z</time>
      </trkpt>
      <trkpt lat="46.88162" lon="-0.90593">
        <ele>191</ele>
        <time>2022-04-25T10:22:28Z</time>
      </trkpt>
      <trkpt lat="46.88161" lon="-0.90599">
        <ele>191</ele>
        <time>2022-04-25T10:22:29Z</time>
      </trkpt>
      <trkpt lat="46.88148" lon="-0.90582">
        <ele>190</ele>
        <time>2022-04-25T10:22:32Z</time>
      </trkpt>
      <trkpt lat="46.88177" lon="-0.90396">
        <ele>185</ele>
        <time>2022-04-25T10:22:55Z</time>
      </trkpt>
      <trkpt lat="46.88231" lon="-0.90034">
        <ele>182</ele>
        <time>2022-04-25T10:23:40Z</time>
      </trkpt>
      <trkpt lat="46.88233" lon="-0.90015">
        <ele>182</ele>
        <time>2022-04-25T10:23:42Z</time>
      </trkpt>
      <trkpt lat="46.88365" lon="-0.90004">
        <ele>191</ele>
        <time>2022-04-25T10:24:06Z</time>
      </trkpt>
      <trkpt lat="46.88362" lon="-0.8999">
        <ele>190</ele>
        <time>2022-04-25T10:24:08Z</time>
      </trkpt>
      <trkpt lat="46.8836" lon="-0.89958">
        <ele>188</ele>
        <time>2022-04-25T10:24:12Z</time>
      </trkpt>
      <trkpt lat="46.88361" lon="-0.8995">
        <ele>188</ele>
        <time>2022-04-25T10:24:13Z</time>
      </trkpt>
      <trkpt lat="46.88365" lon="-0.89925">
        <ele>187</ele>
        <time>2022-04-25T10:24:16Z</time>
      </trkpt>
      <trkpt lat="46.88402" lon="-0.89794">
        <ele>184</ele>
        <time>2022-04-25T10:24:33Z</time>
      </trkpt>
      <trkpt lat="46.88444" lon="-0.89621">
        <ele>177</ele>
        <time>2022-04-25T10:24:55Z</time>
      </trkpt>
      <trkpt lat="46.88452" lon="-0.89594">
        <ele>175</ele>
        <time>2022-04-25T10:24:59Z</time>
      </trkpt>
      <trkpt lat="46.8849" lon="-0.89508">
        <ele>174</ele>
        <time>2022-04-25T10:25:11Z</time>
      </trkpt>
      <trkpt lat="46.88581" lon="-0.89316">
        <ele>184</ele>
        <time>2022-04-25T10:25:40Z</time>
      </trkpt>
      <trkpt lat="46.88591" lon="-0.89291">
        <ele>185</ele>
        <time>2022-04-25T10:25:43Z</time>
      </trkpt>
      <trkpt lat="46.88599" lon="-0.89261">
        <ele>184</ele>
        <time>2022-04-25T10:25:47Z</time>
      </trkpt>
      <trkpt lat="46.88605" lon="-0.8925">
        <ele>184</ele>
        <time>2022-04-25T10:25:49Z</time>
      </trkpt>
      <trkpt lat="46.88615" lon="-0.89236">
        <ele>184</ele>
        <time>2022-04-25T10:25:51Z</time>
      </trkpt>
      <trkpt lat="46.88628" lon="-0.89228">
        <ele>184</ele>
        <time>2022-04-25T10:25:54Z</time>
      </trkpt>
      <trkpt lat="46.88652" lon="-0.89225">
        <ele>185</ele>
        <time>2022-04-25T10:25:58Z</time>
      </trkpt>
      <trkpt lat="46.88775" lon="-0.89255">
        <ele>185</ele>
        <time>2022-04-25T10:26:20Z</time>
      </trkpt>
      <trkpt lat="46.888" lon="-0.89257">
        <ele>185</ele>
        <time>2022-04-25T10:26:25Z</time>
      </trkpt>
      <trkpt lat="46.88816" lon="-0.89252">
        <ele>185</ele>
        <time>2022-04-25T10:26:28Z</time>
      </trkpt>
      <trkpt lat="46.88829" lon="-0.89244">
        <ele>185</ele>
        <time>2022-04-25T10:26:30Z</time>
      </trkpt>
      <trkpt lat="46.8885" lon="-0.89222">
        <ele>186</ele>
        <time>2022-04-25T10:26:35Z</time>
      </trkpt>
      <trkpt lat="46.88861" lon="-0.89207">
        <ele>186</ele>
        <time>2022-04-25T10:26:38Z</time>
      </trkpt>
      <trkpt lat="46.88914" lon="-0.89102">
        <ele>188</ele>
        <time>2022-04-25T10:26:53Z</time>
      </trkpt>
      <trkpt lat="46.88928" lon="-0.89068">
        <ele>188</ele>
        <time>2022-04-25T10:26:58Z</time>
      </trkpt>
      <trkpt lat="46.88969" lon="-0.88912">
        <ele>188</ele>
        <time>2022-04-25T10:27:19Z</time>
      </trkpt>
      <trkpt lat="46.89021" lon="-0.88773">
        <ele>185</ele>
        <time>2022-04-25T10:27:38Z</time>
      </trkpt>
      <trkpt lat="46.89051" lon="-0.88703">
        <ele>184</ele>
        <time>2022-04-25T10:27:48Z</time>
      </trkpt>
      <trkpt lat="46.89082" lon="-0.88644">
        <ele>182</ele>
        <time>2022-04-25T10:27:57Z</time>
      </trkpt>
      <trkpt lat="46.89166" lon="-0.8851">
        <ele>180</ele>
        <time>2022-04-25T10:28:19Z</time>
      </trkpt>
      <trkpt lat="46.89184" lon="-0.88475">
        <ele>181</ele>
        <time>2022-04-25T10:28:24Z</time>
      </trkpt>
      <trkpt lat="46.89199" lon="-0.8844">
        <ele>181</ele>
        <time>2022-04-25T10:28:29Z</time>
      </trkpt>
      <trkpt lat="46.89223" lon="-0.88373">
        <ele>183</ele>
        <time>2022-04-25T10:28:39Z</time>
      </trkpt>
      <trkpt lat="46.89239" lon="-0.88315">
        <ele>185</ele>
        <time>2022-04-25T10:28:46Z</time>
      </trkpt>
      <trkpt lat="46.89303" lon="-0.88019">
        <ele>187</ele>
        <time>2022-04-25T10:29:24Z</time>
      </trkpt>
      <trkpt lat="46.89312" lon="-0.87984">
        <ele>187</ele>
        <time>2022-04-25T10:29:28Z</time>
      </trkpt>
      <trkpt lat="46.89325" lon="-0.87947">
        <ele>187</ele>
        <time>2022-04-25T10:29:34Z</time>
      </trkpt>
      <trkpt lat="46.89344" lon="-0.87905">
        <ele>187</ele>
        <time>2022-04-25T10:29:40Z</time>
      </trkpt>
      <trkpt lat="46.89369" lon="-0.87856">
        <ele>188</ele>
        <time>2022-04-25T10:29:47Z</time>
      </trkpt>
      <trkpt lat="46.89397" lon="-0.8781">
        <ele>188</ele>
        <time>2022-04-25T10:29:55Z</time>
      </trkpt>
      <trkpt lat="46.89419" lon="-0.87779">
        <ele>189</ele>
        <time>2022-04-25T10:30:00Z</time>
      </trkpt>
      <trkpt lat="46.89439" lon="-0.87755">
        <ele>189</ele>
        <time>2022-04-25T10:30:05Z</time>
      </trkpt>
      <trkpt lat="46.89462" lon="-0.87733">
        <ele>189</ele>
        <time>2022-04-25T10:30:09Z</time>
      </trkpt>
      <trkpt lat="46.89492" lon="-0.8771">
        <ele>190</ele>
        <time>2022-04-25T10:30:16Z</time>
      </trkpt>
      <trkpt lat="46.89559" lon="-0.87675">
        <ele>191</ele>
        <time>2022-04-25T10:30:28Z</time>
      </trkpt>
      <trkpt lat="46.89649" lon="-0.8764">
        <ele>194</ele>
        <time>2022-04-25T10:30:45Z</time>
      </trkpt>
      <trkpt lat="46.89702" lon="-0.87625">
        <ele>194</ele>
        <time>2022-04-25T10:30:54Z</time>
      </trkpt>
      <trkpt lat="46.89817" lon="-0.87623">
        <ele>191</ele>
        <time>2022-04-25T10:31:15Z</time>
      </trkpt>
      <trkpt lat="46.8985" lon="-0.87619">
        <ele>190</ele>
        <time>2022-04-25T10:31:21Z</time>
      </trkpt>
      <trkpt lat="46.89869" lon="-0.87614">
        <ele>189</ele>
        <time>2022-04-25T10:31:24Z</time>
      </trkpt>
      <trkpt lat="46.8989" lon="-0.87604">
        <ele>188</ele>
        <time>2022-04-25T10:31:28Z</time>
      </trkpt>
      <trkpt lat="46.90037" lon="-0.87507">
        <ele>181</ele>
        <time>2022-04-25T10:31:57Z</time>
      </trkpt>
      <trkpt lat="46.90063" lon="-0.87482">
        <ele>181</ele>
        <time>2022-04-25T10:32:02Z</time>
      </trkpt>
      <trkpt lat="46.90084" lon="-0.87454">
        <ele>181</ele>
        <time>2022-04-25T10:32:07Z</time>
      </trkpt>
      <trkpt lat="46.9014" lon="-0.87356">
        <ele>180</ele>
        <time>2022-04-25T10:32:23Z</time>
      </trkpt>
      <trkpt lat="46.90158" lon="-0.8733">
        <ele>180</ele>
        <time>2022-04-25T10:32:27Z</time>
      </trkpt>
      <trkpt lat="46.90173" lon="-0.87314">
        <ele>180</ele>
        <time>2022-04-25T10:32:31Z</time>
      </trkpt>
      <trkpt lat="46.90199" lon="-0.87299">
        <ele>179</ele>
        <time>2022-04-25T10:32:36Z</time>
      </trkpt>
      <trkpt lat="46.90212" lon="-0.87293">
        <ele>178</ele>
        <time>2022-04-25T10:32:38Z</time>
      </trkpt>
      <trkpt lat="46.90241" lon="-0.8729">
        <ele>178</ele>
        <time>2022-04-25T10:32:43Z</time>
      </trkpt>
      <trkpt lat="46.90533" lon="-0.87282">
        <ele>166</ele>
        <time>2022-04-25T10:33:35Z</time>
      </trkpt>
      <trkpt lat="46.90915" lon="-0.87224">
        <ele>145</ele>
        <time>2022-04-25T10:34:44Z</time>
      </trkpt>
      <trkpt lat="46.90973" lon="-0.87207">
        <ele>139</ele>
        <time>2022-04-25T10:34:54Z</time>
      </trkpt>
      <trkpt lat="46.91091" lon="-0.87134">
        <ele>128</ele>
        <time>2022-04-25T10:35:17Z</time>
      </trkpt>
      <trkpt lat="46.9111" lon="-0.87107">
        <ele>128</ele>
        <time>2022-04-25T10:35:22Z</time>
      </trkpt>
      <trkpt lat="46.91117" lon="-0.87088">
        <ele>128</ele>
        <time>2022-04-25T10:35:24Z</time>
      </trkpt>
      <trkpt lat="46.91117" lon="-0.87083">
        <ele>129</ele>
        <time>2022-04-25T10:35:25Z</time>
      </trkpt>
      <trkpt lat="46.9112" lon="-0.87074">
        <ele>129</ele>
        <time>2022-04-25T10:35:26Z</time>
      </trkpt>
      <trkpt lat="46.91117" lon="-0.87053">
        <ele>130</ele>
        <time>2022-04-25T10:35:29Z</time>
      </trkpt>
      <trkpt lat="46.91113" lon="-0.86971">
        <ele>132</ele>
        <time>2022-04-25T10:35:39Z</time>
      </trkpt>
      <trkpt lat="46.91111" lon="-0.86954">
        <ele>132</ele>
        <time>2022-04-25T10:35:41Z</time>
      </trkpt>
      <trkpt lat="46.91106" lon="-0.86939">
        <ele>132</ele>
        <time>2022-04-25T10:35:43Z</time>
      </trkpt>
      <trkpt lat="46.91054" lon="-0.86818">
        <ele>131</ele>
        <time>2022-04-25T10:36:00Z</time>
      </trkpt>
      <trkpt lat="46.91039" lon="-0.86787">
        <ele>130</ele>
        <time>2022-04-25T10:36:05Z</time>
      </trkpt>
      <trkpt lat="46.91025" lon="-0.86768">
        <ele>129</ele>
        <time>2022-04-25T10:36:08Z</time>
      </trkpt>
      <trkpt lat="46.91018" lon="-0.86754">
        <ele>128</ele>
        <time>2022-04-25T10:36:10Z</time>
      </trkpt>
      <trkpt lat="46.91014" lon="-0.86739">
        <ele>128</ele>
        <time>2022-04-25T10:36:12Z</time>
      </trkpt>
      <trkpt lat="46.91014" lon="-0.86725">
        <ele>127</ele>
        <time>2022-04-25T10:36:14Z</time>
      </trkpt>
      <trkpt lat="46.91065" lon="-0.8662">
        <ele>128</ele>
        <time>2022-04-25T10:36:30Z</time>
      </trkpt>
      <trkpt lat="46.91088" lon="-0.86578">
        <ele>129</ele>
        <time>2022-04-25T10:36:36Z</time>
      </trkpt>
      <trkpt lat="46.91117" lon="-0.86532">
        <ele>136</ele>
        <time>2022-04-25T10:36:44Z</time>
      </trkpt>
      <trkpt lat="46.91121" lon="-0.86529">
        <ele>136</ele>
        <time>2022-04-25T10:36:45Z</time>
      </trkpt>
      <trkpt lat="46.91128" lon="-0.8653">
        <ele>137</ele>
        <time>2022-04-25T10:36:46Z</time>
      </trkpt>
      <trkpt lat="46.91147" lon="-0.8654">
        <ele>138</ele>
        <time>2022-04-25T10:36:49Z</time>
      </trkpt>
      <trkpt lat="46.9116" lon="-0.86544">
        <ele>138</ele>
        <time>2022-04-25T10:36:52Z</time>
      </trkpt>
      <trkpt lat="46.91197" lon="-0.86546">
        <ele>138</ele>
        <time>2022-04-25T10:36:58Z</time>
      </trkpt>
      <trkpt lat="46.91207" lon="-0.86539">
        <ele>137</ele>
        <time>2022-04-25T10:37:00Z</time>
      </trkpt>
      <trkpt lat="46.91223" lon="-0.86521">
        <ele>137</ele>
        <time>2022-04-25T10:37:04Z</time>
      </trkpt>
      <trkpt lat="46.91238" lon="-0.86489">
        <ele>138</ele>
        <time>2022-04-25T10:37:09Z</time>
      </trkpt>
      <trkpt lat="46.91288" lon="-0.86343">
        <ele>140</ele>
        <time>2022-04-25T10:37:28Z</time>
      </trkpt>
      <trkpt lat="46.91304" lon="-0.86311">
        <ele>138</ele>
        <time>2022-04-25T10:37:33Z</time>
      </trkpt>
      <trkpt lat="46.91369" lon="-0.86187">
        <ele>137</ele>
        <time>2022-04-25T10:37:52Z</time>
      </trkpt>
      <trkpt lat="46.91379" lon="-0.86163">
        <ele>138</ele>
        <time>2022-04-25T10:37:56Z</time>
      </trkpt>
      <trkpt lat="46.91388" lon="-0.86124">
        <ele>139</ele>
        <time>2022-04-25T10:38:01Z</time>
      </trkpt>
      <trkpt lat="46.9139" lon="-0.86102">
        <ele>139</ele>
        <time>2022-04-25T10:38:03Z</time>
      </trkpt>
      <trkpt lat="46.91384" lon="-0.85972">
        <ele>143</ele>
        <time>2022-04-25T10:38:19Z</time>
      </trkpt>
      <trkpt lat="46.91403" lon="-0.85762">
        <ele>146</ele>
        <time>2022-04-25T10:38:45Z</time>
      </trkpt>
      <trkpt lat="46.91404" lon="-0.85736">
        <ele>147</ele>
        <time>2022-04-25T10:38:48Z</time>
      </trkpt>
      <trkpt lat="46.914" lon="-0.8564">
        <ele>149</ele>
        <time>2022-04-25T10:39:00Z</time>
      </trkpt>
      <trkpt lat="46.914" lon="-0.85616">
        <ele>150</ele>
        <time>2022-04-25T10:39:03Z</time>
      </trkpt>
      <trkpt lat="46.91402" lon="-0.85589">
        <ele>152</ele>
        <time>2022-04-25T10:39:06Z</time>
      </trkpt>
      <trkpt lat="46.91404" lon="-0.85573">
        <ele>153</ele>
        <time>2022-04-25T10:39:08Z</time>
      </trkpt>
      <trkpt lat="46.91433" lon="-0.85437">
        <ele>160</ele>
        <time>2022-04-25T10:39:25Z</time>
      </trkpt>
      <trkpt lat="46.91456" lon="-0.85352">
        <ele>159</ele>
        <time>2022-04-25T10:39:36Z</time>
      </trkpt>
      <trkpt lat="46.91463" lon="-0.85335">
        <ele>158</ele>
        <time>2022-04-25T10:39:39Z</time>
      </trkpt>
      <trkpt lat="46.91476" lon="-0.85313">
        <ele>157</ele>
        <time>2022-04-25T10:39:42Z</time>
      </trkpt>
      <trkpt lat="46.91513" lon="-0.85276">
        <ele>154</ele>
        <time>2022-04-25T10:39:50Z</time>
      </trkpt>
      <trkpt lat="46.91631" lon="-0.85166">
        <ele>164</ele>
        <time>2022-04-25T10:40:15Z</time>
      </trkpt>
      <trkpt lat="46.9167" lon="-0.85135">
        <ele>165</ele>
        <time>2022-04-25T10:40:23Z</time>
      </trkpt>
      <trkpt lat="46.91686" lon="-0.85126">
        <ele>165</ele>
        <time>2022-04-25T10:40:26Z</time>
      </trkpt>
      <trkpt lat="46.91706" lon="-0.85117">
        <ele>166</ele>
        <time>2022-04-25T10:40:30Z</time>
      </trkpt>
      <trkpt lat="46.91734" lon="-0.85112">
        <ele>166</ele>
        <time>2022-04-25T10:40:35Z</time>
      </trkpt>
      <trkpt lat="46.91814" lon="-0.85121">
        <ele>169</ele>
        <time>2022-04-25T10:40:49Z</time>
      </trkpt>
      <trkpt lat="46.91845" lon="-0.85118">
        <ele>171</ele>
        <time>2022-04-25T10:40:55Z</time>
      </trkpt>
      <trkpt lat="46.91902" lon="-0.85095">
        <ele>173</ele>
        <time>2022-04-25T10:41:05Z</time>
      </trkpt>
      <trkpt lat="46.91922" lon="-0.85077">
        <ele>175</ele>
        <time>2022-04-25T10:41:09Z</time>
      </trkpt>
      <trkpt lat="46.91928" lon="-0.85068">
        <ele>175</ele>
        <time>2022-04-25T10:41:11Z</time>
      </trkpt>
      <trkpt lat="46.91933" lon="-0.85051">
        <ele>176</ele>
        <time>2022-04-25T10:41:13Z</time>
      </trkpt>
      <trkpt lat="46.91949" lon="-0.84926">
        <ele>180</ele>
        <time>2022-04-25T10:41:29Z</time>
      </trkpt>
      <trkpt lat="46.91959" lon="-0.84868">
        <ele>182</ele>
        <time>2022-04-25T10:41:36Z</time>
      </trkpt>
      <trkpt lat="46.91962" lon="-0.84857">
        <ele>182</ele>
        <time>2022-04-25T10:41:37Z</time>
      </trkpt>
      <trkpt lat="46.9197" lon="-0.84846">
        <ele>182</ele>
        <time>2022-04-25T10:41:39Z</time>
      </trkpt>
      <trkpt lat="46.91981" lon="-0.8484">
        <ele>182</ele>
        <time>2022-04-25T10:41:41Z</time>
      </trkpt>
      <trkpt lat="46.92036" lon="-0.84839">
        <ele>182</ele>
        <time>2022-04-25T10:41:51Z</time>
      </trkpt>
      <trkpt lat="46.92044" lon="-0.84833">
        <ele>181</ele>
        <time>2022-04-25T10:41:53Z</time>
      </trkpt>
      <trkpt lat="46.92055" lon="-0.8482">
        <ele>182</ele>
        <time>2022-04-25T10:41:55Z</time>
      </trkpt>
      <trkpt lat="46.92073" lon="-0.84787">
        <ele>183</ele>
        <time>2022-04-25T10:42:00Z</time>
      </trkpt>
      <trkpt lat="46.92082" lon="-0.84776">
        <ele>183</ele>
        <time>2022-04-25T10:42:03Z</time>
      </trkpt>
      <trkpt lat="46.92105" lon="-0.84767">
        <ele>183</ele>
        <time>2022-04-25T10:42:07Z</time>
      </trkpt>
      <trkpt lat="46.92183" lon="-0.84724">
        <ele>183</ele>
        <time>2022-04-25T10:42:22Z</time>
      </trkpt>
      <trkpt lat="46.92232" lon="-0.84684">
        <ele>183</ele>
        <time>2022-04-25T10:42:32Z</time>
      </trkpt>
      <trkpt lat="46.92399" lon="-0.84574">
        <ele>187</ele>
        <time>2022-04-25T10:43:04Z</time>
      </trkpt>
      <trkpt lat="46.92457" lon="-0.84529">
        <ele>190</ele>
        <time>2022-04-25T10:43:16Z</time>
      </trkpt>
      <trkpt lat="46.92566" lon="-0.84437">
        <ele>191</ele>
        <time>2022-04-25T10:43:38Z</time>
      </trkpt>
      <trkpt lat="46.92587" lon="-0.84409">
        <ele>191</ele>
        <time>2022-04-25T10:43:43Z</time>
      </trkpt>
      <trkpt lat="46.92584" lon="-0.84401">
        <ele>191</ele>
        <time>2022-04-25T10:43:44Z</time>
      </trkpt>
      <trkpt lat="46.92587" lon="-0.84389">
        <ele>191</ele>
        <time>2022-04-25T10:43:46Z</time>
      </trkpt>
      <trkpt lat="46.92593" lon="-0.84384">
        <ele>191</ele>
        <time>2022-04-25T10:43:47Z</time>
      </trkpt>
      <trkpt lat="46.92599" lon="-0.84385">
        <ele>192</ele>
        <time>2022-04-25T10:43:48Z</time>
      </trkpt>
      <trkpt lat="46.92604" lon="-0.84392">
        <ele>192</ele>
        <time>2022-04-25T10:43:49Z</time>
      </trkpt>
      <trkpt lat="46.92633" lon="-0.84375">
        <ele>193</ele>
        <time>2022-04-25T10:43:55Z</time>
      </trkpt>
      <trkpt lat="46.93154" lon="-0.83855">
        <ele>202</ele>
        <time>2022-04-25T10:45:47Z</time>
      </trkpt>
      <trkpt lat="46.93178" lon="-0.83828">
        <ele>204</ele>
        <time>2022-04-25T10:45:53Z</time>
      </trkpt>
      <trkpt lat="46.93194" lon="-0.83806">
        <ele>205</ele>
        <time>2022-04-25T10:45:57Z</time>
      </trkpt>
      <trkpt lat="46.93207" lon="-0.83781">
        <ele>206</ele>
        <time>2022-04-25T10:46:00Z</time>
      </trkpt>
      <trkpt lat="46.93217" lon="-0.83757">
        <ele>208</ele>
        <time>2022-04-25T10:46:04Z</time>
      </trkpt>
      <trkpt lat="46.93255" lon="-0.83648">
        <ele>209</ele>
        <time>2022-04-25T10:46:19Z</time>
      </trkpt>
      <trkpt lat="46.93384" lon="-0.83289">
        <ele>206</ele>
        <time>2022-04-25T10:47:08Z</time>
      </trkpt>
      <trkpt lat="46.93388" lon="-0.83274">
        <ele>206</ele>
        <time>2022-04-25T10:47:10Z</time>
      </trkpt>
      <trkpt lat="46.93395" lon="-0.83255">
        <ele>206</ele>
        <time>2022-04-25T10:47:12Z</time>
      </trkpt>
      <trkpt lat="46.93399" lon="-0.83251">
        <ele>207</ele>
        <time>2022-04-25T10:47:13Z</time>
      </trkpt>
      <trkpt lat="46.93482" lon="-0.83508">
        <ele>206</ele>
        <time>2022-04-25T10:47:48Z</time>
      </trkpt>
      <trkpt lat="46.93548" lon="-0.83719">
        <ele>204</ele>
        <time>2022-04-25T10:48:16Z</time>
      </trkpt>
      <trkpt lat="46.93559" lon="-0.83746">
        <ele>203</ele>
        <time>2022-04-25T10:48:20Z</time>
      </trkpt>
      <trkpt lat="46.93583" lon="-0.83797">
        <ele>203</ele>
        <time>2022-04-25T10:48:27Z</time>
      </trkpt>
      <trkpt lat="46.93599" lon="-0.83825">
        <ele>202</ele>
        <time>2022-04-25T10:48:32Z</time>
      </trkpt>
      <trkpt lat="46.93666" lon="-0.83921">
        <ele>203</ele>
        <time>2022-04-25T10:48:49Z</time>
      </trkpt>
      <trkpt lat="46.94083" lon="-0.84516">
        <ele>195</ele>
        <time>2022-04-25T10:50:32Z</time>
      </trkpt>
      <trkpt lat="46.94215" lon="-0.847">
        <ele>199</ele>
        <time>2022-04-25T10:51:05Z</time>
      </trkpt>
      <trkpt lat="46.94232" lon="-0.84669">
        <ele>198</ele>
        <time>2022-04-25T10:51:09Z</time>
      </trkpt>
      <trkpt lat="46.94287" lon="-0.8459">
        <ele>193</ele>
        <time>2022-04-25T10:51:23Z</time>
      </trkpt>
      <trkpt lat="46.94306" lon="-0.84557">
        <ele>190</ele>
        <time>2022-04-25T10:51:28Z</time>
      </trkpt>
      <trkpt lat="46.94375" lon="-0.84407">
        <ele>182</ele>
        <time>2022-04-25T10:51:50Z</time>
      </trkpt>
      <trkpt lat="46.94466" lon="-0.84204">
        <ele>177</ele>
        <time>2022-04-25T10:52:20Z</time>
      </trkpt>
      <trkpt lat="46.94475" lon="-0.84175">
        <ele>176</ele>
        <time>2022-04-25T10:52:24Z</time>
      </trkpt>
      <trkpt lat="46.94484" lon="-0.84135">
        <ele>175</ele>
        <time>2022-04-25T10:52:29Z</time>
      </trkpt>
      <trkpt lat="46.94478" lon="-0.8413">
        <ele>175</ele>
        <time>2022-04-25T10:52:30Z</time>
      </trkpt>
      <trkpt lat="46.94475" lon="-0.8412">
        <ele>174</ele>
        <time>2022-04-25T10:52:31Z</time>
      </trkpt>
      <trkpt lat="46.94477" lon="-0.84111">
        <ele>174</ele>
        <time>2022-04-25T10:52:33Z</time>
      </trkpt>
      <trkpt lat="46.94482" lon="-0.84105">
        <ele>174</ele>
        <time>2022-04-25T10:52:34Z</time>
      </trkpt>
      <trkpt lat="46.94468" lon="-0.84064">
        <ele>174</ele>
        <time>2022-04-25T10:52:39Z</time>
      </trkpt>
      <trkpt lat="46.94441" lon="-0.83929">
        <ele>172</ele>
        <time>2022-04-25T10:52:56Z</time>
      </trkpt>
      <trkpt lat="46.94438" lon="-0.83901">
        <ele>171</ele>
        <time>2022-04-25T10:53:00Z</time>
      </trkpt>
      <trkpt lat="46.94439" lon="-0.83872">
        <ele>171</ele>
        <time>2022-04-25T10:53:03Z</time>
      </trkpt>
      <trkpt lat="46.94442" lon="-0.83852">
        <ele>171</ele>
        <time>2022-04-25T10:53:06Z</time>
      </trkpt>
      <trkpt lat="46.94452" lon="-0.83822">
        <ele>171</ele>
        <time>2022-04-25T10:53:10Z</time>
      </trkpt>
      <trkpt lat="46.94466" lon="-0.83799">
        <ele>171</ele>
        <time>2022-04-25T10:53:14Z</time>
      </trkpt>
      <trkpt lat="46.94481" lon="-0.83781">
        <ele>171</ele>
        <time>2022-04-25T10:53:17Z</time>
      </trkpt>
      <trkpt lat="46.94504" lon="-0.83765">
        <ele>171</ele>
        <time>2022-04-25T10:53:22Z</time>
      </trkpt>
      <trkpt lat="46.94695" lon="-0.837">
        <ele>167</ele>
        <time>2022-04-25T10:53:56Z</time>
      </trkpt>
      <trkpt lat="46.94709" lon="-0.8369">
        <ele>166</ele>
        <time>2022-04-25T10:53:59Z</time>
      </trkpt>
      <trkpt lat="46.94725" lon="-0.83683">
        <ele>166</ele>
        <time>2022-04-25T10:54:02Z</time>
      </trkpt>
      <trkpt lat="46.94757" lon="-0.83666">
        <ele>166</ele>
        <time>2022-04-25T10:54:08Z</time>
      </trkpt>
      <trkpt lat="46.94758" lon="-0.83656">
        <ele>165</ele>
        <time>2022-04-25T10:54:09Z</time>
      </trkpt>
      <trkpt lat="46.94774" lon="-0.83609">
        <ele>162</ele>
        <time>2022-04-25T10:54:16Z</time>
      </trkpt>
      <trkpt lat="46.94783" lon="-0.83574">
        <ele>159</ele>
        <time>2022-04-25T10:54:20Z</time>
      </trkpt>
      <trkpt lat="46.9479" lon="-0.8356">
        <ele>158</ele>
        <time>2022-04-25T10:54:22Z</time>
      </trkpt>
      <trkpt lat="46.94798" lon="-0.8355">
        <ele>156</ele>
        <time>2022-04-25T10:54:24Z</time>
      </trkpt>
      <trkpt lat="46.94808" lon="-0.83546">
        <ele>155</ele>
        <time>2022-04-25T10:54:26Z</time>
      </trkpt>
      <trkpt lat="46.94825" lon="-0.83546">
        <ele>155</ele>
        <time>2022-04-25T10:54:29Z</time>
      </trkpt>
      <trkpt lat="46.9485" lon="-0.83549">
        <ele>152</ele>
        <time>2022-04-25T10:54:34Z</time>
      </trkpt>
      <trkpt lat="46.94949" lon="-0.8358">
        <ele>141</ele>
        <time>2022-04-25T10:54:52Z</time>
      </trkpt>
      <trkpt lat="46.94983" lon="-0.83586">
        <ele>138</ele>
        <time>2022-04-25T10:54:58Z</time>
      </trkpt>
      <trkpt lat="46.95085" lon="-0.83629">
        <ele>135</ele>
        <time>2022-04-25T10:55:17Z</time>
      </trkpt>
      <trkpt lat="46.95117" lon="-0.83645">
        <ele>135</ele>
        <time>2022-04-25T10:55:23Z</time>
      </trkpt>
      <trkpt lat="46.95144" lon="-0.83664">
        <ele>135</ele>
        <time>2022-04-25T10:55:28Z</time>
      </trkpt>
      <trkpt lat="46.95278" lon="-0.83784">
        <ele>134</ele>
        <time>2022-04-25T10:55:56Z</time>
      </trkpt>
      <trkpt lat="46.95302" lon="-0.83807">
        <ele>134</ele>
        <time>2022-04-25T10:56:01Z</time>
      </trkpt>
      <trkpt lat="46.95325" lon="-0.83843">
        <ele>135</ele>
        <time>2022-04-25T10:56:07Z</time>
      </trkpt>
      <trkpt lat="46.95349" lon="-0.83892">
        <ele>135</ele>
        <time>2022-04-25T10:56:14Z</time>
      </trkpt>
      <trkpt lat="46.95358" lon="-0.83906">
        <ele>135</ele>
        <time>2022-04-25T10:56:17Z</time>
      </trkpt>
      <trkpt lat="46.95376" lon="-0.83913">
        <ele>135</ele>
        <time>2022-04-25T10:56:20Z</time>
      </trkpt>
      <trkpt lat="46.95384" lon="-0.83913">
        <ele>134</ele>
        <time>2022-04-25T10:56:21Z</time>
      </trkpt>
      <trkpt lat="46.95527" lon="-0.83816">
        <ele>126</ele>
        <time>2022-04-25T10:56:50Z</time>
      </trkpt>
      <trkpt lat="46.95538" lon="-0.83813">
        <ele>126</ele>
        <time>2022-04-25T10:56:51Z</time>
      </trkpt>
      <trkpt lat="46.9555" lon="-0.83815">
        <ele>125</ele>
        <time>2022-04-25T10:56:54Z</time>
      </trkpt>
      <trkpt lat="46.95674" lon="-0.83938">
        <ele>123</ele>
        <time>2022-04-25T10:57:20Z</time>
      </trkpt>
      <trkpt lat="46.95819" lon="-0.84061">
        <ele>118</ele>
        <time>2022-04-25T10:57:50Z</time>
      </trkpt>
      <trkpt lat="46.95844" lon="-0.8408">
        <ele>118</ele>
        <time>2022-04-25T10:57:55Z</time>
      </trkpt>
      <trkpt lat="46.95862" lon="-0.84088">
        <ele>117</ele>
        <time>2022-04-25T10:57:58Z</time>
      </trkpt>
      <trkpt lat="46.95911" lon="-0.84094">
        <ele>116</ele>
        <time>2022-04-25T10:58:07Z</time>
      </trkpt>
      <trkpt lat="46.95922" lon="-0.841">
        <ele>116</ele>
        <time>2022-04-25T10:58:09Z</time>
      </trkpt>
      <trkpt lat="46.95933" lon="-0.84109">
        <ele>116</ele>
        <time>2022-04-25T10:58:12Z</time>
      </trkpt>
      <trkpt lat="46.95979" lon="-0.84163">
        <ele>116</ele>
        <time>2022-04-25T10:58:22Z</time>
      </trkpt>
      <trkpt lat="46.95998" lon="-0.84179">
        <ele>116</ele>
        <time>2022-04-25T10:58:26Z</time>
      </trkpt>
      <trkpt lat="46.96056" lon="-0.84209">
        <ele>116</ele>
        <time>2022-04-25T10:58:37Z</time>
      </trkpt>
      <trkpt lat="46.9608" lon="-0.84212">
        <ele>116</ele>
        <time>2022-04-25T10:58:41Z</time>
      </trkpt>
      <trkpt lat="46.96103" lon="-0.84208">
        <ele>116</ele>
        <time>2022-04-25T10:58:45Z</time>
      </trkpt>
      <trkpt lat="46.96175" lon="-0.84188">
        <ele>115</ele>
        <time>2022-04-25T10:58:58Z</time>
      </trkpt>
      <trkpt lat="46.96194" lon="-0.84179">
        <ele>115</ele>
        <time>2022-04-25T10:59:02Z</time>
      </trkpt>
      <trkpt lat="46.96213" lon="-0.84163">
        <ele>115</ele>
        <time>2022-04-25T10:59:06Z</time>
      </trkpt>
      <trkpt lat="46.96228" lon="-0.84146">
        <ele>115</ele>
        <time>2022-04-25T10:59:09Z</time>
      </trkpt>
      <trkpt lat="46.96253" lon="-0.84118">
        <ele>116</ele>
        <time>2022-04-25T10:59:15Z</time>
      </trkpt>
      <trkpt lat="46.96269" lon="-0.84104">
        <ele>118</ele>
        <time>2022-04-25T10:59:18Z</time>
      </trkpt>
      <trkpt lat="46.96284" lon="-0.841">
        <ele>119</ele>
        <time>2022-04-25T10:59:21Z</time>
      </trkpt>
      <trkpt lat="46.96301" lon="-0.84103">
        <ele>121</ele>
        <time>2022-04-25T10:59:24Z</time>
      </trkpt>
      <trkpt lat="46.96374" lon="-0.84144">
        <ele>128</ele>
        <time>2022-04-25T10:59:38Z</time>
      </trkpt>
      <trkpt lat="46.96449" lon="-0.84176">
        <ele>137</ele>
        <time>2022-04-25T10:59:52Z</time>
      </trkpt>
      <trkpt lat="46.96471" lon="-0.8419">
        <ele>140</ele>
        <time>2022-04-25T10:59:56Z</time>
      </trkpt>
      <trkpt lat="46.96509" lon="-0.84242">
        <ele>142</ele>
        <time>2022-04-25T11:00:05Z</time>
      </trkpt>
      <trkpt lat="46.96531" lon="-0.84271">
        <ele>145</ele>
        <time>2022-04-25T11:00:10Z</time>
      </trkpt>
      <trkpt lat="46.9655" lon="-0.84285">
        <ele>147</ele>
        <time>2022-04-25T11:00:14Z</time>
      </trkpt>
      <trkpt lat="46.96584" lon="-0.84302">
        <ele>152</ele>
        <time>2022-04-25T11:00:21Z</time>
      </trkpt>
      <trkpt lat="46.96595" lon="-0.84312">
        <ele>152</ele>
        <time>2022-04-25T11:00:23Z</time>
      </trkpt>
      <trkpt lat="46.96604" lon="-0.84322">
        <ele>152</ele>
        <time>2022-04-25T11:00:25Z</time>
      </trkpt>
      <trkpt lat="46.96625" lon="-0.8436">
        <ele>153</ele>
        <time>2022-04-25T11:00:31Z</time>
      </trkpt>
      <trkpt lat="46.9664" lon="-0.84376">
        <ele>154</ele>
        <time>2022-04-25T11:00:34Z</time>
      </trkpt>
      <trkpt lat="46.96662" lon="-0.84389">
        <ele>156</ele>
        <time>2022-04-25T11:00:38Z</time>
      </trkpt>
      <trkpt lat="46.96731" lon="-0.84405">
        <ele>163</ele>
        <time>2022-04-25T11:00:51Z</time>
      </trkpt>
      <trkpt lat="46.96742" lon="-0.84404">
        <ele>164</ele>
        <time>2022-04-25T11:00:53Z</time>
      </trkpt>
      <trkpt lat="46.96752" lon="-0.84399">
        <ele>166</ele>
        <time>2022-04-25T11:00:55Z</time>
      </trkpt>
      <trkpt lat="46.96782" lon="-0.84376">
        <ele>167</ele>
        <time>2022-04-25T11:01:01Z</time>
      </trkpt>
      <trkpt lat="46.96793" lon="-0.84375">
        <ele>168</ele>
        <time>2022-04-25T11:01:03Z</time>
      </trkpt>
      <trkpt lat="46.96802" lon="-0.84385">
        <ele>168</ele>
        <time>2022-04-25T11:01:05Z</time>
      </trkpt>
      <trkpt lat="46.9687" lon="-0.84525">
        <ele>169</ele>
        <time>2022-04-25T11:01:25Z</time>
      </trkpt>
      <trkpt lat="46.96875" lon="-0.84533">
        <ele>169</ele>
        <time>2022-04-25T11:01:27Z</time>
      </trkpt>
      <trkpt lat="46.96886" lon="-0.84543">
        <ele>170</ele>
        <time>2022-04-25T11:01:29Z</time>
      </trkpt>
      <trkpt lat="46.96902" lon="-0.84544">
        <ele>170</ele>
        <time>2022-04-25T11:01:32Z</time>
      </trkpt>
      <trkpt lat="46.96926" lon="-0.84537">
        <ele>170</ele>
        <time>2022-04-25T11:01:36Z</time>
      </trkpt>
      <trkpt lat="46.96954" lon="-0.84536">
        <ele>170</ele>
        <time>2022-04-25T11:01:41Z</time>
      </trkpt>
      <trkpt lat="46.97018" lon="-0.84537">
        <ele>169</ele>
        <time>2022-04-25T11:01:53Z</time>
      </trkpt>
      <trkpt lat="46.97034" lon="-0.84544">
        <ele>169</ele>
        <time>2022-04-25T11:01:56Z</time>
      </trkpt>
      <trkpt lat="46.9709" lon="-0.84583">
        <ele>167</ele>
        <time>2022-04-25T11:02:07Z</time>
      </trkpt>
      <trkpt lat="46.97109" lon="-0.84592">
        <ele>167</ele>
        <time>2022-04-25T11:02:10Z</time>
      </trkpt>
      <trkpt lat="46.97124" lon="-0.84596">
        <ele>167</ele>
        <time>2022-04-25T11:02:13Z</time>
      </trkpt>
      <trkpt lat="46.9728" lon="-0.84606">
        <ele>158</ele>
        <time>2022-04-25T11:02:41Z</time>
      </trkpt>
      <trkpt lat="46.97316" lon="-0.84616">
        <ele>155</ele>
        <time>2022-04-25T11:02:47Z</time>
      </trkpt>
      <trkpt lat="46.97319" lon="-0.84619">
        <ele>154</ele>
        <time>2022-04-25T11:02:48Z</time>
      </trkpt>
      <trkpt lat="46.97364" lon="-0.84577">
        <ele>151</ele>
        <time>2022-04-25T11:02:57Z</time>
      </trkpt>
      <trkpt lat="46.97397" lon="-0.8454">
        <ele>147</ele>
        <time>2022-04-25T11:03:05Z</time>
      </trkpt>
      <trkpt lat="46.97455" lon="-0.84471">
        <ele>142</ele>
        <time>2022-04-25T11:03:18Z</time>
      </trkpt>
      <trkpt lat="46.97515" lon="-0.84412">
        <ele>140</ele>
        <time>2022-04-25T11:03:31Z</time>
      </trkpt>
      <trkpt lat="46.97537" lon="-0.84395">
        <ele>139</ele>
        <time>2022-04-25T11:03:35Z</time>
      </trkpt>
      <trkpt lat="46.9757" lon="-0.84379">
        <ele>138</ele>
        <time>2022-04-25T11:03:42Z</time>
      </trkpt>
      <trkpt lat="46.97598" lon="-0.84372">
        <ele>138</ele>
        <time>2022-04-25T11:03:47Z</time>
      </trkpt>
      <trkpt lat="46.97616" lon="-0.84374">
        <ele>138</ele>
        <time>2022-04-25T11:03:50Z</time>
      </trkpt>
      <trkpt lat="46.97815" lon="-0.84425">
        <ele>138</ele>
        <time>2022-04-25T11:04:26Z</time>
      </trkpt>
      <trkpt lat="46.97857" lon="-0.84429">
        <ele>139</ele>
        <time>2022-04-25T11:04:33Z</time>
      </trkpt>
      <trkpt lat="46.97906" lon="-0.84425">
        <ele>141</ele>
        <time>2022-04-25T11:04:42Z</time>
      </trkpt>
      <trkpt lat="46.9806" lon="-0.84408">
        <ele>143</ele>
        <time>2022-04-25T11:05:09Z</time>
      </trkpt>
      <trkpt lat="46.98093" lon="-0.84409">
        <ele>144</ele>
        <time>2022-04-25T11:05:15Z</time>
      </trkpt>
      <trkpt lat="46.98158" lon="-0.8442">
        <ele>144</ele>
        <time>2022-04-25T11:05:27Z</time>
      </trkpt>
      <trkpt lat="46.98315" lon="-0.84461">
        <ele>147</ele>
        <time>2022-04-25T11:05:55Z</time>
      </trkpt>
      <trkpt lat="46.98351" lon="-0.84466">
        <ele>148</ele>
        <time>2022-04-25T11:06:02Z</time>
      </trkpt>
      <trkpt lat="46.98477" lon="-0.8446">
        <ele>149</ele>
        <time>2022-04-25T11:06:24Z</time>
      </trkpt>
      <trkpt lat="46.98549" lon="-0.84461">
        <ele>150</ele>
        <time>2022-04-25T11:06:37Z</time>
      </trkpt>
      <trkpt lat="46.98761" lon="-0.84458">
        <ele>152</ele>
        <time>2022-04-25T11:07:15Z</time>
      </trkpt>
      <trkpt lat="46.98774" lon="-0.84456">
        <ele>152</ele>
        <time>2022-04-25T11:07:17Z</time>
      </trkpt>
      <trkpt lat="46.98777" lon="-0.84444">
        <ele>153</ele>
        <time>2022-04-25T11:07:19Z</time>
      </trkpt>
      <trkpt lat="46.98784" lon="-0.84437">
        <ele>153</ele>
        <time>2022-04-25T11:07:20Z</time>
      </trkpt>
      <trkpt lat="46.98789" lon="-0.84436">
        <ele>153</ele>
        <time>2022-04-25T11:07:21Z</time>
      </trkpt>
      <trkpt lat="46.98797" lon="-0.84439">
        <ele>153</ele>
        <time>2022-04-25T11:07:22Z</time>
      </trkpt>
      <trkpt lat="46.988" lon="-0.84444">
        <ele>153</ele>
        <time>2022-04-25T11:07:23Z</time>
      </trkpt>
      <trkpt lat="46.98851" lon="-0.84388">
        <ele>154</ele>
        <time>2022-04-25T11:07:35Z</time>
      </trkpt>
      <trkpt lat="46.98882" lon="-0.84353">
        <ele>155</ele>
        <time>2022-04-25T11:07:42Z</time>
      </trkpt>
      <trkpt lat="46.98934" lon="-0.84294">
        <ele>156</ele>
        <time>2022-04-25T11:07:53Z</time>
      </trkpt>
      <trkpt lat="46.98932" lon="-0.84287">
        <ele>156</ele>
        <time>2022-04-25T11:07:54Z</time>
      </trkpt>
      <trkpt lat="46.98933" lon="-0.84274">
        <ele>156</ele>
        <time>2022-04-25T11:07:56Z</time>
      </trkpt>
      <trkpt lat="46.98939" lon="-0.84263">
        <ele>156</ele>
        <time>2022-04-25T11:07:58Z</time>
      </trkpt>
      <trkpt lat="46.98943" lon="-0.8426">
        <ele>156</ele>
        <time>2022-04-25T11:07:58Z</time>
      </trkpt>
      <trkpt lat="46.98953" lon="-0.84262">
        <ele>156</ele>
        <time>2022-04-25T11:08:00Z</time>
      </trkpt>
      <trkpt lat="46.98957" lon="-0.84266">
        <ele>156</ele>
        <time>2022-04-25T11:08:01Z</time>
      </trkpt>
      <trkpt lat="46.9896" lon="-0.84275">
        <ele>156</ele>
        <time>2022-04-25T11:08:02Z</time>
      </trkpt>
      <trkpt lat="46.98978" lon="-0.84286">
        <ele>155</ele>
        <time>2022-04-25T11:08:06Z</time>
      </trkpt>
      <trkpt lat="46.99229" lon="-0.8432">
        <ele>152</ele>
        <time>2022-04-25T11:08:51Z</time>
      </trkpt>
      <trkpt lat="46.99265" lon="-0.84325">
        <ele>151</ele>
        <time>2022-04-25T11:08:57Z</time>
      </trkpt>
      <trkpt lat="46.99284" lon="-0.84325">
        <ele>150</ele>
        <time>2022-04-25T11:09:00Z</time>
      </trkpt>
      <trkpt lat="46.99334" lon="-0.84318">
        <ele>147</ele>
        <time>2022-04-25T11:09:09Z</time>
      </trkpt>
      <trkpt lat="46.9941" lon="-0.84298">
        <ele>145</ele>
        <time>2022-04-25T11:09:23Z</time>
      </trkpt>
      <trkpt lat="46.99538" lon="-0.84256">
        <ele>143</ele>
        <time>2022-04-25T11:09:46Z</time>
      </trkpt>
      <trkpt lat="46.9958" lon="-0.84244">
        <ele>143</ele>
        <time>2022-04-25T11:09:54Z</time>
      </trkpt>
      <trkpt lat="46.99599" lon="-0.84242">
        <ele>143</ele>
        <time>2022-04-25T11:09:57Z</time>
      </trkpt>
      <trkpt lat="46.99613" lon="-0.84243">
        <ele>142</ele>
        <time>2022-04-25T11:10:00Z</time>
      </trkpt>
      <trkpt lat="46.99649" lon="-0.8426">
        <ele>141</ele>
        <time>2022-04-25T11:10:07Z</time>
      </trkpt>
      <trkpt lat="46.99663" lon="-0.84264">
        <ele>141</ele>
        <time>2022-04-25T11:10:09Z</time>
      </trkpt>
      <trkpt lat="46.99676" lon="-0.84263">
        <ele>140</ele>
        <time>2022-04-25T11:10:11Z</time>
      </trkpt>
      <trkpt lat="46.99694" lon="-0.84252">
        <ele>140</ele>
        <time>2022-04-25T11:10:15Z</time>
      </trkpt>
      <trkpt lat="46.99872" lon="-0.84479">
        <ele>132</ele>
        <time>2022-04-25T11:10:57Z</time>
      </trkpt>
      <trkpt lat="46.99924" lon="-0.84541">
        <ele>130</ele>
        <time>2022-04-25T11:11:09Z</time>
      </trkpt>
      <trkpt lat="47.00064" lon="-0.84678">
        <ele>122</ele>
        <time>2022-04-25T11:11:39Z</time>
      </trkpt>
      <trkpt lat="47.00138" lon="-0.84774">
        <ele>119</ele>
        <time>2022-04-25T11:11:56Z</time>
      </trkpt>
      <trkpt lat="47.0018" lon="-0.84821">
        <ele>118</ele>
        <time>2022-04-25T11:12:06Z</time>
      </trkpt>
      <trkpt lat="47.00187" lon="-0.84815">
        <ele>118</ele>
        <time>2022-04-25T11:12:07Z</time>
      </trkpt>
      <trkpt lat="47.00191" lon="-0.84814">
        <ele>118</ele>
        <time>2022-04-25T11:12:08Z</time>
      </trkpt>
      <trkpt lat="47.00198" lon="-0.84817">
        <ele>118</ele>
        <time>2022-04-25T11:12:09Z</time>
      </trkpt>
      <trkpt lat="47.00204" lon="-0.84826">
        <ele>118</ele>
        <time>2022-04-25T11:12:11Z</time>
      </trkpt>
      <trkpt lat="47.00206" lon="-0.84833">
        <ele>118</ele>
        <time>2022-04-25T11:12:12Z</time>
      </trkpt>
      <trkpt lat="47.00204" lon="-0.84846">
        <ele>118</ele>
        <time>2022-04-25T11:12:13Z</time>
      </trkpt>
      <trkpt lat="47.0028" lon="-0.84899">
        <ele>116</ele>
        <time>2022-04-25T11:12:28Z</time>
      </trkpt>
      <trkpt lat="47.00305" lon="-0.8491">
        <ele>116</ele>
        <time>2022-04-25T11:12:33Z</time>
      </trkpt>
      <trkpt lat="47.00322" lon="-0.84925">
        <ele>115</ele>
        <time>2022-04-25T11:12:36Z</time>
      </trkpt>
      <trkpt lat="47.00346" lon="-0.84948">
        <ele>116</ele>
        <time>2022-04-25T11:12:41Z</time>
      </trkpt>
      <trkpt lat="47.0045" lon="-0.85061">
        <ele>121</ele>
        <time>2022-04-25T11:13:05Z</time>
      </trkpt>
      <trkpt lat="47.00461" lon="-0.85084">
        <ele>122</ele>
        <time>2022-04-25T11:13:08Z</time>
      </trkpt>
      <trkpt lat="47.00478" lon="-0.85066">
        <ele>121</ele>
        <time>2022-04-25T11:13:12Z</time>
      </trkpt>
      <trkpt lat="47.00495" lon="-0.85044">
        <ele>120</ele>
        <time>2022-04-25T11:13:16Z</time>
      </trkpt>
      <trkpt lat="47.00521" lon="-0.84995">
        <ele>117</ele>
        <time>2022-04-25T11:13:23Z</time>
      </trkpt>
      <trkpt lat="47.00533" lon="-0.84984">
        <ele>116</ele>
        <time>2022-04-25T11:13:26Z</time>
      </trkpt>
      <trkpt lat="47.00533" lon="-0.84949">
        <ele>115</ele>
        <time>2022-04-25T11:13:30Z</time>
      </trkpt>
      <trkpt lat="47.00536" lon="-0.84912">
        <ele>113</ele>
        <time>2022-04-25T11:13:35Z</time>
      </trkpt>
      <trkpt lat="47.00541" lon="-0.84883">
        <ele>113</ele>
        <time>2022-04-25T11:13:38Z</time>
      </trkpt>
      <trkpt lat="47.0055" lon="-0.84868">
        <ele>112</ele>
        <time>2022-04-25T11:13:41Z</time>
      </trkpt>
      <trkpt lat="47.00557" lon="-0.84859">
        <ele>112</ele>
        <time>2022-04-25T11:13:42Z</time>
      </trkpt>
      <trkpt lat="47.00566" lon="-0.84853">
        <ele>112</ele>
        <time>2022-04-25T11:13:44Z</time>
      </trkpt>
      <trkpt lat="47.0065" lon="-0.84828">
        <ele>114</ele>
        <time>2022-04-25T11:13:59Z</time>
      </trkpt>
      <trkpt lat="47.00721" lon="-0.84795">
        <ele>116</ele>
        <time>2022-04-25T11:14:12Z</time>
      </trkpt>
      <trkpt lat="47.00734" lon="-0.84791">
        <ele>116</ele>
        <time>2022-04-25T11:14:15Z</time>
      </trkpt>
      <trkpt lat="47.00808" lon="-0.84781">
        <ele>115</ele>
        <time>2022-04-25T11:14:28Z</time>
      </trkpt>
      <trkpt lat="47.0081" lon="-0.84769">
        <ele>116</ele>
        <time>2022-04-25T11:14:30Z</time>
      </trkpt>
      <trkpt lat="47.00818" lon="-0.84765">
        <ele>116</ele>
        <time>2022-04-25T11:14:31Z</time>
      </trkpt>
      <trkpt lat="47.00824" lon="-0.84769">
        <ele>115</ele>
        <time>2022-04-25T11:14:32Z</time>
      </trkpt>
      <trkpt lat="47.00827" lon="-0.84777">
        <ele>115</ele>
        <time>2022-04-25T11:14:33Z</time>
      </trkpt>
      <trkpt lat="47.00875" lon="-0.84769">
        <ele>116</ele>
        <time>2022-04-25T11:14:42Z</time>
      </trkpt>
      <trkpt lat="47.00897" lon="-0.84762">
        <ele>117</ele>
        <time>2022-04-25T11:14:46Z</time>
      </trkpt>
      <trkpt lat="47.00914" lon="-0.84753">
        <ele>118</ele>
        <time>2022-04-25T11:14:49Z</time>
      </trkpt>
      <trkpt lat="47.00946" lon="-0.84728">
        <ele>118</ele>
        <time>2022-04-25T11:14:56Z</time>
      </trkpt>
      <trkpt lat="47.01081" lon="-0.84582">
        <ele>120</ele>
        <time>2022-04-25T11:15:25Z</time>
      </trkpt>
      <trkpt lat="47.01112" lon="-0.84542">
        <ele>118</ele>
        <time>2022-04-25T11:15:33Z</time>
      </trkpt>
      <trkpt lat="47.0113" lon="-0.84514">
        <ele>117</ele>
        <time>2022-04-25T11:15:37Z</time>
      </trkpt>
      <trkpt lat="47.01213" lon="-0.84395">
        <ele>113</ele>
        <time>2022-04-25T11:15:58Z</time>
      </trkpt>
      <trkpt lat="47.01221" lon="-0.84386">
        <ele>112</ele>
        <time>2022-04-25T11:16:00Z</time>
      </trkpt>
      <trkpt lat="47.01248" lon="-0.84361">
        <ele>110</ele>
        <time>2022-04-25T11:16:06Z</time>
      </trkpt>
      <trkpt lat="47.0144" lon="-0.84207">
        <ele>100</ele>
        <time>2022-04-25T11:16:45Z</time>
      </trkpt>
      <trkpt lat="47.01479" lon="-0.84178">
        <ele>101</ele>
        <time>2022-04-25T11:16:52Z</time>
      </trkpt>
      <trkpt lat="47.01501" lon="-0.84168">
        <ele>101</ele>
        <time>2022-04-25T11:16:56Z</time>
      </trkpt>
      <trkpt lat="47.01835" lon="-0.84064">
        <ele>110</ele>
        <time>2022-04-25T11:17:57Z</time>
      </trkpt>
      <trkpt lat="47.0188" lon="-0.84041">
        <ele>110</ele>
        <time>2022-04-25T11:18:06Z</time>
      </trkpt>
      <trkpt lat="47.02115" lon="-0.83888">
        <ele>114</ele>
        <time>2022-04-25T11:18:51Z</time>
      </trkpt>
      <trkpt lat="47.02196" lon="-0.8383">
        <ele>114</ele>
        <time>2022-04-25T11:19:07Z</time>
      </trkpt>
      <trkpt lat="47.02215" lon="-0.83813">
        <ele>114</ele>
        <time>2022-04-25T11:19:11Z</time>
      </trkpt>
      <trkpt lat="47.02787" lon="-0.83234">
        <ele>101</ele>
        <time>2022-04-25T11:21:15Z</time>
      </trkpt>
      <trkpt lat="47.02958" lon="-0.83056">
        <ele>94</ele>
        <time>2022-04-25T11:21:52Z</time>
      </trkpt>
      <trkpt lat="47.03149" lon="-0.82862">
        <ele>86</ele>
        <time>2022-04-25T11:22:34Z</time>
      </trkpt>
      <trkpt lat="47.03201" lon="-0.82809">
        <ele>85</ele>
        <time>2022-04-25T11:22:45Z</time>
      </trkpt>
      <trkpt lat="47.03267" lon="-0.82743">
        <ele>87</ele>
        <time>2022-04-25T11:22:59Z</time>
      </trkpt>
      <trkpt lat="47.03513" lon="-0.82495">
        <ele>96</ele>
        <time>2022-04-25T11:23:52Z</time>
      </trkpt>
      <trkpt lat="47.03557" lon="-0.82452">
        <ele>98</ele>
        <time>2022-04-25T11:24:02Z</time>
      </trkpt>
      <trkpt lat="47.03609" lon="-0.82408">
        <ele>100</ele>
        <time>2022-04-25T11:24:12Z</time>
      </trkpt>
      <trkpt lat="47.03623" lon="-0.824">
        <ele>101</ele>
        <time>2022-04-25T11:24:15Z</time>
      </trkpt>
      <trkpt lat="47.03641" lon="-0.82394">
        <ele>101</ele>
        <time>2022-04-25T11:24:18Z</time>
      </trkpt>
      <trkpt lat="47.03697" lon="-0.82393">
        <ele>100</ele>
        <time>2022-04-25T11:24:28Z</time>
      </trkpt>
      <trkpt lat="47.03727" lon="-0.82382">
        <ele>100</ele>
        <time>2022-04-25T11:24:34Z</time>
      </trkpt>
      <trkpt lat="47.03757" lon="-0.82363">
        <ele>99</ele>
        <time>2022-04-25T11:24:40Z</time>
      </trkpt>
      <trkpt lat="47.03809" lon="-0.82339">
        <ele>98</ele>
        <time>2022-04-25T11:24:49Z</time>
      </trkpt>
      <trkpt lat="47.03824" lon="-0.8233">
        <ele>97</ele>
        <time>2022-04-25T11:24:52Z</time>
      </trkpt>
      <trkpt lat="47.03864" lon="-0.82283">
        <ele>95</ele>
        <time>2022-04-25T11:25:01Z</time>
      </trkpt>
      <trkpt lat="47.0388" lon="-0.8227">
        <ele>94</ele>
        <time>2022-04-25T11:25:05Z</time>
      </trkpt>
      <trkpt lat="47.03945" lon="-0.82245">
        <ele>90</ele>
        <time>2022-04-25T11:25:17Z</time>
      </trkpt>
      <trkpt lat="47.03978" lon="-0.82229">
        <ele>89</ele>
        <time>2022-04-25T11:25:23Z</time>
      </trkpt>
      <trkpt lat="47.04035" lon="-0.82203">
        <ele>89</ele>
        <time>2022-04-25T11:25:33Z</time>
      </trkpt>
      <trkpt lat="47.04093" lon="-0.82176">
        <ele>90</ele>
        <time>2022-04-25T11:25:44Z</time>
      </trkpt>
      <trkpt lat="47.04111" lon="-0.82171">
        <ele>91</ele>
        <time>2022-04-25T11:25:47Z</time>
      </trkpt>
      <trkpt lat="47.04133" lon="-0.82162">
        <ele>93</ele>
        <time>2022-04-25T11:25:51Z</time>
      </trkpt>
      <trkpt lat="47.04146" lon="-0.82147">
        <ele>94</ele>
        <time>2022-04-25T11:25:54Z</time>
      </trkpt>
      <trkpt lat="47.04154" lon="-0.82145">
        <ele>95</ele>
        <time>2022-04-25T11:25:56Z</time>
      </trkpt>
      <trkpt lat="47.04172" lon="-0.82124">
        <ele>97</ele>
        <time>2022-04-25T11:26:00Z</time>
      </trkpt>
      <trkpt lat="47.04184" lon="-0.82118">
        <ele>98</ele>
        <time>2022-04-25T11:26:02Z</time>
      </trkpt>
      <trkpt lat="47.042" lon="-0.8212">
        <ele>99</ele>
        <time>2022-04-25T11:26:05Z</time>
      </trkpt>
      <trkpt lat="47.04215" lon="-0.82117">
        <ele>100</ele>
        <time>2022-04-25T11:26:08Z</time>
      </trkpt>
      <trkpt lat="47.0447" lon="-0.81999">
        <ele>116</ele>
        <time>2022-04-25T11:26:55Z</time>
      </trkpt>
      <trkpt lat="47.0451" lon="-0.81977">
        <ele>118</ele>
        <time>2022-04-25T11:27:03Z</time>
      </trkpt>
      <trkpt lat="47.04534" lon="-0.81959">
        <ele>119</ele>
        <time>2022-04-25T11:27:08Z</time>
      </trkpt>
      <trkpt lat="47.04535" lon="-0.81971">
        <ele>119</ele>
        <time>2022-04-25T11:27:09Z</time>
      </trkpt>
      <trkpt lat="47.04534" lon="-0.81941">
        <ele>120</ele>
        <time>2022-04-25T11:27:13Z</time>
      </trkpt>
      <trkpt lat="47.04541" lon="-0.81828">
        <ele>119</ele>
        <time>2022-04-25T11:27:27Z</time>
      </trkpt>
      <trkpt lat="47.04541" lon="-0.81809">
        <ele>119</ele>
        <time>2022-04-25T11:27:29Z</time>
      </trkpt>
      <trkpt lat="47.04543" lon="-0.81799">
        <ele>119</ele>
        <time>2022-04-25T11:27:30Z</time>
      </trkpt>
      <trkpt lat="47.04546" lon="-0.81788">
        <ele>119</ele>
        <time>2022-04-25T11:27:32Z</time>
      </trkpt>
      <trkpt lat="47.04552" lon="-0.81779">
        <ele>120</ele>
        <time>2022-04-25T11:27:33Z</time>
      </trkpt>
      <trkpt lat="47.04569" lon="-0.81738">
        <ele>120</ele>
        <time>2022-04-25T11:27:39Z</time>
      </trkpt>
      <trkpt lat="47.04589" lon="-0.81678">
        <ele>120</ele>
        <time>2022-04-25T11:27:47Z</time>
      </trkpt>
      <trkpt lat="47.04597" lon="-0.81661">
        <ele>120</ele>
        <time>2022-04-25T11:27:50Z</time>
      </trkpt>
      <trkpt lat="47.0461" lon="-0.81642">
        <ele>120</ele>
        <time>2022-04-25T11:27:53Z</time>
      </trkpt>
      <trkpt lat="47.04617" lon="-0.81619">
        <ele>120</ele>
        <time>2022-04-25T11:27:56Z</time>
      </trkpt>
      <trkpt lat="47.04622" lon="-0.81612">
        <ele>120</ele>
        <time>2022-04-25T11:27:57Z</time>
      </trkpt>
      <trkpt lat="47.04629" lon="-0.8161">
        <ele>120</ele>
        <time>2022-04-25T11:27:58Z</time>
      </trkpt>
      <trkpt lat="47.0465" lon="-0.8161">
        <ele>120</ele>
        <time>2022-04-25T11:28:02Z</time>
      </trkpt>
      <trkpt lat="47.04658" lon="-0.81607">
        <ele>120</ele>
        <time>2022-04-25T11:28:04Z</time>
      </trkpt>
      <trkpt lat="47.04824" lon="-0.81478">
        <ele>126</ele>
        <time>2022-04-25T11:28:37Z</time>
      </trkpt>
      <trkpt lat="47.04846" lon="-0.81454">
        <ele>127</ele>
        <time>2022-04-25T11:28:42Z</time>
      </trkpt>
      <trkpt lat="47.04856" lon="-0.81448">
        <ele>128</ele>
        <time>2022-04-25T11:28:44Z</time>
      </trkpt>
      <trkpt lat="47.04862" lon="-0.81446">
        <ele>128</ele>
        <time>2022-04-25T11:28:45Z</time>
      </trkpt>
      <trkpt lat="47.04862" lon="-0.81432">
        <ele>128</ele>
        <time>2022-04-25T11:28:47Z</time>
      </trkpt>
      <trkpt lat="47.04867" lon="-0.8142">
        <ele>128</ele>
        <time>2022-04-25T11:28:48Z</time>
      </trkpt>
      <trkpt lat="47.04876" lon="-0.81414">
        <ele>129</ele>
        <time>2022-04-25T11:28:50Z</time>
      </trkpt>
      <trkpt lat="47.04886" lon="-0.81415">
        <ele>129</ele>
        <time>2022-04-25T11:28:52Z</time>
      </trkpt>
      <trkpt lat="47.0489" lon="-0.81419">
        <ele>129</ele>
        <time>2022-04-25T11:28:53Z</time>
      </trkpt>
      <trkpt lat="47.04909" lon="-0.81378">
        <ele>131</ele>
        <time>2022-04-25T11:28:59Z</time>
      </trkpt>
      <trkpt lat="47.04922" lon="-0.81359">
        <ele>131</ele>
        <time>2022-04-25T11:29:02Z</time>
      </trkpt>
      <trkpt lat="47.04946" lon="-0.81332">
        <ele>132</ele>
        <time>2022-04-25T11:29:07Z</time>
      </trkpt>
      <trkpt lat="47.0497" lon="-0.81314">
        <ele>133</ele>
        <time>2022-04-25T11:29:12Z</time>
      </trkpt>
      <trkpt lat="47.05037" lon="-0.81277">
        <ele>136</ele>
        <time>2022-04-25T11:29:25Z</time>
      </trkpt>
      <trkpt lat="47.05082" lon="-0.81249">
        <ele>138</ele>
        <time>2022-04-25T11:29:34Z</time>
      </trkpt>
      <trkpt lat="47.05122" lon="-0.81215">
        <ele>139</ele>
        <time>2022-04-25T11:29:42Z</time>
      </trkpt>
      <trkpt lat="47.05383" lon="-0.80975">
        <ele>142</ele>
        <time>2022-04-25T11:30:37Z</time>
      </trkpt>
      <trkpt lat="47.05412" lon="-0.80945">
        <ele>141</ele>
        <time>2022-04-25T11:30:43Z</time>
      </trkpt>
      <trkpt lat="47.05434" lon="-0.80918">
        <ele>142</ele>
        <time>2022-04-25T11:30:48Z</time>
      </trkpt>
      <trkpt lat="47.0546" lon="-0.80881">
        <ele>142</ele>
        <time>2022-04-25T11:30:54Z</time>
      </trkpt>
      <trkpt lat="47.05509" lon="-0.80798">
        <ele>143</ele>
        <time>2022-04-25T11:31:08Z</time>
      </trkpt>
      <trkpt lat="47.05542" lon="-0.80754">
        <ele>145</ele>
        <time>2022-04-25T11:31:16Z</time>
      </trkpt>
      <trkpt lat="47.05663" lon="-0.80627">
        <ele>148</ele>
        <time>2022-04-25T11:31:42Z</time>
      </trkpt>
      <trkpt lat="47.05705" lon="-0.80573">
        <ele>148</ele>
        <time>2022-04-25T11:31:52Z</time>
      </trkpt>
      <trkpt lat="47.05741" lon="-0.80515">
        <ele>148</ele>
        <time>2022-04-25T11:32:02Z</time>
      </trkpt>
      <trkpt lat="47.05774" lon="-0.8045">
        <ele>149</ele>
        <time>2022-04-25T11:32:11Z</time>
      </trkpt>
      <trkpt lat="47.05821" lon="-0.80334">
        <ele>151</ele>
        <time>2022-04-25T11:32:28Z</time>
      </trkpt>
      <trkpt lat="47.0584" lon="-0.80261">
        <ele>152</ele>
        <time>2022-04-25T11:32:37Z</time>
      </trkpt>
      <trkpt lat="47.05858" lon="-0.80155">
        <ele>152</ele>
        <time>2022-04-25T11:32:51Z</time>
      </trkpt>
      <trkpt lat="47.05866" lon="-0.80123">
        <ele>152</ele>
        <time>2022-04-25T11:32:55Z</time>
      </trkpt>
      <trkpt lat="47.05879" lon="-0.80096">
        <ele>152</ele>
        <time>2022-04-25T11:32:59Z</time>
      </trkpt>
      <trkpt lat="47.05894" lon="-0.80071">
        <ele>152</ele>
        <time>2022-04-25T11:33:03Z</time>
      </trkpt>
      <trkpt lat="47.05981" lon="-0.7999">
        <ele>151</ele>
        <time>2022-04-25T11:33:21Z</time>
      </trkpt>
      <trkpt lat="47.06006" lon="-0.79962">
        <ele>150</ele>
        <time>2022-04-25T11:33:27Z</time>
      </trkpt>
      <trkpt lat="47.06027" lon="-0.79934">
        <ele>150</ele>
        <time>2022-04-25T11:33:32Z</time>
      </trkpt>
      <trkpt lat="47.06124" lon="-0.7978">
        <ele>149</ele>
        <time>2022-04-25T11:33:57Z</time>
      </trkpt>
      <trkpt lat="47.06136" lon="-0.79768">
        <ele>149</ele>
        <time>2022-04-25T11:34:00Z</time>
      </trkpt>
      <trkpt lat="47.06164" lon="-0.79745">
        <ele>149</ele>
        <time>2022-04-25T11:34:05Z</time>
      </trkpt>
      <trkpt lat="47.06221" lon="-0.79648">
        <ele>147</ele>
        <time>2022-04-25T11:34:21Z</time>
      </trkpt>
      <trkpt lat="47.06419" lon="-0.79193">
        <ele>144</ele>
        <time>2022-04-25T11:35:26Z</time>
      </trkpt>
      <trkpt lat="47.06465" lon="-0.79082">
        <ele>142</ele>
        <time>2022-04-25T11:35:42Z</time>
      </trkpt>
      <trkpt lat="47.0657" lon="-0.7881">
        <ele>141</ele>
        <time>2022-04-25T11:36:20Z</time>
      </trkpt>
      <trkpt lat="47.066" lon="-0.78724">
        <ele>141</ele>
        <time>2022-04-25T11:36:32Z</time>
      </trkpt>
      <trkpt lat="47.06623" lon="-0.78667">
        <ele>141</ele>
        <time>2022-04-25T11:36:40Z</time>
      </trkpt>
      <trkpt lat="47.06637" lon="-0.78642">
        <ele>142</ele>
        <time>2022-04-25T11:36:44Z</time>
      </trkpt>
      <trkpt lat="47.06655" lon="-0.78621">
        <ele>143</ele>
        <time>2022-04-25T11:36:48Z</time>
      </trkpt>
      <trkpt lat="47.06899" lon="-0.78414">
        <ele>146</ele>
        <time>2022-04-25T11:37:38Z</time>
      </trkpt>
      <trkpt lat="47.07025" lon="-0.78303">
        <ele>147</ele>
        <time>2022-04-25T11:38:04Z</time>
      </trkpt>
      <trkpt lat="47.07055" lon="-0.78282">
        <ele>148</ele>
        <time>2022-04-25T11:38:10Z</time>
      </trkpt>
      <trkpt lat="47.07145" lon="-0.78232">
        <ele>148</ele>
        <time>2022-04-25T11:38:27Z</time>
      </trkpt>
      <trkpt lat="47.07163" lon="-0.78218">
        <ele>148</ele>
        <time>2022-04-25T11:38:31Z</time>
      </trkpt>
      <trkpt lat="47.07178" lon="-0.78204">
        <ele>149</ele>
        <time>2022-04-25T11:38:34Z</time>
      </trkpt>
      <trkpt lat="47.07271" lon="-0.78062">
        <ele>149</ele>
        <time>2022-04-25T11:38:58Z</time>
      </trkpt>
      <trkpt lat="47.07296" lon="-0.78031">
        <ele>149</ele>
        <time>2022-04-25T11:39:04Z</time>
      </trkpt>
      <trkpt lat="47.07431" lon="-0.77903">
        <ele>150</ele>
        <time>2022-04-25T11:39:32Z</time>
      </trkpt>
      <trkpt lat="47.0744" lon="-0.77896">
        <ele>150</ele>
        <time>2022-04-25T11:39:34Z</time>
      </trkpt>
      <trkpt lat="47.07453" lon="-0.77891">
        <ele>150</ele>
        <time>2022-04-25T11:39:36Z</time>
      </trkpt>
      <trkpt lat="47.07463" lon="-0.77895">
        <ele>151</ele>
        <time>2022-04-25T11:39:38Z</time>
      </trkpt>
      <trkpt lat="47.07576" lon="-0.78039">
        <ele>156</ele>
        <time>2022-04-25T11:40:05Z</time>
      </trkpt>
      <trkpt lat="47.07602" lon="-0.78069">
        <ele>157</ele>
        <time>2022-04-25T11:40:11Z</time>
      </trkpt>
      <trkpt lat="47.07732" lon="-0.78167">
        <ele>158</ele>
        <time>2022-04-25T11:40:37Z</time>
      </trkpt>
      <trkpt lat="47.07755" lon="-0.78192">
        <ele>158</ele>
        <time>2022-04-25T11:40:42Z</time>
      </trkpt>
      <trkpt lat="47.07781" lon="-0.78228">
        <ele>158</ele>
        <time>2022-04-25T11:40:48Z</time>
      </trkpt>
      <trkpt lat="47.0792" lon="-0.78439">
        <ele>164</ele>
        <time>2022-04-25T11:41:24Z</time>
      </trkpt>
      <trkpt lat="47.07953" lon="-0.78478">
        <ele>164</ele>
        <time>2022-04-25T11:41:31Z</time>
      </trkpt>
      <trkpt lat="47.08144" lon="-0.78642">
        <ele>156</ele>
        <time>2022-04-25T11:42:11Z</time>
      </trkpt>
      <trkpt lat="47.08187" lon="-0.78708">
        <ele>154</ele>
        <time>2022-04-25T11:42:22Z</time>
      </trkpt>
      <trkpt lat="47.08254" lon="-0.78768">
        <ele>154</ele>
        <time>2022-04-25T11:42:36Z</time>
      </trkpt>
      <trkpt lat="47.08334" lon="-0.78867">
        <ele>151</ele>
        <time>2022-04-25T11:42:54Z</time>
      </trkpt>
      <trkpt lat="47.08355" lon="-0.7889">
        <ele>151</ele>
        <time>2022-04-25T11:42:59Z</time>
      </trkpt>
      <trkpt lat="47.08394" lon="-0.78913">
        <ele>151</ele>
        <time>2022-04-25T11:43:06Z</time>
      </trkpt>
      <trkpt lat="47.08429" lon="-0.78925">
        <ele>150</ele>
        <time>2022-04-25T11:43:13Z</time>
      </trkpt>
      <trkpt lat="47.08507" lon="-0.78944">
        <ele>148</ele>
        <time>2022-04-25T11:43:27Z</time>
      </trkpt>
      <trkpt lat="47.08565" lon="-0.78966">
        <ele>147</ele>
        <time>2022-04-25T11:43:38Z</time>
      </trkpt>
      <trkpt lat="47.08603" lon="-0.78996">
        <ele>146</ele>
        <time>2022-04-25T11:43:45Z</time>
      </trkpt>
      <trkpt lat="47.08641" lon="-0.79043">
        <ele>145</ele>
        <time>2022-04-25T11:43:54Z</time>
      </trkpt>
      <trkpt lat="47.08803" lon="-0.79264">
        <ele>142</ele>
        <time>2022-04-25T11:44:33Z</time>
      </trkpt>
      <trkpt lat="47.08833" lon="-0.79297">
        <ele>140</ele>
        <time>2022-04-25T11:44:40Z</time>
      </trkpt>
      <trkpt lat="47.0885" lon="-0.7931">
        <ele>139</ele>
        <time>2022-04-25T11:44:43Z</time>
      </trkpt>
      <trkpt lat="47.08871" lon="-0.79319">
        <ele>137</ele>
        <time>2022-04-25T11:44:47Z</time>
      </trkpt>
      <trkpt lat="47.09014" lon="-0.79392">
        <ele>134</ele>
        <time>2022-04-25T11:45:14Z</time>
      </trkpt>
      <trkpt lat="47.09029" lon="-0.79396">
        <ele>134</ele>
        <time>2022-04-25T11:45:17Z</time>
      </trkpt>
      <trkpt lat="47.09146" lon="-0.79404">
        <ele>133</ele>
        <time>2022-04-25T11:45:38Z</time>
      </trkpt>
      <trkpt lat="47.09209" lon="-0.79404">
        <ele>133</ele>
        <time>2022-04-25T11:45:49Z</time>
      </trkpt>
      <trkpt lat="47.09211" lon="-0.79395">
        <ele>133</ele>
        <time>2022-04-25T11:45:50Z</time>
      </trkpt>
      <trkpt lat="47.09213" lon="-0.79392">
        <ele>133</ele>
        <time>2022-04-25T11:45:51Z</time>
      </trkpt>
      <trkpt lat="47.0922" lon="-0.79388">
        <ele>133</ele>
        <time>2022-04-25T11:45:52Z</time>
      </trkpt>
      <trkpt lat="47.09226" lon="-0.79391">
        <ele>133</ele>
        <time>2022-04-25T11:45:53Z</time>
      </trkpt>
      <trkpt lat="47.0923" lon="-0.79399">
        <ele>133</ele>
        <time>2022-04-25T11:45:54Z</time>
      </trkpt>
      <trkpt lat="47.09231" lon="-0.79404">
        <ele>132</ele>
        <time>2022-04-25T11:45:55Z</time>
      </trkpt>
      <trkpt lat="47.09353" lon="-0.79398">
        <ele>134</ele>
        <time>2022-04-25T11:46:17Z</time>
      </trkpt>
      <trkpt lat="47.09365" lon="-0.79395">
        <ele>135</ele>
        <time>2022-04-25T11:46:19Z</time>
      </trkpt>
      <trkpt lat="47.09374" lon="-0.79408">
        <ele>135</ele>
        <time>2022-04-25T11:46:21Z</time>
      </trkpt>
      <trkpt lat="47.09412" lon="-0.79443">
        <ele>135</ele>
        <time>2022-04-25T11:46:29Z</time>
      </trkpt>
      <trkpt lat="47.09432" lon="-0.79457">
        <ele>135</ele>
        <time>2022-04-25T11:46:33Z</time>
      </trkpt>
      <trkpt lat="47.0952" lon="-0.795">
        <ele>136</ele>
        <time>2022-04-25T11:46:50Z</time>
      </trkpt>
      <trkpt lat="47.09499" lon="-0.79585">
        <ele>134</ele>
        <time>2022-04-25T11:47:01Z</time>
      </trkpt>
      <trkpt lat="47.09467" lon="-0.79702">
        <ele>133</ele>
        <time>2022-04-25T11:47:16Z</time>
      </trkpt>
      <trkpt lat="47.09479" lon="-0.79703">
        <ele>133</ele>
        <time>2022-04-25T11:47:18Z</time>
      </trkpt>
      <trkpt lat="47.09678" lon="-0.79669">
        <ele>131</ele>
        <time>2022-04-25T11:47:54Z</time>
      </trkpt>
      <trkpt lat="47.11254" lon="-0.7938">
        <ele>120</ele>
        <time>2022-04-25T11:52:36Z</time>
      </trkpt>
      <trkpt lat="47.11303" lon="-0.79363">
        <ele>119</ele>
        <time>2022-04-25T11:52:45Z</time>
      </trkpt>
      <trkpt lat="47.11354" lon="-0.7934">
        <ele>116</ele>
        <time>2022-04-25T11:52:55Z</time>
      </trkpt>
      <trkpt lat="47.11466" lon="-0.79269">
        <ele>113</ele>
        <time>2022-04-25T11:53:16Z</time>
      </trkpt>
      <trkpt lat="47.11531" lon="-0.79233">
        <ele>112</ele>
        <time>2022-04-25T11:53:29Z</time>
      </trkpt>
      <trkpt lat="47.11578" lon="-0.79196">
        <ele>113</ele>
        <time>2022-04-25T11:53:38Z</time>
      </trkpt>
      <trkpt lat="47.11581" lon="-0.79205">
        <ele>113</ele>
        <time>2022-04-25T11:53:39Z</time>
      </trkpt>
      <trkpt lat="47.11759" lon="-0.7909">
        <ele>110</ele>
        <time>2022-04-25T11:54:14Z</time>
      </trkpt>
      <trkpt lat="47.11767" lon="-0.79079">
        <ele>110</ele>
        <time>2022-04-25T11:54:16Z</time>
      </trkpt>
      <trkpt lat="47.11787" lon="-0.79069">
        <ele>109</ele>
        <time>2022-04-25T11:54:20Z</time>
      </trkpt>
      <trkpt lat="47.11814" lon="-0.79052">
        <ele>109</ele>
        <time>2022-04-25T11:54:25Z</time>
      </trkpt>
      <trkpt lat="47.11973" lon="-0.78966">
        <ele>117</ele>
        <time>2022-04-25T11:54:55Z</time>
      </trkpt>
      <trkpt lat="47.12029" lon="-0.78938">
        <ele>120</ele>
        <time>2022-04-25T11:55:06Z</time>
      </trkpt>
      <trkpt lat="47.12042" lon="-0.78933">
        <ele>120</ele>
        <time>2022-04-25T11:55:08Z</time>
      </trkpt>
      <trkpt lat="47.121" lon="-0.78932">
        <ele>123</ele>
        <time>2022-04-25T11:55:18Z</time>
      </trkpt>
      <trkpt lat="47.12196" lon="-0.78872">
        <ele>121</ele>
        <time>2022-04-25T11:55:37Z</time>
      </trkpt>
      <trkpt lat="47.1228" lon="-0.78827">
        <ele>124</ele>
        <time>2022-04-25T11:55:53Z</time>
      </trkpt>
      <trkpt lat="47.12379" lon="-0.78802">
        <ele>128</ele>
        <time>2022-04-25T11:56:11Z</time>
      </trkpt>
      <trkpt lat="47.12401" lon="-0.78794">
        <ele>128</ele>
        <time>2022-04-25T11:56:15Z</time>
      </trkpt>
      <trkpt lat="47.12488" lon="-0.78696">
        <ele>135</ele>
        <time>2022-04-25T11:56:34Z</time>
      </trkpt>
      <trkpt lat="47.12698" lon="-0.78466">
        <ele>142</ele>
        <time>2022-04-25T11:57:21Z</time>
      </trkpt>
      <trkpt lat="47.12693" lon="-0.78455">
        <ele>142</ele>
        <time>2022-04-25T11:57:22Z</time>
      </trkpt>
      <trkpt lat="47.12691" lon="-0.78442">
        <ele>142</ele>
        <time>2022-04-25T11:57:24Z</time>
      </trkpt>
      <trkpt lat="47.12692" lon="-0.78429">
        <ele>142</ele>
        <time>2022-04-25T11:57:26Z</time>
      </trkpt>
      <trkpt lat="47.12695" lon="-0.78417">
        <ele>142</ele>
        <time>2022-04-25T11:57:27Z</time>
      </trkpt>
      <trkpt lat="47.12702" lon="-0.78407">
        <ele>142</ele>
        <time>2022-04-25T11:57:29Z</time>
      </trkpt>
      <trkpt lat="47.12709" lon="-0.78402">
        <ele>142</ele>
        <time>2022-04-25T11:57:30Z</time>
      </trkpt>
      <trkpt lat="47.12717" lon="-0.784">
        <ele>142</ele>
        <time>2022-04-25T11:57:32Z</time>
      </trkpt>
      <trkpt lat="47.12725" lon="-0.78402">
        <ele>142</ele>
        <time>2022-04-25T11:57:33Z</time>
      </trkpt>
      <trkpt lat="47.12733" lon="-0.78407">
        <ele>142</ele>
        <time>2022-04-25T11:57:35Z</time>
      </trkpt>
      <trkpt lat="47.12739" lon="-0.78415">
        <ele>142</ele>
        <time>2022-04-25T11:57:36Z</time>
      </trkpt>
      <trkpt lat="47.12743" lon="-0.78426">
        <ele>142</ele>
        <time>2022-04-25T11:57:38Z</time>
      </trkpt>
      <trkpt lat="47.12744" lon="-0.78437">
        <ele>142</ele>
        <time>2022-04-25T11:57:39Z</time>
      </trkpt>
      <trkpt lat="47.12743" lon="-0.78449">
        <ele>142</ele>
        <time>2022-04-25T11:57:40Z</time>
      </trkpt>
      <trkpt lat="47.1274" lon="-0.78459">
        <ele>142</ele>
        <time>2022-04-25T11:57:42Z</time>
      </trkpt>
      <trkpt lat="47.12735" lon="-0.78468">
        <ele>142</ele>
        <time>2022-04-25T11:57:43Z</time>
      </trkpt>
      <trkpt lat="47.12749" lon="-0.78496">
        <ele>142</ele>
        <time>2022-04-25T11:57:47Z</time>
      </trkpt>
      <trkpt lat="47.12766" lon="-0.78538">
        <ele>142</ele>
        <time>2022-04-25T11:57:53Z</time>
      </trkpt>
      <trkpt lat="47.12785" lon="-0.78592">
        <ele>141</ele>
        <time>2022-04-25T11:58:01Z</time>
      </trkpt>
      <trkpt lat="47.12798" lon="-0.78636">
        <ele>140</ele>
        <time>2022-04-25T11:58:06Z</time>
      </trkpt>
      <trkpt lat="47.12815" lon="-0.78654">
        <ele>140</ele>
        <time>2022-04-25T11:58:10Z</time>
      </trkpt>
      <trkpt lat="47.1285" lon="-0.78683">
        <ele>139</ele>
        <time>2022-04-25T11:58:17Z</time>
      </trkpt>
      <trkpt lat="47.12895" lon="-0.78718">
        <ele>138</ele>
        <time>2022-04-25T11:58:26Z</time>
      </trkpt>
      <trkpt lat="47.12917" lon="-0.78738">
        <ele>138</ele>
        <time>2022-04-25T11:58:31Z</time>
      </trkpt>
      <trkpt lat="47.12958" lon="-0.7877">
        <ele>141</ele>
        <time>2022-04-25T11:58:39Z</time>
      </trkpt>
      <trkpt lat="47.13006" lon="-0.78814">
        <ele>144</ele>
        <time>2022-04-25T11:58:49Z</time>
      </trkpt>
      <trkpt lat="47.13075" lon="-0.7889">
        <ele>144</ele>
        <time>2022-04-25T11:59:05Z</time>
      </trkpt>
      <trkpt lat="47.13076" lon="-0.78898">
        <ele>144</ele>
        <time>2022-04-25T11:59:06Z</time>
      </trkpt>
      <trkpt lat="47.13083" lon="-0.78901">
        <ele>144</ele>
        <time>2022-04-25T11:59:07Z</time>
      </trkpt>
      <trkpt lat="47.1311" lon="-0.78931">
        <ele>143</ele>
        <time>2022-04-25T11:59:13Z</time>
      </trkpt>
      <trkpt lat="47.13125" lon="-0.78941">
        <ele>142</ele>
        <time>2022-04-25T11:59:16Z</time>
      </trkpt>
      <trkpt lat="47.13143" lon="-0.78946">
        <ele>142</ele>
        <time>2022-04-25T11:59:19Z</time>
      </trkpt>
      <trkpt lat="47.13166" lon="-0.78948">
        <ele>142</ele>
        <time>2022-04-25T11:59:23Z</time>
      </trkpt>
      <trkpt lat="47.13178" lon="-0.78955">
        <ele>142</ele>
        <time>2022-04-25T11:59:26Z</time>
      </trkpt>
      <trkpt lat="47.13184" lon="-0.78962">
        <ele>142</ele>
        <time>2022-04-25T11:59:27Z</time>
      </trkpt>
      <trkpt lat="47.13192" lon="-0.78979">
        <ele>142</ele>
        <time>2022-04-25T11:59:29Z</time>
      </trkpt>
      <trkpt lat="47.13198" lon="-0.78999">
        <ele>142</ele>
        <time>2022-04-25T11:59:32Z</time>
      </trkpt>
      <trkpt lat="47.13199" lon="-0.79012">
        <ele>142</ele>
        <time>2022-04-25T11:59:34Z</time>
      </trkpt>
      <trkpt lat="47.13198" lon="-0.79058">
        <ele>142</ele>
        <time>2022-04-25T11:59:39Z</time>
      </trkpt>
      <trkpt lat="47.13202" lon="-0.7908">
        <ele>142</ele>
        <time>2022-04-25T11:59:42Z</time>
      </trkpt>
      <trkpt lat="47.13207" lon="-0.79097">
        <ele>142</ele>
        <time>2022-04-25T11:59:44Z</time>
      </trkpt>
      <trkpt lat="47.13217" lon="-0.79114">
        <ele>142</ele>
        <time>2022-04-25T11:59:47Z</time>
      </trkpt>
      <trkpt lat="47.13274" lon="-0.79187">
        <ele>143</ele>
        <time>2022-04-25T12:00:00Z</time>
      </trkpt>
      <trkpt lat="47.13293" lon="-0.79206">
        <ele>142</ele>
        <time>2022-04-25T12:00:04Z</time>
      </trkpt>
      <trkpt lat="47.13299" lon="-0.79211">
        <ele>142</ele>
        <time>2022-04-25T12:00:06Z</time>
      </trkpt>
      <trkpt lat="47.13318" lon="-0.79217">
        <ele>142</ele>
        <time>2022-04-25T12:00:09Z</time>
      </trkpt>
      <trkpt lat="47.134" lon="-0.79218">
        <ele>139</ele>
        <time>2022-04-25T12:00:24Z</time>
      </trkpt>
      <trkpt lat="47.13417" lon="-0.79221">
        <ele>139</ele>
        <time>2022-04-25T12:00:27Z</time>
      </trkpt>
      <trkpt lat="47.13426" lon="-0.79225">
        <ele>138</ele>
        <time>2022-04-25T12:00:28Z</time>
      </trkpt>
      <trkpt lat="47.13528" lon="-0.79284">
        <ele>132</ele>
        <time>2022-04-25T12:00:48Z</time>
      </trkpt>
      <trkpt lat="47.13578" lon="-0.79307">
        <ele>129</ele>
        <time>2022-04-25T12:00:57Z</time>
      </trkpt>
      <trkpt lat="47.13594" lon="-0.79312">
        <ele>128</ele>
        <time>2022-04-25T12:01:00Z</time>
      </trkpt>
      <trkpt lat="47.13613" lon="-0.79314">
        <ele>128</ele>
        <time>2022-04-25T12:01:04Z</time>
      </trkpt>
      <trkpt lat="47.13654" lon="-0.79312">
        <ele>127</ele>
        <time>2022-04-25T12:01:11Z</time>
      </trkpt>
      <trkpt lat="47.13737" lon="-0.79303">
        <ele>129</ele>
        <time>2022-04-25T12:01:26Z</time>
      </trkpt>
      <trkpt lat="47.13804" lon="-0.79311">
        <ele>132</ele>
        <time>2022-04-25T12:01:38Z</time>
      </trkpt>
      <trkpt lat="47.13917" lon="-0.79309">
        <ele>135</ele>
        <time>2022-04-25T12:01:58Z</time>
      </trkpt>
      <trkpt lat="47.13963" lon="-0.79312">
        <ele>134</ele>
        <time>2022-04-25T12:02:06Z</time>
      </trkpt>
      <trkpt lat="47.13982" lon="-0.79317">
        <ele>133</ele>
        <time>2022-04-25T12:02:09Z</time>
      </trkpt>
      <trkpt lat="47.14" lon="-0.79325">
        <ele>132</ele>
        <time>2022-04-25T12:02:13Z</time>
      </trkpt>
      <trkpt lat="47.14098" lon="-0.79383">
        <ele>129</ele>
        <time>2022-04-25T12:02:32Z</time>
      </trkpt>
      <trkpt lat="47.14112" lon="-0.79397">
        <ele>128</ele>
        <time>2022-04-25T12:02:35Z</time>
      </trkpt>
      <trkpt lat="47.14135" lon="-0.79437">
        <ele>127</ele>
        <time>2022-04-25T12:02:41Z</time>
      </trkpt>
      <trkpt lat="47.14142" lon="-0.79446">
        <ele>127</ele>
        <time>2022-04-25T12:02:43Z</time>
      </trkpt>
      <trkpt lat="47.1424" lon="-0.79506">
        <ele>125</ele>
        <time>2022-04-25T12:03:01Z</time>
      </trkpt>
      <trkpt lat="47.14281" lon="-0.79529">
        <ele>124</ele>
        <time>2022-04-25T12:03:09Z</time>
      </trkpt>
      <trkpt lat="47.14333" lon="-0.79553">
        <ele>123</ele>
        <time>2022-04-25T12:03:19Z</time>
      </trkpt>
      <trkpt lat="47.14467" lon="-0.79606">
        <ele>119</ele>
        <time>2022-04-25T12:03:44Z</time>
      </trkpt>
      <trkpt lat="47.14597" lon="-0.79683">
        <ele>114</ele>
        <time>2022-04-25T12:04:09Z</time>
      </trkpt>
      <trkpt lat="47.14657" lon="-0.79715">
        <ele>113</ele>
        <time>2022-04-25T12:04:20Z</time>
      </trkpt>
      <trkpt lat="47.1468" lon="-0.79721">
        <ele>113</ele>
        <time>2022-04-25T12:04:24Z</time>
      </trkpt>
      <trkpt lat="47.14768" lon="-0.79726">
        <ele>113</ele>
        <time>2022-04-25T12:04:40Z</time>
      </trkpt>
      <trkpt lat="47.14773" lon="-0.79729">
        <ele>114</ele>
        <time>2022-04-25T12:04:41Z</time>
      </trkpt>
      <trkpt lat="47.14777" lon="-0.79735">
        <ele>114</ele>
        <time>2022-04-25T12:04:42Z</time>
      </trkpt>
      <trkpt lat="47.14789" lon="-0.79766">
        <ele>115</ele>
        <time>2022-04-25T12:04:46Z</time>
      </trkpt>
      <trkpt lat="47.14796" lon="-0.79771">
        <ele>115</ele>
        <time>2022-04-25T12:04:47Z</time>
      </trkpt>
      <trkpt lat="47.14803" lon="-0.79771">
        <ele>115</ele>
        <time>2022-04-25T12:04:49Z</time>
      </trkpt>
      <trkpt lat="47.14835" lon="-0.79762">
        <ele>117</ele>
        <time>2022-04-25T12:04:54Z</time>
      </trkpt>
      <trkpt lat="47.1485" lon="-0.79763">
        <ele>117</ele>
        <time>2022-04-25T12:04:57Z</time>
      </trkpt>
      <trkpt lat="47.14895" lon="-0.79776">
        <ele>118</ele>
        <time>2022-04-25T12:05:05Z</time>
      </trkpt>
      <trkpt lat="47.14933" lon="-0.79795">
        <ele>119</ele>
        <time>2022-04-25T12:05:12Z</time>
      </trkpt>
      <trkpt lat="47.14997" lon="-0.79834">
        <ele>120</ele>
        <time>2022-04-25T12:05:25Z</time>
      </trkpt>
      <trkpt lat="47.15036" lon="-0.79845">
        <ele>120</ele>
        <time>2022-04-25T12:05:32Z</time>
      </trkpt>
      <trkpt lat="47.15046" lon="-0.79852">
        <ele>120</ele>
        <time>2022-04-25T12:05:34Z</time>
      </trkpt>
      <trkpt lat="47.1506" lon="-0.79864">
        <ele>121</ele>
        <time>2022-04-25T12:05:37Z</time>
      </trkpt>
      <trkpt lat="47.15262" lon="-0.80119">
        <ele>120</ele>
        <time>2022-04-25T12:06:24Z</time>
      </trkpt>
      <trkpt lat="47.15288" lon="-0.80145">
        <ele>120</ele>
        <time>2022-04-25T12:06:30Z</time>
      </trkpt>
      <trkpt lat="47.15316" lon="-0.80167">
        <ele>120</ele>
        <time>2022-04-25T12:06:35Z</time>
      </trkpt>
      <trkpt lat="47.15352" lon="-0.80189">
        <ele>119</ele>
        <time>2022-04-25T12:06:42Z</time>
      </trkpt>
      <trkpt lat="47.15372" lon="-0.80197">
        <ele>119</ele>
        <time>2022-04-25T12:06:46Z</time>
      </trkpt>
      <trkpt lat="47.15692" lon="-0.8023">
        <ele>119</ele>
        <time>2022-04-25T12:07:43Z</time>
      </trkpt>
      <trkpt lat="47.15707" lon="-0.80235">
        <ele>119</ele>
        <time>2022-04-25T12:07:46Z</time>
      </trkpt>
      <trkpt lat="47.15723" lon="-0.80244">
        <ele>118</ele>
        <time>2022-04-25T12:07:49Z</time>
      </trkpt>
      <trkpt lat="47.15794" lon="-0.80294">
        <ele>118</ele>
        <time>2022-04-25T12:08:03Z</time>
      </trkpt>
      <trkpt lat="47.15938" lon="-0.80366">
        <ele>116</ele>
        <time>2022-04-25T12:08:30Z</time>
      </trkpt>
      <trkpt lat="47.16012" lon="-0.80392">
        <ele>115</ele>
        <time>2022-04-25T12:08:43Z</time>
      </trkpt>
      <trkpt lat="47.16073" lon="-0.80411">
        <ele>114</ele>
        <time>2022-04-25T12:08:54Z</time>
      </trkpt>
      <trkpt lat="47.16159" lon="-0.80421">
        <ele>115</ele>
        <time>2022-04-25T12:09:10Z</time>
      </trkpt>
      <trkpt lat="47.1619" lon="-0.80418">
        <ele>114</ele>
        <time>2022-04-25T12:09:15Z</time>
      </trkpt>
      <trkpt lat="47.16235" lon="-0.80406">
        <ele>112</ele>
        <time>2022-04-25T12:09:24Z</time>
      </trkpt>
      <trkpt lat="47.16348" lon="-0.80362">
        <ele>111</ele>
        <time>2022-04-25T12:09:44Z</time>
      </trkpt>
      <trkpt lat="47.16448" lon="-0.80319">
        <ele>110</ele>
        <time>2022-04-25T12:10:03Z</time>
      </trkpt>
      <trkpt lat="47.16549" lon="-0.80272">
        <ele>109</ele>
        <time>2022-04-25T12:10:22Z</time>
      </trkpt>
      <trkpt lat="47.1663" lon="-0.80225">
        <ele>110</ele>
        <time>2022-04-25T12:10:37Z</time>
      </trkpt>
      <trkpt lat="47.16769" lon="-0.8017">
        <ele>110</ele>
        <time>2022-04-25T12:11:03Z</time>
      </trkpt>
      <trkpt lat="47.16784" lon="-0.80168">
        <ele>110</ele>
        <time>2022-04-25T12:11:05Z</time>
      </trkpt>
      <trkpt lat="47.16828" lon="-0.80169">
        <ele>109</ele>
        <time>2022-04-25T12:11:13Z</time>
      </trkpt>
      <trkpt lat="47.16844" lon="-0.80167">
        <ele>109</ele>
        <time>2022-04-25T12:11:16Z</time>
      </trkpt>
      <trkpt lat="47.16857" lon="-0.80163">
        <ele>109</ele>
        <time>2022-04-25T12:11:19Z</time>
      </trkpt>
      <trkpt lat="47.16869" lon="-0.80157">
        <ele>108</ele>
        <time>2022-04-25T12:11:21Z</time>
      </trkpt>
      <trkpt lat="47.16898" lon="-0.80134">
        <ele>108</ele>
        <time>2022-04-25T12:11:27Z</time>
      </trkpt>
      <trkpt lat="47.16929" lon="-0.801">
        <ele>106</ele>
        <time>2022-04-25T12:11:34Z</time>
      </trkpt>
      <trkpt lat="47.16939" lon="-0.80092">
        <ele>106</ele>
        <time>2022-04-25T12:11:36Z</time>
      </trkpt>
      <trkpt lat="47.16956" lon="-0.80082">
        <ele>106</ele>
        <time>2022-04-25T12:11:39Z</time>
      </trkpt>
      <trkpt lat="47.16972" lon="-0.80077">
        <ele>106</ele>
        <time>2022-04-25T12:11:42Z</time>
      </trkpt>
      <trkpt lat="47.1698" lon="-0.80077">
        <ele>106</ele>
        <time>2022-04-25T12:11:43Z</time>
      </trkpt>
      <trkpt lat="47.16998" lon="-0.80079">
        <ele>106</ele>
        <time>2022-04-25T12:11:46Z</time>
      </trkpt>
      <trkpt lat="47.17017" lon="-0.80087">
        <ele>106</ele>
        <time>2022-04-25T12:11:50Z</time>
      </trkpt>
      <trkpt lat="47.17057" lon="-0.80103">
        <ele>104</ele>
        <time>2022-04-25T12:11:57Z</time>
      </trkpt>
      <trkpt lat="47.17099" lon="-0.80119">
        <ele>104</ele>
        <time>2022-04-25T12:12:05Z</time>
      </trkpt>
      <trkpt lat="47.17123" lon="-0.8012">
        <ele>104</ele>
        <time>2022-04-25T12:12:09Z</time>
      </trkpt>
      <trkpt lat="47.17225" lon="-0.80092">
        <ele>106</ele>
        <time>2022-04-25T12:12:28Z</time>
      </trkpt>
      <trkpt lat="47.1731" lon="-0.80078">
        <ele>108</ele>
        <time>2022-04-25T12:12:43Z</time>
      </trkpt>
      <trkpt lat="47.17359" lon="-0.80065">
        <ele>109</ele>
        <time>2022-04-25T12:12:52Z</time>
      </trkpt>
      <trkpt lat="47.17414" lon="-0.80046">
        <ele>110</ele>
        <time>2022-04-25T12:13:02Z</time>
      </trkpt>
      <trkpt lat="47.17427" lon="-0.80045">
        <ele>111</ele>
        <time>2022-04-25T12:13:04Z</time>
      </trkpt>
      <trkpt lat="47.17506" lon="-0.8014">
        <ele>113</ele>
        <time>2022-04-25T12:13:22Z</time>
      </trkpt>
      <trkpt lat="47.17525" lon="-0.80154">
        <ele>114</ele>
        <time>2022-04-25T12:13:26Z</time>
      </trkpt>
      <trkpt lat="47.17556" lon="-0.80172">
        <ele>116</ele>
        <time>2022-04-25T12:13:32Z</time>
      </trkpt>
      <trkpt lat="47.17592" lon="-0.80187">
        <ele>117</ele>
        <time>2022-04-25T12:13:39Z</time>
      </trkpt>
      <trkpt lat="47.17627" lon="-0.80194">
        <ele>116</ele>
        <time>2022-04-25T12:13:45Z</time>
      </trkpt>
      <trkpt lat="47.17664" lon="-0.80195">
        <ele>116</ele>
        <time>2022-04-25T12:13:52Z</time>
      </trkpt>
      <trkpt lat="47.17733" lon="-0.80191">
        <ele>117</ele>
        <time>2022-04-25T12:14:04Z</time>
      </trkpt>
      <trkpt lat="47.17907" lon="-0.80206">
        <ele>114</ele>
        <time>2022-04-25T12:14:35Z</time>
      </trkpt>
      <trkpt lat="47.17926" lon="-0.80205">
        <ele>114</ele>
        <time>2022-04-25T12:14:38Z</time>
      </trkpt>
      <trkpt lat="47.1798" lon="-0.80194">
        <ele>113</ele>
        <time>2022-04-25T12:14:48Z</time>
      </trkpt>
      <trkpt lat="47.18034" lon="-0.80194">
        <ele>114</ele>
        <time>2022-04-25T12:14:58Z</time>
      </trkpt>
      <trkpt lat="47.1813" lon="-0.80204">
        <ele>115</ele>
        <time>2022-04-25T12:15:15Z</time>
      </trkpt>
      <trkpt lat="47.18163" lon="-0.80209">
        <ele>115</ele>
        <time>2022-04-25T12:15:21Z</time>
      </trkpt>
      <trkpt lat="47.18215" lon="-0.80221">
        <ele>114</ele>
        <time>2022-04-25T12:15:30Z</time>
      </trkpt>
      <trkpt lat="47.18274" lon="-0.80227">
        <ele>114</ele>
        <time>2022-04-25T12:15:40Z</time>
      </trkpt>
      <trkpt lat="47.18294" lon="-0.80226">
        <ele>114</ele>
        <time>2022-04-25T12:15:44Z</time>
      </trkpt>
      <trkpt lat="47.18312" lon="-0.80222">
        <ele>114</ele>
        <time>2022-04-25T12:15:47Z</time>
      </trkpt>
      <trkpt lat="47.18406" lon="-0.8018">
        <ele>116</ele>
        <time>2022-04-25T12:16:05Z</time>
      </trkpt>
      <trkpt lat="47.18478" lon="-0.80128">
        <ele>114</ele>
        <time>2022-04-25T12:16:19Z</time>
      </trkpt>
      <trkpt lat="47.18501" lon="-0.80113">
        <ele>113</ele>
        <time>2022-04-25T12:16:23Z</time>
      </trkpt>
      <trkpt lat="47.18553" lon="-0.80084">
        <ele>111</ele>
        <time>2022-04-25T12:16:33Z</time>
      </trkpt>
      <trkpt lat="47.18706" lon="-0.79984">
        <ele>109</ele>
        <time>2022-04-25T12:17:03Z</time>
      </trkpt>
      <trkpt lat="47.18857" lon="-0.79875">
        <ele>110</ele>
        <time>2022-04-25T12:17:33Z</time>
      </trkpt>
      <trkpt lat="47.18891" lon="-0.79846">
        <ele>111</ele>
        <time>2022-04-25T12:17:40Z</time>
      </trkpt>
      <trkpt lat="47.18993" lon="-0.79748">
        <ele>111</ele>
        <time>2022-04-25T12:18:02Z</time>
      </trkpt>
      <trkpt lat="47.19009" lon="-0.79731">
        <ele>111</ele>
        <time>2022-04-25T12:18:05Z</time>
      </trkpt>
      <trkpt lat="47.19044" lon="-0.79703">
        <ele>111</ele>
        <time>2022-04-25T12:18:12Z</time>
      </trkpt>
      <trkpt lat="47.19048" lon="-0.79695">
        <ele>111</ele>
        <time>2022-04-25T12:18:14Z</time>
      </trkpt>
      <trkpt lat="47.19058" lon="-0.79695">
        <ele>111</ele>
        <time>2022-04-25T12:18:15Z</time>
      </trkpt>
      <trkpt lat="47.19124" lon="-0.79669">
        <ele>111</ele>
        <time>2022-04-25T12:18:27Z</time>
      </trkpt>
      <trkpt lat="47.19175" lon="-0.79655">
        <ele>111</ele>
        <time>2022-04-25T12:18:37Z</time>
      </trkpt>
      <trkpt lat="47.19262" lon="-0.79647">
        <ele>112</ele>
        <time>2022-04-25T12:18:52Z</time>
      </trkpt>
      <trkpt lat="47.19356" lon="-0.79649">
        <ele>111</ele>
        <time>2022-04-25T12:19:09Z</time>
      </trkpt>
      <trkpt lat="47.19375" lon="-0.79646">
        <ele>112</ele>
        <time>2022-04-25T12:19:12Z</time>
      </trkpt>
      <trkpt lat="47.19436" lon="-0.79632">
        <ele>112</ele>
        <time>2022-04-25T12:19:23Z</time>
      </trkpt>
      <trkpt lat="47.19488" lon="-0.79629">
        <ele>112</ele>
        <time>2022-04-25T12:19:33Z</time>
      </trkpt>
      <trkpt lat="47.19541" lon="-0.79622">
        <ele>112</ele>
        <time>2022-04-25T12:19:42Z</time>
      </trkpt>
      <trkpt lat="47.19594" lon="-0.79607">
        <ele>112</ele>
        <time>2022-04-25T12:19:52Z</time>
      </trkpt>
      <trkpt lat="47.19743" lon="-0.79539">
        <ele>110</ele>
        <time>2022-04-25T12:20:19Z</time>
      </trkpt>
      <trkpt lat="47.19787" lon="-0.79527">
        <ele>110</ele>
        <time>2022-04-25T12:20:27Z</time>
      </trkpt>
      <trkpt lat="47.20035" lon="-0.79484">
        <ele>108</ele>
        <time>2022-04-25T12:21:12Z</time>
      </trkpt>
      <trkpt lat="47.201" lon="-0.79481">
        <ele>107</ele>
        <time>2022-04-25T12:21:23Z</time>
      </trkpt>
      <trkpt lat="47.20131" lon="-0.79483">
        <ele>106</ele>
        <time>2022-04-25T12:21:29Z</time>
      </trkpt>
      <trkpt lat="47.20207" lon="-0.79493">
        <ele>105</ele>
        <time>2022-04-25T12:21:42Z</time>
      </trkpt>
      <trkpt lat="47.20257" lon="-0.79513">
        <ele>105</ele>
        <time>2022-04-25T12:21:52Z</time>
      </trkpt>
      <trkpt lat="47.20308" lon="-0.79536">
        <ele>104</ele>
        <time>2022-04-25T12:22:01Z</time>
      </trkpt>
      <trkpt lat="47.20384" lon="-0.79575">
        <ele>103</ele>
        <time>2022-04-25T12:22:16Z</time>
      </trkpt>
      <trkpt lat="47.20456" lon="-0.79618">
        <ele>103</ele>
        <time>2022-04-25T12:22:29Z</time>
      </trkpt>
      <trkpt lat="47.20472" lon="-0.79621">
        <ele>103</ele>
        <time>2022-04-25T12:22:32Z</time>
      </trkpt>
      <trkpt lat="47.20615" lon="-0.79573">
        <ele>104</ele>
        <time>2022-04-25T12:22:58Z</time>
      </trkpt>
      <trkpt lat="47.20683" lon="-0.79534">
        <ele>104</ele>
        <time>2022-04-25T12:23:11Z</time>
      </trkpt>
      <trkpt lat="47.20761" lon="-0.79504">
        <ele>100</ele>
        <time>2022-04-25T12:23:26Z</time>
      </trkpt>
      <trkpt lat="47.20791" lon="-0.79499">
        <ele>100</ele>
        <time>2022-04-25T12:23:31Z</time>
      </trkpt>
      <trkpt lat="47.20837" lon="-0.795">
        <ele>99</ele>
        <time>2022-04-25T12:23:39Z</time>
      </trkpt>
      <trkpt lat="47.20931" lon="-0.79495">
        <ele>99</ele>
        <time>2022-04-25T12:23:56Z</time>
      </trkpt>
      <trkpt lat="47.20979" lon="-0.79488">
        <ele>98</ele>
        <time>2022-04-25T12:24:05Z</time>
      </trkpt>
      <trkpt lat="47.21011" lon="-0.79486">
        <ele>98</ele>
        <time>2022-04-25T12:24:10Z</time>
      </trkpt>
      <trkpt lat="47.21037" lon="-0.79487">
        <ele>98</ele>
        <time>2022-04-25T12:24:15Z</time>
      </trkpt>
      <trkpt lat="47.2106" lon="-0.79494">
        <ele>98</ele>
        <time>2022-04-25T12:24:19Z</time>
      </trkpt>
      <trkpt lat="47.2107" lon="-0.79497">
        <ele>98</ele>
        <time>2022-04-25T12:24:21Z</time>
      </trkpt>
      <trkpt lat="47.21181" lon="-0.7954">
        <ele>103</ele>
        <time>2022-04-25T12:24:41Z</time>
      </trkpt>
      <trkpt lat="47.21186" lon="-0.79539">
        <ele>103</ele>
        <time>2022-04-25T12:24:42Z</time>
      </trkpt>
      <trkpt lat="47.21192" lon="-0.79531">
        <ele>103</ele>
        <time>2022-04-25T12:24:44Z</time>
      </trkpt>
      <trkpt lat="47.21213" lon="-0.79465">
        <ele>103</ele>
        <time>2022-04-25T12:24:52Z</time>
      </trkpt>
      <trkpt lat="47.21228" lon="-0.79438">
        <ele>103</ele>
        <time>2022-04-25T12:24:57Z</time>
      </trkpt>
      <trkpt lat="47.21254" lon="-0.79403">
        <ele>103</ele>
        <time>2022-04-25T12:25:03Z</time>
      </trkpt>
      <trkpt lat="47.21301" lon="-0.7936">
        <ele>105</ele>
        <time>2022-04-25T12:25:13Z</time>
      </trkpt>
      <trkpt lat="47.21351" lon="-0.79305">
        <ele>105</ele>
        <time>2022-04-25T12:25:24Z</time>
      </trkpt>
      <trkpt lat="47.21357" lon="-0.79304">
        <ele>105</ele>
        <time>2022-04-25T12:25:25Z</time>
      </trkpt>
      <trkpt lat="47.21361" lon="-0.79388">
        <ele>106</ele>
        <time>2022-04-25T12:25:35Z</time>
      </trkpt>
      <trkpt lat="47.21359" lon="-0.79453">
        <ele>106</ele>
        <time>2022-04-25T12:25:43Z</time>
      </trkpt>
      <trkpt lat="47.21351" lon="-0.79626">
        <ele>104</ele>
        <time>2022-04-25T12:26:04Z</time>
      </trkpt>
      <trkpt lat="47.21375" lon="-0.79618">
        <ele>105</ele>
        <time>2022-04-25T12:26:08Z</time>
      </trkpt>
      <trkpt lat="47.21411" lon="-0.79599">
        <ele>106</ele>
        <time>2022-04-25T12:26:15Z</time>
      </trkpt>
      <trkpt lat="47.21445" lon="-0.79569">
        <ele>106</ele>
        <time>2022-04-25T12:26:22Z</time>
      </trkpt>
      <trkpt lat="47.21481" lon="-0.79548">
        <ele>106</ele>
        <time>2022-04-25T12:26:29Z</time>
      </trkpt>
      <trkpt lat="47.21507" lon="-0.79536">
        <ele>106</ele>
        <time>2022-04-25T12:26:34Z</time>
      </trkpt>
      <trkpt lat="47.2155" lon="-0.79522">
        <ele>106</ele>
        <time>2022-04-25T12:26:42Z</time>
      </trkpt>
      <trkpt lat="47.21594" lon="-0.79511">
        <ele>107</ele>
        <time>2022-04-25T12:26:50Z</time>
      </trkpt>
      <trkpt lat="47.21612" lon="-0.7951">
        <ele>108</ele>
        <time>2022-04-25T12:26:53Z</time>
      </trkpt>
      <trkpt lat="47.21683" lon="-0.79516">
        <ele>109</ele>
        <time>2022-04-25T12:27:06Z</time>
      </trkpt>
      <trkpt lat="47.21718" lon="-0.79515">
        <ele>110</ele>
        <time>2022-04-25T12:27:12Z</time>
      </trkpt>
      <trkpt lat="47.21783" lon="-0.79505">
        <ele>110</ele>
        <time>2022-04-25T12:27:23Z</time>
      </trkpt>
      <trkpt lat="47.21801" lon="-0.79504">
        <ele>111</ele>
        <time>2022-04-25T12:27:27Z</time>
      </trkpt>
      <trkpt lat="47.21857" lon="-0.79512">
        <ele>111</ele>
        <time>2022-04-25T12:27:37Z</time>
      </trkpt>
      <trkpt lat="47.21881" lon="-0.79518">
        <ele>110</ele>
        <time>2022-04-25T12:27:41Z</time>
      </trkpt>
      <trkpt lat="47.21898" lon="-0.79525">
        <ele>110</ele>
        <time>2022-04-25T12:27:44Z</time>
      </trkpt>
      <trkpt lat="47.21944" lon="-0.79552">
        <ele>109</ele>
        <time>2022-04-25T12:27:53Z</time>
      </trkpt>
      <trkpt lat="47.21963" lon="-0.79559">
        <ele>108</ele>
        <time>2022-04-25T12:27:56Z</time>
      </trkpt>
      <trkpt lat="47.22061" lon="-0.79581">
        <ele>107</ele>
        <time>2022-04-25T12:28:14Z</time>
      </trkpt>
      <trkpt lat="47.22089" lon="-0.79592">
        <ele>107</ele>
        <time>2022-04-25T12:28:19Z</time>
      </trkpt>
      <trkpt lat="47.2211" lon="-0.79605">
        <ele>106</ele>
        <time>2022-04-25T12:28:23Z</time>
      </trkpt>
      <trkpt lat="47.22134" lon="-0.7963">
        <ele>106</ele>
        <time>2022-04-25T12:28:28Z</time>
      </trkpt>
      <trkpt lat="47.22184" lon="-0.79708">
        <ele>106</ele>
        <time>2022-04-25T12:28:41Z</time>
      </trkpt>
      <trkpt lat="47.2221" lon="-0.79757">
        <ele>106</ele>
        <time>2022-04-25T12:28:49Z</time>
      </trkpt>
      <trkpt lat="47.2224" lon="-0.79834">
        <ele>105</ele>
        <time>2022-04-25T12:29:00Z</time>
      </trkpt>
      <trkpt lat="47.22245" lon="-0.79841">
        <ele>105</ele>
        <time>2022-04-25T12:29:01Z</time>
      </trkpt>
      <trkpt lat="47.22251" lon="-0.79848">
        <ele>105</ele>
        <time>2022-04-25T12:29:02Z</time>
      </trkpt>
      <trkpt lat="47.2226" lon="-0.79854">
        <ele>104</ele>
        <time>2022-04-25T12:29:04Z</time>
      </trkpt>
      <trkpt lat="47.22275" lon="-0.7986">
        <ele>104</ele>
        <time>2022-04-25T12:29:07Z</time>
      </trkpt>
      <trkpt lat="47.22401" lon="-0.79888">
        <ele>100</ele>
        <time>2022-04-25T12:29:29Z</time>
      </trkpt>
      <trkpt lat="47.22435" lon="-0.79889">
        <ele>99</ele>
        <time>2022-04-25T12:29:35Z</time>
      </trkpt>
      <trkpt lat="47.22449" lon="-0.79887">
        <ele>99</ele>
        <time>2022-04-25T12:29:38Z</time>
      </trkpt>
      <trkpt lat="47.22544" lon="-0.7986">
        <ele>100</ele>
        <time>2022-04-25T12:29:55Z</time>
      </trkpt>
      <trkpt lat="47.22574" lon="-0.79854">
        <ele>101</ele>
        <time>2022-04-25T12:30:01Z</time>
      </trkpt>
      <trkpt lat="47.22614" lon="-0.79848">
        <ele>101</ele>
        <time>2022-04-25T12:30:08Z</time>
      </trkpt>
      <trkpt lat="47.2263" lon="-0.7985">
        <ele>101</ele>
        <time>2022-04-25T12:30:11Z</time>
      </trkpt>
      <trkpt lat="47.22646" lon="-0.79853">
        <ele>101</ele>
        <time>2022-04-25T12:30:13Z</time>
      </trkpt>
      <trkpt lat="47.22729" lon="-0.79883">
        <ele>101</ele>
        <time>2022-04-25T12:30:29Z</time>
      </trkpt>
      <trkpt lat="47.22761" lon="-0.7989">
        <ele>101</ele>
        <time>2022-04-25T12:30:34Z</time>
      </trkpt>
      <trkpt lat="47.22865" lon="-0.79903">
        <ele>103</ele>
        <time>2022-04-25T12:30:53Z</time>
      </trkpt>
      <trkpt lat="47.23072" lon="-0.79974">
        <ele>106</ele>
        <time>2022-04-25T12:31:31Z</time>
      </trkpt>
      <trkpt lat="47.23082" lon="-0.79975">
        <ele>106</ele>
        <time>2022-04-25T12:31:33Z</time>
      </trkpt>
      <trkpt lat="47.23094" lon="-0.79973">
        <ele>106</ele>
        <time>2022-04-25T12:31:35Z</time>
      </trkpt>
      <trkpt lat="47.2311" lon="-0.79968">
        <ele>106</ele>
        <time>2022-04-25T12:31:38Z</time>
      </trkpt>
      <trkpt lat="47.23223" lon="-0.79915">
        <ele>106</ele>
        <time>2022-04-25T12:31:59Z</time>
      </trkpt>
      <trkpt lat="47.2325" lon="-0.79906">
        <ele>106</ele>
        <time>2022-04-25T12:32:04Z</time>
      </trkpt>
      <trkpt lat="47.23276" lon="-0.79901">
        <ele>106</ele>
        <time>2022-04-25T12:32:08Z</time>
      </trkpt>
      <trkpt lat="47.23392" lon="-0.79896">
        <ele>109</ele>
        <time>2022-04-25T12:32:29Z</time>
      </trkpt>
      <trkpt lat="47.23403" lon="-0.79893">
        <ele>109</ele>
        <time>2022-04-25T12:32:31Z</time>
      </trkpt>
      <trkpt lat="47.23406" lon="-0.79909">
        <ele>110</ele>
        <time>2022-04-25T12:32:33Z</time>
      </trkpt>
      <trkpt lat="47.23414" lon="-0.79927">
        <ele>110</ele>
        <time>2022-04-25T12:32:36Z</time>
      </trkpt>
      <trkpt lat="47.23444" lon="-0.79977">
        <ele>111</ele>
        <time>2022-04-25T12:32:44Z</time>
      </trkpt>
      <trkpt lat="47.23461" lon="-0.80013">
        <ele>112</ele>
        <time>2022-04-25T12:32:49Z</time>
      </trkpt>
      <trkpt lat="47.2347" lon="-0.80043">
        <ele>113</ele>
        <time>2022-04-25T12:32:53Z</time>
      </trkpt>
      <trkpt lat="47.23477" lon="-0.80073">
        <ele>114</ele>
        <time>2022-04-25T12:32:57Z</time>
      </trkpt>
      <trkpt lat="47.23482" lon="-0.80124">
        <ele>114</ele>
        <time>2022-04-25T12:33:03Z</time>
      </trkpt>
      <trkpt lat="47.23481" lon="-0.80132">
        <ele>114</ele>
        <time>2022-04-25T12:33:04Z</time>
      </trkpt>
      <trkpt lat="47.23485" lon="-0.80135">
        <ele>114</ele>
        <time>2022-04-25T12:33:05Z</time>
      </trkpt>
      <trkpt lat="47.23493" lon="-0.80137">
        <ele>114</ele>
        <time>2022-04-25T12:33:06Z</time>
      </trkpt>
      <trkpt lat="47.23555" lon="-0.80124">
        <ele>114</ele>
        <time>2022-04-25T12:33:17Z</time>
      </trkpt>
      <trkpt lat="47.2359" lon="-0.80125">
        <ele>114</ele>
        <time>2022-04-25T12:33:24Z</time>
      </trkpt>
      <trkpt lat="47.23633" lon="-0.80131">
        <ele>114</ele>
        <time>2022-04-25T12:33:31Z</time>
      </trkpt>
      <trkpt lat="47.23642" lon="-0.80134">
        <ele>114</ele>
        <time>2022-04-25T12:33:33Z</time>
      </trkpt>
      <trkpt lat="47.23652" lon="-0.80147">
        <ele>113</ele>
        <time>2022-04-25T12:33:35Z</time>
      </trkpt>
      <trkpt lat="47.23656" lon="-0.80161">
        <ele>113</ele>
        <time>2022-04-25T12:33:37Z</time>
      </trkpt>
      <trkpt lat="47.23692" lon="-0.80308">
        <ele>112</ele>
        <time>2022-04-25T12:33:56Z</time>
      </trkpt>
      <trkpt lat="47.23698" lon="-0.80326">
        <ele>112</ele>
        <time>2022-04-25T12:33:58Z</time>
      </trkpt>
      <trkpt lat="47.23717" lon="-0.80364">
        <ele>111</ele>
        <time>2022-04-25T12:34:04Z</time>
      </trkpt>
      <trkpt lat="47.23734" lon="-0.80393">
        <ele>111</ele>
        <time>2022-04-25T12:34:09Z</time>
      </trkpt>
      <trkpt lat="47.2381" lon="-0.80509">
        <ele>113</ele>
        <time>2022-04-25T12:34:28Z</time>
      </trkpt>
      <trkpt lat="47.2383" lon="-0.80528">
        <ele>114</ele>
        <time>2022-04-25T12:34:32Z</time>
      </trkpt>
      <trkpt lat="47.23987" lon="-0.80607">
        <ele>118</ele>
        <time>2022-04-25T12:35:02Z</time>
      </trkpt>
      <trkpt lat="47.24003" lon="-0.80617">
        <ele>118</ele>
        <time>2022-04-25T12:35:05Z</time>
      </trkpt>
      <trkpt lat="47.24063" lon="-0.80662">
        <ele>118</ele>
        <time>2022-04-25T12:35:17Z</time>
      </trkpt>
      <trkpt lat="47.2411" lon="-0.80705">
        <ele>118</ele>
        <time>2022-04-25T12:35:27Z</time>
      </trkpt>
      <trkpt lat="47.24137" lon="-0.80727">
        <ele>118</ele>
        <time>2022-04-25T12:35:32Z</time>
      </trkpt>
      <trkpt lat="47.24168" lon="-0.80746">
        <ele>118</ele>
        <time>2022-04-25T12:35:38Z</time>
      </trkpt>
      <trkpt lat="47.24235" lon="-0.80781">
        <ele>117</ele>
        <time>2022-04-25T12:35:51Z</time>
      </trkpt>
      <trkpt lat="47.2428" lon="-0.80808">
        <ele>117</ele>
        <time>2022-04-25T12:36:00Z</time>
      </trkpt>
      <trkpt lat="47.24373" lon="-0.80872">
        <ele>117</ele>
        <time>2022-04-25T12:36:18Z</time>
      </trkpt>
      <trkpt lat="47.24394" lon="-0.80881">
        <ele>117</ele>
        <time>2022-04-25T12:36:22Z</time>
      </trkpt>
      <trkpt lat="47.24433" lon="-0.80887">
        <ele>117</ele>
        <time>2022-04-25T12:36:29Z</time>
      </trkpt>
      <trkpt lat="47.24454" lon="-0.80894">
        <ele>117</ele>
        <time>2022-04-25T12:36:33Z</time>
      </trkpt>
      <trkpt lat="47.24524" lon="-0.8093">
        <ele>117</ele>
        <time>2022-04-25T12:36:46Z</time>
      </trkpt>
      <trkpt lat="47.24575" lon="-0.8096">
        <ele>117</ele>
        <time>2022-04-25T12:36:56Z</time>
      </trkpt>
      <trkpt lat="47.24621" lon="-0.81003">
        <ele>118</ele>
        <time>2022-04-25T12:37:05Z</time>
      </trkpt>
      <trkpt lat="47.24648" lon="-0.8104">
        <ele>117</ele>
        <time>2022-04-25T12:37:12Z</time>
      </trkpt>
      <trkpt lat="47.24666" lon="-0.81068">
        <ele>117</ele>
        <time>2022-04-25T12:37:16Z</time>
      </trkpt>
      <trkpt lat="47.24699" lon="-0.81158">
        <ele>117</ele>
        <time>2022-04-25T12:37:29Z</time>
      </trkpt>
      <trkpt lat="47.2471" lon="-0.81192">
        <ele>117</ele>
        <time>2022-04-25T12:37:33Z</time>
      </trkpt>
      <trkpt lat="47.24798" lon="-0.81196">
        <ele>116</ele>
        <time>2022-04-25T12:37:49Z</time>
      </trkpt>
      <trkpt lat="47.24858" lon="-0.81206">
        <ele>115</ele>
        <time>2022-04-25T12:38:00Z</time>
      </trkpt>
      <trkpt lat="47.25009" lon="-0.81241">
        <ele>110</ele>
        <time>2022-04-25T12:38:27Z</time>
      </trkpt>
      <trkpt lat="47.25059" lon="-0.81257">
        <ele>111</ele>
        <time>2022-04-25T12:38:36Z</time>
      </trkpt>
      <trkpt lat="47.25125" lon="-0.81291">
        <ele>111</ele>
        <time>2022-04-25T12:38:49Z</time>
      </trkpt>
      <trkpt lat="47.25148" lon="-0.81309">
        <ele>112</ele>
        <time>2022-04-25T12:38:53Z</time>
      </trkpt>
      <trkpt lat="47.25171" lon="-0.81328">
        <ele>113</ele>
        <time>2022-04-25T12:38:58Z</time>
      </trkpt>
      <trkpt lat="47.25274" lon="-0.81437">
        <ele>113</ele>
        <time>2022-04-25T12:39:20Z</time>
      </trkpt>
      <trkpt lat="47.25333" lon="-0.81479">
        <ele>115</ele>
        <time>2022-04-25T12:39:32Z</time>
      </trkpt>
      <trkpt lat="47.25356" lon="-0.81491">
        <ele>115</ele>
        <time>2022-04-25T12:39:36Z</time>
      </trkpt>
      <trkpt lat="47.2539" lon="-0.81502">
        <ele>116</ele>
        <time>2022-04-25T12:39:43Z</time>
      </trkpt>
      <trkpt lat="47.25452" lon="-0.81511">
        <ele>117</ele>
        <time>2022-04-25T12:39:54Z</time>
      </trkpt>
      <trkpt lat="47.25506" lon="-0.81525">
        <ele>117</ele>
        <time>2022-04-25T12:40:03Z</time>
      </trkpt>
      <trkpt lat="47.2571" lon="-0.81599">
        <ele>115</ele>
        <time>2022-04-25T12:40:41Z</time>
      </trkpt>
      <trkpt lat="47.25719" lon="-0.81603">
        <ele>115</ele>
        <time>2022-04-25T12:40:43Z</time>
      </trkpt>
      <trkpt lat="47.25728" lon="-0.8161">
        <ele>115</ele>
        <time>2022-04-25T12:40:44Z</time>
      </trkpt>
      <trkpt lat="47.25744" lon="-0.81629">
        <ele>115</ele>
        <time>2022-04-25T12:40:48Z</time>
      </trkpt>
      <trkpt lat="47.25809" lon="-0.81722">
        <ele>115</ele>
        <time>2022-04-25T12:41:04Z</time>
      </trkpt>
      <trkpt lat="47.25834" lon="-0.81767">
        <ele>115</ele>
        <time>2022-04-25T12:41:11Z</time>
      </trkpt>
      <trkpt lat="47.25921" lon="-0.8194">
        <ele>114</ele>
        <time>2022-04-25T12:41:37Z</time>
      </trkpt>
      <trkpt lat="47.25942" lon="-0.81974">
        <ele>112</ele>
        <time>2022-04-25T12:41:43Z</time>
      </trkpt>
      <trkpt lat="47.25964" lon="-0.82006">
        <ele>111</ele>
        <time>2022-04-25T12:41:48Z</time>
      </trkpt>
      <trkpt lat="47.26075" lon="-0.82138">
        <ele>104</ele>
        <time>2022-04-25T12:42:14Z</time>
      </trkpt>
      <trkpt lat="47.26172" lon="-0.82292">
        <ele>106</ele>
        <time>2022-04-25T12:42:39Z</time>
      </trkpt>
      <trkpt lat="47.26205" lon="-0.82332">
        <ele>106</ele>
        <time>2022-04-25T12:42:47Z</time>
      </trkpt>
      <trkpt lat="47.2622" lon="-0.8234">
        <ele>105</ele>
        <time>2022-04-25T12:42:49Z</time>
      </trkpt>
      <trkpt lat="47.26347" lon="-0.82397">
        <ele>102</ele>
        <time>2022-04-25T12:43:13Z</time>
      </trkpt>
      <trkpt lat="47.26481" lon="-0.82461">
        <ele>101</ele>
        <time>2022-04-25T12:43:38Z</time>
      </trkpt>
      <trkpt lat="47.26494" lon="-0.8247">
        <ele>101</ele>
        <time>2022-04-25T12:43:41Z</time>
      </trkpt>
      <trkpt lat="47.26573" lon="-0.8255">
        <ele>99</ele>
        <time>2022-04-25T12:43:58Z</time>
      </trkpt>
      <trkpt lat="47.26581" lon="-0.82549">
        <ele>99</ele>
        <time>2022-04-25T12:43:59Z</time>
      </trkpt>
      <trkpt lat="47.26587" lon="-0.82565">
        <ele>99</ele>
        <time>2022-04-25T12:44:01Z</time>
      </trkpt>
      <trkpt lat="47.26627" lon="-0.82608">
        <ele>97</ele>
        <time>2022-04-25T12:44:10Z</time>
      </trkpt>
      <trkpt lat="47.2664" lon="-0.82615">
        <ele>97</ele>
        <time>2022-04-25T12:44:13Z</time>
      </trkpt>
      <trkpt lat="47.26653" lon="-0.82611">
        <ele>97</ele>
        <time>2022-04-25T12:44:15Z</time>
      </trkpt>
      <trkpt lat="47.26681" lon="-0.82596">
        <ele>97</ele>
        <time>2022-04-25T12:44:20Z</time>
      </trkpt>
      <trkpt lat="47.26688" lon="-0.82596">
        <ele>97</ele>
        <time>2022-04-25T12:44:21Z</time>
      </trkpt>
      <trkpt lat="47.26691" lon="-0.82601">
        <ele>97</ele>
        <time>2022-04-25T12:44:22Z</time>
      </trkpt>
      <trkpt lat="47.26698" lon="-0.82644">
        <ele>97</ele>
        <time>2022-04-25T12:44:28Z</time>
      </trkpt>
      <trkpt lat="47.26702" lon="-0.8265">
        <ele>97</ele>
        <time>2022-04-25T12:44:29Z</time>
      </trkpt>
      <trkpt lat="47.26708" lon="-0.82653">
        <ele>97</ele>
        <time>2022-04-25T12:44:30Z</time>
      </trkpt>
      <trkpt lat="47.26722" lon="-0.82652">
        <ele>97</ele>
        <time>2022-04-25T12:44:32Z</time>
      </trkpt>
      <trkpt lat="47.26741" lon="-0.82656">
        <ele>97</ele>
        <time>2022-04-25T12:44:36Z</time>
      </trkpt>
      <trkpt lat="47.2675" lon="-0.82663">
        <ele>97</ele>
        <time>2022-04-25T12:44:37Z</time>
      </trkpt>
      <trkpt lat="47.26763" lon="-0.82662">
        <ele>97</ele>
        <time>2022-04-25T12:44:40Z</time>
      </trkpt>
      <trkpt lat="47.26775" lon="-0.82657">
        <ele>96</ele>
        <time>2022-04-25T12:44:42Z</time>
      </trkpt>
      <trkpt lat="47.26858" lon="-0.82692">
        <ele>94</ele>
        <time>2022-04-25T12:44:57Z</time>
      </trkpt>
      <trkpt lat="47.26926" lon="-0.82725">
        <ele>92</ele>
        <time>2022-04-25T12:45:10Z</time>
      </trkpt>
      <trkpt lat="47.2696" lon="-0.82739">
        <ele>91</ele>
        <time>2022-04-25T12:45:16Z</time>
      </trkpt>
      <trkpt lat="47.26978" lon="-0.82746">
        <ele>90</ele>
        <time>2022-04-25T12:45:20Z</time>
      </trkpt>
      <trkpt lat="47.27018" lon="-0.82753">
        <ele>90</ele>
        <time>2022-04-25T12:45:27Z</time>
      </trkpt>
      <trkpt lat="47.27031" lon="-0.82757">
        <ele>90</ele>
        <time>2022-04-25T12:45:29Z</time>
      </trkpt>
      <trkpt lat="47.27049" lon="-0.82767">
        <ele>91</ele>
        <time>2022-04-25T12:45:33Z</time>
      </trkpt>
      <trkpt lat="47.27093" lon="-0.82809">
        <ele>94</ele>
        <time>2022-04-25T12:45:42Z</time>
      </trkpt>
      <trkpt lat="47.27126" lon="-0.82835">
        <ele>94</ele>
        <time>2022-04-25T12:45:49Z</time>
      </trkpt>
      <trkpt lat="47.27143" lon="-0.82844">
        <ele>94</ele>
        <time>2022-04-25T12:45:52Z</time>
      </trkpt>
      <trkpt lat="47.27161" lon="-0.8285">
        <ele>94</ele>
        <time>2022-04-25T12:45:55Z</time>
      </trkpt>
      <trkpt lat="47.27203" lon="-0.82856">
        <ele>93</ele>
        <time>2022-04-25T12:46:03Z</time>
      </trkpt>
      <trkpt lat="47.27228" lon="-0.82856">
        <ele>92</ele>
        <time>2022-04-25T12:46:07Z</time>
      </trkpt>
      <trkpt lat="47.27249" lon="-0.82854">
        <ele>92</ele>
        <time>2022-04-25T12:46:11Z</time>
      </trkpt>
      <trkpt lat="47.27286" lon="-0.82843">
        <ele>90</ele>
        <time>2022-04-25T12:46:18Z</time>
      </trkpt>
      <trkpt lat="47.27331" lon="-0.82835">
        <ele>88</ele>
        <time>2022-04-25T12:46:26Z</time>
      </trkpt>
      <trkpt lat="47.27356" lon="-0.82841">
        <ele>86</ele>
        <time>2022-04-25T12:46:30Z</time>
      </trkpt>
      <trkpt lat="47.27421" lon="-0.82878">
        <ele>79</ele>
        <time>2022-04-25T12:46:43Z</time>
      </trkpt>
      <trkpt lat="47.2745" lon="-0.82888">
        <ele>76</ele>
        <time>2022-04-25T12:46:48Z</time>
      </trkpt>
      <trkpt lat="47.27471" lon="-0.82887">
        <ele>74</ele>
        <time>2022-04-25T12:46:52Z</time>
      </trkpt>
      <trkpt lat="47.27504" lon="-0.82879">
        <ele>72</ele>
        <time>2022-04-25T12:46:58Z</time>
      </trkpt>
      <trkpt lat="47.27514" lon="-0.8288">
        <ele>73</ele>
        <time>2022-04-25T12:46:59Z</time>
      </trkpt>
      <trkpt lat="47.27524" lon="-0.82882">
        <ele>73</ele>
        <time>2022-04-25T12:47:01Z</time>
      </trkpt>
      <trkpt lat="47.27534" lon="-0.82887">
        <ele>73</ele>
        <time>2022-04-25T12:47:03Z</time>
      </trkpt>
      <trkpt lat="47.2755" lon="-0.82906">
        <ele>74</ele>
        <time>2022-04-25T12:47:07Z</time>
      </trkpt>
      <trkpt lat="47.27604" lon="-0.83028">
        <ele>81</ele>
        <time>2022-04-25T12:47:24Z</time>
      </trkpt>
      <trkpt lat="47.27643" lon="-0.83108">
        <ele>83</ele>
        <time>2022-04-25T12:47:36Z</time>
      </trkpt>
      <trkpt lat="47.2766" lon="-0.83134">
        <ele>84</ele>
        <time>2022-04-25T12:47:40Z</time>
      </trkpt>
      <trkpt lat="47.27741" lon="-0.83237">
        <ele>89</ele>
        <time>2022-04-25T12:48:00Z</time>
      </trkpt>
      <trkpt lat="47.27844" lon="-0.83404">
        <ele>98</ele>
        <time>2022-04-25T12:48:27Z</time>
      </trkpt>
      <trkpt lat="47.27855" lon="-0.83419">
        <ele>99</ele>
        <time>2022-04-25T12:48:29Z</time>
      </trkpt>
      <trkpt lat="47.27868" lon="-0.83433">
        <ele>100</ele>
        <time>2022-04-25T12:48:32Z</time>
      </trkpt>
      <trkpt lat="47.27894" lon="-0.83456">
        <ele>101</ele>
        <time>2022-04-25T12:48:38Z</time>
      </trkpt>
      <trkpt lat="47.27938" lon="-0.83487">
        <ele>103</ele>
        <time>2022-04-25T12:48:46Z</time>
      </trkpt>
      <trkpt lat="47.27966" lon="-0.83511">
        <ele>104</ele>
        <time>2022-04-25T12:48:52Z</time>
      </trkpt>
      <trkpt lat="47.28092" lon="-0.83635">
        <ele>109</ele>
        <time>2022-04-25T12:49:19Z</time>
      </trkpt>
      <trkpt lat="47.28135" lon="-0.83686">
        <ele>109</ele>
        <time>2022-04-25T12:49:29Z</time>
      </trkpt>
      <trkpt lat="47.28243" lon="-0.83761">
        <ele>110</ele>
        <time>2022-04-25T12:49:50Z</time>
      </trkpt>
      <trkpt lat="47.28262" lon="-0.83782">
        <ele>111</ele>
        <time>2022-04-25T12:49:54Z</time>
      </trkpt>
      <trkpt lat="47.28325" lon="-0.83884">
        <ele>116</ele>
        <time>2022-04-25T12:50:11Z</time>
      </trkpt>
      <trkpt lat="47.28334" lon="-0.83902">
        <ele>116</ele>
        <time>2022-04-25T12:50:14Z</time>
      </trkpt>
      <trkpt lat="47.28355" lon="-0.83953">
        <ele>117</ele>
        <time>2022-04-25T12:50:21Z</time>
      </trkpt>
      <trkpt lat="47.28376" lon="-0.83987">
        <ele>118</ele>
        <time>2022-04-25T12:50:26Z</time>
      </trkpt>
      <trkpt lat="47.28415" lon="-0.84029">
        <ele>118</ele>
        <time>2022-04-25T12:50:35Z</time>
      </trkpt>
      <trkpt lat="47.2846" lon="-0.84068">
        <ele>119</ele>
        <time>2022-04-25T12:50:44Z</time>
      </trkpt>
      <trkpt lat="47.28475" lon="-0.84085">
        <ele>120</ele>
        <time>2022-04-25T12:50:48Z</time>
      </trkpt>
      <trkpt lat="47.28488" lon="-0.84104">
        <ele>120</ele>
        <time>2022-04-25T12:50:51Z</time>
      </trkpt>
      <trkpt lat="47.28502" lon="-0.8413">
        <ele>120</ele>
        <time>2022-04-25T12:50:55Z</time>
      </trkpt>
      <trkpt lat="47.28517" lon="-0.84165">
        <ele>119</ele>
        <time>2022-04-25T12:51:00Z</time>
      </trkpt>
      <trkpt lat="47.28569" lon="-0.8434">
        <ele>114</ele>
        <time>2022-04-25T12:51:23Z</time>
      </trkpt>
      <trkpt lat="47.28587" lon="-0.84401">
        <ele>111</ele>
        <time>2022-04-25T12:51:31Z</time>
      </trkpt>
      <trkpt lat="47.28598" lon="-0.84446">
        <ele>110</ele>
        <time>2022-04-25T12:51:37Z</time>
      </trkpt>
      <trkpt lat="47.28618" lon="-0.84541">
        <ele>108</ele>
        <time>2022-04-25T12:51:49Z</time>
      </trkpt>
      <trkpt lat="47.28627" lon="-0.84574">
        <ele>108</ele>
        <time>2022-04-25T12:51:53Z</time>
      </trkpt>
      <trkpt lat="47.2863" lon="-0.84573">
        <ele>108</ele>
        <time>2022-04-25T12:51:54Z</time>
      </trkpt>
      <trkpt lat="47.28702" lon="-0.84506">
        <ele>111</ele>
        <time>2022-04-25T12:52:09Z</time>
      </trkpt>
      <trkpt lat="47.28838" lon="-0.84377">
        <ele>120</ele>
        <time>2022-04-25T12:52:38Z</time>
      </trkpt>
      <trkpt lat="47.29005" lon="-0.84203">
        <ele>119</ele>
        <time>2022-04-25T12:53:14Z</time>
      </trkpt>
      <trkpt lat="47.2902" lon="-0.8418">
        <ele>119</ele>
        <time>2022-04-25T12:53:18Z</time>
      </trkpt>
      <trkpt lat="47.29038" lon="-0.84146">
        <ele>118</ele>
        <time>2022-04-25T12:53:23Z</time>
      </trkpt>
      <trkpt lat="47.29078" lon="-0.84065">
        <ele>116</ele>
        <time>2022-04-25T12:53:35Z</time>
      </trkpt>
      <trkpt lat="47.29159" lon="-0.83931">
        <ele>113</ele>
        <time>2022-04-25T12:53:57Z</time>
      </trkpt>
      <trkpt lat="47.29207" lon="-0.83966">
        <ele>115</ele>
        <time>2022-04-25T12:54:06Z</time>
      </trkpt>
      <trkpt lat="47.29339" lon="-0.84135">
        <ele>115</ele>
        <time>2022-04-25T12:54:37Z</time>
      </trkpt>
      <trkpt lat="47.29391" lon="-0.84192">
        <ele>113</ele>
        <time>2022-04-25T12:54:49Z</time>
      </trkpt>
      <trkpt lat="47.29414" lon="-0.8421">
        <ele>114</ele>
        <time>2022-04-25T12:54:54Z</time>
      </trkpt>
      <trkpt lat="47.29452" lon="-0.8423">
        <ele>114</ele>
        <time>2022-04-25T12:55:01Z</time>
      </trkpt>
      <trkpt lat="47.29517" lon="-0.84251">
        <ele>115</ele>
        <time>2022-04-25T12:55:13Z</time>
      </trkpt>
      <trkpt lat="47.29558" lon="-0.84284">
        <ele>115</ele>
        <time>2022-04-25T12:55:21Z</time>
      </trkpt>
      <trkpt lat="47.29603" lon="-0.84337">
        <ele>114</ele>
        <time>2022-04-25T12:55:31Z</time>
      </trkpt>
      <trkpt lat="47.29637" lon="-0.84393">
        <ele>112</ele>
        <time>2022-04-25T12:55:40Z</time>
      </trkpt>
      <trkpt lat="47.29647" lon="-0.84417">
        <ele>112</ele>
        <time>2022-04-25T12:55:44Z</time>
      </trkpt>
      <trkpt lat="47.3083" lon="-0.83726">
        <ele>114</ele>
        <time>2022-04-25T12:59:30Z</time>
      </trkpt>
      <trkpt lat="47.31137" lon="-0.83547">
        <ele>110</ele>
        <time>2022-04-25T13:00:29Z</time>
      </trkpt>
      <trkpt lat="47.31146" lon="-0.83534">
        <ele>110</ele>
        <time>2022-04-25T13:00:31Z</time>
      </trkpt>
      <trkpt lat="47.31152" lon="-0.8352">
        <ele>110</ele>
        <time>2022-04-25T13:00:33Z</time>
      </trkpt>
      <trkpt lat="47.31167" lon="-0.8353">
        <ele>110</ele>
        <time>2022-04-25T13:00:36Z</time>
      </trkpt>
      <trkpt lat="47.31445" lon="-0.83684">
        <ele>100</ele>
        <time>2022-04-25T13:01:29Z</time>
      </trkpt>
      <trkpt lat="47.31455" lon="-0.83685">
        <ele>100</ele>
        <time>2022-04-25T13:01:31Z</time>
      </trkpt>
      <trkpt lat="47.31468" lon="-0.83682">
        <ele>99</ele>
        <time>2022-04-25T13:01:33Z</time>
      </trkpt>
      <trkpt lat="47.31501" lon="-0.83699">
        <ele>98</ele>
        <time>2022-04-25T13:01:39Z</time>
      </trkpt>
      <trkpt lat="47.31514" lon="-0.83718">
        <ele>98</ele>
        <time>2022-04-25T13:01:42Z</time>
      </trkpt>
      <trkpt lat="47.31528" lon="-0.83731">
        <ele>97</ele>
        <time>2022-04-25T13:01:45Z</time>
      </trkpt>
      <trkpt lat="47.31676" lon="-0.83811">
        <ele>95</ele>
        <time>2022-04-25T13:02:13Z</time>
      </trkpt>
      <trkpt lat="47.32334" lon="-0.84182">
        <ele>91</ele>
        <time>2022-04-25T13:04:19Z</time>
      </trkpt>
      <trkpt lat="47.3377" lon="-0.84996">
        <ele>72</ele>
        <time>2022-04-25T13:08:52Z</time>
      </trkpt>
      <trkpt lat="47.33966" lon="-0.85102">
        <ele>75</ele>
        <time>2022-04-25T13:09:30Z</time>
      </trkpt>
      <trkpt lat="47.34109" lon="-0.85186">
        <ele>80</ele>
        <time>2022-04-25T13:09:57Z</time>
      </trkpt>
      <trkpt lat="47.34708" lon="-0.85527">
        <ele>94</ele>
        <time>2022-04-25T13:11:51Z</time>
      </trkpt>
      <trkpt lat="47.34734" lon="-0.85528">
        <ele>94</ele>
        <time>2022-04-25T13:11:56Z</time>
      </trkpt>
      <trkpt lat="47.34739" lon="-0.85524">
        <ele>94</ele>
        <time>2022-04-25T13:11:57Z</time>
      </trkpt>
      <trkpt lat="47.34745" lon="-0.85524">
        <ele>94</ele>
        <time>2022-04-25T13:11:58Z</time>
      </trkpt>
      <trkpt lat="47.34751" lon="-0.85527">
        <ele>93</ele>
        <time>2022-04-25T13:11:59Z</time>
      </trkpt>
      <trkpt lat="47.34764" lon="-0.8555">
        <ele>93</ele>
        <time>2022-04-25T13:12:03Z</time>
      </trkpt>
      <trkpt lat="47.3478" lon="-0.85568">
        <ele>92</ele>
        <time>2022-04-25T13:12:06Z</time>
      </trkpt>
      <trkpt lat="47.34899" lon="-0.85637">
        <ele>89</ele>
        <time>2022-04-25T13:12:29Z</time>
      </trkpt>
      <trkpt lat="47.34903" lon="-0.85632">
        <ele>89</ele>
        <time>2022-04-25T13:12:30Z</time>
      </trkpt>
      <trkpt lat="47.34908" lon="-0.8563">
        <ele>89</ele>
        <time>2022-04-25T13:12:31Z</time>
      </trkpt>
      <trkpt lat="47.34913" lon="-0.85636">
        <ele>89</ele>
        <time>2022-04-25T13:12:32Z</time>
      </trkpt>
      <trkpt lat="47.34914" lon="-0.85646">
        <ele>89</ele>
        <time>2022-04-25T13:12:33Z</time>
      </trkpt>
      <trkpt lat="47.35428" lon="-0.85935">
        <ele>75</ele>
        <time>2022-04-25T13:14:11Z</time>
      </trkpt>
      <trkpt lat="47.35445" lon="-0.85937">
        <ele>75</ele>
        <time>2022-04-25T13:14:14Z</time>
      </trkpt>
      <trkpt lat="47.35549" lon="-0.85913">
        <ele>76</ele>
        <time>2022-04-25T13:14:33Z</time>
      </trkpt>
      <trkpt lat="47.35558" lon="-0.85913">
        <ele>76</ele>
        <time>2022-04-25T13:14:34Z</time>
      </trkpt>
      <trkpt lat="47.3558" lon="-0.85922">
        <ele>77</ele>
        <time>2022-04-25T13:14:38Z</time>
      </trkpt>
      <trkpt lat="47.35583" lon="-0.85925">
        <ele>77</ele>
        <time>2022-04-25T13:14:39Z</time>
      </trkpt>
      <trkpt lat="47.35668" lon="-0.86061">
        <ele>77</ele>
        <time>2022-04-25T13:15:01Z</time>
      </trkpt>
      <trkpt lat="47.35676" lon="-0.86071">
        <ele>78</ele>
        <time>2022-04-25T13:15:03Z</time>
      </trkpt>
      <trkpt lat="47.35686" lon="-0.86077">
        <ele>78</ele>
        <time>2022-04-25T13:15:05Z</time>
      </trkpt>
      <trkpt lat="47.3569" lon="-0.86077">
        <ele>78</ele>
        <time>2022-04-25T13:15:06Z</time>
      </trkpt>
      <trkpt lat="47.35831" lon="-0.86046">
        <ele>83</ele>
        <time>2022-04-25T13:15:31Z</time>
      </trkpt>
      <trkpt lat="47.36669" lon="-0.85883">
        <ele>76</ele>
        <time>2022-04-25T13:18:02Z</time>
      </trkpt>
      <trkpt lat="47.36721" lon="-0.85879">
        <ele>73</ele>
        <time>2022-04-25T13:18:11Z</time>
      </trkpt>
      <trkpt lat="47.38013" lon="-0.85877">
        <ele>23</ele>
        <time>2022-04-25T13:22:01Z</time>
      </trkpt>
      <trkpt lat="47.38135" lon="-0.85871">
        <ele>22</ele>
        <time>2022-04-25T13:22:23Z</time>
      </trkpt>
      <trkpt lat="47.38302" lon="-0.85874">
        <ele>19</ele>
        <time>2022-04-25T13:22:52Z</time>
      </trkpt>
      <trkpt lat="47.38326" lon="-0.85871">
        <ele>19</ele>
        <time>2022-04-25T13:22:57Z</time>
      </trkpt>
      <trkpt lat="47.38335" lon="-0.85868">
        <ele>20</ele>
        <time>2022-04-25T13:22:58Z</time>
      </trkpt>
      <trkpt lat="47.38349" lon="-0.8586">
        <ele>20</ele>
        <time>2022-04-25T13:23:01Z</time>
      </trkpt>
      <trkpt lat="47.38356" lon="-0.85879">
        <ele>20</ele>
        <time>2022-04-25T13:23:03Z</time>
      </trkpt>
      <trkpt lat="47.38368" lon="-0.85897">
        <ele>20</ele>
        <time>2022-04-25T13:23:07Z</time>
      </trkpt>
      <trkpt lat="47.38655" lon="-0.86228">
        <ele>21</ele>
        <time>2022-04-25T13:24:11Z</time>
      </trkpt>
      <trkpt lat="47.38663" lon="-0.86242">
        <ele>21</ele>
        <time>2022-04-25T13:24:14Z</time>
      </trkpt>
      <trkpt lat="47.38665" lon="-0.86249">
        <ele>21</ele>
        <time>2022-04-25T13:24:14Z</time>
      </trkpt>
      <trkpt lat="47.38676" lon="-0.86247">
        <ele>21</ele>
        <time>2022-04-25T13:24:16Z</time>
      </trkpt>
      <trkpt lat="47.38782" lon="-0.86266">
        <ele>23</ele>
        <time>2022-04-25T13:24:35Z</time>
      </trkpt>
      <trkpt lat="47.38866" lon="-0.86286">
        <ele>20</ele>
        <time>2022-04-25T13:24:51Z</time>
      </trkpt>
      <trkpt lat="47.38881" lon="-0.86285">
        <ele>18</ele>
        <time>2022-04-25T13:24:53Z</time>
      </trkpt>
      <trkpt lat="47.38975" lon="-0.86262">
        <ele>13</ele>
        <time>2022-04-25T13:25:10Z</time>
      </trkpt>
      <trkpt lat="47.39016" lon="-0.86238">
        <ele>13</ele>
        <time>2022-04-25T13:25:18Z</time>
      </trkpt>
      <trkpt lat="47.39195" lon="-0.86113">
        <ele>14</ele>
        <time>2022-04-25T13:25:53Z</time>
      </trkpt>
      <trkpt lat="47.39217" lon="-0.86173">
        <ele>13</ele>
        <time>2022-04-25T13:26:01Z</time>
      </trkpt>
      <trkpt lat="47.39227" lon="-0.86206">
        <ele>13</ele>
        <time>2022-04-25T13:26:06Z</time>
      </trkpt>
      <trkpt lat="47.39231" lon="-0.86236">
        <ele>13</ele>
        <time>2022-04-25T13:26:09Z</time>
      </trkpt>
      <trkpt lat="47.39209" lon="-0.86665">
        <ele>11</ele>
        <time>2022-04-25T13:27:01Z</time>
      </trkpt>
      <trkpt lat="47.39207" lon="-0.86739">
        <ele>10</ele>
        <time>2022-04-25T13:27:10Z</time>
      </trkpt>
      <trkpt lat="47.3922" lon="-0.87104">
        <ele>12</ele>
        <time>2022-04-25T13:27:54Z</time>
      </trkpt>
      <trkpt lat="47.39217" lon="-0.87114">
        <ele>12</ele>
        <time>2022-04-25T13:27:56Z</time>
      </trkpt>
      <trkpt lat="47.39215" lon="-0.87116">
        <ele>12</ele>
        <time>2022-04-25T13:27:56Z</time>
      </trkpt>
      <trkpt lat="47.39221" lon="-0.87148">
        <ele>12</ele>
        <time>2022-04-25T13:28:00Z</time>
      </trkpt>
      <trkpt lat="47.3923" lon="-0.87407">
        <ele>13</ele>
        <time>2022-04-25T13:28:31Z</time>
      </trkpt>
      <trkpt lat="47.39236" lon="-0.87465">
        <ele>12</ele>
        <time>2022-04-25T13:28:38Z</time>
      </trkpt>
      <trkpt lat="47.39243" lon="-0.87503">
        <ele>12</ele>
        <time>2022-04-25T13:28:43Z</time>
      </trkpt>
      <trkpt lat="47.39254" lon="-0.87552">
        <ele>12</ele>
        <time>2022-04-25T13:28:49Z</time>
      </trkpt>
      <trkpt lat="47.39414" lon="-0.8815">
        <ele>11</ele>
        <time>2022-04-25T13:30:07Z</time>
      </trkpt>
      <trkpt lat="47.39419" lon="-0.8818">
        <ele>11</ele>
        <time>2022-04-25T13:30:10Z</time>
      </trkpt>
      <trkpt lat="47.39426" lon="-0.88236">
        <ele>11</ele>
        <time>2022-04-25T13:30:17Z</time>
      </trkpt>
      <trkpt lat="47.3945" lon="-0.8841">
        <ele>12</ele>
        <time>2022-04-25T13:30:39Z</time>
      </trkpt>
      <trkpt lat="47.39458" lon="-0.88447">
        <ele>12</ele>
        <time>2022-04-25T13:30:43Z</time>
      </trkpt>
      <trkpt lat="47.39485" lon="-0.88531">
        <ele>12</ele>
        <time>2022-04-25T13:30:55Z</time>
      </trkpt>
      <trkpt lat="47.39566" lon="-0.8875">
        <ele>11</ele>
        <time>2022-04-25T13:31:25Z</time>
      </trkpt>
      <trkpt lat="47.39587" lon="-0.88811">
        <ele>11</ele>
        <time>2022-04-25T13:31:33Z</time>
      </trkpt>
      <trkpt lat="47.396" lon="-0.88862">
        <ele>11</ele>
        <time>2022-04-25T13:31:39Z</time>
      </trkpt>
      <trkpt lat="47.39608" lon="-0.88924">
        <ele>11</ele>
        <time>2022-04-25T13:31:47Z</time>
      </trkpt>
      <trkpt lat="47.39612" lon="-0.88977">
        <ele>11</ele>
        <time>2022-04-25T13:31:53Z</time>
      </trkpt>
      <trkpt lat="47.39628" lon="-0.8921">
        <ele>12</ele>
        <time>2022-04-25T13:32:22Z</time>
      </trkpt>
      <trkpt lat="47.39636" lon="-0.89283">
        <ele>13</ele>
        <time>2022-04-25T13:32:31Z</time>
      </trkpt>
      <trkpt lat="47.39645" lon="-0.89337">
        <ele>13</ele>
        <time>2022-04-25T13:32:37Z</time>
      </trkpt>
      <trkpt lat="47.39661" lon="-0.89399">
        <ele>14</ele>
        <time>2022-04-25T13:32:45Z</time>
      </trkpt>
      <trkpt lat="47.3971" lon="-0.89547">
        <ele>13</ele>
        <time>2022-04-25T13:33:05Z</time>
      </trkpt>
      <trkpt lat="47.39932" lon="-0.90195">
        <ele>13</ele>
        <time>2022-04-25T13:34:33Z</time>
      </trkpt>
      <trkpt lat="47.39984" lon="-0.90356">
        <ele>13</ele>
        <time>2022-04-25T13:34:54Z</time>
      </trkpt>
      <trkpt lat="47.40006" lon="-0.90454">
        <ele>13</ele>
        <time>2022-04-25T13:35:07Z</time>
      </trkpt>
      <trkpt lat="47.40013" lon="-0.90495">
        <ele>12</ele>
        <time>2022-04-25T13:35:12Z</time>
      </trkpt>
      <trkpt lat="47.4002" lon="-0.90563">
        <ele>12</ele>
        <time>2022-04-25T13:35:20Z</time>
      </trkpt>
      <trkpt lat="47.40022" lon="-0.90619">
        <ele>13</ele>
        <time>2022-04-25T13:35:27Z</time>
      </trkpt>
      <trkpt lat="47.4002" lon="-0.90739">
        <ele>13</ele>
        <time>2022-04-25T13:35:41Z</time>
      </trkpt>
      <trkpt lat="47.40012" lon="-0.90913">
        <ele>13</ele>
        <time>2022-04-25T13:36:02Z</time>
      </trkpt>
      <trkpt lat="47.40003" lon="-0.91189">
        <ele>13</ele>
        <time>2022-04-25T13:36:35Z</time>
      </trkpt>
      <trkpt lat="47.39998" lon="-0.91238">
        <ele>12</ele>
        <time>2022-04-25T13:36:41Z</time>
      </trkpt>
      <trkpt lat="47.39984" lon="-0.91316">
        <ele>13</ele>
        <time>2022-04-25T13:36:51Z</time>
      </trkpt>
      <trkpt lat="47.39966" lon="-0.91394">
        <ele>12</ele>
        <time>2022-04-25T13:37:01Z</time>
      </trkpt>
      <trkpt lat="47.39954" lon="-0.9143">
        <ele>13</ele>
        <time>2022-04-25T13:37:06Z</time>
      </trkpt>
      <trkpt lat="47.3992" lon="-0.9152">
        <ele>15</ele>
        <time>2022-04-25T13:37:18Z</time>
      </trkpt>
      <trkpt lat="47.39853" lon="-0.91682">
        <ele>13</ele>
        <time>2022-04-25T13:37:41Z</time>
      </trkpt>
      <trkpt lat="47.39888" lon="-0.91712">
        <ele>11</ele>
        <time>2022-04-25T13:37:48Z</time>
      </trkpt>
      <trkpt lat="47.40286" lon="-0.92061">
        <ele>16</ele>
        <time>2022-04-25T13:39:11Z</time>
      </trkpt>
      <trkpt lat="47.40309" lon="-0.92079">
        <ele>18</ele>
        <time>2022-04-25T13:39:15Z</time>
      </trkpt>
      <trkpt lat="47.40456" lon="-0.92231">
        <ele>22</ele>
        <time>2022-04-25T13:39:47Z</time>
      </trkpt>
      <trkpt lat="47.40474" lon="-0.92245">
        <ele>22</ele>
        <time>2022-04-25T13:39:51Z</time>
      </trkpt>
      <trkpt lat="47.40496" lon="-0.92267">
        <ele>22</ele>
        <time>2022-04-25T13:39:56Z</time>
      </trkpt>
      <trkpt lat="47.40505" lon="-0.92274">
        <ele>22</ele>
        <time>2022-04-25T13:39:57Z</time>
      </trkpt>
      <trkpt lat="47.40509" lon="-0.92269">
        <ele>22</ele>
        <time>2022-04-25T13:39:58Z</time>
      </trkpt>
      <trkpt lat="47.40514" lon="-0.92271">
        <ele>22</ele>
        <time>2022-04-25T13:39:59Z</time>
      </trkpt>
      <trkpt lat="47.40516" lon="-0.92276">
        <ele>22</ele>
        <time>2022-04-25T13:40:00Z</time>
      </trkpt>
      <trkpt lat="47.40514" lon="-0.92284">
        <ele>22</ele>
        <time>2022-04-25T13:40:01Z</time>
      </trkpt>
      <trkpt lat="47.40534" lon="-0.92312">
        <ele>22</ele>
        <time>2022-04-25T13:40:06Z</time>
      </trkpt>
      <trkpt lat="47.40625" lon="-0.925">
        <ele>25</ele>
        <time>2022-04-25T13:40:34Z</time>
      </trkpt>
      <trkpt lat="47.40688" lon="-0.92656">
        <ele>26</ele>
        <time>2022-04-25T13:40:56Z</time>
      </trkpt>
      <trkpt lat="47.40764" lon="-0.92864">
        <ele>28</ele>
        <time>2022-04-25T13:41:24Z</time>
      </trkpt>
      <trkpt lat="47.40778" lon="-0.9291">
        <ele>28</ele>
        <time>2022-04-25T13:41:30Z</time>
      </trkpt>
      <trkpt lat="47.40819" lon="-0.93004">
        <ele>30</ele>
        <time>2022-04-25T13:41:44Z</time>
      </trkpt>
      <trkpt lat="47.40892" lon="-0.93253">
        <ele>36</ele>
        <time>2022-04-25T13:42:16Z</time>
      </trkpt>
      <trkpt lat="47.40911" lon="-0.93302">
        <ele>37</ele>
        <time>2022-04-25T13:42:23Z</time>
      </trkpt>
      <trkpt lat="47.4101" lon="-0.93511">
        <ele>40</ele>
        <time>2022-04-25T13:42:54Z</time>
      </trkpt>
      <trkpt lat="47.41019" lon="-0.93517">
        <ele>41</ele>
        <time>2022-04-25T13:42:56Z</time>
      </trkpt>
      <trkpt lat="47.41034" lon="-0.93534">
        <ele>41</ele>
        <time>2022-04-25T13:42:59Z</time>
      </trkpt>
      <trkpt lat="47.4103" lon="-0.93557">
        <ele>41</ele>
        <time>2022-04-25T13:43:02Z</time>
      </trkpt>
      <trkpt lat="47.41034" lon="-0.9356">
        <ele>41</ele>
        <time>2022-04-25T13:43:03Z</time>
      </trkpt>
      <trkpt lat="47.41038" lon="-0.93567">
        <ele>41</ele>
        <time>2022-04-25T13:43:04Z</time>
      </trkpt>
      <trkpt lat="47.41091" lon="-0.93708">
        <ele>44</ele>
        <time>2022-04-25T13:43:23Z</time>
      </trkpt>
      <trkpt lat="47.41099" lon="-0.93725">
        <ele>44</ele>
        <time>2022-04-25T13:43:26Z</time>
      </trkpt>
      <trkpt lat="47.41122" lon="-0.93759">
        <ele>44</ele>
        <time>2022-04-25T13:43:31Z</time>
      </trkpt>
      <trkpt lat="47.41139" lon="-0.9378">
        <ele>45</ele>
        <time>2022-04-25T13:43:35Z</time>
      </trkpt>
      <trkpt lat="47.41231" lon="-0.9386">
        <ele>46</ele>
        <time>2022-04-25T13:43:54Z</time>
      </trkpt>
      <trkpt lat="47.4126" lon="-0.93875">
        <ele>46</ele>
        <time>2022-04-25T13:44:00Z</time>
      </trkpt>
      <trkpt lat="47.41303" lon="-0.93886">
        <ele>44</ele>
        <time>2022-04-25T13:44:07Z</time>
      </trkpt>
      <trkpt lat="47.41332" lon="-0.93899">
        <ele>44</ele>
        <time>2022-04-25T13:44:13Z</time>
      </trkpt>
      <trkpt lat="47.41403" lon="-0.93941">
        <ele>44</ele>
        <time>2022-04-25T13:44:26Z</time>
      </trkpt>
      <trkpt lat="47.41446" lon="-0.93975">
        <ele>44</ele>
        <time>2022-04-25T13:44:35Z</time>
      </trkpt>
      <trkpt lat="47.41639" lon="-0.94108">
        <ele>37</ele>
        <time>2022-04-25T13:45:13Z</time>
      </trkpt>
      <trkpt lat="47.41706" lon="-0.9417">
        <ele>35</ele>
        <time>2022-04-25T13:45:27Z</time>
      </trkpt>
      <trkpt lat="47.41798" lon="-0.94273">
        <ele>32</ele>
        <time>2022-04-25T13:45:48Z</time>
      </trkpt>
      <trkpt lat="47.41924" lon="-0.94382">
        <ele>34</ele>
        <time>2022-04-25T13:46:14Z</time>
      </trkpt>
      <trkpt lat="47.41938" lon="-0.94399">
        <ele>34</ele>
        <time>2022-04-25T13:46:17Z</time>
      </trkpt>
      <trkpt lat="47.41949" lon="-0.94415">
        <ele>34</ele>
        <time>2022-04-25T13:46:20Z</time>
      </trkpt>
      <trkpt lat="47.41956" lon="-0.94431">
        <ele>34</ele>
        <time>2022-04-25T13:46:22Z</time>
      </trkpt>
      <trkpt lat="47.41964" lon="-0.94463">
        <ele>35</ele>
        <time>2022-04-25T13:46:26Z</time>
      </trkpt>
      <trkpt lat="47.41968" lon="-0.94493">
        <ele>36</ele>
        <time>2022-04-25T13:46:30Z</time>
      </trkpt>
      <trkpt lat="47.41984" lon="-0.94671">
        <ele>40</ele>
        <time>2022-04-25T13:46:51Z</time>
      </trkpt>
      <trkpt lat="47.4199" lon="-0.9471">
        <ele>41</ele>
        <time>2022-04-25T13:46:56Z</time>
      </trkpt>
      <trkpt lat="47.41996" lon="-0.94725">
        <ele>41</ele>
        <time>2022-04-25T13:46:58Z</time>
      </trkpt>
      <trkpt lat="47.42004" lon="-0.94736">
        <ele>42</ele>
        <time>2022-04-25T13:47:00Z</time>
      </trkpt>
      <trkpt lat="47.42018" lon="-0.94752">
        <ele>41</ele>
        <time>2022-04-25T13:47:03Z</time>
      </trkpt>
      <trkpt lat="47.42046" lon="-0.94778">
        <ele>41</ele>
        <time>2022-04-25T13:47:09Z</time>
      </trkpt>
      <trkpt lat="47.42082" lon="-0.94806">
        <ele>40</ele>
        <time>2022-04-25T13:47:16Z</time>
      </trkpt>
      <trkpt lat="47.42124" lon="-0.94815">
        <ele>40</ele>
        <time>2022-04-25T13:47:24Z</time>
      </trkpt>
      <trkpt lat="47.42145" lon="-0.94817">
        <ele>40</ele>
        <time>2022-04-25T13:47:28Z</time>
      </trkpt>
      <trkpt lat="47.4217" lon="-0.94819">
        <ele>40</ele>
        <time>2022-04-25T13:47:32Z</time>
      </trkpt>
      <trkpt lat="47.42452" lon="-0.94851">
        <ele>45</ele>
        <time>2022-04-25T13:48:23Z</time>
      </trkpt>
      <trkpt lat="47.42555" lon="-0.94824">
        <ele>48</ele>
        <time>2022-04-25T13:48:41Z</time>
      </trkpt>
      <trkpt lat="47.42589" lon="-0.94808">
        <ele>49</ele>
        <time>2022-04-25T13:48:47Z</time>
      </trkpt>
      <trkpt lat="47.42661" lon="-0.94738">
        <ele>52</ele>
        <time>2022-04-25T13:49:03Z</time>
      </trkpt>
      <trkpt lat="47.42705" lon="-0.94704">
        <ele>53</ele>
        <time>2022-04-25T13:49:12Z</time>
      </trkpt>
      <trkpt lat="47.42726" lon="-0.94691">
        <ele>53</ele>
        <time>2022-04-25T13:49:16Z</time>
      </trkpt>
      <trkpt lat="47.4276" lon="-0.94677">
        <ele>54</ele>
        <time>2022-04-25T13:49:22Z</time>
      </trkpt>
      <trkpt lat="47.42786" lon="-0.94673">
        <ele>55</ele>
        <time>2022-04-25T13:49:27Z</time>
      </trkpt>
      <trkpt lat="47.42885" lon="-0.94692">
        <ele>59</ele>
        <time>2022-04-25T13:49:44Z</time>
      </trkpt>
      <trkpt lat="47.42913" lon="-0.94699">
        <ele>60</ele>
        <time>2022-04-25T13:49:49Z</time>
      </trkpt>
      <trkpt lat="47.42953" lon="-0.94722">
        <ele>60</ele>
        <time>2022-04-25T13:49:57Z</time>
      </trkpt>
      <trkpt lat="47.4296" lon="-0.94729">
        <ele>60</ele>
        <time>2022-04-25T13:49:59Z</time>
      </trkpt>
      <trkpt lat="47.4305" lon="-0.94867">
        <ele>61</ele>
        <time>2022-04-25T13:50:22Z</time>
      </trkpt>
      <trkpt lat="47.43091" lon="-0.94912">
        <ele>63</ele>
        <time>2022-04-25T13:50:31Z</time>
      </trkpt>
      <trkpt lat="47.43226" lon="-0.9501">
        <ele>65</ele>
        <time>2022-04-25T13:50:58Z</time>
      </trkpt>
      <trkpt lat="47.43238" lon="-0.95025">
        <ele>65</ele>
        <time>2022-04-25T13:51:00Z</time>
      </trkpt>
      <trkpt lat="47.43304" lon="-0.95133">
        <ele>65</ele>
        <time>2022-04-25T13:51:18Z</time>
      </trkpt>
      <trkpt lat="47.43356" lon="-0.95222">
        <ele>64</ele>
        <time>2022-04-25T13:51:32Z</time>
      </trkpt>
      <trkpt lat="47.43377" lon="-0.95243">
        <ele>64</ele>
        <time>2022-04-25T13:51:36Z</time>
      </trkpt>
      <trkpt lat="47.43396" lon="-0.95256">
        <ele>64</ele>
        <time>2022-04-25T13:51:40Z</time>
      </trkpt>
      <trkpt lat="47.43565" lon="-0.95305">
        <ele>66</ele>
        <time>2022-04-25T13:52:11Z</time>
      </trkpt>
      <trkpt lat="47.43609" lon="-0.95303">
        <ele>67</ele>
        <time>2022-04-25T13:52:19Z</time>
      </trkpt>
      <trkpt lat="47.43675" lon="-0.95288">
        <ele>68</ele>
        <time>2022-04-25T13:52:31Z</time>
      </trkpt>
      <trkpt lat="47.43714" lon="-0.95285">
        <ele>68</ele>
        <time>2022-04-25T13:52:38Z</time>
      </trkpt>
      <trkpt lat="47.44491" lon="-0.95267">
        <ele>79</ele>
        <time>2022-04-25T13:54:56Z</time>
      </trkpt>
      <trkpt lat="47.44775" lon="-0.95266">
        <ele>74</ele>
        <time>2022-04-25T13:55:46Z</time>
      </trkpt>
      <trkpt lat="47.44859" lon="-0.95268">
        <ele>75</ele>
        <time>2022-04-25T13:56:01Z</time>
      </trkpt>
      <trkpt lat="47.44889" lon="-0.95273">
        <ele>76</ele>
        <time>2022-04-25T13:56:07Z</time>
      </trkpt>
      <trkpt lat="47.44915" lon="-0.95282">
        <ele>76</ele>
        <time>2022-04-25T13:56:11Z</time>
      </trkpt>
      <trkpt lat="47.44948" lon="-0.95287">
        <ele>76</ele>
        <time>2022-04-25T13:56:17Z</time>
      </trkpt>
      <trkpt lat="47.45013" lon="-0.95278">
        <ele>76</ele>
        <time>2022-04-25T13:56:29Z</time>
      </trkpt>
      <trkpt lat="47.45053" lon="-0.95261">
        <ele>75</ele>
        <time>2022-04-25T13:56:36Z</time>
      </trkpt>
      <trkpt lat="47.45079" lon="-0.95252">
        <ele>74</ele>
        <time>2022-04-25T13:56:41Z</time>
      </trkpt>
      <trkpt lat="47.45095" lon="-0.95251">
        <ele>73</ele>
        <time>2022-04-25T13:56:44Z</time>
      </trkpt>
      <trkpt lat="47.4518" lon="-0.95261">
        <ele>69</ele>
        <time>2022-04-25T13:56:59Z</time>
      </trkpt>
      <trkpt lat="47.45197" lon="-0.95266">
        <ele>69</ele>
        <time>2022-04-25T13:57:02Z</time>
      </trkpt>
      <trkpt lat="47.45213" lon="-0.95276">
        <ele>68</ele>
        <time>2022-04-25T13:57:05Z</time>
      </trkpt>
      <trkpt lat="47.45233" lon="-0.95299">
        <ele>67</ele>
        <time>2022-04-25T13:57:10Z</time>
      </trkpt>
      <trkpt lat="47.45308" lon="-0.95406">
        <ele>65</ele>
        <time>2022-04-25T13:57:28Z</time>
      </trkpt>
      <trkpt lat="47.45327" lon="-0.95429">
        <ele>65</ele>
        <time>2022-04-25T13:57:33Z</time>
      </trkpt>
      <trkpt lat="47.45347" lon="-0.95451">
        <ele>65</ele>
        <time>2022-04-25T13:57:37Z</time>
      </trkpt>
      <trkpt lat="47.45364" lon="-0.95463">
        <ele>65</ele>
        <time>2022-04-25T13:57:40Z</time>
      </trkpt>
      <trkpt lat="47.45546" lon="-0.95554">
        <ele>63</ele>
        <time>2022-04-25T13:58:15Z</time>
      </trkpt>
      <trkpt lat="47.45574" lon="-0.95572">
        <ele>62</ele>
        <time>2022-04-25T13:58:20Z</time>
      </trkpt>
      <trkpt lat="47.45593" lon="-0.95589">
        <ele>62</ele>
        <time>2022-04-25T13:58:24Z</time>
      </trkpt>
      <trkpt lat="47.45622" lon="-0.95624">
        <ele>61</ele>
        <time>2022-04-25T13:58:31Z</time>
      </trkpt>
      <trkpt lat="47.45681" lon="-0.95703">
        <ele>59</ele>
        <time>2022-04-25T13:58:45Z</time>
      </trkpt>
      <trkpt lat="47.4571" lon="-0.95747">
        <ele>59</ele>
        <time>2022-04-25T13:58:52Z</time>
      </trkpt>
      <trkpt lat="47.45787" lon="-0.95876">
        <ele>54</ele>
        <time>2022-04-25T13:59:13Z</time>
      </trkpt>
      <trkpt lat="47.4581" lon="-0.95909">
        <ele>54</ele>
        <time>2022-04-25T13:59:19Z</time>
      </trkpt>
      <trkpt lat="47.45825" lon="-0.95926">
        <ele>55</ele>
        <time>2022-04-25T13:59:22Z</time>
      </trkpt>
      <trkpt lat="47.45854" lon="-0.95951">
        <ele>56</ele>
        <time>2022-04-25T13:59:28Z</time>
      </trkpt>
      <trkpt lat="47.45897" lon="-0.95982">
        <ele>56</ele>
        <time>2022-04-25T13:59:36Z</time>
      </trkpt>
      <trkpt lat="47.45921" lon="-0.95988">
        <ele>56</ele>
        <time>2022-04-25T13:59:41Z</time>
      </trkpt>
      <trkpt lat="47.45932" lon="-0.95988">
        <ele>56</ele>
        <time>2022-04-25T13:59:43Z</time>
      </trkpt>
      <trkpt lat="47.45965" lon="-0.95975">
        <ele>57</ele>
        <time>2022-04-25T13:59:49Z</time>
      </trkpt>
      <trkpt lat="47.46094" lon="-0.95896">
        <ele>62</ele>
        <time>2022-04-25T14:00:14Z</time>
      </trkpt>
      <trkpt lat="47.46107" lon="-0.95892">
        <ele>62</ele>
        <time>2022-04-25T14:00:16Z</time>
      </trkpt>
      <trkpt lat="47.46121" lon="-0.95891">
        <ele>62</ele>
        <time>2022-04-25T14:00:19Z</time>
      </trkpt>
      <trkpt lat="47.46137" lon="-0.95893">
        <ele>63</ele>
        <time>2022-04-25T14:00:21Z</time>
      </trkpt>
      <trkpt lat="47.46178" lon="-0.9591">
        <ele>64</ele>
        <time>2022-04-25T14:00:29Z</time>
      </trkpt>
      <trkpt lat="47.46283" lon="-0.95982">
        <ele>65</ele>
        <time>2022-04-25T14:00:50Z</time>
      </trkpt>
      <trkpt lat="47.463" lon="-0.95999">
        <ele>65</ele>
        <time>2022-04-25T14:00:53Z</time>
      </trkpt>
      <trkpt lat="47.46313" lon="-0.96021">
        <ele>66</ele>
        <time>2022-04-25T14:00:57Z</time>
      </trkpt>
      <trkpt lat="47.46416" lon="-0.96221">
        <ele>66</ele>
        <time>2022-04-25T14:01:27Z</time>
      </trkpt>
      <trkpt lat="47.46434" lon="-0.96247">
        <ele>66</ele>
        <time>2022-04-25T14:01:31Z</time>
      </trkpt>
      <trkpt lat="47.46443" lon="-0.96258">
        <ele>65</ele>
        <time>2022-04-25T14:01:34Z</time>
      </trkpt>
      <trkpt lat="47.46459" lon="-0.96271">
        <ele>65</ele>
        <time>2022-04-25T14:01:37Z</time>
      </trkpt>
      <trkpt lat="47.46599" lon="-0.9634">
        <ele>55</ele>
        <time>2022-04-25T14:02:03Z</time>
      </trkpt>
      <trkpt lat="47.46761" lon="-0.96425">
        <ele>51</ele>
        <time>2022-04-25T14:02:34Z</time>
      </trkpt>
      <trkpt lat="47.46785" lon="-0.96434">
        <ele>51</ele>
        <time>2022-04-25T14:02:38Z</time>
      </trkpt>
      <trkpt lat="47.46799" lon="-0.96435">
        <ele>51</ele>
        <time>2022-04-25T14:02:41Z</time>
      </trkpt>
      <trkpt lat="47.46811" lon="-0.96434">
        <ele>51</ele>
        <time>2022-04-25T14:02:43Z</time>
      </trkpt>
      <trkpt lat="47.4682" lon="-0.9643">
        <ele>51</ele>
        <time>2022-04-25T14:02:44Z</time>
      </trkpt>
      <trkpt lat="47.46971" lon="-0.96337">
        <ele>62</ele>
        <time>2022-04-25T14:03:13Z</time>
      </trkpt>
      <trkpt lat="47.46994" lon="-0.9632">
        <ele>64</ele>
        <time>2022-04-25T14:03:18Z</time>
      </trkpt>
      <trkpt lat="47.47009" lon="-0.96305">
        <ele>65</ele>
        <time>2022-04-25T14:03:21Z</time>
      </trkpt>
      <trkpt lat="47.47202" lon="-0.96059">
        <ele>74</ele>
        <time>2022-04-25T14:04:07Z</time>
      </trkpt>
      <trkpt lat="47.47215" lon="-0.96045">
        <ele>74</ele>
        <time>2022-04-25T14:04:09Z</time>
      </trkpt>
      <trkpt lat="47.4723" lon="-0.96035">
        <ele>75</ele>
        <time>2022-04-25T14:04:12Z</time>
      </trkpt>
      <trkpt lat="47.47243" lon="-0.96031">
        <ele>75</ele>
        <time>2022-04-25T14:04:15Z</time>
      </trkpt>
      <trkpt lat="47.47266" lon="-0.96031">
        <ele>75</ele>
        <time>2022-04-25T14:04:19Z</time>
      </trkpt>
      <trkpt lat="47.47428" lon="-0.96037">
        <ele>76</ele>
        <time>2022-04-25T14:04:48Z</time>
      </trkpt>
      <trkpt lat="47.47457" lon="-0.96031">
        <ele>76</ele>
        <time>2022-04-25T14:04:53Z</time>
      </trkpt>
      <trkpt lat="47.47853" lon="-0.95782">
        <ele>78</ele>
        <time>2022-04-25T14:06:09Z</time>
      </trkpt>
      <trkpt lat="47.47879" lon="-0.95773">
        <ele>78</ele>
        <time>2022-04-25T14:06:14Z</time>
      </trkpt>
      <trkpt lat="47.47903" lon="-0.95773">
        <ele>78</ele>
        <time>2022-04-25T14:06:18Z</time>
      </trkpt>
      <trkpt lat="47.47926" lon="-0.95778">
        <ele>78</ele>
        <time>2022-04-25T14:06:23Z</time>
      </trkpt>
      <trkpt lat="47.48034" lon="-0.9582">
        <ele>76</ele>
        <time>2022-04-25T14:06:42Z</time>
      </trkpt>
      <trkpt lat="47.48056" lon="-0.95833">
        <ele>77</ele>
        <time>2022-04-25T14:06:47Z</time>
      </trkpt>
      <trkpt lat="47.48091" lon="-0.95864">
        <ele>77</ele>
        <time>2022-04-25T14:06:54Z</time>
      </trkpt>
      <trkpt lat="47.48149" lon="-0.95922">
        <ele>78</ele>
        <time>2022-04-25T14:07:06Z</time>
      </trkpt>
      <trkpt lat="47.48298" lon="-0.96036">
        <ele>83</ele>
        <time>2022-04-25T14:07:36Z</time>
      </trkpt>
      <trkpt lat="47.4838" lon="-0.96113">
        <ele>83</ele>
        <time>2022-04-25T14:07:53Z</time>
      </trkpt>
      <trkpt lat="47.48468" lon="-0.96202">
        <ele>85</ele>
        <time>2022-04-25T14:08:12Z</time>
      </trkpt>
      <trkpt lat="47.48508" lon="-0.96237">
        <ele>86</ele>
        <time>2022-04-25T14:08:21Z</time>
      </trkpt>
      <trkpt lat="47.48525" lon="-0.96247">
        <ele>86</ele>
        <time>2022-04-25T14:08:24Z</time>
      </trkpt>
      <trkpt lat="47.48659" lon="-0.96304">
        <ele>85</ele>
        <time>2022-04-25T14:08:49Z</time>
      </trkpt>
      <trkpt lat="47.48711" lon="-0.96331">
        <ele>86</ele>
        <time>2022-04-25T14:08:59Z</time>
      </trkpt>
      <trkpt lat="47.48959" lon="-0.96477">
        <ele>88</ele>
        <time>2022-04-25T14:09:46Z</time>
      </trkpt>
      <trkpt lat="47.49022" lon="-0.96501">
        <ele>87</ele>
        <time>2022-04-25T14:09:58Z</time>
      </trkpt>
      <trkpt lat="47.49134" lon="-0.96538">
        <ele>81</ele>
        <time>2022-04-25T14:10:18Z</time>
      </trkpt>
      <trkpt lat="47.49163" lon="-0.96556">
        <ele>79</ele>
        <time>2022-04-25T14:10:24Z</time>
      </trkpt>
      <trkpt lat="47.49201" lon="-0.96592">
        <ele>76</ele>
        <time>2022-04-25T14:10:32Z</time>
      </trkpt>
      <trkpt lat="47.49231" lon="-0.96622">
        <ele>75</ele>
        <time>2022-04-25T14:10:38Z</time>
      </trkpt>
      <trkpt lat="47.49248" lon="-0.96652">
        <ele>75</ele>
        <time>2022-04-25T14:10:43Z</time>
      </trkpt>
      <trkpt lat="47.49256" lon="-0.96668">
        <ele>75</ele>
        <time>2022-04-25T14:10:45Z</time>
      </trkpt>
      <trkpt lat="47.49265" lon="-0.96693">
        <ele>74</ele>
        <time>2022-04-25T14:10:49Z</time>
      </trkpt>
      <trkpt lat="47.49271" lon="-0.96717">
        <ele>74</ele>
        <time>2022-04-25T14:10:52Z</time>
      </trkpt>
      <trkpt lat="47.49275" lon="-0.96742">
        <ele>74</ele>
        <time>2022-04-25T14:10:55Z</time>
      </trkpt>
      <trkpt lat="47.49287" lon="-0.96936">
        <ele>72</ele>
        <time>2022-04-25T14:11:18Z</time>
      </trkpt>
      <trkpt lat="47.49291" lon="-0.9696">
        <ele>72</ele>
        <time>2022-04-25T14:11:21Z</time>
      </trkpt>
      <trkpt lat="47.49295" lon="-0.96977">
        <ele>71</ele>
        <time>2022-04-25T14:11:23Z</time>
      </trkpt>
      <trkpt lat="47.49304" lon="-0.96996">
        <ele>70</ele>
        <time>2022-04-25T14:11:26Z</time>
      </trkpt>
      <trkpt lat="47.49619" lon="-0.97394">
        <ele>59</ele>
        <time>2022-04-25T14:12:40Z</time>
      </trkpt>
      <trkpt lat="47.49788" lon="-0.97614">
        <ele>65</ele>
        <time>2022-04-25T14:13:20Z</time>
      </trkpt>
      <trkpt lat="47.49821" lon="-0.97644">
        <ele>65</ele>
        <time>2022-04-25T14:13:27Z</time>
      </trkpt>
      <trkpt lat="47.49847" lon="-0.97654">
        <ele>65</ele>
        <time>2022-04-25T14:13:32Z</time>
      </trkpt>
      <trkpt lat="47.50651" lon="-0.97614">
        <ele>72</ele>
        <time>2022-04-25T14:15:55Z</time>
      </trkpt>
      <trkpt lat="47.5068" lon="-0.9762">
        <ele>71</ele>
        <time>2022-04-25T14:16:00Z</time>
      </trkpt>
      <trkpt lat="47.50695" lon="-0.97627">
        <ele>70</ele>
        <time>2022-04-25T14:16:03Z</time>
      </trkpt>
      <trkpt lat="47.50723" lon="-0.9765">
        <ele>69</ele>
        <time>2022-04-25T14:16:08Z</time>
      </trkpt>
      <trkpt lat="47.50735" lon="-0.97663">
        <ele>68</ele>
        <time>2022-04-25T14:16:11Z</time>
      </trkpt>
      <trkpt lat="47.50935" lon="-0.9793">
        <ele>59</ele>
        <time>2022-04-25T14:16:59Z</time>
      </trkpt>
      <trkpt lat="47.5096" lon="-0.97964">
        <ele>58</ele>
        <time>2022-04-25T14:17:05Z</time>
      </trkpt>
      <trkpt lat="47.50979" lon="-0.97995">
        <ele>58</ele>
        <time>2022-04-25T14:17:10Z</time>
      </trkpt>
      <trkpt lat="47.51003" lon="-0.98048">
        <ele>57</ele>
        <time>2022-04-25T14:17:18Z</time>
      </trkpt>
      <trkpt lat="47.51012" lon="-0.98075">
        <ele>57</ele>
        <time>2022-04-25T14:17:21Z</time>
      </trkpt>
      <trkpt lat="47.51024" lon="-0.98125">
        <ele>57</ele>
        <time>2022-04-25T14:17:28Z</time>
      </trkpt>
      <trkpt lat="47.5105" lon="-0.98318">
        <ele>59</ele>
        <time>2022-04-25T14:17:51Z</time>
      </trkpt>
      <trkpt lat="47.51056" lon="-0.98327">
        <ele>59</ele>
        <time>2022-04-25T14:17:53Z</time>
      </trkpt>
      <trkpt lat="47.51084" lon="-0.98356">
        <ele>60</ele>
        <time>2022-04-25T14:17:59Z</time>
      </trkpt>
      <trkpt lat="47.51128" lon="-0.98383">
        <ele>58</ele>
        <time>2022-04-25T14:18:07Z</time>
      </trkpt>
      <trkpt lat="47.51133" lon="-0.98395">
        <ele>58</ele>
        <time>2022-04-25T14:18:09Z</time>
      </trkpt>
      <trkpt lat="47.51135" lon="-0.98408">
        <ele>58</ele>
        <time>2022-04-25T14:18:11Z</time>
      </trkpt>
      <trkpt lat="47.51131" lon="-0.98433">
        <ele>57</ele>
        <time>2022-04-25T14:18:14Z</time>
      </trkpt>
      <trkpt lat="47.51124" lon="-0.98464">
        <ele>57</ele>
        <time>2022-04-25T14:18:18Z</time>
      </trkpt>
      <trkpt lat="47.5111" lon="-0.9852">
        <ele>56</ele>
        <time>2022-04-25T14:18:25Z</time>
      </trkpt>
      <trkpt lat="47.51098" lon="-0.9858">
        <ele>56</ele>
        <time>2022-04-25T14:18:32Z</time>
      </trkpt>
      <trkpt lat="47.51098" lon="-0.98651">
        <ele>57</ele>
        <time>2022-04-25T14:18:41Z</time>
      </trkpt>
      <trkpt lat="47.51104" lon="-0.98709">
        <ele>59</ele>
        <time>2022-04-25T14:18:48Z</time>
      </trkpt>
      <trkpt lat="47.51107" lon="-0.98725">
        <ele>59</ele>
        <time>2022-04-25T14:18:50Z</time>
      </trkpt>
      <trkpt lat="47.51113" lon="-0.98741">
        <ele>60</ele>
        <time>2022-04-25T14:18:52Z</time>
      </trkpt>
      <trkpt lat="47.51132" lon="-0.98771">
        <ele>60</ele>
        <time>2022-04-25T14:18:57Z</time>
      </trkpt>
      <trkpt lat="47.5122" lon="-0.9888">
        <ele>58</ele>
        <time>2022-04-25T14:19:18Z</time>
      </trkpt>
      <trkpt lat="47.51234" lon="-0.98901">
        <ele>58</ele>
        <time>2022-04-25T14:19:21Z</time>
      </trkpt>
      <trkpt lat="47.5125" lon="-0.9893">
        <ele>57</ele>
        <time>2022-04-25T14:19:26Z</time>
      </trkpt>
      <trkpt lat="47.51262" lon="-0.98962">
        <ele>57</ele>
        <time>2022-04-25T14:19:30Z</time>
      </trkpt>
      <trkpt lat="47.5127" lon="-0.98989">
        <ele>57</ele>
        <time>2022-04-25T14:19:34Z</time>
      </trkpt>
      <trkpt lat="47.51291" lon="-0.99092">
        <ele>57</ele>
        <time>2022-04-25T14:19:47Z</time>
      </trkpt>
      <trkpt lat="47.51372" lon="-0.99516">
        <ele>54</ele>
        <time>2022-04-25T14:20:39Z</time>
      </trkpt>
      <trkpt lat="47.51389" lon="-0.99575">
        <ele>53</ele>
        <time>2022-04-25T14:20:47Z</time>
      </trkpt>
      <trkpt lat="47.51413" lon="-0.99622">
        <ele>52</ele>
        <time>2022-04-25T14:20:54Z</time>
      </trkpt>
      <trkpt lat="47.51512" lon="-0.99781">
        <ele>51</ele>
        <time>2022-04-25T14:21:20Z</time>
      </trkpt>
      <trkpt lat="47.5183" lon="-1.00297">
        <ele>48</ele>
        <time>2022-04-25T14:22:44Z</time>
      </trkpt>
      <trkpt lat="47.51906" lon="-1.00419">
        <ele>47</ele>
        <time>2022-04-25T14:23:04Z</time>
      </trkpt>
      <trkpt lat="47.51927" lon="-1.00451">
        <ele>47</ele>
        <time>2022-04-25T14:23:09Z</time>
      </trkpt>
      <trkpt lat="47.51946" lon="-1.00474">
        <ele>48</ele>
        <time>2022-04-25T14:23:14Z</time>
      </trkpt>
      <trkpt lat="47.51971" lon="-1.005">
        <ele>48</ele>
        <time>2022-04-25T14:23:19Z</time>
      </trkpt>
      <trkpt lat="47.51995" lon="-1.00519">
        <ele>48</ele>
        <time>2022-04-25T14:23:24Z</time>
      </trkpt>
      <trkpt lat="47.52022" lon="-1.00535">
        <ele>48</ele>
        <time>2022-04-25T14:23:29Z</time>
      </trkpt>
      <trkpt lat="47.52049" lon="-1.00547">
        <ele>47</ele>
        <time>2022-04-25T14:23:34Z</time>
      </trkpt>
      <trkpt lat="47.52091" lon="-1.00557">
        <ele>47</ele>
        <time>2022-04-25T14:23:42Z</time>
      </trkpt>
      <trkpt lat="47.52126" lon="-1.00557">
        <ele>48</ele>
        <time>2022-04-25T14:23:48Z</time>
      </trkpt>
      <trkpt lat="47.52147" lon="-1.00553">
        <ele>48</ele>
        <time>2022-04-25T14:23:52Z</time>
      </trkpt>
      <trkpt lat="47.52283" lon="-1.00514">
        <ele>51</ele>
        <time>2022-04-25T14:24:17Z</time>
      </trkpt>
      <trkpt lat="47.52387" lon="-1.00481">
        <ele>53</ele>
        <time>2022-04-25T14:24:35Z</time>
      </trkpt>
      <trkpt lat="47.52653" lon="-1.00402">
        <ele>50</ele>
        <time>2022-04-25T14:25:24Z</time>
      </trkpt>
      <trkpt lat="47.52691" lon="-1.00397">
        <ele>49</ele>
        <time>2022-04-25T14:25:31Z</time>
      </trkpt>
      <trkpt lat="47.52727" lon="-1.00401">
        <ele>48</ele>
        <time>2022-04-25T14:25:37Z</time>
      </trkpt>
      <trkpt lat="47.52755" lon="-1.0041">
        <ele>48</ele>
        <time>2022-04-25T14:25:42Z</time>
      </trkpt>
      <trkpt lat="47.53209" lon="-1.00663">
        <ele>45</ele>
        <time>2022-04-25T14:27:08Z</time>
      </trkpt>
      <trkpt lat="47.53226" lon="-1.00673">
        <ele>45</ele>
        <time>2022-04-25T14:27:12Z</time>
      </trkpt>
      <trkpt lat="47.53251" lon="-1.00694">
        <ele>45</ele>
        <time>2022-04-25T14:27:17Z</time>
      </trkpt>
      <trkpt lat="47.53261" lon="-1.00704">
        <ele>44</ele>
        <time>2022-04-25T14:27:19Z</time>
      </trkpt>
      <trkpt lat="47.5328" lon="-1.00731">
        <ele>44</ele>
        <time>2022-04-25T14:27:24Z</time>
      </trkpt>
      <trkpt lat="47.53449" lon="-1.01037">
        <ele>44</ele>
        <time>2022-04-25T14:28:11Z</time>
      </trkpt>
      <trkpt lat="47.53458" lon="-1.01055">
        <ele>44</ele>
        <time>2022-04-25T14:28:14Z</time>
      </trkpt>
      <trkpt lat="47.53608" lon="-1.01431">
        <ele>45</ele>
        <time>2022-04-25T14:29:06Z</time>
      </trkpt>
      <trkpt lat="47.53631" lon="-1.01484">
        <ele>45</ele>
        <time>2022-04-25T14:29:14Z</time>
      </trkpt>
      <trkpt lat="47.53711" lon="-1.0169">
        <ele>44</ele>
        <time>2022-04-25T14:29:42Z</time>
      </trkpt>
      <trkpt lat="47.53773" lon="-1.01833">
        <ele>45</ele>
        <time>2022-04-25T14:30:03Z</time>
      </trkpt>
      <trkpt lat="47.53789" lon="-1.01862">
        <ele>46</ele>
        <time>2022-04-25T14:30:07Z</time>
      </trkpt>
      <trkpt lat="47.53824" lon="-1.01914">
        <ele>47</ele>
        <time>2022-04-25T14:30:16Z</time>
      </trkpt>
      <trkpt lat="47.53857" lon="-1.01955">
        <ele>47</ele>
        <time>2022-04-25T14:30:24Z</time>
      </trkpt>
      <trkpt lat="47.53884" lon="-1.01983">
        <ele>48</ele>
        <time>2022-04-25T14:30:30Z</time>
      </trkpt>
      <trkpt lat="47.54294" lon="-1.02361">
        <ele>51</ele>
        <time>2022-04-25T14:31:55Z</time>
      </trkpt>
      <trkpt lat="47.54575" lon="-1.02623">
        <ele>49</ele>
        <time>2022-04-25T14:32:55Z</time>
      </trkpt>
      <trkpt lat="47.54603" lon="-1.02655">
        <ele>49</ele>
        <time>2022-04-25T14:33:01Z</time>
      </trkpt>
      <trkpt lat="47.5462" lon="-1.02684">
        <ele>49</ele>
        <time>2022-04-25T14:33:05Z</time>
      </trkpt>
      <trkpt lat="47.54643" lon="-1.0274">
        <ele>49</ele>
        <time>2022-04-25T14:33:13Z</time>
      </trkpt>
      <trkpt lat="47.5495" lon="-1.0358">
        <ele>43</ele>
        <time>2022-04-25T14:35:08Z</time>
      </trkpt>
      <trkpt lat="47.55048" lon="-1.03845">
        <ele>43</ele>
        <time>2022-04-25T14:35:44Z</time>
      </trkpt>
      <trkpt lat="47.55075" lon="-1.03913">
        <ele>44</ele>
        <time>2022-04-25T14:35:54Z</time>
      </trkpt>
      <trkpt lat="47.55087" lon="-1.03937">
        <ele>44</ele>
        <time>2022-04-25T14:35:57Z</time>
      </trkpt>
      <trkpt lat="47.55101" lon="-1.03958">
        <ele>44</ele>
        <time>2022-04-25T14:36:01Z</time>
      </trkpt>
      <trkpt lat="47.55116" lon="-1.03975">
        <ele>45</ele>
        <time>2022-04-25T14:36:04Z</time>
      </trkpt>
      <trkpt lat="47.55136" lon="-1.03991">
        <ele>45</ele>
        <time>2022-04-25T14:36:08Z</time>
      </trkpt>
      <trkpt lat="47.55152" lon="-1.04002">
        <ele>46</ele>
        <time>2022-04-25T14:36:12Z</time>
      </trkpt>
      <trkpt lat="47.55171" lon="-1.0401">
        <ele>46</ele>
        <time>2022-04-25T14:36:15Z</time>
      </trkpt>
      <trkpt lat="47.55256" lon="-1.0403">
        <ele>42</ele>
        <time>2022-04-25T14:36:30Z</time>
      </trkpt>
      <trkpt lat="47.5543" lon="-1.0406">
        <ele>46</ele>
        <time>2022-04-25T14:37:01Z</time>
      </trkpt>
      <trkpt lat="47.55472" lon="-1.04064">
        <ele>48</ele>
        <time>2022-04-25T14:37:09Z</time>
      </trkpt>
      <trkpt lat="47.55624" lon="-1.04052">
        <ele>46</ele>
        <time>2022-04-25T14:37:36Z</time>
      </trkpt>
      <trkpt lat="47.5563" lon="-1.04053">
        <ele>46</ele>
        <time>2022-04-25T14:37:37Z</time>
      </trkpt>
      <trkpt lat="47.55641" lon="-1.04059">
        <ele>45</ele>
        <time>2022-04-25T14:37:39Z</time>
      </trkpt>
      <trkpt lat="47.55656" lon="-1.0405">
        <ele>44</ele>
        <time>2022-04-25T14:37:42Z</time>
      </trkpt>
      <trkpt lat="47.55687" lon="-1.04045">
        <ele>42</ele>
        <time>2022-04-25T14:37:48Z</time>
      </trkpt>
      <trkpt lat="47.55697" lon="-1.04038">
        <ele>42</ele>
        <time>2022-04-25T14:37:50Z</time>
      </trkpt>
      <trkpt lat="47.55914" lon="-1.03812">
        <ele>48</ele>
        <time>2022-04-25T14:38:37Z</time>
      </trkpt>
      <trkpt lat="47.56059" lon="-1.03795">
        <ele>46</ele>
        <time>2022-04-25T14:39:03Z</time>
      </trkpt>
      <trkpt lat="47.55914" lon="-1.03812">
        <ele>48</ele>
        <time>2022-04-25T14:39:29Z</time>
      </trkpt>
      <trkpt lat="47.55697" lon="-1.04038">
        <ele>42</ele>
        <time>2022-04-25T14:40:16Z</time>
      </trkpt>
      <trkpt lat="47.55687" lon="-1.04045">
        <ele>42</ele>
        <time>2022-04-25T14:40:18Z</time>
      </trkpt>
      <trkpt lat="47.55656" lon="-1.0405">
        <ele>44</ele>
        <time>2022-04-25T14:40:23Z</time>
      </trkpt>
      <trkpt lat="47.55641" lon="-1.04059">
        <ele>45</ele>
        <time>2022-04-25T14:40:26Z</time>
      </trkpt>
      <trkpt lat="47.55633" lon="-1.0408">
        <ele>45</ele>
        <time>2022-04-25T14:40:29Z</time>
      </trkpt>
      <trkpt lat="47.55594" lon="-1.04541">
        <ele>49</ele>
        <time>2022-04-25T14:41:25Z</time>
      </trkpt>
      <trkpt lat="47.55586" lon="-1.04587">
        <ele>50</ele>
        <time>2022-04-25T14:41:31Z</time>
      </trkpt>
      <trkpt lat="47.55577" lon="-1.04626">
        <ele>50</ele>
        <time>2022-04-25T14:41:36Z</time>
      </trkpt>
      <trkpt lat="47.55568" lon="-1.04658">
        <ele>50</ele>
        <time>2022-04-25T14:41:40Z</time>
      </trkpt>
      <trkpt lat="47.55562" lon="-1.04675">
        <ele>50</ele>
        <time>2022-04-25T14:41:42Z</time>
      </trkpt>
      <trkpt lat="47.55553" lon="-1.04721">
        <ele>51</ele>
        <time>2022-04-25T14:41:48Z</time>
      </trkpt>
      <trkpt lat="47.55546" lon="-1.04773">
        <ele>52</ele>
        <time>2022-04-25T14:41:54Z</time>
      </trkpt>
      <trkpt lat="47.55546" lon="-1.04792">
        <ele>52</ele>
        <time>2022-04-25T14:41:56Z</time>
      </trkpt>
      <trkpt lat="47.55547" lon="-1.04802">
        <ele>52</ele>
        <time>2022-04-25T14:41:58Z</time>
      </trkpt>
      <trkpt lat="47.55551" lon="-1.0481">
        <ele>52</ele>
        <time>2022-04-25T14:41:59Z</time>
      </trkpt>
      <trkpt lat="47.55563" lon="-1.04825">
        <ele>51</ele>
        <time>2022-04-25T14:42:02Z</time>
      </trkpt>
      <trkpt lat="47.55567" lon="-1.04841">
        <ele>51</ele>
        <time>2022-04-25T14:42:04Z</time>
      </trkpt>
      <trkpt lat="47.55568" lon="-1.04859">
        <ele>50</ele>
        <time>2022-04-25T14:42:06Z</time>
      </trkpt>
      <trkpt lat="47.55564" lon="-1.04874">
        <ele>50</ele>
        <time>2022-04-25T14:42:08Z</time>
      </trkpt>
      <trkpt lat="47.55558" lon="-1.04885">
        <ele>51</ele>
        <time>2022-04-25T14:42:09Z</time>
      </trkpt>
      <trkpt lat="47.55546" lon="-1.04895">
        <ele>51</ele>
        <time>2022-04-25T14:42:12Z</time>
      </trkpt>
      <trkpt lat="47.5553" lon="-1.04935">
        <ele>51</ele>
        <time>2022-04-25T14:42:17Z</time>
      </trkpt>
      <trkpt lat="47.55497" lon="-1.04994">
        <ele>51</ele>
        <time>2022-04-25T14:42:27Z</time>
      </trkpt>
      <trkpt lat="47.55485" lon="-1.05025">
        <ele>52</ele>
        <time>2022-04-25T14:42:31Z</time>
      </trkpt>
      <trkpt lat="47.55469" lon="-1.05216">
        <ele>54</ele>
        <time>2022-04-25T14:42:54Z</time>
      </trkpt>
      <trkpt lat="47.5546" lon="-1.05354">
        <ele>54</ele>
        <time>2022-04-25T14:43:11Z</time>
      </trkpt>
      <trkpt lat="47.55448" lon="-1.05497">
        <ele>57</ele>
        <time>2022-04-25T14:43:28Z</time>
      </trkpt>
      <trkpt lat="47.55435" lon="-1.05621">
        <ele>56</ele>
        <time>2022-04-25T14:43:43Z</time>
      </trkpt>
      <trkpt lat="47.55341" lon="-1.06733">
        <ele>53</ele>
        <time>2022-04-25T14:45:58Z</time>
      </trkpt>
      <trkpt lat="47.55155" lon="-1.09018">
        <ele>59</ele>
        <time>2022-04-25T14:50:34Z</time>
      </trkpt>
      <trkpt lat="47.54988" lon="-1.10997">
        <ele>69</ele>
        <time>2022-04-25T14:54:34Z</time>
      </trkpt>
      <trkpt lat="47.54922" lon="-1.11706">
        <ele>46</ele>
        <time>2022-04-25T14:56:00Z</time>
      </trkpt>
      <trkpt lat="47.54926" lon="-1.11708">
        <ele>46</ele>
        <time>2022-04-25T14:56:00Z</time>
      </trkpt>
      <trkpt lat="47.5493" lon="-1.11713">
        <ele>46</ele>
        <time>2022-04-25T14:56:01Z</time>
      </trkpt>
      <trkpt lat="47.54932" lon="-1.1172">
        <ele>46</ele>
        <time>2022-04-25T14:56:02Z</time>
      </trkpt>
      <trkpt lat="47.54932" lon="-1.11727">
        <ele>46</ele>
        <time>2022-04-25T14:56:03Z</time>
      </trkpt>
      <trkpt lat="47.5493" lon="-1.11735">
        <ele>46</ele>
        <time>2022-04-25T14:56:04Z</time>
      </trkpt>
      <trkpt lat="47.54926" lon="-1.1174">
        <ele>46</ele>
        <time>2022-04-25T14:56:05Z</time>
      </trkpt>
      <trkpt lat="47.54918" lon="-1.11742">
        <ele>46</ele>
        <time>2022-04-25T14:56:06Z</time>
      </trkpt>
      <trkpt lat="47.54872" lon="-1.12234">
        <ele>51</ele>
        <time>2022-04-25T14:57:06Z</time>
      </trkpt>
      <trkpt lat="47.54872" lon="-1.12264">
        <ele>51</ele>
        <time>2022-04-25T14:57:10Z</time>
      </trkpt>
      <trkpt lat="47.54873" lon="-1.12358">
        <ele>51</ele>
        <time>2022-04-25T14:57:21Z</time>
      </trkpt>
      <trkpt lat="47.54871" lon="-1.12366">
        <ele>51</ele>
        <time>2022-04-25T14:57:22Z</time>
      </trkpt>
      <trkpt lat="47.54867" lon="-1.12372">
        <ele>51</ele>
        <time>2022-04-25T14:57:23Z</time>
      </trkpt>
      <trkpt lat="47.5486" lon="-1.12374">
        <ele>51</ele>
        <time>2022-04-25T14:57:24Z</time>
      </trkpt>
      <trkpt lat="47.54824" lon="-1.12371">
        <ele>51</ele>
        <time>2022-04-25T14:57:31Z</time>
      </trkpt>
      <trkpt lat="47.54812" lon="-1.12377">
        <ele>51</ele>
        <time>2022-04-25T14:57:33Z</time>
      </trkpt>
      <trkpt lat="47.54802" lon="-1.12391">
        <ele>51</ele>
        <time>2022-04-25T14:57:35Z</time>
      </trkpt>
      <trkpt lat="47.54605" lon="-1.12852">
        <ele>50</ele>
        <time>2022-04-25T14:58:41Z</time>
      </trkpt>
      <trkpt lat="47.53941" lon="-1.14408">
        <ele>58</ele>
        <time>2022-04-25T15:02:22Z</time>
      </trkpt>
      <trkpt lat="47.53467" lon="-1.15515">
        <ele>32</ele>
        <time>2022-04-25T15:04:59Z</time>
      </trkpt>
      <trkpt lat="47.529" lon="-1.16847">
        <ele>33</ele>
        <time>2022-04-25T15:08:09Z</time>
      </trkpt>
      <trkpt lat="47.52891" lon="-1.16865">
        <ele>33</ele>
        <time>2022-04-25T15:08:11Z</time>
      </trkpt>
      <trkpt lat="47.52534" lon="-1.17502">
        <ele>29</ele>
        <time>2022-04-25T15:09:51Z</time>
      </trkpt>
      <trkpt lat="47.5252" lon="-1.17536">
        <ele>28</ele>
        <time>2022-04-25T15:09:56Z</time>
      </trkpt>
      <trkpt lat="47.52518" lon="-1.17545">
        <ele>28</ele>
        <time>2022-04-25T15:09:57Z</time>
      </trkpt>
      <trkpt lat="47.52519" lon="-1.17555">
        <ele>28</ele>
        <time>2022-04-25T15:09:58Z</time>
      </trkpt>
      <trkpt lat="47.52522" lon="-1.17563">
        <ele>28</ele>
        <time>2022-04-25T15:09:59Z</time>
      </trkpt>
      <trkpt lat="47.52524" lon="-1.17572">
        <ele>28</ele>
        <time>2022-04-25T15:10:00Z</time>
      </trkpt>
      <trkpt lat="47.52525" lon="-1.17581">
        <ele>28</ele>
        <time>2022-04-25T15:10:01Z</time>
      </trkpt>
      <trkpt lat="47.52521" lon="-1.17597">
        <ele>28</ele>
        <time>2022-04-25T15:10:03Z</time>
      </trkpt>
      <trkpt lat="47.52511" lon="-1.17609">
        <ele>28</ele>
        <time>2022-04-25T15:10:06Z</time>
      </trkpt>
      <trkpt lat="47.52505" lon="-1.17624">
        <ele>28</ele>
        <time>2022-04-25T15:10:08Z</time>
      </trkpt>
      <trkpt lat="47.52501" lon="-1.17682">
        <ele>29</ele>
        <time>2022-04-25T15:10:15Z</time>
      </trkpt>
      <trkpt lat="47.52519" lon="-1.17837">
        <ele>28</ele>
        <time>2022-04-25T15:10:34Z</time>
      </trkpt>
      <trkpt lat="47.52522" lon="-1.17864">
        <ele>28</ele>
        <time>2022-04-25T15:10:37Z</time>
      </trkpt>
      <trkpt lat="47.52525" lon="-1.17902">
        <ele>28</ele>
        <time>2022-04-25T15:10:41Z</time>
      </trkpt>
      <trkpt lat="47.52524" lon="-1.17928">
        <ele>28</ele>
        <time>2022-04-25T15:10:45Z</time>
      </trkpt>
      <trkpt lat="47.52503" lon="-1.18097">
        <ele>28</ele>
        <time>2022-04-25T15:11:05Z</time>
      </trkpt>
      <trkpt lat="47.52494" lon="-1.18159">
        <ele>28</ele>
        <time>2022-04-25T15:11:13Z</time>
      </trkpt>
      <trkpt lat="47.52498" lon="-1.18162">
        <ele>28</ele>
        <time>2022-04-25T15:11:14Z</time>
      </trkpt>
      <trkpt lat="47.52499" lon="-1.18172">
        <ele>28</ele>
        <time>2022-04-25T15:11:15Z</time>
      </trkpt>
      <trkpt lat="47.52496" lon="-1.18176">
        <ele>28</ele>
        <time>2022-04-25T15:11:16Z</time>
      </trkpt>
      <trkpt lat="47.52491" lon="-1.18178">
        <ele>28</ele>
        <time>2022-04-25T15:11:16Z</time>
      </trkpt>
      <trkpt lat="47.52403" lon="-1.18829">
        <ele>29</ele>
        <time>2022-04-25T15:12:36Z</time>
      </trkpt>
      <trkpt lat="47.52398" lon="-1.18871">
        <ele>30</ele>
        <time>2022-04-25T15:12:41Z</time>
      </trkpt>
      <trkpt lat="47.52401" lon="-1.18888">
        <ele>30</ele>
        <time>2022-04-25T15:12:43Z</time>
      </trkpt>
      <trkpt lat="47.52405" lon="-1.18907">
        <ele>31</ele>
        <time>2022-04-25T15:12:46Z</time>
      </trkpt>
      <trkpt lat="47.52593" lon="-1.19476">
        <ele>36</ele>
        <time>2022-04-25T15:14:02Z</time>
      </trkpt>
      <trkpt lat="47.52606" lon="-1.19521">
        <ele>36</ele>
        <time>2022-04-25T15:14:08Z</time>
      </trkpt>
      <trkpt lat="47.52616" lon="-1.1957">
        <ele>37</ele>
        <time>2022-04-25T15:14:14Z</time>
      </trkpt>
      <trkpt lat="47.52623" lon="-1.19626">
        <ele>36</ele>
        <time>2022-04-25T15:14:21Z</time>
      </trkpt>
      <trkpt lat="47.52633" lon="-1.19803">
        <ele>34</ele>
        <time>2022-04-25T15:14:42Z</time>
      </trkpt>
      <trkpt lat="47.52638" lon="-1.19979">
        <ele>37</ele>
        <time>2022-04-25T15:15:03Z</time>
      </trkpt>
      <trkpt lat="47.52708" lon="-1.21831">
        <ele>32</ele>
        <time>2022-04-25T15:18:46Z</time>
      </trkpt>
      <trkpt lat="47.52754" lon="-1.23096">
        <ele>32</ele>
        <time>2022-04-25T15:21:18Z</time>
      </trkpt>
      <trkpt lat="47.52759" lon="-1.23229">
        <ele>33</ele>
        <time>2022-04-25T15:21:34Z</time>
      </trkpt>
      <trkpt lat="47.52758" lon="-1.23255">
        <ele>33</ele>
        <time>2022-04-25T15:21:38Z</time>
      </trkpt>
      <trkpt lat="47.5276" lon="-1.23273">
        <ele>34</ele>
        <time>2022-04-25T15:21:40Z</time>
      </trkpt>
      <trkpt lat="47.52769" lon="-1.23509">
        <ele>38</ele>
        <time>2022-04-25T15:22:08Z</time>
      </trkpt>
      <trkpt lat="47.52768" lon="-1.23547">
        <ele>39</ele>
        <time>2022-04-25T15:22:13Z</time>
      </trkpt>
      <trkpt lat="47.52769" lon="-1.23609">
        <ele>40</ele>
        <time>2022-04-25T15:22:20Z</time>
      </trkpt>
      <trkpt lat="47.52767" lon="-1.23641">
        <ele>40</ele>
        <time>2022-04-25T15:22:24Z</time>
      </trkpt>
      <trkpt lat="47.52767" lon="-1.23673">
        <ele>40</ele>
        <time>2022-04-25T15:22:28Z</time>
      </trkpt>
      <trkpt lat="47.52769" lon="-1.23706">
        <ele>40</ele>
        <time>2022-04-25T15:22:32Z</time>
      </trkpt>
      <trkpt lat="47.5277" lon="-1.238">
        <ele>40</ele>
        <time>2022-04-25T15:22:43Z</time>
      </trkpt>
      <trkpt lat="47.52768" lon="-1.2386">
        <ele>40</ele>
        <time>2022-04-25T15:22:50Z</time>
      </trkpt>
      <trkpt lat="47.52759" lon="-1.23918">
        <ele>41</ele>
        <time>2022-04-25T15:22:58Z</time>
      </trkpt>
      <trkpt lat="47.52755" lon="-1.23933">
        <ele>41</ele>
        <time>2022-04-25T15:22:59Z</time>
      </trkpt>
      <trkpt lat="47.52697" lon="-1.24071">
        <ele>35</ele>
        <time>2022-04-25T15:23:19Z</time>
      </trkpt>
      <trkpt lat="47.52692" lon="-1.24088">
        <ele>34</ele>
        <time>2022-04-25T15:23:21Z</time>
      </trkpt>
      <trkpt lat="47.52687" lon="-1.2412">
        <ele>33</ele>
        <time>2022-04-25T15:23:25Z</time>
      </trkpt>
      <trkpt lat="47.52687" lon="-1.24141">
        <ele>33</ele>
        <time>2022-04-25T15:23:28Z</time>
      </trkpt>
      <trkpt lat="47.52687" lon="-1.24178">
        <ele>34</ele>
        <time>2022-04-25T15:23:32Z</time>
      </trkpt>
      <trkpt lat="47.52685" lon="-1.242">
        <ele>34</ele>
        <time>2022-04-25T15:23:35Z</time>
      </trkpt>
      <trkpt lat="47.52682" lon="-1.24216">
        <ele>34</ele>
        <time>2022-04-25T15:23:37Z</time>
      </trkpt>
      <trkpt lat="47.52677" lon="-1.24228">
        <ele>34</ele>
        <time>2022-04-25T15:23:38Z</time>
      </trkpt>
      <trkpt lat="47.5267" lon="-1.24241">
        <ele>34</ele>
        <time>2022-04-25T15:23:40Z</time>
      </trkpt>
      <trkpt lat="47.52645" lon="-1.24278">
        <ele>32</ele>
        <time>2022-04-25T15:23:47Z</time>
      </trkpt>
      <trkpt lat="47.52637" lon="-1.24294">
        <ele>32</ele>
        <time>2022-04-25T15:23:49Z</time>
      </trkpt>
      <trkpt lat="47.52633" lon="-1.24309">
        <ele>32</ele>
        <time>2022-04-25T15:23:51Z</time>
      </trkpt>
      <trkpt lat="47.52625" lon="-1.24351">
        <ele>31</ele>
        <time>2022-04-25T15:23:56Z</time>
      </trkpt>
      <trkpt lat="47.52621" lon="-1.24425">
        <ele>32</ele>
        <time>2022-04-25T15:24:05Z</time>
      </trkpt>
      <trkpt lat="47.52619" lon="-1.24446">
        <ele>32</ele>
        <time>2022-04-25T15:24:08Z</time>
      </trkpt>
      <trkpt lat="47.52615" lon="-1.24462">
        <ele>31</ele>
        <time>2022-04-25T15:24:10Z</time>
      </trkpt>
      <trkpt lat="47.52608" lon="-1.24481">
        <ele>31</ele>
        <time>2022-04-25T15:24:12Z</time>
      </trkpt>
      <trkpt lat="47.52575" lon="-1.24527">
        <ele>29</ele>
        <time>2022-04-25T15:24:21Z</time>
      </trkpt>
      <trkpt lat="47.52568" lon="-1.24543">
        <ele>29</ele>
        <time>2022-04-25T15:24:23Z</time>
      </trkpt>
      <trkpt lat="47.52562" lon="-1.24562">
        <ele>29</ele>
        <time>2022-04-25T15:24:25Z</time>
      </trkpt>
      <trkpt lat="47.52557" lon="-1.24601">
        <ele>29</ele>
        <time>2022-04-25T15:24:30Z</time>
      </trkpt>
      <trkpt lat="47.52561" lon="-1.24788">
        <ele>32</ele>
        <time>2022-04-25T15:24:53Z</time>
      </trkpt>
      <trkpt lat="47.52566" lon="-1.24837">
        <ele>32</ele>
        <time>2022-04-25T15:24:59Z</time>
      </trkpt>
      <trkpt lat="47.52572" lon="-1.24874">
        <ele>32</ele>
        <time>2022-04-25T15:25:03Z</time>
      </trkpt>
      <trkpt lat="47.52589" lon="-1.24938">
        <ele>31</ele>
        <time>2022-04-25T15:25:11Z</time>
      </trkpt>
      <trkpt lat="47.5262" lon="-1.25022">
        <ele>32</ele>
        <time>2022-04-25T15:25:23Z</time>
      </trkpt>
      <trkpt lat="47.52636" lon="-1.25082">
        <ele>32</ele>
        <time>2022-04-25T15:25:31Z</time>
      </trkpt>
      <trkpt lat="47.52642" lon="-1.25113">
        <ele>32</ele>
        <time>2022-04-25T15:25:34Z</time>
      </trkpt>
      <trkpt lat="47.52655" lon="-1.25234">
        <ele>32</ele>
        <time>2022-04-25T15:25:49Z</time>
      </trkpt>
      <trkpt lat="47.52654" lon="-1.25305">
        <ele>31</ele>
        <time>2022-04-25T15:25:58Z</time>
      </trkpt>
      <trkpt lat="47.52652" lon="-1.25371">
        <ele>30</ele>
        <time>2022-04-25T15:26:06Z</time>
      </trkpt>
      <trkpt lat="47.52651" lon="-1.25394">
        <ele>31</ele>
        <time>2022-04-25T15:26:08Z</time>
      </trkpt>
      <trkpt lat="47.52647" lon="-1.25415">
        <ele>31</ele>
        <time>2022-04-25T15:26:11Z</time>
      </trkpt>
      <trkpt lat="47.52641" lon="-1.2544">
        <ele>31</ele>
        <time>2022-04-25T15:26:14Z</time>
      </trkpt>
      <trkpt lat="47.52626" lon="-1.25476">
        <ele>31</ele>
        <time>2022-04-25T15:26:19Z</time>
      </trkpt>
      <trkpt lat="47.52565" lon="-1.25604">
        <ele>31</ele>
        <time>2022-04-25T15:26:38Z</time>
      </trkpt>
      <trkpt lat="47.5246" lon="-1.25785">
        <ele>29</ele>
        <time>2022-04-25T15:27:07Z</time>
      </trkpt>
      <trkpt lat="47.52439" lon="-1.25832">
        <ele>29</ele>
        <time>2022-04-25T15:27:14Z</time>
      </trkpt>
      <trkpt lat="47.52423" lon="-1.25874">
        <ele>29</ele>
        <time>2022-04-25T15:27:19Z</time>
      </trkpt>
      <trkpt lat="47.5239" lon="-1.25982">
        <ele>29</ele>
        <time>2022-04-25T15:27:34Z</time>
      </trkpt>
      <trkpt lat="47.52368" lon="-1.26047">
        <ele>30</ele>
        <time>2022-04-25T15:27:42Z</time>
      </trkpt>
      <trkpt lat="47.52336" lon="-1.26148">
        <ele>32</ele>
        <time>2022-04-25T15:27:56Z</time>
      </trkpt>
      <trkpt lat="47.52316" lon="-1.26219">
        <ele>32</ele>
        <time>2022-04-25T15:28:05Z</time>
      </trkpt>
      <trkpt lat="47.52307" lon="-1.26292">
        <ele>32</ele>
        <time>2022-04-25T15:28:14Z</time>
      </trkpt>
      <trkpt lat="47.52298" lon="-1.26579">
        <ele>28</ele>
        <time>2022-04-25T15:28:48Z</time>
      </trkpt>
      <trkpt lat="47.52294" lon="-1.26611">
        <ele>27</ele>
        <time>2022-04-25T15:28:52Z</time>
      </trkpt>
      <trkpt lat="47.52283" lon="-1.26664">
        <ele>24</ele>
        <time>2022-04-25T15:28:59Z</time>
      </trkpt>
      <trkpt lat="47.52196" lon="-1.26929">
        <ele>25</ele>
        <time>2022-04-25T15:29:34Z</time>
      </trkpt>
      <trkpt lat="47.52167" lon="-1.27024">
        <ele>25</ele>
        <time>2022-04-25T15:29:47Z</time>
      </trkpt>
      <trkpt lat="47.52132" lon="-1.27097">
        <ele>25</ele>
        <time>2022-04-25T15:29:58Z</time>
      </trkpt>
      <trkpt lat="47.52091" lon="-1.27171">
        <ele>24</ele>
        <time>2022-04-25T15:30:09Z</time>
      </trkpt>
      <trkpt lat="47.52059" lon="-1.2722">
        <ele>24</ele>
        <time>2022-04-25T15:30:17Z</time>
      </trkpt>
      <trkpt lat="47.52044" lon="-1.27235">
        <ele>24</ele>
        <time>2022-04-25T15:30:21Z</time>
      </trkpt>
      <trkpt lat="47.52027" lon="-1.27247">
        <ele>24</ele>
        <time>2022-04-25T15:30:24Z</time>
      </trkpt>
      <trkpt lat="47.51868" lon="-1.2731">
        <ele>24</ele>
        <time>2022-04-25T15:30:53Z</time>
      </trkpt>
      <trkpt lat="47.51825" lon="-1.27334">
        <ele>23</ele>
        <time>2022-04-25T15:31:01Z</time>
      </trkpt>
      <trkpt lat="47.51707" lon="-1.27418">
        <ele>25</ele>
        <time>2022-04-25T15:31:25Z</time>
      </trkpt>
      <trkpt lat="47.51675" lon="-1.2745">
        <ele>24</ele>
        <time>2022-04-25T15:31:32Z</time>
      </trkpt>
      <trkpt lat="47.51658" lon="-1.27472">
        <ele>24</ele>
        <time>2022-04-25T15:31:36Z</time>
      </trkpt>
      <trkpt lat="47.51552" lon="-1.27637">
        <ele>23</ele>
        <time>2022-04-25T15:32:03Z</time>
      </trkpt>
      <trkpt lat="47.51536" lon="-1.27665">
        <ele>23</ele>
        <time>2022-04-25T15:32:07Z</time>
      </trkpt>
      <trkpt lat="47.51526" lon="-1.27686">
        <ele>24</ele>
        <time>2022-04-25T15:32:10Z</time>
      </trkpt>
      <trkpt lat="47.5151" lon="-1.27729">
        <ele>25</ele>
        <time>2022-04-25T15:32:16Z</time>
      </trkpt>
      <trkpt lat="47.51502" lon="-1.2776">
        <ele>25</ele>
        <time>2022-04-25T15:32:20Z</time>
      </trkpt>
      <trkpt lat="47.51492" lon="-1.27819">
        <ele>25</ele>
        <time>2022-04-25T15:32:28Z</time>
      </trkpt>
      <trkpt lat="47.51442" lon="-1.28237">
        <ele>26</ele>
        <time>2022-04-25T15:33:19Z</time>
      </trkpt>
      <trkpt lat="47.51438" lon="-1.28281">
        <ele>27</ele>
        <time>2022-04-25T15:33:24Z</time>
      </trkpt>
      <trkpt lat="47.51439" lon="-1.28315">
        <ele>27</ele>
        <time>2022-04-25T15:33:28Z</time>
      </trkpt>
      <trkpt lat="47.51442" lon="-1.28331">
        <ele>28</ele>
        <time>2022-04-25T15:33:30Z</time>
      </trkpt>
      <trkpt lat="47.51452" lon="-1.28362">
        <ele>28</ele>
        <time>2022-04-25T15:33:34Z</time>
      </trkpt>
      <trkpt lat="47.51551" lon="-1.28589">
        <ele>29</ele>
        <time>2022-04-25T15:34:07Z</time>
      </trkpt>
      <trkpt lat="47.51562" lon="-1.2862">
        <ele>29</ele>
        <time>2022-04-25T15:34:11Z</time>
      </trkpt>
      <trkpt lat="47.51568" lon="-1.28649">
        <ele>29</ele>
        <time>2022-04-25T15:34:15Z</time>
      </trkpt>
      <trkpt lat="47.51741" lon="-1.29624">
        <ele>34</ele>
        <time>2022-04-25T15:36:16Z</time>
      </trkpt>
      <trkpt lat="47.51741" lon="-1.29645">
        <ele>33</ele>
        <time>2022-04-25T15:36:18Z</time>
      </trkpt>
      <trkpt lat="47.51738" lon="-1.29679">
        <ele>33</ele>
        <time>2022-04-25T15:36:22Z</time>
      </trkpt>
      <trkpt lat="47.51732" lon="-1.29703">
        <ele>33</ele>
        <time>2022-04-25T15:36:25Z</time>
      </trkpt>
      <trkpt lat="47.51703" lon="-1.29811">
        <ele>33</ele>
        <time>2022-04-25T15:36:39Z</time>
      </trkpt>
      <trkpt lat="47.517" lon="-1.2983">
        <ele>33</ele>
        <time>2022-04-25T15:36:42Z</time>
      </trkpt>
      <trkpt lat="47.51702" lon="-1.29864">
        <ele>33</ele>
        <time>2022-04-25T15:36:46Z</time>
      </trkpt>
      <trkpt lat="47.51705" lon="-1.29876">
        <ele>33</ele>
        <time>2022-04-25T15:36:47Z</time>
      </trkpt>
      <trkpt lat="47.51715" lon="-1.29906">
        <ele>33</ele>
        <time>2022-04-25T15:36:51Z</time>
      </trkpt>
      <trkpt lat="47.51757" lon="-1.30012">
        <ele>33</ele>
        <time>2022-04-25T15:37:06Z</time>
      </trkpt>
      <trkpt lat="47.51768" lon="-1.30032">
        <ele>34</ele>
        <time>2022-04-25T15:37:09Z</time>
      </trkpt>
      <trkpt lat="47.51773" lon="-1.30029">
        <ele>34</ele>
        <time>2022-04-25T15:37:10Z</time>
      </trkpt>
      <trkpt lat="47.51783" lon="-1.30032">
        <ele>34</ele>
        <time>2022-04-25T15:37:12Z</time>
      </trkpt>
      <trkpt lat="47.5179" lon="-1.30042">
        <ele>35</ele>
        <time>2022-04-25T15:37:14Z</time>
      </trkpt>
      <trkpt lat="47.51791" lon="-1.3005">
        <ele>35</ele>
        <time>2022-04-25T15:37:15Z</time>
      </trkpt>
      <trkpt lat="47.5179" lon="-1.30064">
        <ele>34</ele>
        <time>2022-04-25T15:37:16Z</time>
      </trkpt>
      <trkpt lat="47.51783" lon="-1.30074">
        <ele>34</ele>
        <time>2022-04-25T15:37:18Z</time>
      </trkpt>
      <trkpt lat="47.518" lon="-1.30147">
        <ele>34</ele>
        <time>2022-04-25T15:37:27Z</time>
      </trkpt>
      <trkpt lat="47.51806" lon="-1.30178">
        <ele>34</ele>
        <time>2022-04-25T15:37:31Z</time>
      </trkpt>
      <trkpt lat="47.51808" lon="-1.30226">
        <ele>33</ele>
        <time>2022-04-25T15:37:37Z</time>
      </trkpt>
      <trkpt lat="47.51804" lon="-1.30289">
        <ele>32</ele>
        <time>2022-04-25T15:37:45Z</time>
      </trkpt>
      <trkpt lat="47.51795" lon="-1.30371">
        <ele>32</ele>
        <time>2022-04-25T15:37:55Z</time>
      </trkpt>
      <trkpt lat="47.511" lon="-1.33915">
        <ele>57</ele>
        <time>2022-04-25T15:45:18Z</time>
      </trkpt>
      <trkpt lat="47.5059" lon="-1.3653">
        <ele>36</ele>
        <time>2022-04-25T15:50:45Z</time>
      </trkpt>
      <trkpt lat="47.50357" lon="-1.37713">
        <ele>22</ele>
        <time>2022-04-25T15:53:13Z</time>
      </trkpt>
      <trkpt lat="47.50351" lon="-1.37744">
        <ele>24</ele>
        <time>2022-04-25T15:53:17Z</time>
      </trkpt>
      <trkpt lat="47.50328" lon="-1.3785">
        <ele>30</ele>
        <time>2022-04-25T15:53:31Z</time>
      </trkpt>
      <trkpt lat="47.50129" lon="-1.38875">
        <ele>33</ele>
        <time>2022-04-25T15:55:39Z</time>
      </trkpt>
      <trkpt lat="47.49953" lon="-1.39767">
        <ele>37</ele>
        <time>2022-04-25T15:57:31Z</time>
      </trkpt>
      <trkpt lat="47.49946" lon="-1.39812">
        <ele>36</ele>
        <time>2022-04-25T15:57:36Z</time>
      </trkpt>
      <trkpt lat="47.49946" lon="-1.39836">
        <ele>35</ele>
        <time>2022-04-25T15:57:39Z</time>
      </trkpt>
      <trkpt lat="47.49958" lon="-1.39995">
        <ele>33</ele>
        <time>2022-04-25T15:57:58Z</time>
      </trkpt>
      <trkpt lat="47.49968" lon="-1.40095">
        <ele>28</ele>
        <time>2022-04-25T15:58:10Z</time>
      </trkpt>
      <trkpt lat="47.49874" lon="-1.4017">
        <ele>30</ele>
        <time>2022-04-25T15:58:29Z</time>
      </trkpt>
      <trkpt lat="47.49828" lon="-1.40214">
        <ele>29</ele>
        <time>2022-04-25T15:58:39Z</time>
      </trkpt>
      <trkpt lat="47.49786" lon="-1.40262">
        <ele>25</ele>
        <time>2022-04-25T15:58:49Z</time>
      </trkpt>
      <trkpt lat="47.49758" lon="-1.40297">
        <ele>24</ele>
        <time>2022-04-25T15:58:55Z</time>
      </trkpt>
      <trkpt lat="47.49714" lon="-1.40356">
        <ele>20</ele>
        <time>2022-04-25T15:59:06Z</time>
      </trkpt>
      <trkpt lat="47.49686" lon="-1.40397">
        <ele>17</ele>
        <time>2022-04-25T15:59:13Z</time>
      </trkpt>
      <trkpt lat="47.4966" lon="-1.40442">
        <ele>16</ele>
        <time>2022-04-25T15:59:20Z</time>
      </trkpt>
      <trkpt lat="47.49531" lon="-1.40692">
        <ele>17</ele>
        <time>2022-04-25T15:59:58Z</time>
      </trkpt>
      <trkpt lat="47.49518" lon="-1.40718">
        <ele>18</ele>
        <time>2022-04-25T16:00:01Z</time>
      </trkpt>
      <trkpt lat="47.49512" lon="-1.40733">
        <ele>18</ele>
        <time>2022-04-25T16:00:04Z</time>
      </trkpt>
      <trkpt lat="47.49501" lon="-1.4077">
        <ele>19</ele>
        <time>2022-04-25T16:00:08Z</time>
      </trkpt>
      <trkpt lat="47.49495" lon="-1.40817">
        <ele>18</ele>
        <time>2022-04-25T16:00:14Z</time>
      </trkpt>
      <trkpt lat="47.49494" lon="-1.40841">
        <ele>18</ele>
        <time>2022-04-25T16:00:17Z</time>
      </trkpt>
      <trkpt lat="47.49497" lon="-1.40887">
        <ele>19</ele>
        <time>2022-04-25T16:00:23Z</time>
      </trkpt>
      <trkpt lat="47.49506" lon="-1.40931">
        <ele>20</ele>
        <time>2022-04-25T16:00:28Z</time>
      </trkpt>
      <trkpt lat="47.49516" lon="-1.40961">
        <ele>22</ele>
        <time>2022-04-25T16:00:32Z</time>
      </trkpt>
      <trkpt lat="47.49551" lon="-1.41042">
        <ele>24</ele>
        <time>2022-04-25T16:00:44Z</time>
      </trkpt>
      <trkpt lat="47.49561" lon="-1.41072">
        <ele>25</ele>
        <time>2022-04-25T16:00:48Z</time>
      </trkpt>
      <trkpt lat="47.49567" lon="-1.41104">
        <ele>26</ele>
        <time>2022-04-25T16:00:52Z</time>
      </trkpt>
      <trkpt lat="47.49576" lon="-1.41183">
        <ele>28</ele>
        <time>2022-04-25T16:01:01Z</time>
      </trkpt>
      <trkpt lat="47.49608" lon="-1.41584">
        <ele>28</ele>
        <time>2022-04-25T16:01:50Z</time>
      </trkpt>
      <trkpt lat="47.49609" lon="-1.41639">
        <ele>26</ele>
        <time>2022-04-25T16:01:57Z</time>
      </trkpt>
      <trkpt lat="47.49607" lon="-1.41697">
        <ele>25</ele>
        <time>2022-04-25T16:02:04Z</time>
      </trkpt>
      <trkpt lat="47.49605" lon="-1.41761">
        <ele>24</ele>
        <time>2022-04-25T16:02:11Z</time>
      </trkpt>
      <trkpt lat="47.49601" lon="-1.41783">
        <ele>24</ele>
        <time>2022-04-25T16:02:14Z</time>
      </trkpt>
      <trkpt lat="47.49604" lon="-1.41784">
        <ele>24</ele>
        <time>2022-04-25T16:02:15Z</time>
      </trkpt>
      <trkpt lat="47.49608" lon="-1.41789">
        <ele>24</ele>
        <time>2022-04-25T16:02:15Z</time>
      </trkpt>
      <trkpt lat="47.49608" lon="-1.41797">
        <ele>24</ele>
        <time>2022-04-25T16:02:16Z</time>
      </trkpt>
      <trkpt lat="47.49605" lon="-1.41805">
        <ele>24</ele>
        <time>2022-04-25T16:02:18Z</time>
      </trkpt>
      <trkpt lat="47.496" lon="-1.41807">
        <ele>24</ele>
        <time>2022-04-25T16:02:18Z</time>
      </trkpt>
      <trkpt lat="47.49602" lon="-1.41823">
        <ele>24</ele>
        <time>2022-04-25T16:02:20Z</time>
      </trkpt>
      <trkpt lat="47.4959" lon="-1.42069">
        <ele>23</ele>
        <time>2022-04-25T16:02:50Z</time>
      </trkpt>
      <trkpt lat="47.49583" lon="-1.42105">
        <ele>22</ele>
        <time>2022-04-25T16:02:55Z</time>
      </trkpt>
      <trkpt lat="47.49569" lon="-1.42148">
        <ele>21</ele>
        <time>2022-04-25T16:03:00Z</time>
      </trkpt>
      <trkpt lat="47.49537" lon="-1.4222">
        <ele>18</ele>
        <time>2022-04-25T16:03:11Z</time>
      </trkpt>
      <trkpt lat="47.49631" lon="-1.42268">
        <ele>16</ele>
        <time>2022-04-25T16:03:28Z</time>
      </trkpt>
      <trkpt lat="47.49644" lon="-1.42274">
        <ele>15</ele>
        <time>2022-04-25T16:03:31Z</time>
      </trkpt>
      <trkpt lat="47.4966" lon="-1.42283">
        <ele>15</ele>
        <time>2022-04-25T16:03:34Z</time>
      </trkpt>
      <trkpt lat="47.49671" lon="-1.42293">
        <ele>15</ele>
        <time>2022-04-25T16:03:36Z</time>
      </trkpt>
      <trkpt lat="47.49679" lon="-1.42305">
        <ele>15</ele>
        <time>2022-04-25T16:03:38Z</time>
      </trkpt>
      <trkpt lat="47.49783" lon="-1.42537">
        <ele>16</ele>
        <time>2022-04-25T16:04:12Z</time>
      </trkpt>
      <trkpt lat="47.49789" lon="-1.42553">
        <ele>16</ele>
        <time>2022-04-25T16:04:14Z</time>
      </trkpt>
      <trkpt lat="47.49792" lon="-1.42569">
        <ele>17</ele>
        <time>2022-04-25T16:04:16Z</time>
      </trkpt>
      <trkpt lat="47.49797" lon="-1.42688">
        <ele>17</ele>
        <time>2022-04-25T16:04:30Z</time>
      </trkpt>
      <trkpt lat="47.49803" lon="-1.42852">
        <ele>17</ele>
        <time>2022-04-25T16:04:50Z</time>
      </trkpt>
      <trkpt lat="47.49807" lon="-1.42892">
        <ele>16</ele>
        <time>2022-04-25T16:04:55Z</time>
      </trkpt>
      <trkpt lat="47.49899" lon="-1.43467">
        <ele>21</ele>
        <time>2022-04-25T16:06:06Z</time>
      </trkpt>
      <trkpt lat="47.49899" lon="-1.43501">
        <ele>21</ele>
        <time>2022-04-25T16:06:10Z</time>
      </trkpt>
      <trkpt lat="47.49896" lon="-1.43521">
        <ele>22</ele>
        <time>2022-04-25T16:06:12Z</time>
      </trkpt>
      <trkpt lat="47.49858" lon="-1.4368">
        <ele>24</ele>
        <time>2022-04-25T16:06:33Z</time>
      </trkpt>
      <trkpt lat="47.49855" lon="-1.43706">
        <ele>24</ele>
        <time>2022-04-25T16:06:36Z</time>
      </trkpt>
      <trkpt lat="47.49855" lon="-1.43765">
        <ele>24</ele>
        <time>2022-04-25T16:06:43Z</time>
      </trkpt>
      <trkpt lat="47.4986" lon="-1.43894">
        <ele>22</ele>
        <time>2022-04-25T16:06:58Z</time>
      </trkpt>
      <trkpt lat="47.4986" lon="-1.43925">
        <ele>22</ele>
        <time>2022-04-25T16:07:02Z</time>
      </trkpt>
      <trkpt lat="47.49857" lon="-1.4395">
        <ele>22</ele>
        <time>2022-04-25T16:07:05Z</time>
      </trkpt>
      <trkpt lat="47.49854" lon="-1.43969">
        <ele>22</ele>
        <time>2022-04-25T16:07:08Z</time>
      </trkpt>
      <trkpt lat="47.49816" lon="-1.44092">
        <ele>23</ele>
        <time>2022-04-25T16:07:24Z</time>
      </trkpt>
      <trkpt lat="47.498" lon="-1.44154">
        <ele>23</ele>
        <time>2022-04-25T16:07:32Z</time>
      </trkpt>
      <trkpt lat="47.49797" lon="-1.44195">
        <ele>21</ele>
        <time>2022-04-25T16:07:37Z</time>
      </trkpt>
      <trkpt lat="47.49793" lon="-1.44402">
        <ele>17</ele>
        <time>2022-04-25T16:08:02Z</time>
      </trkpt>
      <trkpt lat="47.49791" lon="-1.44583">
        <ele>16</ele>
        <time>2022-04-25T16:08:23Z</time>
      </trkpt>
      <trkpt lat="47.49793" lon="-1.44606">
        <ele>16</ele>
        <time>2022-04-25T16:08:26Z</time>
      </trkpt>
      <trkpt lat="47.49798" lon="-1.4463">
        <ele>17</ele>
        <time>2022-04-25T16:08:29Z</time>
      </trkpt>
      <trkpt lat="47.49807" lon="-1.44653">
        <ele>17</ele>
        <time>2022-04-25T16:08:32Z</time>
      </trkpt>
      <trkpt lat="47.49819" lon="-1.44674">
        <ele>17</ele>
        <time>2022-04-25T16:08:36Z</time>
      </trkpt>
      <trkpt lat="47.50006" lon="-1.44989">
        <ele>24</ele>
        <time>2022-04-25T16:09:26Z</time>
      </trkpt>
      <trkpt lat="47.50015" lon="-1.4501">
        <ele>26</ele>
        <time>2022-04-25T16:09:29Z</time>
      </trkpt>
      <trkpt lat="47.50019" lon="-1.45034">
        <ele>27</ele>
        <time>2022-04-25T16:09:32Z</time>
      </trkpt>
      <trkpt lat="47.5002" lon="-1.45072">
        <ele>28</ele>
        <time>2022-04-25T16:09:37Z</time>
      </trkpt>
      <trkpt lat="47.5002" lon="-1.45088">
        <ele>28</ele>
        <time>2022-04-25T16:09:39Z</time>
      </trkpt>
      <trkpt lat="47.50013" lon="-1.45468">
        <ele>35</ele>
        <time>2022-04-25T16:10:24Z</time>
      </trkpt>
      <trkpt lat="47.50013" lon="-1.45548">
        <ele>35</ele>
        <time>2022-04-25T16:10:34Z</time>
      </trkpt>
      <trkpt lat="47.50018" lon="-1.45594">
        <ele>36</ele>
        <time>2022-04-25T16:10:39Z</time>
      </trkpt>
      <trkpt lat="47.50043" lon="-1.45742">
        <ele>38</ele>
        <time>2022-04-25T16:10:58Z</time>
      </trkpt>
      <trkpt lat="47.50198" lon="-1.46576">
        <ele>46</ele>
        <time>2022-04-25T16:12:42Z</time>
      </trkpt>
      <trkpt lat="47.50363" lon="-1.47449">
        <ele>49</ele>
        <time>2022-04-25T16:14:31Z</time>
      </trkpt>
      <trkpt lat="47.50365" lon="-1.47471">
        <ele>50</ele>
        <time>2022-04-25T16:14:33Z</time>
      </trkpt>
      <trkpt lat="47.50365" lon="-1.47523">
        <ele>51</ele>
        <time>2022-04-25T16:14:40Z</time>
      </trkpt>
      <trkpt lat="47.50319" lon="-1.47865">
        <ele>56</ele>
        <time>2022-04-25T16:15:22Z</time>
      </trkpt>
      <trkpt lat="47.50307" lon="-1.48334">
        <ele>57</ele>
        <time>2022-04-25T16:16:18Z</time>
      </trkpt>
      <trkpt lat="47.50307" lon="-1.48443">
        <ele>58</ele>
        <time>2022-04-25T16:16:31Z</time>
      </trkpt>
      <trkpt lat="47.50311" lon="-1.4849">
        <ele>58</ele>
        <time>2022-04-25T16:16:37Z</time>
      </trkpt>
      <trkpt lat="47.5034" lon="-1.48648">
        <ele>60</ele>
        <time>2022-04-25T16:16:56Z</time>
      </trkpt>
      <trkpt lat="47.50388" lon="-1.48925">
        <ele>57</ele>
        <time>2022-04-25T16:17:31Z</time>
      </trkpt>
      <trkpt lat="47.5041" lon="-1.49046">
        <ele>58</ele>
        <time>2022-04-25T16:17:46Z</time>
      </trkpt>
      <trkpt lat="47.50418" lon="-1.49076">
        <ele>58</ele>
        <time>2022-04-25T16:17:50Z</time>
      </trkpt>
      <trkpt lat="47.50719" lon="-1.49834">
        <ele>56</ele>
        <time>2022-04-25T16:19:35Z</time>
      </trkpt>
      <trkpt lat="47.51002" lon="-1.50591">
        <ele>53</ele>
        <time>2022-04-25T16:21:19Z</time>
      </trkpt>
      <trkpt lat="47.51018" lon="-1.50637">
        <ele>53</ele>
        <time>2022-04-25T16:21:26Z</time>
      </trkpt>
      <trkpt lat="47.51029" lon="-1.50686">
        <ele>52</ele>
        <time>2022-04-25T16:21:32Z</time>
      </trkpt>
      <trkpt lat="47.51044" lon="-1.50799">
        <ele>51</ele>
        <time>2022-04-25T16:21:46Z</time>
      </trkpt>
      <trkpt lat="47.51099" lon="-1.51833">
        <ele>46</ele>
        <time>2022-04-25T16:23:50Z</time>
      </trkpt>
      <trkpt lat="47.51101" lon="-1.51934">
        <ele>46</ele>
        <time>2022-04-25T16:24:02Z</time>
      </trkpt>
      <trkpt lat="47.51098" lon="-1.5203">
        <ele>47</ele>
        <time>2022-04-25T16:24:14Z</time>
      </trkpt>
      <trkpt lat="47.51093" lon="-1.5209">
        <ele>48</ele>
        <time>2022-04-25T16:24:21Z</time>
      </trkpt>
      <trkpt lat="47.51022" lon="-1.52774">
        <ele>48</ele>
        <time>2022-04-25T16:25:44Z</time>
      </trkpt>
      <trkpt lat="47.51014" lon="-1.52871">
        <ele>49</ele>
        <time>2022-04-25T16:25:56Z</time>
      </trkpt>
      <trkpt lat="47.51014" lon="-1.52932">
        <ele>49</ele>
        <time>2022-04-25T16:26:04Z</time>
      </trkpt>
      <trkpt lat="47.51039" lon="-1.53471">
        <ele>48</ele>
        <time>2022-04-25T16:27:08Z</time>
      </trkpt>
      <trkpt lat="47.51047" lon="-1.53551">
        <ele>48</ele>
        <time>2022-04-25T16:27:18Z</time>
      </trkpt>
      <trkpt lat="47.51059" lon="-1.53631">
        <ele>47</ele>
        <time>2022-04-25T16:27:28Z</time>
      </trkpt>
      <trkpt lat="47.51323" lon="-1.54772">
        <ele>39</ele>
        <time>2022-04-25T16:29:53Z</time>
      </trkpt>
      <trkpt lat="47.51218" lon="-1.54917">
        <ele>41</ele>
        <time>2022-04-25T16:30:19Z</time>
      </trkpt>
      <trkpt lat="47.51186" lon="-1.54976">
        <ele>41</ele>
        <time>2022-04-25T16:30:28Z</time>
      </trkpt>
      <trkpt lat="47.50942" lon="-1.55494">
        <ele>39</ele>
        <time>2022-04-25T16:31:44Z</time>
      </trkpt>
      <trkpt lat="47.50906" lon="-1.55579">
        <ele>39</ele>
        <time>2022-04-25T16:31:56Z</time>
      </trkpt>
      <trkpt lat="47.50797" lon="-1.55879">
        <ele>39</ele>
        <time>2022-04-25T16:32:37Z</time>
      </trkpt>
      <trkpt lat="47.50779" lon="-1.55924">
        <ele>38</ele>
        <time>2022-04-25T16:32:43Z</time>
      </trkpt>
      <trkpt lat="47.50618" lon="-1.56302">
        <ele>32</ele>
        <time>2022-04-25T16:33:37Z</time>
      </trkpt>
      <trkpt lat="47.50585" lon="-1.56387">
        <ele>31</ele>
        <time>2022-04-25T16:33:48Z</time>
      </trkpt>
      <trkpt lat="47.5056" lon="-1.56464">
        <ele>30</ele>
        <time>2022-04-25T16:33:59Z</time>
      </trkpt>
      <trkpt lat="47.50505" lon="-1.56648">
        <ele>31</ele>
        <time>2022-04-25T16:34:23Z</time>
      </trkpt>
      <trkpt lat="47.50458" lon="-1.56816">
        <ele>32</ele>
        <time>2022-04-25T16:34:45Z</time>
      </trkpt>
      <trkpt lat="47.50433" lon="-1.56909">
        <ele>32</ele>
        <time>2022-04-25T16:34:57Z</time>
      </trkpt>
      <trkpt lat="47.50431" lon="-1.5692">
        <ele>32</ele>
        <time>2022-04-25T16:34:58Z</time>
      </trkpt>
      <trkpt lat="47.50418" lon="-1.56958">
        <ele>31</ele>
        <time>2022-04-25T16:35:03Z</time>
      </trkpt>
      <trkpt lat="47.5041" lon="-1.56994">
        <ele>29</ele>
        <time>2022-04-25T16:35:08Z</time>
      </trkpt>
      <trkpt lat="47.50393" lon="-1.57046">
        <ele>29</ele>
        <time>2022-04-25T16:35:15Z</time>
      </trkpt>
      <trkpt lat="47.50384" lon="-1.57089">
        <ele>28</ele>
        <time>2022-04-25T16:35:20Z</time>
      </trkpt>
      <trkpt lat="47.5035" lon="-1.57195">
        <ele>27</ele>
        <time>2022-04-25T16:35:34Z</time>
      </trkpt>
      <trkpt lat="47.50312" lon="-1.57298">
        <ele>26</ele>
        <time>2022-04-25T16:35:48Z</time>
      </trkpt>
      <trkpt lat="47.50289" lon="-1.57355">
        <ele>27</ele>
        <time>2022-04-25T16:35:56Z</time>
      </trkpt>
      <trkpt lat="47.50268" lon="-1.57392">
        <ele>27</ele>
        <time>2022-04-25T16:36:02Z</time>
      </trkpt>
      <trkpt lat="47.50224" lon="-1.57461">
        <ele>26</ele>
        <time>2022-04-25T16:36:13Z</time>
      </trkpt>
      <trkpt lat="47.50211" lon="-1.57488">
        <ele>26</ele>
        <time>2022-04-25T16:36:17Z</time>
      </trkpt>
      <trkpt lat="47.50192" lon="-1.57536">
        <ele>26</ele>
        <time>2022-04-25T16:36:24Z</time>
      </trkpt>
      <trkpt lat="47.50154" lon="-1.5765">
        <ele>25</ele>
        <time>2022-04-25T16:36:39Z</time>
      </trkpt>
      <trkpt lat="47.50149" lon="-1.57657">
        <ele>25</ele>
        <time>2022-04-25T16:36:41Z</time>
      </trkpt>
      <trkpt lat="47.50133" lon="-1.57669">
        <ele>25</ele>
        <time>2022-04-25T16:36:44Z</time>
      </trkpt>
      <trkpt lat="47.50127" lon="-1.57679">
        <ele>26</ele>
        <time>2022-04-25T16:36:45Z</time>
      </trkpt>
      <trkpt lat="47.50126" lon="-1.57692">
        <ele>26</ele>
        <time>2022-04-25T16:36:47Z</time>
      </trkpt>
      <trkpt lat="47.50127" lon="-1.57735">
        <ele>26</ele>
        <time>2022-04-25T16:36:52Z</time>
      </trkpt>
      <trkpt lat="47.50131" lon="-1.57756">
        <ele>26</ele>
        <time>2022-04-25T16:36:55Z</time>
      </trkpt>
      <trkpt lat="47.50134" lon="-1.5777">
        <ele>26</ele>
        <time>2022-04-25T16:36:57Z</time>
      </trkpt>
      <trkpt lat="47.50145" lon="-1.57812">
        <ele>27</ele>
        <time>2022-04-25T16:37:02Z</time>
      </trkpt>
      <trkpt lat="47.50148" lon="-1.57846">
        <ele>27</ele>
        <time>2022-04-25T16:37:06Z</time>
      </trkpt>
      <trkpt lat="47.50146" lon="-1.57884">
        <ele>27</ele>
        <time>2022-04-25T16:37:11Z</time>
      </trkpt>
      <trkpt lat="47.50147" lon="-1.57906">
        <ele>27</ele>
        <time>2022-04-25T16:37:13Z</time>
      </trkpt>
      <trkpt lat="47.50166" lon="-1.57991">
        <ele>27</ele>
        <time>2022-04-25T16:37:24Z</time>
      </trkpt>
      <trkpt lat="47.5017" lon="-1.58151">
        <ele>27</ele>
        <time>2022-04-25T16:37:43Z</time>
      </trkpt>
      <trkpt lat="47.50171" lon="-1.58254">
        <ele>27</ele>
        <time>2022-04-25T16:37:56Z</time>
      </trkpt>
      <trkpt lat="47.5017" lon="-1.58269">
        <ele>27</ele>
        <time>2022-04-25T16:37:58Z</time>
      </trkpt>
      <trkpt lat="47.50172" lon="-1.58376">
        <ele>28</ele>
        <time>2022-04-25T16:38:10Z</time>
      </trkpt>
      <trkpt lat="47.50177" lon="-1.58517">
        <ele>29</ele>
        <time>2022-04-25T16:38:27Z</time>
      </trkpt>
      <trkpt lat="47.50172" lon="-1.58558">
        <ele>28</ele>
        <time>2022-04-25T16:38:32Z</time>
      </trkpt>
      <trkpt lat="47.5016" lon="-1.58602">
        <ele>28</ele>
        <time>2022-04-25T16:38:38Z</time>
      </trkpt>
      <trkpt lat="47.50055" lon="-1.58934">
        <ele>27</ele>
        <time>2022-04-25T16:39:22Z</time>
      </trkpt>
      <trkpt lat="47.5005" lon="-1.58962">
        <ele>27</ele>
        <time>2022-04-25T16:39:26Z</time>
      </trkpt>
      <trkpt lat="47.50049" lon="-1.59004">
        <ele>27</ele>
        <time>2022-04-25T16:39:31Z</time>
      </trkpt>
      <trkpt lat="47.50058" lon="-1.59132">
        <ele>25</ele>
        <time>2022-04-25T16:39:46Z</time>
      </trkpt>
      <trkpt lat="47.50075" lon="-1.59321">
        <ele>27</ele>
        <time>2022-04-25T16:40:09Z</time>
      </trkpt>
      <trkpt lat="47.50075" lon="-1.59372">
        <ele>26</ele>
        <time>2022-04-25T16:40:15Z</time>
      </trkpt>
      <trkpt lat="47.50072" lon="-1.59443">
        <ele>24</ele>
        <time>2022-04-25T16:40:24Z</time>
      </trkpt>
      <trkpt lat="47.50068" lon="-1.59484">
        <ele>25</ele>
        <time>2022-04-25T16:40:29Z</time>
      </trkpt>
      <trkpt lat="47.49981" lon="-1.59934">
        <ele>25</ele>
        <time>2022-04-25T16:41:25Z</time>
      </trkpt>
      <trkpt lat="47.49961" lon="-1.60046">
        <ele>25</ele>
        <time>2022-04-25T16:41:39Z</time>
      </trkpt>
      <trkpt lat="47.49952" lon="-1.60147">
        <ele>25</ele>
        <time>2022-04-25T16:41:51Z</time>
      </trkpt>
      <trkpt lat="47.49951" lon="-1.60231">
        <ele>25</ele>
        <time>2022-04-25T16:42:01Z</time>
      </trkpt>
      <trkpt lat="47.49953" lon="-1.60269">
        <ele>25</ele>
        <time>2022-04-25T16:42:06Z</time>
      </trkpt>
      <trkpt lat="47.49957" lon="-1.60308">
        <ele>26</ele>
        <time>2022-04-25T16:42:11Z</time>
      </trkpt>
      <trkpt lat="47.49978" lon="-1.60462">
        <ele>25</ele>
        <time>2022-04-25T16:42:29Z</time>
      </trkpt>
      <trkpt lat="47.49982" lon="-1.60505">
        <ele>25</ele>
        <time>2022-04-25T16:42:35Z</time>
      </trkpt>
      <trkpt lat="47.49983" lon="-1.60594">
        <ele>26</ele>
        <time>2022-04-25T16:42:45Z</time>
      </trkpt>
      <trkpt lat="47.49982" lon="-1.60671">
        <ele>26</ele>
        <time>2022-04-25T16:42:55Z</time>
      </trkpt>
      <trkpt lat="47.49978" lon="-1.60729">
        <ele>27</ele>
        <time>2022-04-25T16:43:02Z</time>
      </trkpt>
      <trkpt lat="47.49967" lon="-1.60834">
        <ele>27</ele>
        <time>2022-04-25T16:43:14Z</time>
      </trkpt>
      <trkpt lat="47.49944" lon="-1.61032">
        <ele>26</ele>
        <time>2022-04-25T16:43:39Z</time>
      </trkpt>
      <trkpt lat="47.49921" lon="-1.61154">
        <ele>28</ele>
        <time>2022-04-25T16:43:54Z</time>
      </trkpt>
      <trkpt lat="47.49898" lon="-1.61244">
        <ele>28</ele>
        <time>2022-04-25T16:44:05Z</time>
      </trkpt>
      <trkpt lat="47.49397" lon="-1.62832">
        <ele>27</ele>
        <time>2022-04-25T16:47:36Z</time>
      </trkpt>
      <trkpt lat="47.49366" lon="-1.62908">
        <ele>27</ele>
        <time>2022-04-25T16:47:47Z</time>
      </trkpt>
      <trkpt lat="47.49333" lon="-1.62974">
        <ele>24</ele>
        <time>2022-04-25T16:47:57Z</time>
      </trkpt>
      <trkpt lat="47.49271" lon="-1.63067">
        <ele>25</ele>
        <time>2022-04-25T16:48:12Z</time>
      </trkpt>
      <trkpt lat="47.49237" lon="-1.63122">
        <ele>25</ele>
        <time>2022-04-25T16:48:21Z</time>
      </trkpt>
      <trkpt lat="47.49212" lon="-1.63173">
        <ele>25</ele>
        <time>2022-04-25T16:48:29Z</time>
      </trkpt>
      <trkpt lat="47.49074" lon="-1.63496">
        <ele>28</ele>
        <time>2022-04-25T16:49:15Z</time>
      </trkpt>
      <trkpt lat="47.49045" lon="-1.63568">
        <ele>29</ele>
        <time>2022-04-25T16:49:25Z</time>
      </trkpt>
      <trkpt lat="47.48999" lon="-1.6371">
        <ele>31</ele>
        <time>2022-04-25T16:49:44Z</time>
      </trkpt>
      <trkpt lat="47.48974" lon="-1.63807">
        <ele>31</ele>
        <time>2022-04-25T16:49:56Z</time>
      </trkpt>
      <trkpt lat="47.48941" lon="-1.63937">
        <ele>30</ele>
        <time>2022-04-25T16:50:13Z</time>
      </trkpt>
      <trkpt lat="47.48881" lon="-1.64157">
        <ele>30</ele>
        <time>2022-04-25T16:50:42Z</time>
      </trkpt>
      <trkpt lat="47.48842" lon="-1.64289">
        <ele>30</ele>
        <time>2022-04-25T16:50:59Z</time>
      </trkpt>
      <trkpt lat="47.48777" lon="-1.64498">
        <ele>32</ele>
        <time>2022-04-25T16:51:26Z</time>
      </trkpt>
      <trkpt lat="47.48763" lon="-1.64563">
        <ele>33</ele>
        <time>2022-04-25T16:51:35Z</time>
      </trkpt>
      <trkpt lat="47.48758" lon="-1.64592">
        <ele>33</ele>
        <time>2022-04-25T16:51:38Z</time>
      </trkpt>
      <trkpt lat="47.48756" lon="-1.64625">
        <ele>32</ele>
        <time>2022-04-25T16:51:42Z</time>
      </trkpt>
      <trkpt lat="47.48755" lon="-1.6467">
        <ele>30</ele>
        <time>2022-04-25T16:51:48Z</time>
      </trkpt>
      <trkpt lat="47.48759" lon="-1.64731">
        <ele>30</ele>
        <time>2022-04-25T16:51:55Z</time>
      </trkpt>
      <trkpt lat="47.48764" lon="-1.64759">
        <ele>30</ele>
        <time>2022-04-25T16:51:59Z</time>
      </trkpt>
      <trkpt lat="47.48779" lon="-1.64825">
        <ele>31</ele>
        <time>2022-04-25T16:52:07Z</time>
      </trkpt>
      <trkpt lat="47.48882" lon="-1.65158">
        <ele>30</ele>
        <time>2022-04-25T16:52:51Z</time>
      </trkpt>
      <trkpt lat="47.4892" lon="-1.65284">
        <ele>30</ele>
        <time>2022-04-25T16:53:08Z</time>
      </trkpt>
      <trkpt lat="47.48942" lon="-1.65381">
        <ele>29</ele>
        <time>2022-04-25T16:53:20Z</time>
      </trkpt>
      <trkpt lat="47.48954" lon="-1.65459">
        <ele>29</ele>
        <time>2022-04-25T16:53:29Z</time>
      </trkpt>
      <trkpt lat="47.48965" lon="-1.65578">
        <ele>30</ele>
        <time>2022-04-25T16:53:44Z</time>
      </trkpt>
      <trkpt lat="47.48973" lon="-1.657">
        <ele>31</ele>
        <time>2022-04-25T16:53:59Z</time>
      </trkpt>
      <trkpt lat="47.49023" lon="-1.66396">
        <ele>36</ele>
        <time>2022-04-25T16:55:23Z</time>
      </trkpt>
      <trkpt lat="47.4904" lon="-1.66612">
        <ele>36</ele>
        <time>2022-04-25T16:55:49Z</time>
      </trkpt>
      <trkpt lat="47.49046" lon="-1.6664">
        <ele>36</ele>
        <time>2022-04-25T16:55:52Z</time>
      </trkpt>
      <trkpt lat="47.49053" lon="-1.66659">
        <ele>35</ele>
        <time>2022-04-25T16:55:55Z</time>
      </trkpt>
      <trkpt lat="47.4908" lon="-1.66719">
        <ele>35</ele>
        <time>2022-04-25T16:56:04Z</time>
      </trkpt>
      <trkpt lat="47.49096" lon="-1.66761">
        <ele>35</ele>
        <time>2022-04-25T16:56:10Z</time>
      </trkpt>
      <trkpt lat="47.49104" lon="-1.66788">
        <ele>35</ele>
        <time>2022-04-25T16:56:13Z</time>
      </trkpt>
      <trkpt lat="47.49122" lon="-1.66866">
        <ele>35</ele>
        <time>2022-04-25T16:56:23Z</time>
      </trkpt>
      <trkpt lat="47.49134" lon="-1.66942">
        <ele>36</ele>
        <time>2022-04-25T16:56:32Z</time>
      </trkpt>
      <trkpt lat="47.49138" lon="-1.6703">
        <ele>36</ele>
        <time>2022-04-25T16:56:43Z</time>
      </trkpt>
      <trkpt lat="47.49119" lon="-1.67519">
        <ele>31</ele>
        <time>2022-04-25T16:57:42Z</time>
      </trkpt>
      <trkpt lat="47.49118" lon="-1.67611">
        <ele>31</ele>
        <time>2022-04-25T16:57:53Z</time>
      </trkpt>
      <trkpt lat="47.49124" lon="-1.67778">
        <ele>33</ele>
        <time>2022-04-25T16:58:13Z</time>
      </trkpt>
      <trkpt lat="47.49122" lon="-1.67828">
        <ele>34</ele>
        <time>2022-04-25T16:58:19Z</time>
      </trkpt>
      <trkpt lat="47.49118" lon="-1.67853">
        <ele>34</ele>
        <time>2022-04-25T16:58:22Z</time>
      </trkpt>
      <trkpt lat="47.49106" lon="-1.67889">
        <ele>34</ele>
        <time>2022-04-25T16:58:27Z</time>
      </trkpt>
      <trkpt lat="47.49049" lon="-1.68009">
        <ele>34</ele>
        <time>2022-04-25T16:58:45Z</time>
      </trkpt>
      <trkpt lat="47.49038" lon="-1.68035">
        <ele>34</ele>
        <time>2022-04-25T16:58:48Z</time>
      </trkpt>
      <trkpt lat="47.48984" lon="-1.68215">
        <ele>34</ele>
        <time>2022-04-25T16:59:12Z</time>
      </trkpt>
      <trkpt lat="47.48978" lon="-1.68243">
        <ele>34</ele>
        <time>2022-04-25T16:59:16Z</time>
      </trkpt>
      <trkpt lat="47.48975" lon="-1.6827">
        <ele>34</ele>
        <time>2022-04-25T16:59:19Z</time>
      </trkpt>
      <trkpt lat="47.48975" lon="-1.68302">
        <ele>34</ele>
        <time>2022-04-25T16:59:23Z</time>
      </trkpt>
      <trkpt lat="47.48987" lon="-1.68605">
        <ele>31</ele>
        <time>2022-04-25T16:59:59Z</time>
      </trkpt>
      <trkpt lat="47.48988" lon="-1.68636">
        <ele>31</ele>
        <time>2022-04-25T17:00:03Z</time>
      </trkpt>
      <trkpt lat="47.48985" lon="-1.68668">
        <ele>30</ele>
        <time>2022-04-25T17:00:07Z</time>
      </trkpt>
      <trkpt lat="47.48981" lon="-1.68697">
        <ele>30</ele>
        <time>2022-04-25T17:00:10Z</time>
      </trkpt>
      <trkpt lat="47.4897" lon="-1.6874">
        <ele>29</ele>
        <time>2022-04-25T17:00:16Z</time>
      </trkpt>
      <trkpt lat="47.48894" lon="-1.68973">
        <ele>24</ele>
        <time>2022-04-25T17:00:47Z</time>
      </trkpt>
      <trkpt lat="47.48888" lon="-1.68998">
        <ele>24</ele>
        <time>2022-04-25T17:00:50Z</time>
      </trkpt>
      <trkpt lat="47.48883" lon="-1.69047">
        <ele>25</ele>
        <time>2022-04-25T17:00:56Z</time>
      </trkpt>
      <trkpt lat="47.48884" lon="-1.6907">
        <ele>25</ele>
        <time>2022-04-25T17:00:59Z</time>
      </trkpt>
      <trkpt lat="47.48894" lon="-1.6916">
        <ele>26</ele>
        <time>2022-04-25T17:01:10Z</time>
      </trkpt>
      <trkpt lat="47.48895" lon="-1.69214">
        <ele>26</ele>
        <time>2022-04-25T17:01:16Z</time>
      </trkpt>
      <trkpt lat="47.48894" lon="-1.69244">
        <ele>26</ele>
        <time>2022-04-25T17:01:20Z</time>
      </trkpt>
      <trkpt lat="47.48884" lon="-1.69306">
        <ele>27</ele>
        <time>2022-04-25T17:01:28Z</time>
      </trkpt>
      <trkpt lat="47.48877" lon="-1.69336">
        <ele>27</ele>
        <time>2022-04-25T17:01:31Z</time>
      </trkpt>
      <trkpt lat="47.48868" lon="-1.69363">
        <ele>27</ele>
        <time>2022-04-25T17:01:35Z</time>
      </trkpt>
      <trkpt lat="47.48854" lon="-1.69391">
        <ele>27</ele>
        <time>2022-04-25T17:01:39Z</time>
      </trkpt>
      <trkpt lat="47.48836" lon="-1.69419">
        <ele>26</ele>
        <time>2022-04-25T17:01:44Z</time>
      </trkpt>
      <trkpt lat="47.48814" lon="-1.69449">
        <ele>26</ele>
        <time>2022-04-25T17:01:49Z</time>
      </trkpt>
      <trkpt lat="47.48674" lon="-1.69607">
        <ele>27</ele>
        <time>2022-04-25T17:02:21Z</time>
      </trkpt>
      <trkpt lat="47.48649" lon="-1.6964">
        <ele>27</ele>
        <time>2022-04-25T17:02:26Z</time>
      </trkpt>
      <trkpt lat="47.4861" lon="-1.697">
        <ele>27</ele>
        <time>2022-04-25T17:02:36Z</time>
      </trkpt>
      <trkpt lat="47.48587" lon="-1.69744">
        <ele>27</ele>
        <time>2022-04-25T17:02:43Z</time>
      </trkpt>
      <trkpt lat="47.48572" lon="-1.69776">
        <ele>27</ele>
        <time>2022-04-25T17:02:48Z</time>
      </trkpt>
      <trkpt lat="47.48556" lon="-1.69817">
        <ele>27</ele>
        <time>2022-04-25T17:02:54Z</time>
      </trkpt>
      <trkpt lat="47.48537" lon="-1.69878">
        <ele>27</ele>
        <time>2022-04-25T17:03:02Z</time>
      </trkpt>
      <trkpt lat="47.48315" lon="-1.70628">
        <ele>24</ele>
        <time>2022-04-25T17:04:40Z</time>
      </trkpt>
      <trkpt lat="47.48275" lon="-1.70748">
        <ele>24</ele>
        <time>2022-04-25T17:04:56Z</time>
      </trkpt>
      <trkpt lat="47.48151" lon="-1.71084">
        <ele>25</ele>
        <time>2022-04-25T17:05:42Z</time>
      </trkpt>
      <trkpt lat="47.48076" lon="-1.71252">
        <ele>25</ele>
        <time>2022-04-25T17:06:06Z</time>
      </trkpt>
      <trkpt lat="47.48041" lon="-1.71338">
        <ele>24</ele>
        <time>2022-04-25T17:06:18Z</time>
      </trkpt>
      <trkpt lat="47.47927" lon="-1.7164">
        <ele>26</ele>
        <time>2022-04-25T17:07:00Z</time>
      </trkpt>
      <trkpt lat="47.47917" lon="-1.71661">
        <ele>26</ele>
        <time>2022-04-25T17:07:03Z</time>
      </trkpt>
      <trkpt lat="47.47905" lon="-1.71675">
        <ele>26</ele>
        <time>2022-04-25T17:07:06Z</time>
      </trkpt>
      <trkpt lat="47.47892" lon="-1.71688">
        <ele>26</ele>
        <time>2022-04-25T17:07:09Z</time>
      </trkpt>
      <trkpt lat="47.47875" lon="-1.717">
        <ele>27</ele>
        <time>2022-04-25T17:07:12Z</time>
      </trkpt>
      <trkpt lat="47.4768" lon="-1.71824">
        <ele>27</ele>
        <time>2022-04-25T17:07:50Z</time>
      </trkpt>
      <trkpt lat="47.47652" lon="-1.71844">
        <ele>27</ele>
        <time>2022-04-25T17:07:55Z</time>
      </trkpt>
      <trkpt lat="47.47609" lon="-1.71885">
        <ele>27</ele>
        <time>2022-04-25T17:08:04Z</time>
      </trkpt>
      <trkpt lat="47.47527" lon="-1.71971">
        <ele>27</ele>
        <time>2022-04-25T17:08:22Z</time>
      </trkpt>
      <trkpt lat="47.47435" lon="-1.72077">
        <ele>27</ele>
        <time>2022-04-25T17:08:43Z</time>
      </trkpt>
      <trkpt lat="47.47417" lon="-1.72105">
        <ele>27</ele>
        <time>2022-04-25T17:08:48Z</time>
      </trkpt>
      <trkpt lat="47.47379" lon="-1.72179">
        <ele>28</ele>
        <time>2022-04-25T17:08:59Z</time>
      </trkpt>
      <trkpt lat="47.47315" lon="-1.72328">
        <ele>27</ele>
        <time>2022-04-25T17:09:20Z</time>
      </trkpt>
      <trkpt lat="47.47258" lon="-1.72429">
        <ele>27</ele>
        <time>2022-04-25T17:09:36Z</time>
      </trkpt>
      <trkpt lat="47.47243" lon="-1.72473">
        <ele>26</ele>
        <time>2022-04-25T17:09:42Z</time>
      </trkpt>
      <trkpt lat="47.47143" lon="-1.7294">
        <ele>18</ele>
        <time>2022-04-25T17:10:41Z</time>
      </trkpt>
      <trkpt lat="47.47129" lon="-1.72979">
        <ele>17</ele>
        <time>2022-04-25T17:10:46Z</time>
      </trkpt>
      <trkpt lat="47.4712" lon="-1.72993">
        <ele>17</ele>
        <time>2022-04-25T17:10:48Z</time>
      </trkpt>
      <trkpt lat="47.47106" lon="-1.73011">
        <ele>17</ele>
        <time>2022-04-25T17:10:52Z</time>
      </trkpt>
      <trkpt lat="47.47099" lon="-1.73019">
        <ele>17</ele>
        <time>2022-04-25T17:10:53Z</time>
      </trkpt>
      <trkpt lat="47.47081" lon="-1.73031">
        <ele>17</ele>
        <time>2022-04-25T17:10:57Z</time>
      </trkpt>
      <trkpt lat="47.4707" lon="-1.73037">
        <ele>16</ele>
        <time>2022-04-25T17:10:59Z</time>
      </trkpt>
      <trkpt lat="47.47006" lon="-1.73059">
        <ele>16</ele>
        <time>2022-04-25T17:11:11Z</time>
      </trkpt>
      <trkpt lat="47.46993" lon="-1.7307">
        <ele>15</ele>
        <time>2022-04-25T17:11:13Z</time>
      </trkpt>
      <trkpt lat="47.46981" lon="-1.73077">
        <ele>16</ele>
        <time>2022-04-25T17:11:16Z</time>
      </trkpt>
      <trkpt lat="47.47013" lon="-1.73276">
        <ele>14</ele>
        <time>2022-04-25T17:11:40Z</time>
      </trkpt>
      <trkpt lat="47.47017" lon="-1.73309">
        <ele>14</ele>
        <time>2022-04-25T17:11:44Z</time>
      </trkpt>
      <trkpt lat="47.47055" lon="-1.73537">
        <ele>21</ele>
        <time>2022-04-25T17:12:12Z</time>
      </trkpt>
      <trkpt lat="47.47083" lon="-1.73692">
        <ele>24</ele>
        <time>2022-04-25T17:12:32Z</time>
      </trkpt>
      <trkpt lat="47.47102" lon="-1.73778">
        <ele>25</ele>
        <time>2022-04-25T17:12:43Z</time>
      </trkpt>
      <trkpt lat="47.47317" lon="-1.7457">
        <ele>24</ele>
        <time>2022-04-25T17:14:25Z</time>
      </trkpt>
      <trkpt lat="47.47327" lon="-1.74625">
        <ele>24</ele>
        <time>2022-04-25T17:14:32Z</time>
      </trkpt>
      <trkpt lat="47.47328" lon="-1.74638">
        <ele>24</ele>
        <time>2022-04-25T17:14:34Z</time>
      </trkpt>
      <trkpt lat="47.47334" lon="-1.74638">
        <ele>24</ele>
        <time>2022-04-25T17:14:35Z</time>
      </trkpt>
      <trkpt lat="47.4734" lon="-1.74644">
        <ele>24</ele>
        <time>2022-04-25T17:14:36Z</time>
      </trkpt>
      <trkpt lat="47.47341" lon="-1.74653">
        <ele>24</ele>
        <time>2022-04-25T17:14:37Z</time>
      </trkpt>
      <trkpt lat="47.4734" lon="-1.74658">
        <ele>24</ele>
        <time>2022-04-25T17:14:38Z</time>
      </trkpt>
      <trkpt lat="47.47335" lon="-1.74665">
        <ele>24</ele>
        <time>2022-04-25T17:14:39Z</time>
      </trkpt>
      <trkpt lat="47.47355" lon="-1.74711">
        <ele>24</ele>
        <time>2022-04-25T17:14:46Z</time>
      </trkpt>
      <trkpt lat="47.47364" lon="-1.74743">
        <ele>24</ele>
        <time>2022-04-25T17:14:50Z</time>
      </trkpt>
      <trkpt lat="47.47403" lon="-1.74908">
        <ele>22</ele>
        <time>2022-04-25T17:15:11Z</time>
      </trkpt>
      <trkpt lat="47.47442" lon="-1.75137">
        <ele>21</ele>
        <time>2022-04-25T17:15:39Z</time>
      </trkpt>
      <trkpt lat="47.47446" lon="-1.75137">
        <ele>21</ele>
        <time>2022-04-25T17:15:40Z</time>
      </trkpt>
      <trkpt lat="47.47451" lon="-1.75145">
        <ele>21</ele>
        <time>2022-04-25T17:15:41Z</time>
      </trkpt>
      <trkpt lat="47.47451" lon="-1.75152">
        <ele>21</ele>
        <time>2022-04-25T17:15:42Z</time>
      </trkpt>
      <trkpt lat="47.47447" lon="-1.75158">
        <ele>21</ele>
        <time>2022-04-25T17:15:43Z</time>
      </trkpt>
      <trkpt lat="47.47445" lon="-1.7516">
        <ele>21</ele>
        <time>2022-04-25T17:15:43Z</time>
      </trkpt>
      <trkpt lat="47.47447" lon="-1.75199">
        <ele>20</ele>
        <time>2022-04-25T17:15:48Z</time>
      </trkpt>
      <trkpt lat="47.47449" lon="-1.75297">
        <ele>19</ele>
        <time>2022-04-25T17:16:00Z</time>
      </trkpt>
      <trkpt lat="47.47451" lon="-1.75311">
        <ele>19</ele>
        <time>2022-04-25T17:16:02Z</time>
      </trkpt>
      <trkpt lat="47.4745" lon="-1.7538">
        <ele>17</ele>
        <time>2022-04-25T17:16:10Z</time>
      </trkpt>
      <trkpt lat="47.4746" lon="-1.75436">
        <ele>16</ele>
        <time>2022-04-25T17:16:17Z</time>
      </trkpt>
      <trkpt lat="47.47467" lon="-1.75438">
        <ele>16</ele>
        <time>2022-04-25T17:16:18Z</time>
      </trkpt>
      <trkpt lat="47.47471" lon="-1.75443">
        <ele>16</ele>
        <time>2022-04-25T17:16:19Z</time>
      </trkpt>
      <trkpt lat="47.47473" lon="-1.7545">
        <ele>16</ele>
        <time>2022-04-25T17:16:20Z</time>
      </trkpt>
      <trkpt lat="47.47471" lon="-1.75459">
        <ele>16</ele>
        <time>2022-04-25T17:16:21Z</time>
      </trkpt>
      <trkpt lat="47.47469" lon="-1.75463">
        <ele>16</ele>
        <time>2022-04-25T17:16:22Z</time>
      </trkpt>
      <trkpt lat="47.47462" lon="-1.75466">
        <ele>16</ele>
        <time>2022-04-25T17:16:23Z</time>
      </trkpt>
      <trkpt lat="47.47457" lon="-1.75503">
        <ele>16</ele>
        <time>2022-04-25T17:16:28Z</time>
      </trkpt>
      <trkpt lat="47.47457" lon="-1.75527">
        <ele>17</ele>
        <time>2022-04-25T17:16:31Z</time>
      </trkpt>
      <trkpt lat="47.47459" lon="-1.75542">
        <ele>18</ele>
        <time>2022-04-25T17:16:32Z</time>
      </trkpt>
      <trkpt lat="47.47488" lon="-1.75669">
        <ele>18</ele>
        <time>2022-04-25T17:16:48Z</time>
      </trkpt>
      <trkpt lat="47.47494" lon="-1.75687">
        <ele>19</ele>
        <time>2022-04-25T17:16:51Z</time>
      </trkpt>
      <trkpt lat="47.47498" lon="-1.75687">
        <ele>19</ele>
        <time>2022-04-25T17:16:52Z</time>
      </trkpt>
      <trkpt lat="47.47504" lon="-1.75694">
        <ele>19</ele>
        <time>2022-04-25T17:16:53Z</time>
      </trkpt>
      <trkpt lat="47.47506" lon="-1.75701">
        <ele>19</ele>
        <time>2022-04-25T17:16:54Z</time>
      </trkpt>
      <trkpt lat="47.47505" lon="-1.75712">
        <ele>19</ele>
        <time>2022-04-25T17:16:55Z</time>
      </trkpt>
      <trkpt lat="47.475" lon="-1.75723">
        <ele>19</ele>
        <time>2022-04-25T17:16:57Z</time>
      </trkpt>
      <trkpt lat="47.47509" lon="-1.75775">
        <ele>21</ele>
        <time>2022-04-25T17:17:03Z</time>
      </trkpt>
      <trkpt lat="47.4754" lon="-1.7591">
        <ele>24</ele>
        <time>2022-04-25T17:17:20Z</time>
      </trkpt>
      <trkpt lat="47.47591" lon="-1.76107">
        <ele>24</ele>
        <time>2022-04-25T17:17:46Z</time>
      </trkpt>
      <trkpt lat="47.47617" lon="-1.76251">
        <ele>25</ele>
        <time>2022-04-25T17:18:04Z</time>
      </trkpt>
      <trkpt lat="47.47645" lon="-1.76472">
        <ele>24</ele>
        <time>2022-04-25T17:18:31Z</time>
      </trkpt>
      <trkpt lat="47.47648" lon="-1.76487">
        <ele>24</ele>
        <time>2022-04-25T17:18:33Z</time>
      </trkpt>
      <trkpt lat="47.47638" lon="-1.76488">
        <ele>24</ele>
        <time>2022-04-25T17:18:34Z</time>
      </trkpt>
      <trkpt lat="47.47568" lon="-1.76464">
        <ele>24</ele>
        <time>2022-04-25T17:18:47Z</time>
      </trkpt>
      <trkpt lat="47.4756" lon="-1.76464">
        <ele>24</ele>
        <time>2022-04-25T17:18:49Z</time>
      </trkpt>
      <trkpt lat="47.47424" lon="-1.7651">
        <ele>19</ele>
        <time>2022-04-25T17:19:13Z</time>
      </trkpt>
      <trkpt lat="47.47238" lon="-1.76613">
        <ele>16</ele>
        <time>2022-04-25T17:19:49Z</time>
      </trkpt>
      <trkpt lat="47.47225" lon="-1.76632">
        <ele>16</ele>
        <time>2022-04-25T17:19:52Z</time>
      </trkpt>
      <trkpt lat="47.47223" lon="-1.76636">
        <ele>16</ele>
        <time>2022-04-25T17:19:53Z</time>
      </trkpt>
      <trkpt lat="47.47217" lon="-1.76641">
        <ele>16</ele>
        <time>2022-04-25T17:19:54Z</time>
      </trkpt>
      <trkpt lat="47.47209" lon="-1.76639">
        <ele>16</ele>
        <time>2022-04-25T17:19:55Z</time>
      </trkpt>
      <trkpt lat="47.47191" lon="-1.76641">
        <ele>16</ele>
        <time>2022-04-25T17:19:59Z</time>
      </trkpt>
      <trkpt lat="47.47125" lon="-1.76678">
        <ele>14</ele>
        <time>2022-04-25T17:20:11Z</time>
      </trkpt>
      <trkpt lat="47.47088" lon="-1.76702">
        <ele>14</ele>
        <time>2022-04-25T17:20:18Z</time>
      </trkpt>
      <trkpt lat="47.47049" lon="-1.76735">
        <ele>13</ele>
        <time>2022-04-25T17:20:26Z</time>
      </trkpt>
      <trkpt lat="47.47019" lon="-1.76765">
        <ele>12</ele>
        <time>2022-04-25T17:20:33Z</time>
      </trkpt>
      <trkpt lat="47.46988" lon="-1.76792">
        <ele>12</ele>
        <time>2022-04-25T17:20:39Z</time>
      </trkpt>
      <trkpt lat="47.46968" lon="-1.76803">
        <ele>12</ele>
        <time>2022-04-25T17:20:43Z</time>
      </trkpt>
      <trkpt lat="47.46801" lon="-1.7687">
        <ele>15</ele>
        <time>2022-04-25T17:21:14Z</time>
      </trkpt>
      <trkpt lat="47.46752" lon="-1.76893">
        <ele>16</ele>
        <time>2022-04-25T17:21:23Z</time>
      </trkpt>
      <trkpt lat="47.46733" lon="-1.76906">
        <ele>17</ele>
        <time>2022-04-25T17:21:27Z</time>
      </trkpt>
      <trkpt lat="47.46714" lon="-1.76923">
        <ele>17</ele>
        <time>2022-04-25T17:21:30Z</time>
      </trkpt>
      <trkpt lat="47.4668" lon="-1.76961">
        <ele>18</ele>
        <time>2022-04-25T17:21:38Z</time>
      </trkpt>
      <trkpt lat="47.46666" lon="-1.76982">
        <ele>17</ele>
        <time>2022-04-25T17:21:42Z</time>
      </trkpt>
      <trkpt lat="47.46658" lon="-1.77">
        <ele>17</ele>
        <time>2022-04-25T17:21:44Z</time>
      </trkpt>
      <trkpt lat="47.46654" lon="-1.77017">
        <ele>18</ele>
        <time>2022-04-25T17:21:46Z</time>
      </trkpt>
      <trkpt lat="47.46654" lon="-1.77024">
        <ele>17</ele>
        <time>2022-04-25T17:21:47Z</time>
      </trkpt>
      <trkpt lat="47.46652" lon="-1.77037">
        <ele>17</ele>
        <time>2022-04-25T17:21:49Z</time>
      </trkpt>
      <trkpt lat="47.46645" lon="-1.77046">
        <ele>18</ele>
        <time>2022-04-25T17:21:50Z</time>
      </trkpt>
      <trkpt lat="47.46641" lon="-1.77047">
        <ele>18</ele>
        <time>2022-04-25T17:21:51Z</time>
      </trkpt>
      <trkpt lat="47.46632" lon="-1.77045">
        <ele>18</ele>
        <time>2022-04-25T17:21:53Z</time>
      </trkpt>
      <trkpt lat="47.46626" lon="-1.77037">
        <ele>18</ele>
        <time>2022-04-25T17:21:54Z</time>
      </trkpt>
      <trkpt lat="47.46624" lon="-1.77027">
        <ele>19</ele>
        <time>2022-04-25T17:21:56Z</time>
      </trkpt>
      <trkpt lat="47.46619" lon="-1.77017">
        <ele>19</ele>
        <time>2022-04-25T17:21:57Z</time>
      </trkpt>
      <trkpt lat="47.46616" lon="-1.77013">
        <ele>19</ele>
        <time>2022-04-25T17:21:58Z</time>
      </trkpt>
      <trkpt lat="47.46601" lon="-1.77007">
        <ele>20</ele>
        <time>2022-04-25T17:22:00Z</time>
      </trkpt>
      <trkpt lat="47.46557" lon="-1.77014">
        <ele>22</ele>
        <time>2022-04-25T17:22:08Z</time>
      </trkpt>
      <trkpt lat="47.46524" lon="-1.77016">
        <ele>24</ele>
        <time>2022-04-25T17:22:14Z</time>
      </trkpt>
      <trkpt lat="47.46195" lon="-1.77072">
        <ele>29</ele>
        <time>2022-04-25T17:23:13Z</time>
      </trkpt>
      <trkpt lat="47.46153" lon="-1.77084">
        <ele>29</ele>
        <time>2022-04-25T17:23:21Z</time>
      </trkpt>
      <trkpt lat="47.46133" lon="-1.77094">
        <ele>29</ele>
        <time>2022-04-25T17:23:25Z</time>
      </trkpt>
      <trkpt lat="47.45973" lon="-1.77224">
        <ele>28</ele>
        <time>2022-04-25T17:23:57Z</time>
      </trkpt>
      <trkpt lat="47.45633" lon="-1.7752">
        <ele>26</ele>
        <time>2022-04-25T17:25:07Z</time>
      </trkpt>
      <trkpt lat="47.45593" lon="-1.77546">
        <ele>29</ele>
        <time>2022-04-25T17:25:15Z</time>
      </trkpt>
      <trkpt lat="47.45519" lon="-1.77581">
        <ele>30</ele>
        <time>2022-04-25T17:25:29Z</time>
      </trkpt>
      <trkpt lat="47.45402" lon="-1.77642">
        <ele>24</ele>
        <time>2022-04-25T17:25:51Z</time>
      </trkpt>
      <trkpt lat="47.45375" lon="-1.77653">
        <ele>23</ele>
        <time>2022-04-25T17:25:56Z</time>
      </trkpt>
      <trkpt lat="47.45348" lon="-1.7766">
        <ele>21</ele>
        <time>2022-04-25T17:26:01Z</time>
      </trkpt>
      <trkpt lat="47.45268" lon="-1.77674">
        <ele>18</ele>
        <time>2022-04-25T17:26:15Z</time>
      </trkpt>
      <trkpt lat="47.45226" lon="-1.77686">
        <ele>18</ele>
        <time>2022-04-25T17:26:23Z</time>
      </trkpt>
      <trkpt lat="47.45206" lon="-1.77697">
        <ele>18</ele>
        <time>2022-04-25T17:26:26Z</time>
      </trkpt>
      <trkpt lat="47.45178" lon="-1.77719">
        <ele>18</ele>
        <time>2022-04-25T17:26:32Z</time>
      </trkpt>
      <trkpt lat="47.45164" lon="-1.7773">
        <ele>19</ele>
        <time>2022-04-25T17:26:35Z</time>
      </trkpt>
      <trkpt lat="47.45071" lon="-1.7781">
        <ele>18</ele>
        <time>2022-04-25T17:26:54Z</time>
      </trkpt>
      <trkpt lat="47.44997" lon="-1.77871">
        <ele>20</ele>
        <time>2022-04-25T17:27:09Z</time>
      </trkpt>
      <trkpt lat="47.44966" lon="-1.77892">
        <ele>22</ele>
        <time>2022-04-25T17:27:15Z</time>
      </trkpt>
      <trkpt lat="47.44887" lon="-1.77934">
        <ele>23</ele>
        <time>2022-04-25T17:27:30Z</time>
      </trkpt>
      <trkpt lat="47.44856" lon="-1.77954">
        <ele>23</ele>
        <time>2022-04-25T17:27:36Z</time>
      </trkpt>
      <trkpt lat="47.44783" lon="-1.78022">
        <ele>23</ele>
        <time>2022-04-25T17:27:52Z</time>
      </trkpt>
      <trkpt lat="47.44766" lon="-1.78035">
        <ele>23</ele>
        <time>2022-04-25T17:27:55Z</time>
      </trkpt>
      <trkpt lat="47.44753" lon="-1.78042">
        <ele>23</ele>
        <time>2022-04-25T17:27:57Z</time>
      </trkpt>
      <trkpt lat="47.44725" lon="-1.78049">
        <ele>24</ele>
        <time>2022-04-25T17:28:02Z</time>
      </trkpt>
      <trkpt lat="47.4451" lon="-1.78051">
        <ele>25</ele>
        <time>2022-04-25T17:28:41Z</time>
      </trkpt>
      <trkpt lat="47.44464" lon="-1.78058">
        <ele>25</ele>
        <time>2022-04-25T17:28:49Z</time>
      </trkpt>
      <trkpt lat="47.44389" lon="-1.78082">
        <ele>26</ele>
        <time>2022-04-25T17:29:03Z</time>
      </trkpt>
      <trkpt lat="47.44157" lon="-1.78161">
        <ele>26</ele>
        <time>2022-04-25T17:29:45Z</time>
      </trkpt>
      <trkpt lat="47.4412" lon="-1.78181">
        <ele>26</ele>
        <time>2022-04-25T17:29:52Z</time>
      </trkpt>
      <trkpt lat="47.44054" lon="-1.7823">
        <ele>26</ele>
        <time>2022-04-25T17:30:05Z</time>
      </trkpt>
      <trkpt lat="47.44037" lon="-1.78241">
        <ele>27</ele>
        <time>2022-04-25T17:30:08Z</time>
      </trkpt>
      <trkpt lat="47.44002" lon="-1.78253">
        <ele>27</ele>
        <time>2022-04-25T17:30:15Z</time>
      </trkpt>
      <trkpt lat="47.43944" lon="-1.78263">
        <ele>27</ele>
        <time>2022-04-25T17:30:25Z</time>
      </trkpt>
      <trkpt lat="47.4391" lon="-1.78264">
        <ele>27</ele>
        <time>2022-04-25T17:30:31Z</time>
      </trkpt>
      <trkpt lat="47.4388" lon="-1.78259">
        <ele>27</ele>
        <time>2022-04-25T17:30:37Z</time>
      </trkpt>
      <trkpt lat="47.43769" lon="-1.78235">
        <ele>28</ele>
        <time>2022-04-25T17:30:57Z</time>
      </trkpt>
      <trkpt lat="47.43702" lon="-1.78229">
        <ele>28</ele>
        <time>2022-04-25T17:31:09Z</time>
      </trkpt>
      <trkpt lat="47.43542" lon="-1.78244">
        <ele>26</ele>
        <time>2022-04-25T17:31:37Z</time>
      </trkpt>
      <trkpt lat="47.43499" lon="-1.78238">
        <ele>25</ele>
        <time>2022-04-25T17:31:45Z</time>
      </trkpt>
      <trkpt lat="47.43459" lon="-1.78227">
        <ele>26</ele>
        <time>2022-04-25T17:31:52Z</time>
      </trkpt>
      <trkpt lat="47.43329" lon="-1.78184">
        <ele>27</ele>
        <time>2022-04-25T17:32:16Z</time>
      </trkpt>
      <trkpt lat="47.43303" lon="-1.78185">
        <ele>27</ele>
        <time>2022-04-25T17:32:20Z</time>
      </trkpt>
      <trkpt lat="47.43287" lon="-1.78191">
        <ele>27</ele>
        <time>2022-04-25T17:32:23Z</time>
      </trkpt>
      <trkpt lat="47.43271" lon="-1.782">
        <ele>28</ele>
        <time>2022-04-25T17:32:26Z</time>
      </trkpt>
      <trkpt lat="47.43132" lon="-1.78299">
        <ele>29</ele>
        <time>2022-04-25T17:32:54Z</time>
      </trkpt>
      <trkpt lat="47.43108" lon="-1.78313">
        <ele>30</ele>
        <time>2022-04-25T17:32:58Z</time>
      </trkpt>
      <trkpt lat="47.42865" lon="-1.7843">
        <ele>32</ele>
        <time>2022-04-25T17:33:44Z</time>
      </trkpt>
      <trkpt lat="47.42835" lon="-1.78449">
        <ele>32</ele>
        <time>2022-04-25T17:33:50Z</time>
      </trkpt>
      <trkpt lat="47.42807" lon="-1.78479">
        <ele>33</ele>
        <time>2022-04-25T17:33:56Z</time>
      </trkpt>
      <trkpt lat="47.42461" lon="-1.78952">
        <ele>35</ele>
        <time>2022-04-25T17:35:20Z</time>
      </trkpt>
      <trkpt lat="47.42444" lon="-1.78973">
        <ele>35</ele>
        <time>2022-04-25T17:35:24Z</time>
      </trkpt>
      <trkpt lat="47.4242" lon="-1.78997">
        <ele>35</ele>
        <time>2022-04-25T17:35:29Z</time>
      </trkpt>
      <trkpt lat="47.42388" lon="-1.79019">
        <ele>36</ele>
        <time>2022-04-25T17:35:35Z</time>
      </trkpt>
      <trkpt lat="47.42263" lon="-1.79086">
        <ele>37</ele>
        <time>2022-04-25T17:35:59Z</time>
      </trkpt>
      <trkpt lat="47.42234" lon="-1.79098">
        <ele>38</ele>
        <time>2022-04-25T17:36:04Z</time>
      </trkpt>
      <trkpt lat="47.42218" lon="-1.79102">
        <ele>39</ele>
        <time>2022-04-25T17:36:07Z</time>
      </trkpt>
      <trkpt lat="47.42185" lon="-1.79104">
        <ele>40</ele>
        <time>2022-04-25T17:36:13Z</time>
      </trkpt>
      <trkpt lat="47.42166" lon="-1.79102">
        <ele>41</ele>
        <time>2022-04-25T17:36:16Z</time>
      </trkpt>
      <trkpt lat="47.42033" lon="-1.79065">
        <ele>43</ele>
        <time>2022-04-25T17:36:40Z</time>
      </trkpt>
      <trkpt lat="47.41858" lon="-1.78997">
        <ele>39</ele>
        <time>2022-04-25T17:37:12Z</time>
      </trkpt>
      <trkpt lat="47.41828" lon="-1.78986">
        <ele>39</ele>
        <time>2022-04-25T17:37:18Z</time>
      </trkpt>
      <trkpt lat="47.41806" lon="-1.78983">
        <ele>39</ele>
        <time>2022-04-25T17:37:22Z</time>
      </trkpt>
      <trkpt lat="47.41798" lon="-1.78983">
        <ele>39</ele>
        <time>2022-04-25T17:37:23Z</time>
      </trkpt>
      <trkpt lat="47.41745" lon="-1.78995">
        <ele>39</ele>
        <time>2022-04-25T17:37:33Z</time>
      </trkpt>
      <trkpt lat="47.41593" lon="-1.79037">
        <ele>43</ele>
        <time>2022-04-25T17:38:00Z</time>
      </trkpt>
      <trkpt lat="47.41578" lon="-1.79045">
        <ele>43</ele>
        <time>2022-04-25T17:38:03Z</time>
      </trkpt>
      <trkpt lat="47.41563" lon="-1.79059">
        <ele>44</ele>
        <time>2022-04-25T17:38:06Z</time>
      </trkpt>
      <trkpt lat="47.41556" lon="-1.79071">
        <ele>44</ele>
        <time>2022-04-25T17:38:08Z</time>
      </trkpt>
      <trkpt lat="47.41554" lon="-1.79085">
        <ele>44</ele>
        <time>2022-04-25T17:38:10Z</time>
      </trkpt>
      <trkpt lat="47.4155" lon="-1.79102">
        <ele>45</ele>
        <time>2022-04-25T17:38:12Z</time>
      </trkpt>
      <trkpt lat="47.41543" lon="-1.79189">
        <ele>47</ele>
        <time>2022-04-25T17:38:23Z</time>
      </trkpt>
      <trkpt lat="47.4154" lon="-1.79198">
        <ele>47</ele>
        <time>2022-04-25T17:38:24Z</time>
      </trkpt>
      <trkpt lat="47.41531" lon="-1.79208">
        <ele>47</ele>
        <time>2022-04-25T17:38:26Z</time>
      </trkpt>
      <trkpt lat="47.41514" lon="-1.79195">
        <ele>47</ele>
        <time>2022-04-25T17:38:29Z</time>
      </trkpt>
      <trkpt lat="47.41506" lon="-1.79203">
        <ele>47</ele>
        <time>2022-04-25T17:38:31Z</time>
      </trkpt>
      <trkpt lat="47.4148" lon="-1.79217">
        <ele>48</ele>
        <time>2022-04-25T17:38:36Z</time>
      </trkpt>
      <trkpt lat="47.41446" lon="-1.79222">
        <ele>48</ele>
        <time>2022-04-25T17:38:42Z</time>
      </trkpt>
      <trkpt lat="47.41426" lon="-1.79228">
        <ele>49</ele>
        <time>2022-04-25T17:38:46Z</time>
      </trkpt>
      <trkpt lat="47.41414" lon="-1.79241">
        <ele>49</ele>
        <time>2022-04-25T17:38:48Z</time>
      </trkpt>
      <trkpt lat="47.41364" lon="-1.79315">
        <ele>50</ele>
        <time>2022-04-25T17:39:01Z</time>
      </trkpt>
      <trkpt lat="47.41332" lon="-1.79348">
        <ele>50</ele>
        <time>2022-04-25T17:39:08Z</time>
      </trkpt>
      <trkpt lat="47.41285" lon="-1.7938">
        <ele>50</ele>
        <time>2022-04-25T17:39:17Z</time>
      </trkpt>
      <trkpt lat="47.41113" lon="-1.79473">
        <ele>51</ele>
        <time>2022-04-25T17:39:50Z</time>
      </trkpt>
      <trkpt lat="47.40932" lon="-1.79555">
        <ele>55</ele>
        <time>2022-04-25T17:40:23Z</time>
      </trkpt>
      <trkpt lat="47.40918" lon="-1.7956">
        <ele>56</ele>
        <time>2022-04-25T17:40:26Z</time>
      </trkpt>
      <trkpt lat="47.40827" lon="-1.79603">
        <ele>58</ele>
        <time>2022-04-25T17:40:43Z</time>
      </trkpt>
      <trkpt lat="47.40781" lon="-1.79618">
        <ele>59</ele>
        <time>2022-04-25T17:40:51Z</time>
      </trkpt>
      <trkpt lat="47.40756" lon="-1.79623">
        <ele>60</ele>
        <time>2022-04-25T17:40:56Z</time>
      </trkpt>
      <trkpt lat="47.40756" lon="-1.7963">
        <ele>60</ele>
        <time>2022-04-25T17:40:57Z</time>
      </trkpt>
      <trkpt lat="47.40754" lon="-1.79635">
        <ele>60</ele>
        <time>2022-04-25T17:40:57Z</time>
      </trkpt>
      <trkpt lat="47.40748" lon="-1.7964">
        <ele>60</ele>
        <time>2022-04-25T17:40:59Z</time>
      </trkpt>
      <trkpt lat="47.40742" lon="-1.79637">
        <ele>61</ele>
        <time>2022-04-25T17:41:00Z</time>
      </trkpt>
      <trkpt lat="47.40738" lon="-1.79627">
        <ele>61</ele>
        <time>2022-04-25T17:41:01Z</time>
      </trkpt>
      <trkpt lat="47.40713" lon="-1.79632">
        <ele>61</ele>
        <time>2022-04-25T17:41:06Z</time>
      </trkpt>
      <trkpt lat="47.40505" lon="-1.79651">
        <ele>62</ele>
        <time>2022-04-25T17:41:43Z</time>
      </trkpt>
      <trkpt lat="47.40476" lon="-1.79646">
        <ele>63</ele>
        <time>2022-04-25T17:41:48Z</time>
      </trkpt>
      <trkpt lat="47.40415" lon="-1.79609">
        <ele>64</ele>
        <time>2022-04-25T17:42:00Z</time>
      </trkpt>
      <trkpt lat="47.40391" lon="-1.79599">
        <ele>64</ele>
        <time>2022-04-25T17:42:04Z</time>
      </trkpt>
      <trkpt lat="47.39833" lon="-1.79435">
        <ele>62</ele>
        <time>2022-04-25T17:43:45Z</time>
      </trkpt>
      <trkpt lat="47.39795" lon="-1.79426">
        <ele>60</ele>
        <time>2022-04-25T17:43:52Z</time>
      </trkpt>
      <trkpt lat="47.39174" lon="-1.79309">
        <ele>60</ele>
        <time>2022-04-25T17:45:43Z</time>
      </trkpt>
      <trkpt lat="47.39079" lon="-1.79287">
        <ele>61</ele>
        <time>2022-04-25T17:46:01Z</time>
      </trkpt>
      <trkpt lat="47.38563" lon="-1.791">
        <ele>62</ele>
        <time>2022-04-25T17:47:35Z</time>
      </trkpt>
      <trkpt lat="47.38021" lon="-1.78909">
        <ele>50</ele>
        <time>2022-04-25T17:49:14Z</time>
      </trkpt>
      <trkpt lat="47.37996" lon="-1.78901">
        <ele>50</ele>
        <time>2022-04-25T17:49:19Z</time>
      </trkpt>
      <trkpt lat="47.37962" lon="-1.78897">
        <ele>51</ele>
        <time>2022-04-25T17:49:25Z</time>
      </trkpt>
      <trkpt lat="47.37928" lon="-1.789">
        <ele>52</ele>
        <time>2022-04-25T17:49:31Z</time>
      </trkpt>
      <trkpt lat="47.37129" lon="-1.79082">
        <ele>75</ele>
        <time>2022-04-25T17:51:55Z</time>
      </trkpt>
      <trkpt lat="47.36945" lon="-1.79129">
        <ele>78</ele>
        <time>2022-04-25T17:52:28Z</time>
      </trkpt>
      <trkpt lat="47.36875" lon="-1.79141">
        <ele>78</ele>
        <time>2022-04-25T17:52:41Z</time>
      </trkpt>
      <trkpt lat="47.36636" lon="-1.79171">
        <ele>75</ele>
        <time>2022-04-25T17:53:23Z</time>
      </trkpt>
      <trkpt lat="47.36415" lon="-1.79193">
        <ele>77</ele>
        <time>2022-04-25T17:54:03Z</time>
      </trkpt>
      <trkpt lat="47.36335" lon="-1.79203">
        <ele>76</ele>
        <time>2022-04-25T17:54:17Z</time>
      </trkpt>
      <trkpt lat="47.36264" lon="-1.79189">
        <ele>77</ele>
        <time>2022-04-25T17:54:30Z</time>
      </trkpt>
      <trkpt lat="47.36195" lon="-1.79165">
        <ele>78</ele>
        <time>2022-04-25T17:54:42Z</time>
      </trkpt>
      <trkpt lat="47.3608" lon="-1.79131">
        <ele>79</ele>
        <time>2022-04-25T17:55:03Z</time>
      </trkpt>
      <trkpt lat="47.3606" lon="-1.79126">
        <ele>78</ele>
        <time>2022-04-25T17:55:07Z</time>
      </trkpt>
      <trkpt lat="47.36037" lon="-1.79125">
        <ele>78</ele>
        <time>2022-04-25T17:55:11Z</time>
      </trkpt>
      <trkpt lat="47.34911" lon="-1.79139">
        <ele>84</ele>
        <time>2022-04-25T17:58:31Z</time>
      </trkpt>
      <trkpt lat="47.34874" lon="-1.79136">
        <ele>83</ele>
        <time>2022-04-25T17:58:38Z</time>
      </trkpt>
      <trkpt lat="47.34692" lon="-1.79094">
        <ele>84</ele>
        <time>2022-04-25T17:59:11Z</time>
      </trkpt>
      <trkpt lat="47.34664" lon="-1.79088">
        <ele>84</ele>
        <time>2022-04-25T17:59:16Z</time>
      </trkpt>
      <trkpt lat="47.34624" lon="-1.79084">
        <ele>83</ele>
        <time>2022-04-25T17:59:23Z</time>
      </trkpt>
      <trkpt lat="47.34329" lon="-1.79076">
        <ele>84</ele>
        <time>2022-04-25T18:00:15Z</time>
      </trkpt>
      <trkpt lat="47.34304" lon="-1.79078">
        <ele>84</ele>
        <time>2022-04-25T18:00:20Z</time>
      </trkpt>
      <trkpt lat="47.34264" lon="-1.79086">
        <ele>85</ele>
        <time>2022-04-25T18:00:27Z</time>
      </trkpt>
      <trkpt lat="47.33861" lon="-1.79252">
        <ele>83</ele>
        <time>2022-04-25T18:01:41Z</time>
      </trkpt>
      <trkpt lat="47.33595" lon="-1.79355">
        <ele>85</ele>
        <time>2022-04-25T18:02:30Z</time>
      </trkpt>
      <trkpt lat="47.33575" lon="-1.79374">
        <ele>85</ele>
        <time>2022-04-25T18:02:34Z</time>
      </trkpt>
      <trkpt lat="47.33566" lon="-1.79387">
        <ele>85</ele>
        <time>2022-04-25T18:02:37Z</time>
      </trkpt>
      <trkpt lat="47.3355" lon="-1.79423">
        <ele>85</ele>
        <time>2022-04-25T18:02:42Z</time>
      </trkpt>
      <trkpt lat="47.3354" lon="-1.79455">
        <ele>86</ele>
        <time>2022-04-25T18:02:46Z</time>
      </trkpt>
      <trkpt lat="47.33534" lon="-1.79486">
        <ele>86</ele>
        <time>2022-04-25T18:02:50Z</time>
      </trkpt>
      <trkpt lat="47.3351" lon="-1.79477">
        <ele>86</ele>
        <time>2022-04-25T18:02:54Z</time>
      </trkpt>
      <trkpt lat="47.33472" lon="-1.79487">
        <ele>86</ele>
        <time>2022-04-25T18:03:01Z</time>
      </trkpt>
      <trkpt lat="47.33418" lon="-1.79507">
        <ele>86</ele>
        <time>2022-04-25T18:03:11Z</time>
      </trkpt>
      <trkpt lat="47.33346" lon="-1.79537">
        <ele>86</ele>
        <time>2022-04-25T18:03:25Z</time>
      </trkpt>
      <trkpt lat="47.33307" lon="-1.79557">
        <ele>86</ele>
        <time>2022-04-25T18:03:32Z</time>
      </trkpt>
      <trkpt lat="47.33303" lon="-1.79543">
        <ele>86</ele>
        <time>2022-04-25T18:03:34Z</time>
      </trkpt>
      <trkpt lat="47.33278" lon="-1.79529">
        <ele>86</ele>
        <time>2022-04-25T18:03:38Z</time>
      </trkpt>
      <trkpt lat="47.33262" lon="-1.79505">
        <ele>87</ele>
        <time>2022-04-25T18:03:43Z</time>
      </trkpt>
      <trkpt lat="47.33257" lon="-1.79508">
        <ele>87</ele>
        <time>2022-04-25T18:03:43Z</time>
      </trkpt>
      <trkpt lat="47.33216" lon="-1.79447">
        <ele>87</ele>
        <time>2022-04-25T18:03:54Z</time>
      </trkpt>
      <trkpt lat="47.33105" lon="-1.79295">
        <ele>87</ele>
        <time>2022-04-25T18:04:21Z</time>
      </trkpt>
      <trkpt lat="47.33069" lon="-1.79259">
        <ele>87</ele>
        <time>2022-04-25T18:04:29Z</time>
      </trkpt>
      <trkpt lat="47.33026" lon="-1.79229">
        <ele>86</ele>
        <time>2022-04-25T18:04:37Z</time>
      </trkpt>
      <trkpt lat="47.3301" lon="-1.79226">
        <ele>86</ele>
        <time>2022-04-25T18:04:40Z</time>
      </trkpt>
      <trkpt lat="47.32956" lon="-1.79209">
        <ele>85</ele>
        <time>2022-04-25T18:04:50Z</time>
      </trkpt>
      <trkpt lat="47.32912" lon="-1.79192">
        <ele>84</ele>
        <time>2022-04-25T18:04:58Z</time>
      </trkpt>
      <trkpt lat="47.32892" lon="-1.79175">
        <ele>85</ele>
        <time>2022-04-25T18:05:02Z</time>
      </trkpt>
      <trkpt lat="47.3286" lon="-1.79137">
        <ele>85</ele>
        <time>2022-04-25T18:05:09Z</time>
      </trkpt>
      <trkpt lat="47.3285" lon="-1.79133">
        <ele>86</ele>
        <time>2022-04-25T18:05:11Z</time>
      </trkpt>
      <trkpt lat="47.32844" lon="-1.79143">
        <ele>86</ele>
        <time>2022-04-25T18:05:13Z</time>
      </trkpt>
      <trkpt lat="47.32807" lon="-1.79167">
        <ele>86</ele>
        <time>2022-04-25T18:05:20Z</time>
      </trkpt>
      <trkpt lat="47.32822" lon="-1.79202">
        <ele>86</ele>
        <time>2022-04-25T18:05:25Z</time>
      </trkpt>
      <trkpt lat="47.32829" lon="-1.79217">
        <ele>85</ele>
        <time>2022-04-25T18:05:27Z</time>
      </trkpt>
      <trkpt lat="47.32815" lon="-1.79234">
        <ele>85</ele>
        <time>2022-04-25T18:05:30Z</time>
      </trkpt>
      <trkpt lat="47.32807" lon="-1.79219">
        <ele>86</ele>
        <time>2022-04-25T18:05:33Z</time>
      </trkpt>
      <trkpt lat="47.32822" lon="-1.79202">
        <ele>86</ele>
        <time>2022-04-25T18:05:36Z</time>
      </trkpt>
      <trkpt lat="47.32807" lon="-1.79167">
        <ele>86</ele>
        <time>2022-04-25T18:05:41Z</time>
      </trkpt>
      <trkpt lat="47.32762" lon="-1.79221">
        <ele>86</ele>
        <time>2022-04-25T18:05:51Z</time>
      </trkpt>
      <trkpt lat="47.32754" lon="-1.79226">
        <ele>86</ele>
        <time>2022-04-25T18:05:53Z</time>
      </trkpt>
      <trkpt lat="47.32702" lon="-1.79236">
        <ele>87</ele>
        <time>2022-04-25T18:06:02Z</time>
      </trkpt>
      <trkpt lat="47.32614" lon="-1.79245">
        <ele>88</ele>
        <time>2022-04-25T18:06:18Z</time>
      </trkpt>
      <trkpt lat="47.32399" lon="-1.79275">
        <ele>86</ele>
        <time>2022-04-25T18:06:56Z</time>
      </trkpt>
      <trkpt lat="47.32204" lon="-1.7929">
        <ele>85</ele>
        <time>2022-04-25T18:07:31Z</time>
      </trkpt>
      <trkpt lat="47.31809" lon="-1.79329">
        <ele>84</ele>
        <time>2022-04-25T18:08:41Z</time>
      </trkpt>
      <trkpt lat="47.31704" lon="-1.79356">
        <ele>82</ele>
        <time>2022-04-25T18:09:00Z</time>
      </trkpt>
      <trkpt lat="47.31526" lon="-1.79409">
        <ele>78</ele>
        <time>2022-04-25T18:09:33Z</time>
      </trkpt>
      <trkpt lat="47.31475" lon="-1.7942">
        <ele>77</ele>
        <time>2022-04-25T18:09:42Z</time>
      </trkpt>
      <trkpt lat="47.3141" lon="-1.79428">
        <ele>76</ele>
        <time>2022-04-25T18:09:53Z</time>
      </trkpt>
      <trkpt lat="47.31286" lon="-1.7944">
        <ele>75</ele>
        <time>2022-04-25T18:10:16Z</time>
      </trkpt>
      <trkpt lat="47.31042" lon="-1.79468">
        <ele>75</ele>
        <time>2022-04-25T18:10:59Z</time>
      </trkpt>
      <trkpt lat="47.30976" lon="-1.79465">
        <ele>75</ele>
        <time>2022-04-25T18:11:11Z</time>
      </trkpt>
      <trkpt lat="47.30932" lon="-1.79453">
        <ele>76</ele>
        <time>2022-04-25T18:11:19Z</time>
      </trkpt>
      <trkpt lat="47.30687" lon="-1.79356">
        <ele>82</ele>
        <time>2022-04-25T18:12:04Z</time>
      </trkpt>
      <trkpt lat="47.30664" lon="-1.79345">
        <ele>82</ele>
        <time>2022-04-25T18:12:08Z</time>
      </trkpt>
      <trkpt lat="47.3032" lon="-1.79157">
        <ele>75</ele>
        <time>2022-04-25T18:13:14Z</time>
      </trkpt>
      <trkpt lat="47.30269" lon="-1.79136">
        <ele>77</ele>
        <time>2022-04-25T18:13:23Z</time>
      </trkpt>
      <trkpt lat="47.30059" lon="-1.79068">
        <ele>74</ele>
        <time>2022-04-25T18:14:01Z</time>
      </trkpt>
      <trkpt lat="47.29968" lon="-1.79036">
        <ele>73</ele>
        <time>2022-04-25T18:14:18Z</time>
      </trkpt>
      <trkpt lat="47.29934" lon="-1.79022">
        <ele>72</ele>
        <time>2022-04-25T18:14:24Z</time>
      </trkpt>
      <trkpt lat="47.29913" lon="-1.79007">
        <ele>72</ele>
        <time>2022-04-25T18:14:28Z</time>
      </trkpt>
      <trkpt lat="47.29876" lon="-1.78968">
        <ele>71</ele>
        <time>2022-04-25T18:14:36Z</time>
      </trkpt>
      <trkpt lat="47.29736" lon="-1.78796">
        <ele>63</ele>
        <time>2022-04-25T18:15:09Z</time>
      </trkpt>
      <trkpt lat="47.29703" lon="-1.7876">
        <ele>62</ele>
        <time>2022-04-25T18:15:16Z</time>
      </trkpt>
      <trkpt lat="47.29685" lon="-1.78749">
        <ele>61</ele>
        <time>2022-04-25T18:15:20Z</time>
      </trkpt>
      <trkpt lat="47.29659" lon="-1.7874">
        <ele>61</ele>
        <time>2022-04-25T18:15:24Z</time>
      </trkpt>
      <trkpt lat="47.29633" lon="-1.78736">
        <ele>63</ele>
        <time>2022-04-25T18:15:29Z</time>
      </trkpt>
      <trkpt lat="47.29608" lon="-1.78739">
        <ele>63</ele>
        <time>2022-04-25T18:15:33Z</time>
      </trkpt>
      <trkpt lat="47.29543" lon="-1.78766">
        <ele>64</ele>
        <time>2022-04-25T18:15:45Z</time>
      </trkpt>
      <trkpt lat="47.29525" lon="-1.78774">
        <ele>65</ele>
        <time>2022-04-25T18:15:49Z</time>
      </trkpt>
      <trkpt lat="47.2951" lon="-1.78785">
        <ele>66</ele>
        <time>2022-04-25T18:15:52Z</time>
      </trkpt>
      <trkpt lat="47.29499" lon="-1.78797">
        <ele>66</ele>
        <time>2022-04-25T18:15:54Z</time>
      </trkpt>
      <trkpt lat="47.29475" lon="-1.78844">
        <ele>65</ele>
        <time>2022-04-25T18:16:01Z</time>
      </trkpt>
      <trkpt lat="47.29452" lon="-1.7887">
        <ele>65</ele>
        <time>2022-04-25T18:16:06Z</time>
      </trkpt>
      <trkpt lat="47.2944" lon="-1.78878">
        <ele>66</ele>
        <time>2022-04-25T18:16:09Z</time>
      </trkpt>
      <trkpt lat="47.29423" lon="-1.78882">
        <ele>67</ele>
        <time>2022-04-25T18:16:12Z</time>
      </trkpt>
      <trkpt lat="47.29407" lon="-1.78879">
        <ele>68</ele>
        <time>2022-04-25T18:16:15Z</time>
      </trkpt>
      <trkpt lat="47.29398" lon="-1.78873">
        <ele>68</ele>
        <time>2022-04-25T18:16:17Z</time>
      </trkpt>
      <trkpt lat="47.29387" lon="-1.78861">
        <ele>68</ele>
        <time>2022-04-25T18:16:19Z</time>
      </trkpt>
      <trkpt lat="47.29375" lon="-1.7884">
        <ele>68</ele>
        <time>2022-04-25T18:16:22Z</time>
      </trkpt>
      <trkpt lat="47.29315" lon="-1.78664">
        <ele>71</ele>
        <time>2022-04-25T18:16:46Z</time>
      </trkpt>
      <trkpt lat="47.29276" lon="-1.7856">
        <ele>72</ele>
        <time>2022-04-25T18:17:00Z</time>
      </trkpt>
      <trkpt lat="47.29221" lon="-1.78441">
        <ele>72</ele>
        <time>2022-04-25T18:17:18Z</time>
      </trkpt>
      <trkpt lat="47.29199" lon="-1.78402">
        <ele>71</ele>
        <time>2022-04-25T18:17:24Z</time>
      </trkpt>
      <trkpt lat="47.29176" lon="-1.78366">
        <ele>71</ele>
        <time>2022-04-25T18:17:30Z</time>
      </trkpt>
      <trkpt lat="47.29165" lon="-1.78354">
        <ele>71</ele>
        <time>2022-04-25T18:17:32Z</time>
      </trkpt>
      <trkpt lat="47.29145" lon="-1.78345">
        <ele>71</ele>
        <time>2022-04-25T18:17:36Z</time>
      </trkpt>
      <trkpt lat="47.29108" lon="-1.7834">
        <ele>71</ele>
        <time>2022-04-25T18:17:43Z</time>
      </trkpt>
      <trkpt lat="47.29024" lon="-1.78337">
        <ele>71</ele>
        <time>2022-04-25T18:17:58Z</time>
      </trkpt>
      <trkpt lat="47.28912" lon="-1.78334">
        <ele>69</ele>
        <time>2022-04-25T18:18:17Z</time>
      </trkpt>
      <trkpt lat="47.28894" lon="-1.78339">
        <ele>68</ele>
        <time>2022-04-25T18:18:21Z</time>
      </trkpt>
      <trkpt lat="47.28868" lon="-1.78354">
        <ele>67</ele>
        <time>2022-04-25T18:18:26Z</time>
      </trkpt>
      <trkpt lat="47.28807" lon="-1.78396">
        <ele>65</ele>
        <time>2022-04-25T18:18:38Z</time>
      </trkpt>
      <trkpt lat="47.28769" lon="-1.78417">
        <ele>65</ele>
        <time>2022-04-25T18:18:45Z</time>
      </trkpt>
      <trkpt lat="47.28637" lon="-1.78484">
        <ele>65</ele>
        <time>2022-04-25T18:19:10Z</time>
      </trkpt>
      <trkpt lat="47.284" lon="-1.78611">
        <ele>54</ele>
        <time>2022-04-25T18:19:55Z</time>
      </trkpt>
      <trkpt lat="47.28383" lon="-1.78617">
        <ele>52</ele>
        <time>2022-04-25T18:19:58Z</time>
      </trkpt>
      <trkpt lat="47.28363" lon="-1.78618">
        <ele>50</ele>
        <time>2022-04-25T18:20:01Z</time>
      </trkpt>
      <trkpt lat="47.28345" lon="-1.78611">
        <ele>49</ele>
        <time>2022-04-25T18:20:05Z</time>
      </trkpt>
      <trkpt lat="47.28327" lon="-1.78596">
        <ele>48</ele>
        <time>2022-04-25T18:20:08Z</time>
      </trkpt>
      <trkpt lat="47.28278" lon="-1.78545">
        <ele>48</ele>
        <time>2022-04-25T18:20:19Z</time>
      </trkpt>
      <trkpt lat="47.28236" lon="-1.78495">
        <ele>48</ele>
        <time>2022-04-25T18:20:29Z</time>
      </trkpt>
      <trkpt lat="47.27982" lon="-1.78183">
        <ele>29</ele>
        <time>2022-04-25T18:21:27Z</time>
      </trkpt>
      <trkpt lat="47.27957" lon="-1.78155">
        <ele>28</ele>
        <time>2022-04-25T18:21:33Z</time>
      </trkpt>
      <trkpt lat="47.27953" lon="-1.78157">
        <ele>28</ele>
        <time>2022-04-25T18:21:34Z</time>
      </trkpt>
      <trkpt lat="47.27949" lon="-1.78156">
        <ele>28</ele>
        <time>2022-04-25T18:21:34Z</time>
      </trkpt>
      <trkpt lat="47.27946" lon="-1.78147">
        <ele>28</ele>
        <time>2022-04-25T18:21:36Z</time>
      </trkpt>
      <trkpt lat="47.27947" lon="-1.78141">
        <ele>28</ele>
        <time>2022-04-25T18:21:36Z</time>
      </trkpt>
      <trkpt lat="47.2795" lon="-1.78136">
        <ele>29</ele>
        <time>2022-04-25T18:21:37Z</time>
      </trkpt>
      <trkpt lat="47.27955" lon="-1.78136">
        <ele>29</ele>
        <time>2022-04-25T18:21:38Z</time>
      </trkpt>
      <trkpt lat="47.27966" lon="-1.78099">
        <ele>30</ele>
        <time>2022-04-25T18:21:43Z</time>
      </trkpt>
      <trkpt lat="47.27974" lon="-1.78066">
        <ele>32</ele>
        <time>2022-04-25T18:21:47Z</time>
      </trkpt>
      <trkpt lat="47.27972" lon="-1.78053">
        <ele>32</ele>
        <time>2022-04-25T18:21:49Z</time>
      </trkpt>
      <trkpt lat="47.27967" lon="-1.7804">
        <ele>33</ele>
        <time>2022-04-25T18:21:51Z</time>
      </trkpt>
      <trkpt lat="47.27954" lon="-1.78017">
        <ele>34</ele>
        <time>2022-04-25T18:21:54Z</time>
      </trkpt>
      <trkpt lat="47.27921" lon="-1.77949">
        <ele>37</ele>
        <time>2022-04-25T18:22:04Z</time>
      </trkpt>
      <trkpt lat="47.27871" lon="-1.77835">
        <ele>39</ele>
        <time>2022-04-25T18:22:21Z</time>
      </trkpt>
      <trkpt lat="47.27855" lon="-1.77816">
        <ele>38</ele>
        <time>2022-04-25T18:22:24Z</time>
      </trkpt>
      <trkpt lat="47.27843" lon="-1.7781">
        <ele>36</ele>
        <time>2022-04-25T18:22:27Z</time>
      </trkpt>
      <trkpt lat="47.27814" lon="-1.77806">
        <ele>34</ele>
        <time>2022-04-25T18:22:32Z</time>
      </trkpt>
      <trkpt lat="47.27806" lon="-1.77799">
        <ele>33</ele>
        <time>2022-04-25T18:22:33Z</time>
      </trkpt>
      <trkpt lat="47.27789" lon="-1.77825">
        <ele>31</ele>
        <time>2022-04-25T18:22:38Z</time>
      </trkpt>
      <trkpt lat="47.27781" lon="-1.77834">
        <ele>30</ele>
        <time>2022-04-25T18:22:40Z</time>
      </trkpt>
      <trkpt lat="47.27702" lon="-1.77886">
        <ele>25</ele>
        <time>2022-04-25T18:22:55Z</time>
      </trkpt>
      <trkpt lat="47.27694" lon="-1.77894">
        <ele>25</ele>
        <time>2022-04-25T18:22:57Z</time>
      </trkpt>
      <trkpt lat="47.27656" lon="-1.77942">
        <ele>24</ele>
        <time>2022-04-25T18:23:06Z</time>
      </trkpt>
      <trkpt lat="47.27646" lon="-1.77947">
        <ele>24</ele>
        <time>2022-04-25T18:23:08Z</time>
      </trkpt>
      <trkpt lat="47.27606" lon="-1.77941">
        <ele>23</ele>
        <time>2022-04-25T18:23:15Z</time>
      </trkpt>
      <trkpt lat="47.27579" lon="-1.7795">
        <ele>23</ele>
        <time>2022-04-25T18:23:20Z</time>
      </trkpt>
      <trkpt lat="47.2755" lon="-1.77964">
        <ele>22</ele>
        <time>2022-04-25T18:23:25Z</time>
      </trkpt>
      <trkpt lat="47.27534" lon="-1.77973">
        <ele>21</ele>
        <time>2022-04-25T18:23:28Z</time>
      </trkpt>
      <trkpt lat="47.27529" lon="-1.7798">
        <ele>21</ele>
        <time>2022-04-25T18:23:29Z</time>
      </trkpt>
      <trkpt lat="47.2751" lon="-1.7798">
        <ele>20</ele>
        <time>2022-04-25T18:23:33Z</time>
      </trkpt>
      <trkpt lat="47.27469" lon="-1.77973">
        <ele>19</ele>
        <time>2022-04-25T18:23:40Z</time>
      </trkpt>
      <trkpt lat="47.27441" lon="-1.77966">
        <ele>17</ele>
        <time>2022-04-25T18:23:45Z</time>
      </trkpt>
      <trkpt lat="47.2742" lon="-1.77948">
        <ele>17</ele>
        <time>2022-04-25T18:23:49Z</time>
      </trkpt>
      <trkpt lat="47.27412" lon="-1.77947">
        <ele>17</ele>
        <time>2022-04-25T18:23:51Z</time>
      </trkpt>
      <trkpt lat="47.27413" lon="-1.77926">
        <ele>17</ele>
        <time>2022-04-25T18:23:53Z</time>
      </trkpt>
      <trkpt lat="47.27404" lon="-1.77917">
        <ele>17</ele>
        <time>2022-04-25T18:23:55Z</time>
      </trkpt>
      <trkpt lat="47.27403" lon="-1.77908">
        <ele>17</ele>
        <time>2022-04-25T18:23:56Z</time>
      </trkpt>
      <trkpt lat="47.27398" lon="-1.77909">
        <ele>17</ele>
        <time>2022-04-25T18:23:57Z</time>
      </trkpt>
      <trkpt lat="47.27389" lon="-1.77905">
        <ele>18</ele>
        <time>2022-04-25T18:23:59Z</time>
      </trkpt>
      <trkpt lat="47.27377" lon="-1.77904">
        <ele>18</ele>
        <time>2022-04-25T18:24:01Z</time>
      </trkpt>
      <trkpt lat="47.2737" lon="-1.77901">
        <ele>18</ele>
        <time>2022-04-25T18:24:02Z</time>
      </trkpt>
      <trkpt lat="47.27245" lon="-1.77704">
        <ele>19</ele>
        <time>2022-04-25T18:24:35Z</time>
      </trkpt>
      <trkpt lat="47.27183" lon="-1.77612">
        <ele>21</ele>
        <time>2022-04-25T18:24:51Z</time>
      </trkpt>
      <trkpt lat="47.27168" lon="-1.77587">
        <ele>21</ele>
        <time>2022-04-25T18:24:55Z</time>
      </trkpt>
      <trkpt lat="47.27164" lon="-1.77592">
        <ele>21</ele>
        <time>2022-04-25T18:24:56Z</time>
      </trkpt>
      <trkpt lat="47.27092" lon="-1.77491">
        <ele>21</ele>
        <time>2022-04-25T18:25:13Z</time>
      </trkpt>
      <trkpt lat="47.27084" lon="-1.77496">
        <ele>21</ele>
        <time>2022-04-25T18:25:15Z</time>
      </trkpt>
      <trkpt lat="47.2708" lon="-1.77496">
        <ele>21</ele>
        <time>2022-04-25T18:25:16Z</time>
      </trkpt>
      <trkpt lat="47.27074" lon="-1.77492">
        <ele>21</ele>
        <time>2022-04-25T18:25:17Z</time>
      </trkpt>
      <trkpt lat="47.27071" lon="-1.77486">
        <ele>21</ele>
        <time>2022-04-25T18:25:18Z</time>
      </trkpt>
      <trkpt lat="47.2707" lon="-1.77473">
        <ele>21</ele>
        <time>2022-04-25T18:25:19Z</time>
      </trkpt>
      <trkpt lat="47.27072" lon="-1.77467">
        <ele>21</ele>
        <time>2022-04-25T18:25:20Z</time>
      </trkpt>
      <trkpt lat="47.27075" lon="-1.77462">
        <ele>21</ele>
        <time>2022-04-25T18:25:21Z</time>
      </trkpt>
      <trkpt lat="47.27069" lon="-1.77447">
        <ele>22</ele>
        <time>2022-04-25T18:25:23Z</time>
      </trkpt>
      <trkpt lat="47.27024" lon="-1.77372">
        <ele>21</ele>
        <time>2022-04-25T18:25:35Z</time>
      </trkpt>
      <trkpt lat="47.26882" lon="-1.77116">
        <ele>18</ele>
        <time>2022-04-25T18:26:15Z</time>
      </trkpt>
      <trkpt lat="47.26866" lon="-1.77092">
        <ele>18</ele>
        <time>2022-04-25T18:26:19Z</time>
      </trkpt>
      <trkpt lat="47.2682" lon="-1.77029">
        <ele>16</ele>
        <time>2022-04-25T18:26:30Z</time>
      </trkpt>
      <trkpt lat="47.268" lon="-1.77019">
        <ele>16</ele>
        <time>2022-04-25T18:26:34Z</time>
      </trkpt>
      <trkpt lat="47.26797" lon="-1.77021">
        <ele>16</ele>
        <time>2022-04-25T18:26:34Z</time>
      </trkpt>
      <trkpt lat="47.26789" lon="-1.77021">
        <ele>16</ele>
        <time>2022-04-25T18:26:36Z</time>
      </trkpt>
      <trkpt lat="47.26783" lon="-1.77016">
        <ele>16</ele>
        <time>2022-04-25T18:26:37Z</time>
      </trkpt>
      <trkpt lat="47.26778" lon="-1.77006">
        <ele>16</ele>
        <time>2022-04-25T18:26:39Z</time>
      </trkpt>
      <trkpt lat="47.26778" lon="-1.76991">
        <ele>16</ele>
        <time>2022-04-25T18:26:40Z</time>
      </trkpt>
      <trkpt lat="47.2677" lon="-1.76965">
        <ele>16</ele>
        <time>2022-04-25T18:26:44Z</time>
      </trkpt>
      <trkpt lat="47.26737" lon="-1.76921">
        <ele>15</ele>
        <time>2022-04-25T18:26:52Z</time>
      </trkpt>
      <trkpt lat="47.26594" lon="-1.7676">
        <ele>11</ele>
        <time>2022-04-25T18:27:24Z</time>
      </trkpt>
      <trkpt lat="47.26456" lon="-1.76582">
        <ele>9</ele>
        <time>2022-04-25T18:27:56Z</time>
      </trkpt>
      <trkpt lat="47.26441" lon="-1.7656">
        <ele>10</ele>
        <time>2022-04-25T18:28:00Z</time>
      </trkpt>
      <trkpt lat="47.26387" lon="-1.76458">
        <ele>11</ele>
        <time>2022-04-25T18:28:16Z</time>
      </trkpt>
      <trkpt lat="47.26346" lon="-1.76371">
        <ele>11</ele>
        <time>2022-04-25T18:28:29Z</time>
      </trkpt>
      <trkpt lat="47.26311" lon="-1.7632">
        <ele>11</ele>
        <time>2022-04-25T18:28:37Z</time>
      </trkpt>
      <trkpt lat="47.26255" lon="-1.76264">
        <ele>12</ele>
        <time>2022-04-25T18:28:49Z</time>
      </trkpt>
      <trkpt lat="47.26038" lon="-1.76027">
        <ele>15</ele>
        <time>2022-04-25T18:29:38Z</time>
      </trkpt>
      <trkpt lat="47.25691" lon="-1.75625">
        <ele>18</ele>
        <time>2022-04-25T18:30:56Z</time>
      </trkpt>
      <trkpt lat="47.25672" lon="-1.75609">
        <ele>18</ele>
        <time>2022-04-25T18:31:00Z</time>
      </trkpt>
      <trkpt lat="47.25624" lon="-1.7556">
        <ele>18</ele>
        <time>2022-04-25T18:31:10Z</time>
      </trkpt>
      <trkpt lat="47.25545" lon="-1.75492">
        <ele>16</ele>
        <time>2022-04-25T18:31:27Z</time>
      </trkpt>
      <trkpt lat="47.25522" lon="-1.75465">
        <ele>15</ele>
        <time>2022-04-25T18:31:32Z</time>
      </trkpt>
      <trkpt lat="47.25495" lon="-1.75428">
        <ele>14</ele>
        <time>2022-04-25T18:31:38Z</time>
      </trkpt>
      <trkpt lat="47.25454" lon="-1.75362">
        <ele>15</ele>
        <time>2022-04-25T18:31:49Z</time>
      </trkpt>
      <trkpt lat="47.25445" lon="-1.75341">
        <ele>16</ele>
        <time>2022-04-25T18:31:52Z</time>
      </trkpt>
      <trkpt lat="47.25425" lon="-1.75311">
        <ele>16</ele>
        <time>2022-04-25T18:31:57Z</time>
      </trkpt>
      <trkpt lat="47.25392" lon="-1.75256">
        <ele>17</ele>
        <time>2022-04-25T18:32:06Z</time>
      </trkpt>
      <trkpt lat="47.25092" lon="-1.74747">
        <ele>20</ele>
        <time>2022-04-25T18:33:28Z</time>
      </trkpt>
      <trkpt lat="47.25063" lon="-1.74703">
        <ele>20</ele>
        <time>2022-04-25T18:33:35Z</time>
      </trkpt>
      <trkpt lat="47.24883" lon="-1.74411">
        <ele>18</ele>
        <time>2022-04-25T18:34:23Z</time>
      </trkpt>
      <trkpt lat="47.24788" lon="-1.74252">
        <ele>21</ele>
        <time>2022-04-25T18:34:48Z</time>
      </trkpt>
      <trkpt lat="47.24679" lon="-1.7408">
        <ele>17</ele>
        <time>2022-04-25T18:35:17Z</time>
      </trkpt>
      <trkpt lat="47.24543" lon="-1.7382">
        <ele>10</ele>
        <time>2022-04-25T18:35:56Z</time>
      </trkpt>
      <trkpt lat="47.245" lon="-1.73742">
        <ele>9</ele>
        <time>2022-04-25T18:36:08Z</time>
      </trkpt>
      <trkpt lat="47.24477" lon="-1.73707">
        <ele>8</ele>
        <time>2022-04-25T18:36:14Z</time>
      </trkpt>
      <trkpt lat="47.24443" lon="-1.73677">
        <ele>8</ele>
        <time>2022-04-25T18:36:21Z</time>
      </trkpt>
      <trkpt lat="47.24407" lon="-1.73661">
        <ele>7</ele>
        <time>2022-04-25T18:36:28Z</time>
      </trkpt>
      <trkpt lat="47.24336" lon="-1.73636">
        <ele>8</ele>
        <time>2022-04-25T18:36:41Z</time>
      </trkpt>
      <trkpt lat="47.24083" lon="-1.73549">
        <ele>15</ele>
        <time>2022-04-25T18:37:27Z</time>
      </trkpt>
      <trkpt lat="47.24" lon="-1.73527">
        <ele>10</ele>
        <time>2022-04-25T18:37:42Z</time>
      </trkpt>
      <trkpt lat="47.23987" lon="-1.73526">
        <ele>10</ele>
        <time>2022-04-25T18:37:45Z</time>
      </trkpt>
      <trkpt lat="47.23973" lon="-1.73532">
        <ele>9</ele>
        <time>2022-04-25T18:37:47Z</time>
      </trkpt>
      <trkpt lat="47.23963" lon="-1.73546">
        <ele>9</ele>
        <time>2022-04-25T18:37:50Z</time>
      </trkpt>
      <trkpt lat="47.23948" lon="-1.73596">
        <ele>8</ele>
        <time>2022-04-25T18:37:56Z</time>
      </trkpt>
      <trkpt lat="47.23942" lon="-1.73607">
        <ele>8</ele>
        <time>2022-04-25T18:37:58Z</time>
      </trkpt>
      <trkpt lat="47.23937" lon="-1.7361">
        <ele>8</ele>
        <time>2022-04-25T18:37:59Z</time>
      </trkpt>
      <trkpt lat="47.23925" lon="-1.73613">
        <ele>7</ele>
        <time>2022-04-25T18:38:01Z</time>
      </trkpt>
      <trkpt lat="47.23914" lon="-1.7361">
        <ele>7</ele>
        <time>2022-04-25T18:38:03Z</time>
      </trkpt>
      <trkpt lat="47.23832" lon="-1.73572">
        <ele>6</ele>
        <time>2022-04-25T18:38:18Z</time>
      </trkpt>
      <trkpt lat="47.23805" lon="-1.73566">
        <ele>6</ele>
        <time>2022-04-25T18:38:23Z</time>
      </trkpt>
      <trkpt lat="47.23649" lon="-1.73574">
        <ele>4</ele>
        <time>2022-04-25T18:38:51Z</time>
      </trkpt>
      <trkpt lat="47.23594" lon="-1.73585">
        <ele>4</ele>
        <time>2022-04-25T18:39:01Z</time>
      </trkpt>
      <trkpt lat="47.23546" lon="-1.73609">
        <ele>5</ele>
        <time>2022-04-25T18:39:10Z</time>
      </trkpt>
      <trkpt lat="47.23489" lon="-1.73643">
        <ele>6</ele>
        <time>2022-04-25T18:39:21Z</time>
      </trkpt>
      <trkpt lat="47.23368" lon="-1.73708">
        <ele>9</ele>
        <time>2022-04-25T18:39:44Z</time>
      </trkpt>
      <trkpt lat="47.23342" lon="-1.7372">
        <ele>10</ele>
        <time>2022-04-25T18:39:49Z</time>
      </trkpt>
      <trkpt lat="47.23322" lon="-1.73725">
        <ele>10</ele>
        <time>2022-04-25T18:39:52Z</time>
      </trkpt>
      <trkpt lat="47.23301" lon="-1.73726">
        <ele>11</ele>
        <time>2022-04-25T18:39:56Z</time>
      </trkpt>
      <trkpt lat="47.23257" lon="-1.7372">
        <ele>12</ele>
        <time>2022-04-25T18:40:04Z</time>
      </trkpt>
      <trkpt lat="47.23056" lon="-1.73678">
        <ele>14</ele>
        <time>2022-04-25T18:40:40Z</time>
      </trkpt>
      <trkpt lat="47.22952" lon="-1.73642">
        <ele>15</ele>
        <time>2022-04-25T18:40:59Z</time>
      </trkpt>
      <trkpt lat="47.22944" lon="-1.73643">
        <ele>15</ele>
        <time>2022-04-25T18:41:00Z</time>
      </trkpt>
      <trkpt lat="47.22944" lon="-1.73646">
        <ele>14</ele>
        <time>2022-04-25T18:41:01Z</time>
      </trkpt>
      <trkpt lat="47.22941" lon="-1.73651">
        <ele>14</ele>
        <time>2022-04-25T18:41:02Z</time>
      </trkpt>
      <trkpt lat="47.22936" lon="-1.7365">
        <ele>14</ele>
        <time>2022-04-25T18:41:02Z</time>
      </trkpt>
      <trkpt lat="47.22934" lon="-1.73646">
        <ele>14</ele>
        <time>2022-04-25T18:41:03Z</time>
      </trkpt>
      <trkpt lat="47.22935" lon="-1.7364">
        <ele>14</ele>
        <time>2022-04-25T18:41:04Z</time>
      </trkpt>
      <trkpt lat="47.22923" lon="-1.7363">
        <ele>14</ele>
        <time>2022-04-25T18:41:06Z</time>
      </trkpt>
      <trkpt lat="47.22759" lon="-1.73564">
        <ele>13</ele>
        <time>2022-04-25T18:41:36Z</time>
      </trkpt>
      <trkpt lat="47.22562" lon="-1.73449">
        <ele>11</ele>
        <time>2022-04-25T18:42:14Z</time>
      </trkpt>
      <trkpt lat="47.22539" lon="-1.73447">
        <ele>11</ele>
        <time>2022-04-25T18:42:18Z</time>
      </trkpt>
      <trkpt lat="47.22536" lon="-1.7345">
        <ele>10</ele>
        <time>2022-04-25T18:42:19Z</time>
      </trkpt>
      <trkpt lat="47.2253" lon="-1.7345">
        <ele>10</ele>
        <time>2022-04-25T18:42:20Z</time>
      </trkpt>
      <trkpt lat="47.22525" lon="-1.73441">
        <ele>10</ele>
        <time>2022-04-25T18:42:21Z</time>
      </trkpt>
      <trkpt lat="47.22516" lon="-1.73448">
        <ele>10</ele>
        <time>2022-04-25T18:42:23Z</time>
      </trkpt>
      <trkpt lat="47.22358" lon="-1.73483">
        <ele>10</ele>
        <time>2022-04-25T18:42:52Z</time>
      </trkpt>
      <trkpt lat="47.22317" lon="-1.73484">
        <ele>10</ele>
        <time>2022-04-25T18:42:59Z</time>
      </trkpt>
      <trkpt lat="47.22291" lon="-1.7348">
        <ele>10</ele>
        <time>2022-04-25T18:43:04Z</time>
      </trkpt>
      <trkpt lat="47.22259" lon="-1.73468">
        <ele>11</ele>
        <time>2022-04-25T18:43:09Z</time>
      </trkpt>
      <trkpt lat="47.22204" lon="-1.73442">
        <ele>13</ele>
        <time>2022-04-25T18:43:20Z</time>
      </trkpt>
      <trkpt lat="47.22201" lon="-1.73451">
        <ele>13</ele>
        <time>2022-04-25T18:43:21Z</time>
      </trkpt>
      <trkpt lat="47.22198" lon="-1.73454">
        <ele>13</ele>
        <time>2022-04-25T18:43:22Z</time>
      </trkpt>
      <trkpt lat="47.22191" lon="-1.73454">
        <ele>13</ele>
        <time>2022-04-25T18:43:23Z</time>
      </trkpt>
      <trkpt lat="47.22184" lon="-1.73446">
        <ele>13</ele>
        <time>2022-04-25T18:43:24Z</time>
      </trkpt>
      <trkpt lat="47.22183" lon="-1.73433">
        <ele>13</ele>
        <time>2022-04-25T18:43:26Z</time>
      </trkpt>
      <trkpt lat="47.2215" lon="-1.73418">
        <ele>15</ele>
        <time>2022-04-25T18:43:32Z</time>
      </trkpt>
      <trkpt lat="47.22087" lon="-1.73403">
        <ele>18</ele>
        <time>2022-04-25T18:43:43Z</time>
      </trkpt>
      <trkpt lat="47.22045" lon="-1.73403">
        <ele>20</ele>
        <time>2022-04-25T18:43:51Z</time>
      </trkpt>
      <trkpt lat="47.21999" lon="-1.7341">
        <ele>21</ele>
        <time>2022-04-25T18:43:59Z</time>
      </trkpt>
      <trkpt lat="47.2199" lon="-1.73407">
        <ele>21</ele>
        <time>2022-04-25T18:44:01Z</time>
      </trkpt>
      <trkpt lat="47.21987" lon="-1.73413">
        <ele>21</ele>
        <time>2022-04-25T18:44:02Z</time>
      </trkpt>
      <trkpt lat="47.21983" lon="-1.73416">
        <ele>21</ele>
        <time>2022-04-25T18:44:03Z</time>
      </trkpt>
      <trkpt lat="47.21978" lon="-1.73415">
        <ele>21</ele>
        <time>2022-04-25T18:44:03Z</time>
      </trkpt>
      <trkpt lat="47.21975" lon="-1.73409">
        <ele>22</ele>
        <time>2022-04-25T18:44:04Z</time>
      </trkpt>
      <trkpt lat="47.2197" lon="-1.73414">
        <ele>21</ele>
        <time>2022-04-25T18:44:05Z</time>
      </trkpt>
      <trkpt lat="47.21925" lon="-1.73441">
        <ele>21</ele>
        <time>2022-04-25T18:44:14Z</time>
      </trkpt>
      <trkpt lat="47.21916" lon="-1.73443">
        <ele>21</ele>
        <time>2022-04-25T18:44:16Z</time>
      </trkpt>
      <trkpt lat="47.21916" lon="-1.73451">
        <ele>21</ele>
        <time>2022-04-25T18:44:17Z</time>
      </trkpt>
      <trkpt lat="47.21912" lon="-1.73457">
        <ele>21</ele>
        <time>2022-04-25T18:44:18Z</time>
      </trkpt>
      <trkpt lat="47.21906" lon="-1.73457">
        <ele>21</ele>
        <time>2022-04-25T18:44:19Z</time>
      </trkpt>
      <trkpt lat="47.21903" lon="-1.73452">
        <ele>21</ele>
        <time>2022-04-25T18:44:20Z</time>
      </trkpt>
      <trkpt lat="47.21884" lon="-1.73469">
        <ele>20</ele>
        <time>2022-04-25T18:44:23Z</time>
      </trkpt>
      <trkpt lat="47.21801" lon="-1.73522">
        <ele>19</ele>
        <time>2022-04-25T18:44:40Z</time>
      </trkpt>
      <trkpt lat="47.21741" lon="-1.7357">
        <ele>19</ele>
        <time>2022-04-25T18:44:52Z</time>
      </trkpt>
      <trkpt lat="47.21715" lon="-1.73594">
        <ele>18</ele>
        <time>2022-04-25T18:44:57Z</time>
      </trkpt>
      <trkpt lat="47.21619" lon="-1.73698">
        <ele>14</ele>
        <time>2022-04-25T18:45:18Z</time>
      </trkpt>
      <trkpt lat="47.21597" lon="-1.73725">
        <ele>14</ele>
        <time>2022-04-25T18:45:23Z</time>
      </trkpt>
      <trkpt lat="47.21598" lon="-1.73729">
        <ele>14</ele>
        <time>2022-04-25T18:45:24Z</time>
      </trkpt>
      <trkpt lat="47.21597" lon="-1.73735">
        <ele>14</ele>
        <time>2022-04-25T18:45:25Z</time>
      </trkpt>
      <trkpt lat="47.21593" lon="-1.73739">
        <ele>14</ele>
        <time>2022-04-25T18:45:26Z</time>
      </trkpt>
      <trkpt lat="47.2159" lon="-1.73739">
        <ele>14</ele>
        <time>2022-04-25T18:45:26Z</time>
      </trkpt>
      <trkpt lat="47.21587" lon="-1.73734">
        <ele>14</ele>
        <time>2022-04-25T18:45:27Z</time>
      </trkpt>
      <trkpt lat="47.21505" lon="-1.73805">
        <ele>11</ele>
        <time>2022-04-25T18:45:44Z</time>
      </trkpt>
      <trkpt lat="47.214" lon="-1.73881">
        <ele>7</ele>
        <time>2022-04-25T18:46:05Z</time>
      </trkpt>
      <trkpt lat="47.21394" lon="-1.73884">
        <ele>7</ele>
        <time>2022-04-25T18:46:06Z</time>
      </trkpt>
      <trkpt lat="47.21391" lon="-1.73883">
        <ele>7</ele>
        <time>2022-04-25T18:46:06Z</time>
      </trkpt>
      <trkpt lat="47.2139" lon="-1.73893">
        <ele>7</ele>
        <time>2022-04-25T18:46:08Z</time>
      </trkpt>
      <trkpt lat="47.21387" lon="-1.73901">
        <ele>7</ele>
        <time>2022-04-25T18:46:09Z</time>
      </trkpt>
      <trkpt lat="47.21382" lon="-1.73905">
        <ele>7</ele>
        <time>2022-04-25T18:46:10Z</time>
      </trkpt>
      <trkpt lat="47.21374" lon="-1.73905">
        <ele>7</ele>
        <time>2022-04-25T18:46:11Z</time>
      </trkpt>
      <trkpt lat="47.2135" lon="-1.73917">
        <ele>6</ele>
        <time>2022-04-25T18:46:16Z</time>
      </trkpt>
      <trkpt lat="47.21223" lon="-1.74007">
        <ele>5</ele>
        <time>2022-04-25T18:46:41Z</time>
      </trkpt>
      <trkpt lat="47.21187" lon="-1.74037">
        <ele>5</ele>
        <time>2022-04-25T18:46:48Z</time>
      </trkpt>
      <trkpt lat="47.2118" lon="-1.74041">
        <ele>5</ele>
        <time>2022-04-25T18:46:49Z</time>
      </trkpt>
      <trkpt lat="47.21181" lon="-1.74047">
        <ele>5</ele>
        <time>2022-04-25T18:46:50Z</time>
      </trkpt>
      <trkpt lat="47.21179" lon="-1.74053">
        <ele>5</ele>
        <time>2022-04-25T18:46:51Z</time>
      </trkpt>
      <trkpt lat="47.21174" lon="-1.74056">
        <ele>5</ele>
        <time>2022-04-25T18:46:52Z</time>
      </trkpt>
      <trkpt lat="47.2117" lon="-1.74054">
        <ele>5</ele>
        <time>2022-04-25T18:46:53Z</time>
      </trkpt>
      <trkpt lat="47.21166" lon="-1.74063">
        <ele>5</ele>
        <time>2022-04-25T18:46:54Z</time>
      </trkpt>
      <trkpt lat="47.21155" lon="-1.74082">
        <ele>5</ele>
        <time>2022-04-25T18:46:57Z</time>
      </trkpt>
      <trkpt lat="47.21058" lon="-1.7422">
        <ele>3</ele>
        <time>2022-04-25T18:47:21Z</time>
      </trkpt>
      <trkpt lat="47.21035" lon="-1.74268">
        <ele>3</ele>
        <time>2022-04-25T18:47:28Z</time>
      </trkpt>
      <trkpt lat="47.21002" lon="-1.74351">
        <ele>2</ele>
        <time>2022-04-25T18:47:40Z</time>
      </trkpt>
      <trkpt lat="47.20994" lon="-1.74403">
        <ele>4</ele>
        <time>2022-04-25T18:47:46Z</time>
      </trkpt>
      <trkpt lat="47.20987" lon="-1.74503">
        <ele>7</ele>
        <time>2022-04-25T18:47:58Z</time>
      </trkpt>
      <trkpt lat="47.20983" lon="-1.7453">
        <ele>7</ele>
        <time>2022-04-25T18:48:02Z</time>
      </trkpt>
      <trkpt lat="47.20961" lon="-1.7469">
        <ele>8</ele>
        <time>2022-04-25T18:48:21Z</time>
      </trkpt>
      <trkpt lat="47.20946" lon="-1.74837">
        <ele>8</ele>
        <time>2022-04-25T18:48:39Z</time>
      </trkpt>
      <trkpt lat="47.20944" lon="-1.7485">
        <ele>8</ele>
        <time>2022-04-25T18:48:41Z</time>
      </trkpt>
      <trkpt lat="47.20939" lon="-1.74862">
        <ele>7</ele>
        <time>2022-04-25T18:48:43Z</time>
      </trkpt>
      <trkpt lat="47.2093" lon="-1.74873">
        <ele>6</ele>
        <time>2022-04-25T18:48:45Z</time>
      </trkpt>
      <trkpt lat="47.20917" lon="-1.74882">
        <ele>5</ele>
        <time>2022-04-25T18:48:47Z</time>
      </trkpt>
      <trkpt lat="47.20899" lon="-1.7489">
        <ele>4</ele>
        <time>2022-04-25T18:48:51Z</time>
      </trkpt>
      <trkpt lat="47.20844" lon="-1.7491">
        <ele>3</ele>
        <time>2022-04-25T18:49:01Z</time>
      </trkpt>
      <trkpt lat="47.20722" lon="-1.74956">
        <ele>3</ele>
        <time>2022-04-25T18:49:23Z</time>
      </trkpt>
      <trkpt lat="47.20695" lon="-1.74969">
        <ele>3</ele>
        <time>2022-04-25T18:49:28Z</time>
      </trkpt>
      <trkpt lat="47.20671" lon="-1.74999">
        <ele>4</ele>
        <time>2022-04-25T18:49:34Z</time>
      </trkpt>
      <trkpt lat="47.20663" lon="-1.75013">
        <ele>4</ele>
        <time>2022-04-25T18:49:36Z</time>
      </trkpt>
      <trkpt lat="47.20603" lon="-1.75193">
        <ele>3</ele>
        <time>2022-04-25T18:50:00Z</time>
      </trkpt>
      <trkpt lat="47.20575" lon="-1.75194">
        <ele>3</ele>
        <time>2022-04-25T18:50:05Z</time>
      </trkpt>
      <trkpt lat="47.20574" lon="-1.75207">
        <ele>3</ele>
        <time>2022-04-25T18:50:07Z</time>
      </trkpt>
      <trkpt lat="47.20563" lon="-1.75259">
        <ele>2</ele>
        <time>2022-04-25T18:50:13Z</time>
      </trkpt>
      <trkpt lat="47.20549" lon="-1.75322">
        <ele>1</ele>
        <time>2022-04-25T18:50:21Z</time>
      </trkpt>
      <trkpt lat="47.20522" lon="-1.75464">
        <ele>2</ele>
        <time>2022-04-25T18:50:39Z</time>
      </trkpt>
      <trkpt lat="47.20501" lon="-1.75553">
        <ele>2</ele>
        <time>2022-04-25T18:50:51Z</time>
      </trkpt>
      <trkpt lat="47.2048" lon="-1.75619">
        <ele>2</ele>
        <time>2022-04-25T18:50:59Z</time>
      </trkpt>
      <trkpt lat="47.20468" lon="-1.75643">
        <ele>2</ele>
        <time>2022-04-25T18:51:03Z</time>
      </trkpt>
      <trkpt lat="47.20453" lon="-1.7566">
        <ele>2</ele>
        <time>2022-04-25T18:51:06Z</time>
      </trkpt>
      <trkpt lat="47.2044" lon="-1.75666">
        <ele>2</ele>
        <time>2022-04-25T18:51:09Z</time>
      </trkpt>
      <trkpt lat="47.20426" lon="-1.75669">
        <ele>2</ele>
        <time>2022-04-25T18:51:11Z</time>
      </trkpt>
      <trkpt lat="47.20411" lon="-1.75667">
        <ele>2</ele>
        <time>2022-04-25T18:51:14Z</time>
      </trkpt>
      <trkpt lat="47.20398" lon="-1.75662">
        <ele>2</ele>
        <time>2022-04-25T18:51:16Z</time>
      </trkpt>
      <trkpt lat="47.20387" lon="-1.75653">
        <ele>2</ele>
        <time>2022-04-25T18:51:19Z</time>
      </trkpt>
      <trkpt lat="47.20378" lon="-1.75642">
        <ele>3</ele>
        <time>2022-04-25T18:51:21Z</time>
      </trkpt>
      <trkpt lat="47.20344" lon="-1.75575">
        <ele>3</ele>
        <time>2022-04-25T18:51:31Z</time>
      </trkpt>
      <trkpt lat="47.20317" lon="-1.75516">
        <ele>3</ele>
        <time>2022-04-25T18:51:39Z</time>
      </trkpt>
      <trkpt lat="47.20311" lon="-1.75495">
        <ele>4</ele>
        <time>2022-04-25T18:51:42Z</time>
      </trkpt>
      <trkpt lat="47.20302" lon="-1.75498">
        <ele>5</ele>
        <time>2022-04-25T18:51:44Z</time>
      </trkpt>
      <trkpt lat="47.20291" lon="-1.75504">
        <ele>6</ele>
        <time>2022-04-25T18:51:46Z</time>
      </trkpt>
      <trkpt lat="47.20311" lon="-1.7558">
        <ele>6</ele>
        <time>2022-04-25T18:51:56Z</time>
      </trkpt>
      <trkpt lat="47.20296" lon="-1.75588">
        <ele>8</ele>
        <time>2022-04-25T18:51:59Z</time>
      </trkpt>
      <trkpt lat="47.20288" lon="-1.75598">
        <ele>8</ele>
        <time>2022-04-25T18:52:00Z</time>
      </trkpt>
      <trkpt lat="47.20277" lon="-1.75614">
        <ele>10</ele>
        <time>2022-04-25T18:52:03Z</time>
      </trkpt>
      <trkpt lat="47.20261" lon="-1.75643">
        <ele>11</ele>
        <time>2022-04-25T18:52:08Z</time>
      </trkpt>
      <trkpt lat="47.20241" lon="-1.75695">
        <ele>11</ele>
        <time>2022-04-25T18:52:15Z</time>
      </trkpt>
      <trkpt lat="47.20209" lon="-1.7582">
        <ele>12</ele>
        <time>2022-04-25T18:52:31Z</time>
      </trkpt>
      <trkpt lat="47.20202" lon="-1.7584">
        <ele>11</ele>
        <time>2022-04-25T18:52:34Z</time>
      </trkpt>
      <trkpt lat="47.20181" lon="-1.75878">
        <ele>11</ele>
        <time>2022-04-25T18:52:40Z</time>
      </trkpt>
      <trkpt lat="47.20169" lon="-1.75892">
        <ele>11</ele>
        <time>2022-04-25T18:52:42Z</time>
      </trkpt>
      <trkpt lat="47.20156" lon="-1.75905">
        <ele>11</ele>
        <time>2022-04-25T18:52:45Z</time>
      </trkpt>
      <trkpt lat="47.20138" lon="-1.75916">
        <ele>11</ele>
        <time>2022-04-25T18:52:49Z</time>
      </trkpt>
      <trkpt lat="47.20111" lon="-1.75907">
        <ele>11</ele>
        <time>2022-04-25T18:52:54Z</time>
      </trkpt>
      <trkpt lat="47.20096" lon="-1.75906">
        <ele>11</ele>
        <time>2022-04-25T18:52:56Z</time>
      </trkpt>
      <trkpt lat="47.20083" lon="-1.75918">
        <ele>11</ele>
        <time>2022-04-25T18:52:59Z</time>
      </trkpt>
      <trkpt lat="47.20068" lon="-1.75943">
        <ele>11</ele>
        <time>2022-04-25T18:53:03Z</time>
      </trkpt>
      <trkpt lat="47.2006" lon="-1.75959">
        <ele>12</ele>
        <time>2022-04-25T18:53:06Z</time>
      </trkpt>
      <trkpt lat="47.20055" lon="-1.75973">
        <ele>12</ele>
        <time>2022-04-25T18:53:07Z</time>
      </trkpt>
      <trkpt lat="47.20056" lon="-1.75981">
        <ele>12</ele>
        <time>2022-04-25T18:53:08Z</time>
      </trkpt>
      <trkpt lat="47.20052" lon="-1.75991">
        <ele>12</ele>
        <time>2022-04-25T18:53:10Z</time>
      </trkpt>
      <trkpt lat="47.20045" lon="-1.75993">
        <ele>12</ele>
        <time>2022-04-25T18:53:11Z</time>
      </trkpt>
      <trkpt lat="47.20038" lon="-1.75986">
        <ele>12</ele>
        <time>2022-04-25T18:53:13Z</time>
      </trkpt>
      <trkpt lat="47.20037" lon="-1.75978">
        <ele>12</ele>
        <time>2022-04-25T18:53:14Z</time>
      </trkpt>
      <trkpt lat="47.19949" lon="-1.75993">
        <ele>14</ele>
        <time>2022-04-25T18:53:29Z</time>
      </trkpt>
      <trkpt lat="47.19919" lon="-1.76">
        <ele>15</ele>
        <time>2022-04-25T18:53:35Z</time>
      </trkpt>
      <trkpt lat="47.19892" lon="-1.75998">
        <ele>16</ele>
        <time>2022-04-25T18:53:40Z</time>
      </trkpt>
      <trkpt lat="47.19856" lon="-1.75985">
        <ele>19</ele>
        <time>2022-04-25T18:53:46Z</time>
      </trkpt>
      <trkpt lat="47.1981" lon="-1.75961">
        <ele>20</ele>
        <time>2022-04-25T18:53:55Z</time>
      </trkpt>
      <trkpt lat="47.19785" lon="-1.75944">
        <ele>20</ele>
        <time>2022-04-25T18:54:00Z</time>
      </trkpt>
      <trkpt lat="47.19756" lon="-1.75919">
        <ele>21</ele>
        <time>2022-04-25T18:54:06Z</time>
      </trkpt>
      <trkpt lat="47.19719" lon="-1.75866">
        <ele>22</ele>
        <time>2022-04-25T18:54:15Z</time>
      </trkpt>
      <trkpt lat="47.19701" lon="-1.75835">
        <ele>23</ele>
        <time>2022-04-25T18:54:20Z</time>
      </trkpt>
      <trkpt lat="47.19555" lon="-1.75927">
        <ele>24</ele>
        <time>2022-04-25T18:54:48Z</time>
      </trkpt>
      <trkpt lat="47.19526" lon="-1.7595">
        <ele>25</ele>
        <time>2022-04-25T18:54:54Z</time>
      </trkpt>
      <trkpt lat="47.19485" lon="-1.75997">
        <ele>25</ele>
        <time>2022-04-25T18:55:03Z</time>
      </trkpt>
      <trkpt lat="47.19451" lon="-1.76046">
        <ele>24</ele>
        <time>2022-04-25T18:55:12Z</time>
      </trkpt>
      <trkpt lat="47.19438" lon="-1.76068">
        <ele>23</ele>
        <time>2022-04-25T18:55:15Z</time>
      </trkpt>
      <trkpt lat="47.19422" lon="-1.76083">
        <ele>23</ele>
        <time>2022-04-25T18:55:19Z</time>
      </trkpt>
      <trkpt lat="47.19425" lon="-1.76095">
        <ele>23</ele>
        <time>2022-04-25T18:55:20Z</time>
      </trkpt>
      <trkpt lat="47.19424" lon="-1.76102">
        <ele>23</ele>
        <time>2022-04-25T18:55:21Z</time>
      </trkpt>
      <trkpt lat="47.19419" lon="-1.7611">
        <ele>23</ele>
        <time>2022-04-25T18:55:22Z</time>
      </trkpt>
      <trkpt lat="47.19415" lon="-1.76112">
        <ele>23</ele>
        <time>2022-04-25T18:55:23Z</time>
      </trkpt>
      <trkpt lat="47.19409" lon="-1.7611">
        <ele>23</ele>
        <time>2022-04-25T18:55:24Z</time>
      </trkpt>
      <trkpt lat="47.194" lon="-1.76151">
        <ele>23</ele>
        <time>2022-04-25T18:55:29Z</time>
      </trkpt>
      <trkpt lat="47.1939" lon="-1.76178">
        <ele>23</ele>
        <time>2022-04-25T18:55:33Z</time>
      </trkpt>
      <trkpt lat="47.19253" lon="-1.76433">
        <ele>21</ele>
        <time>2022-04-25T18:56:12Z</time>
      </trkpt>
      <trkpt lat="47.19207" lon="-1.76548">
        <ele>21</ele>
        <time>2022-04-25T18:56:28Z</time>
      </trkpt>
      <trkpt lat="47.19177" lon="-1.76616">
        <ele>20</ele>
        <time>2022-04-25T18:56:38Z</time>
      </trkpt>
      <trkpt lat="47.1913" lon="-1.76714">
        <ele>20</ele>
        <time>2022-04-25T18:56:53Z</time>
      </trkpt>
      <trkpt lat="47.19091" lon="-1.76781">
        <ele>20</ele>
        <time>2022-04-25T18:57:03Z</time>
      </trkpt>
      <trkpt lat="47.19007" lon="-1.76937">
        <ele>20</ele>
        <time>2022-04-25T18:57:28Z</time>
      </trkpt>
      <trkpt lat="47.18934" lon="-1.77064">
        <ele>23</ele>
        <time>2022-04-25T18:57:48Z</time>
      </trkpt>
      <trkpt lat="47.18883" lon="-1.77139">
        <ele>22</ele>
        <time>2022-04-25T18:58:00Z</time>
      </trkpt>
      <trkpt lat="47.18867" lon="-1.77169">
        <ele>22</ele>
        <time>2022-04-25T18:58:05Z</time>
      </trkpt>
      <trkpt lat="47.18846" lon="-1.77234">
        <ele>23</ele>
        <time>2022-04-25T18:58:14Z</time>
      </trkpt>
      <trkpt lat="47.18823" lon="-1.77394">
        <ele>22</ele>
        <time>2022-04-25T18:58:34Z</time>
      </trkpt>
      <trkpt lat="47.18815" lon="-1.77422">
        <ele>22</ele>
        <time>2022-04-25T18:58:37Z</time>
      </trkpt>
      <trkpt lat="47.18817" lon="-1.77436">
        <ele>21</ele>
        <time>2022-04-25T18:58:39Z</time>
      </trkpt>
      <trkpt lat="47.18815" lon="-1.77443">
        <ele>21</ele>
        <time>2022-04-25T18:58:40Z</time>
      </trkpt>
      <trkpt lat="47.18808" lon="-1.77453">
        <ele>21</ele>
        <time>2022-04-25T18:58:42Z</time>
      </trkpt>
      <trkpt lat="47.18798" lon="-1.77455">
        <ele>21</ele>
        <time>2022-04-25T18:58:43Z</time>
      </trkpt>
      <trkpt lat="47.18789" lon="-1.77464">
        <ele>21</ele>
        <time>2022-04-25T18:58:45Z</time>
      </trkpt>
      <trkpt lat="47.18769" lon="-1.77494">
        <ele>21</ele>
        <time>2022-04-25T18:58:50Z</time>
      </trkpt>
      <trkpt lat="47.18681" lon="-1.77658">
        <ele>23</ele>
        <time>2022-04-25T18:59:16Z</time>
      </trkpt>
      <trkpt lat="47.18558" lon="-1.77849">
        <ele>26</ele>
        <time>2022-04-25T18:59:48Z</time>
      </trkpt>
      <trkpt lat="47.18545" lon="-1.77875">
        <ele>26</ele>
        <time>2022-04-25T18:59:51Z</time>
      </trkpt>
      <trkpt lat="47.18539" lon="-1.77892">
        <ele>26</ele>
        <time>2022-04-25T18:59:54Z</time>
      </trkpt>
      <trkpt lat="47.1854" lon="-1.77908">
        <ele>26</ele>
        <time>2022-04-25T18:59:56Z</time>
      </trkpt>
      <trkpt lat="47.18534" lon="-1.77923">
        <ele>26</ele>
        <time>2022-04-25T18:59:58Z</time>
      </trkpt>
      <trkpt lat="47.18529" lon="-1.77928">
        <ele>26</ele>
        <time>2022-04-25T18:59:59Z</time>
      </trkpt>
      <trkpt lat="47.18523" lon="-1.77931">
        <ele>26</ele>
        <time>2022-04-25T19:00:00Z</time>
      </trkpt>
      <trkpt lat="47.18517" lon="-1.77931">
        <ele>26</ele>
        <time>2022-04-25T19:00:01Z</time>
      </trkpt>
      <trkpt lat="47.18512" lon="-1.77929">
        <ele>26</ele>
        <time>2022-04-25T19:00:02Z</time>
      </trkpt>
      <trkpt lat="47.18507" lon="-1.77924">
        <ele>26</ele>
        <time>2022-04-25T19:00:03Z</time>
      </trkpt>
      <trkpt lat="47.18503" lon="-1.77917">
        <ele>26</ele>
        <time>2022-04-25T19:00:04Z</time>
      </trkpt>
      <trkpt lat="47.18494" lon="-1.7791">
        <ele>26</ele>
        <time>2022-04-25T19:00:06Z</time>
      </trkpt>
      <trkpt lat="47.18471" lon="-1.77906">
        <ele>25</ele>
        <time>2022-04-25T19:00:10Z</time>
      </trkpt>
      <trkpt lat="47.18434" lon="-1.77908">
        <ele>24</ele>
        <time>2022-04-25T19:00:17Z</time>
      </trkpt>
      <trkpt lat="47.1834" lon="-1.77909">
        <ele>23</ele>
        <time>2022-04-25T19:00:33Z</time>
      </trkpt>
      <trkpt lat="47.18321" lon="-1.77912">
        <ele>23</ele>
        <time>2022-04-25T19:00:37Z</time>
      </trkpt>
      <trkpt lat="47.183" lon="-1.77922">
        <ele>23</ele>
        <time>2022-04-25T19:00:41Z</time>
      </trkpt>
      <trkpt lat="47.18294" lon="-1.77931">
        <ele>23</ele>
        <time>2022-04-25T19:00:42Z</time>
      </trkpt>
      <trkpt lat="47.18291" lon="-1.77935">
        <ele>23</ele>
        <time>2022-04-25T19:00:43Z</time>
      </trkpt>
      <trkpt lat="47.18283" lon="-1.77937">
        <ele>23</ele>
        <time>2022-04-25T19:00:44Z</time>
      </trkpt>
      <trkpt lat="47.18272" lon="-1.77944">
        <ele>23</ele>
        <time>2022-04-25T19:00:47Z</time>
      </trkpt>
      <trkpt lat="47.18249" lon="-1.77973">
        <ele>23</ele>
        <time>2022-04-25T19:00:52Z</time>
      </trkpt>
      <trkpt lat="47.18148" lon="-1.7816">
        <ele>21</ele>
        <time>2022-04-25T19:01:21Z</time>
      </trkpt>
      <trkpt lat="47.18123" lon="-1.78195">
        <ele>22</ele>
        <time>2022-04-25T19:01:27Z</time>
      </trkpt>
      <trkpt lat="47.181" lon="-1.78219">
        <ele>22</ele>
        <time>2022-04-25T19:01:32Z</time>
      </trkpt>
      <trkpt lat="47.18073" lon="-1.78239">
        <ele>23</ele>
        <time>2022-04-25T19:01:37Z</time>
      </trkpt>
      <trkpt lat="47.18044" lon="-1.78248">
        <ele>22</ele>
        <time>2022-04-25T19:01:43Z</time>
      </trkpt>
      <trkpt lat="47.17879" lon="-1.78281">
        <ele>18</ele>
        <time>2022-04-25T19:02:12Z</time>
      </trkpt>
      <trkpt lat="47.17856" lon="-1.78287">
        <ele>17</ele>
        <time>2022-04-25T19:02:16Z</time>
      </trkpt>
      <trkpt lat="47.1784" lon="-1.78297">
        <ele>17</ele>
        <time>2022-04-25T19:02:20Z</time>
      </trkpt>
      <trkpt lat="47.17831" lon="-1.78304">
        <ele>17</ele>
        <time>2022-04-25T19:02:21Z</time>
      </trkpt>
      <trkpt lat="47.17819" lon="-1.78319">
        <ele>17</ele>
        <time>2022-04-25T19:02:24Z</time>
      </trkpt>
      <trkpt lat="47.17751" lon="-1.78435">
        <ele>17</ele>
        <time>2022-04-25T19:02:43Z</time>
      </trkpt>
      <trkpt lat="47.17734" lon="-1.7846">
        <ele>16</ele>
        <time>2022-04-25T19:02:47Z</time>
      </trkpt>
      <trkpt lat="47.17707" lon="-1.78492">
        <ele>16</ele>
        <time>2022-04-25T19:02:53Z</time>
      </trkpt>
      <trkpt lat="47.17616" lon="-1.7859">
        <ele>14</ele>
        <time>2022-04-25T19:03:13Z</time>
      </trkpt>
      <trkpt lat="47.17592" lon="-1.78607">
        <ele>14</ele>
        <time>2022-04-25T19:03:18Z</time>
      </trkpt>
      <trkpt lat="47.17469" lon="-1.78682">
        <ele>14</ele>
        <time>2022-04-25T19:03:42Z</time>
      </trkpt>
      <trkpt lat="47.17443" lon="-1.78701">
        <ele>14</ele>
        <time>2022-04-25T19:03:47Z</time>
      </trkpt>
      <trkpt lat="47.17421" lon="-1.78703">
        <ele>13</ele>
        <time>2022-04-25T19:03:51Z</time>
      </trkpt>
      <trkpt lat="47.17386" lon="-1.78716">
        <ele>12</ele>
        <time>2022-04-25T19:03:57Z</time>
      </trkpt>
      <trkpt lat="47.17366" lon="-1.78727">
        <ele>12</ele>
        <time>2022-04-25T19:04:01Z</time>
      </trkpt>
      <trkpt lat="47.17327" lon="-1.78738">
        <ele>11</ele>
        <time>2022-04-25T19:04:08Z</time>
      </trkpt>
      <trkpt lat="47.17204" lon="-1.78765">
        <ele>6</ele>
        <time>2022-04-25T19:04:30Z</time>
      </trkpt>
      <trkpt lat="47.1718" lon="-1.7876">
        <ele>5</ele>
        <time>2022-04-25T19:04:34Z</time>
      </trkpt>
      <trkpt lat="47.1716" lon="-1.78749">
        <ele>4</ele>
        <time>2022-04-25T19:04:38Z</time>
      </trkpt>
      <trkpt lat="47.17144" lon="-1.78737">
        <ele>3</ele>
        <time>2022-04-25T19:04:41Z</time>
      </trkpt>
      <trkpt lat="47.17132" lon="-1.78723">
        <ele>3</ele>
        <time>2022-04-25T19:04:44Z</time>
      </trkpt>
      <trkpt lat="47.17077" lon="-1.78644">
        <ele>3</ele>
        <time>2022-04-25T19:04:58Z</time>
      </trkpt>
      <trkpt lat="47.17057" lon="-1.78615">
        <ele>5</ele>
        <time>2022-04-25T19:05:03Z</time>
      </trkpt>
      <trkpt lat="47.16923" lon="-1.7842">
        <ele>15</ele>
        <time>2022-04-25T19:05:36Z</time>
      </trkpt>
      <trkpt lat="47.16898" lon="-1.78388">
        <ele>16</ele>
        <time>2022-04-25T19:05:42Z</time>
      </trkpt>
      <trkpt lat="47.16867" lon="-1.78355">
        <ele>17</ele>
        <time>2022-04-25T19:05:49Z</time>
      </trkpt>
      <trkpt lat="47.16844" lon="-1.78339">
        <ele>18</ele>
        <time>2022-04-25T19:05:54Z</time>
      </trkpt>
      <trkpt lat="47.16829" lon="-1.78334">
        <ele>18</ele>
        <time>2022-04-25T19:05:56Z</time>
      </trkpt>
      <trkpt lat="47.16811" lon="-1.78331">
        <ele>17</ele>
        <time>2022-04-25T19:06:00Z</time>
      </trkpt>
      <trkpt lat="47.16784" lon="-1.78334">
        <ele>16</ele>
        <time>2022-04-25T19:06:04Z</time>
      </trkpt>
      <trkpt lat="47.16559" lon="-1.78375">
        <ele>9</ele>
        <time>2022-04-25T19:06:45Z</time>
      </trkpt>
      <trkpt lat="47.16524" lon="-1.78379">
        <ele>9</ele>
        <time>2022-04-25T19:06:51Z</time>
      </trkpt>
      <trkpt lat="47.16282" lon="-1.78392">
        <ele>6</ele>
        <time>2022-04-25T19:07:34Z</time>
      </trkpt>
      <trkpt lat="47.16235" lon="-1.78402">
        <ele>5</ele>
        <time>2022-04-25T19:07:42Z</time>
      </trkpt>
      <trkpt lat="47.16209" lon="-1.78418">
        <ele>5</ele>
        <time>2022-04-25T19:07:47Z</time>
      </trkpt>
      <trkpt lat="47.16184" lon="-1.78437">
        <ele>4</ele>
        <time>2022-04-25T19:07:52Z</time>
      </trkpt>
      <trkpt lat="47.16146" lon="-1.78479">
        <ele>4</ele>
        <time>2022-04-25T19:08:01Z</time>
      </trkpt>
      <trkpt lat="47.16111" lon="-1.7853">
        <ele>5</ele>
        <time>2022-04-25T19:08:10Z</time>
      </trkpt>
      <trkpt lat="47.16086" lon="-1.78581">
        <ele>5</ele>
        <time>2022-04-25T19:08:17Z</time>
      </trkpt>
      <trkpt lat="47.1607" lon="-1.78627">
        <ele>5</ele>
        <time>2022-04-25T19:08:24Z</time>
      </trkpt>
      <trkpt lat="47.1606" lon="-1.78661">
        <ele>5</ele>
        <time>2022-04-25T19:08:28Z</time>
      </trkpt>
      <trkpt lat="47.1605" lon="-1.78708">
        <ele>5</ele>
        <time>2022-04-25T19:08:34Z</time>
      </trkpt>
      <trkpt lat="47.16017" lon="-1.79007">
        <ele>9</ele>
        <time>2022-04-25T19:09:11Z</time>
      </trkpt>
      <trkpt lat="47.16014" lon="-1.79022">
        <ele>9</ele>
        <time>2022-04-25T19:09:13Z</time>
      </trkpt>
      <trkpt lat="47.16006" lon="-1.79043">
        <ele>9</ele>
        <time>2022-04-25T19:09:15Z</time>
      </trkpt>
      <trkpt lat="47.16" lon="-1.79054">
        <ele>10</ele>
        <time>2022-04-25T19:09:17Z</time>
      </trkpt>
      <trkpt lat="47.15936" lon="-1.79144">
        <ele>13</ele>
        <time>2022-04-25T19:09:33Z</time>
      </trkpt>
      <trkpt lat="47.15922" lon="-1.79172">
        <ele>13</ele>
        <time>2022-04-25T19:09:37Z</time>
      </trkpt>
      <trkpt lat="47.15838" lon="-1.79397">
        <ele>23</ele>
        <time>2022-04-25T19:10:08Z</time>
      </trkpt>
      <trkpt lat="47.15819" lon="-1.79445">
        <ele>25</ele>
        <time>2022-04-25T19:10:15Z</time>
      </trkpt>
      <trkpt lat="47.1581" lon="-1.79464">
        <ele>26</ele>
        <time>2022-04-25T19:10:18Z</time>
      </trkpt>
      <trkpt lat="47.15797" lon="-1.79483">
        <ele>27</ele>
        <time>2022-04-25T19:10:21Z</time>
      </trkpt>
      <trkpt lat="47.15782" lon="-1.79499">
        <ele>28</ele>
        <time>2022-04-25T19:10:24Z</time>
      </trkpt>
      <trkpt lat="47.1546" lon="-1.79739">
        <ele>42</ele>
        <time>2022-04-25T19:11:28Z</time>
      </trkpt>
      <trkpt lat="47.15233" lon="-1.79932">
        <ele>49</ele>
        <time>2022-04-25T19:12:15Z</time>
      </trkpt>
      <trkpt lat="47.15163" lon="-1.79997">
        <ele>49</ele>
        <time>2022-04-25T19:12:30Z</time>
      </trkpt>
      <trkpt lat="47.15139" lon="-1.80025">
        <ele>48</ele>
        <time>2022-04-25T19:12:35Z</time>
      </trkpt>
      <trkpt lat="47.15114" lon="-1.80068">
        <ele>47</ele>
        <time>2022-04-25T19:12:42Z</time>
      </trkpt>
      <trkpt lat="47.14996" lon="-1.80356">
        <ele>45</ele>
        <time>2022-04-25T19:13:23Z</time>
      </trkpt>
      <trkpt lat="47.14977" lon="-1.8039">
        <ele>45</ele>
        <time>2022-04-25T19:13:28Z</time>
      </trkpt>
      <trkpt lat="47.14949" lon="-1.80429">
        <ele>45</ele>
        <time>2022-04-25T19:13:35Z</time>
      </trkpt>
      <trkpt lat="47.149" lon="-1.80468">
        <ele>43</ele>
        <time>2022-04-25T19:13:45Z</time>
      </trkpt>
      <trkpt lat="47.14643" lon="-1.8062">
        <ele>41</ele>
        <time>2022-04-25T19:14:34Z</time>
      </trkpt>
      <trkpt lat="47.14593" lon="-1.80656">
        <ele>41</ele>
        <time>2022-04-25T19:14:44Z</time>
      </trkpt>
      <trkpt lat="47.1454" lon="-1.80708">
        <ele>40</ele>
        <time>2022-04-25T19:14:55Z</time>
      </trkpt>
      <trkpt lat="47.1441" lon="-1.80847">
        <ele>41</ele>
        <time>2022-04-25T19:15:24Z</time>
      </trkpt>
      <trkpt lat="47.1438" lon="-1.80897">
        <ele>40</ele>
        <time>2022-04-25T19:15:32Z</time>
      </trkpt>
      <trkpt lat="47.14273" lon="-1.81154">
        <ele>39</ele>
        <time>2022-04-25T19:16:09Z</time>
      </trkpt>
      <trkpt lat="47.14143" lon="-1.81534">
        <ele>39</ele>
        <time>2022-04-25T19:17:00Z</time>
      </trkpt>
      <trkpt lat="47.14048" lon="-1.81925">
        <ele>36</ele>
        <time>2022-04-25T19:17:50Z</time>
      </trkpt>
      <trkpt lat="47.14028" lon="-1.81999">
        <ele>34</ele>
        <time>2022-04-25T19:18:00Z</time>
      </trkpt>
      <trkpt lat="47.14015" lon="-1.8203">
        <ele>33</ele>
        <time>2022-04-25T19:18:04Z</time>
      </trkpt>
      <trkpt lat="47.14" lon="-1.82056">
        <ele>33</ele>
        <time>2022-04-25T19:18:09Z</time>
      </trkpt>
      <trkpt lat="47.13827" lon="-1.82282">
        <ele>29</ele>
        <time>2022-04-25T19:18:50Z</time>
      </trkpt>
      <trkpt lat="47.13814" lon="-1.82293">
        <ele>29</ele>
        <time>2022-04-25T19:18:52Z</time>
      </trkpt>
      <trkpt lat="47.13797" lon="-1.82299">
        <ele>30</ele>
        <time>2022-04-25T19:18:55Z</time>
      </trkpt>
      <trkpt lat="47.13782" lon="-1.82301">
        <ele>30</ele>
        <time>2022-04-25T19:18:58Z</time>
      </trkpt>
      <trkpt lat="47.13769" lon="-1.82299">
        <ele>30</ele>
        <time>2022-04-25T19:19:00Z</time>
      </trkpt>
      <trkpt lat="47.13735" lon="-1.823">
        <ele>31</ele>
        <time>2022-04-25T19:19:07Z</time>
      </trkpt>
      <trkpt lat="47.13708" lon="-1.82303">
        <ele>31</ele>
        <time>2022-04-25T19:19:11Z</time>
      </trkpt>
      <trkpt lat="47.13685" lon="-1.82313">
        <ele>32</ele>
        <time>2022-04-25T19:19:16Z</time>
      </trkpt>
      <trkpt lat="47.13662" lon="-1.82333">
        <ele>32</ele>
        <time>2022-04-25T19:19:20Z</time>
      </trkpt>
      <trkpt lat="47.13611" lon="-1.82389">
        <ele>29</ele>
        <time>2022-04-25T19:19:32Z</time>
      </trkpt>
      <trkpt lat="47.13483" lon="-1.82548">
        <ele>24</ele>
        <time>2022-04-25T19:20:02Z</time>
      </trkpt>
      <trkpt lat="47.13424" lon="-1.82634">
        <ele>21</ele>
        <time>2022-04-25T19:20:16Z</time>
      </trkpt>
      <trkpt lat="47.13361" lon="-1.82731">
        <ele>17</ele>
        <time>2022-04-25T19:20:33Z</time>
      </trkpt>
      <trkpt lat="47.13333" lon="-1.82767">
        <ele>16</ele>
        <time>2022-04-25T19:20:39Z</time>
      </trkpt>
      <trkpt lat="47.13308" lon="-1.8279">
        <ele>14</ele>
        <time>2022-04-25T19:20:44Z</time>
      </trkpt>
      <trkpt lat="47.13244" lon="-1.82854">
        <ele>11</ele>
        <time>2022-04-25T19:20:58Z</time>
      </trkpt>
      <trkpt lat="47.1322" lon="-1.82893">
        <ele>11</ele>
        <time>2022-04-25T19:21:05Z</time>
      </trkpt>
      <trkpt lat="47.13207" lon="-1.82908">
        <ele>11</ele>
        <time>2022-04-25T19:21:07Z</time>
      </trkpt>
      <trkpt lat="47.13177" lon="-1.82935">
        <ele>12</ele>
        <time>2022-04-25T19:21:14Z</time>
      </trkpt>
      <trkpt lat="47.13148" lon="-1.82953">
        <ele>12</ele>
        <time>2022-04-25T19:21:19Z</time>
      </trkpt>
      <trkpt lat="47.13122" lon="-1.82973">
        <ele>13</ele>
        <time>2022-04-25T19:21:25Z</time>
      </trkpt>
      <trkpt lat="47.13098" lon="-1.83002">
        <ele>13</ele>
        <time>2022-04-25T19:21:30Z</time>
      </trkpt>
      <trkpt lat="47.13098" lon="-1.8301">
        <ele>12</ele>
        <time>2022-04-25T19:21:31Z</time>
      </trkpt>
      <trkpt lat="47.13096" lon="-1.83019">
        <ele>12</ele>
        <time>2022-04-25T19:21:32Z</time>
      </trkpt>
      <trkpt lat="47.13089" lon="-1.83027">
        <ele>12</ele>
        <time>2022-04-25T19:21:34Z</time>
      </trkpt>
      <trkpt lat="47.13082" lon="-1.83028">
        <ele>12</ele>
        <time>2022-04-25T19:21:35Z</time>
      </trkpt>
      <trkpt lat="47.13075" lon="-1.83038">
        <ele>12</ele>
        <time>2022-04-25T19:21:37Z</time>
      </trkpt>
      <trkpt lat="47.13072" lon="-1.83051">
        <ele>11</ele>
        <time>2022-04-25T19:21:38Z</time>
      </trkpt>
      <trkpt lat="47.13068" lon="-1.83089">
        <ele>10</ele>
        <time>2022-04-25T19:21:43Z</time>
      </trkpt>
      <trkpt lat="47.1307" lon="-1.83125">
        <ele>10</ele>
        <time>2022-04-25T19:21:47Z</time>
      </trkpt>
      <trkpt lat="47.13073" lon="-1.83147">
        <ele>10</ele>
        <time>2022-04-25T19:21:50Z</time>
      </trkpt>
      <trkpt lat="47.13079" lon="-1.83175">
        <ele>10</ele>
        <time>2022-04-25T19:21:54Z</time>
      </trkpt>
      <trkpt lat="47.13089" lon="-1.83204">
        <ele>9</ele>
        <time>2022-04-25T19:21:58Z</time>
      </trkpt>
      <trkpt lat="47.13116" lon="-1.83258">
        <ele>7</ele>
        <time>2022-04-25T19:22:06Z</time>
      </trkpt>
      <trkpt lat="47.13123" lon="-1.83272">
        <ele>8</ele>
        <time>2022-04-25T19:22:08Z</time>
      </trkpt>
      <trkpt lat="47.13151" lon="-1.83339">
        <ele>10</ele>
        <time>2022-04-25T19:22:17Z</time>
      </trkpt>
      <trkpt lat="47.13161" lon="-1.83383">
        <ele>12</ele>
        <time>2022-04-25T19:22:23Z</time>
      </trkpt>
      <trkpt lat="47.13167" lon="-1.83441">
        <ele>13</ele>
        <time>2022-04-25T19:22:30Z</time>
      </trkpt>
      <trkpt lat="47.13175" lon="-1.83488">
        <ele>14</ele>
        <time>2022-04-25T19:22:36Z</time>
      </trkpt>
      <trkpt lat="47.13181" lon="-1.83497">
        <ele>14</ele>
        <time>2022-04-25T19:22:38Z</time>
      </trkpt>
      <trkpt lat="47.13184" lon="-1.83508">
        <ele>15</ele>
        <time>2022-04-25T19:22:39Z</time>
      </trkpt>
      <trkpt lat="47.13184" lon="-1.83523">
        <ele>15</ele>
        <time>2022-04-25T19:22:41Z</time>
      </trkpt>
      <trkpt lat="47.13177" lon="-1.83538">
        <ele>15</ele>
        <time>2022-04-25T19:22:43Z</time>
      </trkpt>
      <trkpt lat="47.13168" lon="-1.83546">
        <ele>15</ele>
        <time>2022-04-25T19:22:45Z</time>
      </trkpt>
      <trkpt lat="47.13158" lon="-1.83547">
        <ele>15</ele>
        <time>2022-04-25T19:22:47Z</time>
      </trkpt>
      <trkpt lat="47.13148" lon="-1.8354">
        <ele>14</ele>
        <time>2022-04-25T19:22:49Z</time>
      </trkpt>
      <trkpt lat="47.13143" lon="-1.83532">
        <ele>14</ele>
        <time>2022-04-25T19:22:50Z</time>
      </trkpt>
      <trkpt lat="47.1313" lon="-1.83532">
        <ele>13</ele>
        <time>2022-04-25T19:22:52Z</time>
      </trkpt>
      <trkpt lat="47.13121" lon="-1.83538">
        <ele>12</ele>
        <time>2022-04-25T19:22:54Z</time>
      </trkpt>
      <trkpt lat="47.13077" lon="-1.83563">
        <ele>11</ele>
        <time>2022-04-25T19:23:02Z</time>
      </trkpt>
      <trkpt lat="47.1307" lon="-1.83571">
        <ele>10</ele>
        <time>2022-04-25T19:23:04Z</time>
      </trkpt>
      <trkpt lat="47.13064" lon="-1.83583">
        <ele>10</ele>
        <time>2022-04-25T19:23:06Z</time>
      </trkpt>
      <trkpt lat="47.13061" lon="-1.83597">
        <ele>10</ele>
        <time>2022-04-25T19:23:08Z</time>
      </trkpt>
      <trkpt lat="47.13054" lon="-1.83608">
        <ele>10</ele>
        <time>2022-04-25T19:23:09Z</time>
      </trkpt>
      <trkpt lat="47.13043" lon="-1.83613">
        <ele>10</ele>
        <time>2022-04-25T19:23:11Z</time>
      </trkpt>
      <trkpt lat="47.13036" lon="-1.83611">
        <ele>10</ele>
        <time>2022-04-25T19:23:13Z</time>
      </trkpt>
      <trkpt lat="47.1303" lon="-1.83607">
        <ele>9</ele>
        <time>2022-04-25T19:23:14Z</time>
      </trkpt>
      <trkpt lat="47.13025" lon="-1.836">
        <ele>9</ele>
        <time>2022-04-25T19:23:15Z</time>
      </trkpt>
      <trkpt lat="47.13022" lon="-1.83592">
        <ele>9</ele>
        <time>2022-04-25T19:23:16Z</time>
      </trkpt>
      <trkpt lat="47.13021" lon="-1.83575">
        <ele>9</ele>
        <time>2022-04-25T19:23:18Z</time>
      </trkpt>
      <trkpt lat="47.13027" lon="-1.83559">
        <ele>8</ele>
        <time>2022-04-25T19:23:20Z</time>
      </trkpt>
      <trkpt lat="47.13016" lon="-1.83529">
        <ele>7</ele>
        <time>2022-04-25T19:23:25Z</time>
      </trkpt>
      <trkpt lat="47.13007" lon="-1.83494">
        <ele>6</ele>
        <time>2022-04-25T19:23:29Z</time>
      </trkpt>
      <trkpt lat="47.13005" lon="-1.83453">
        <ele>6</ele>
        <time>2022-04-25T19:23:34Z</time>
      </trkpt>
      <trkpt lat="47.13007" lon="-1.83396">
        <ele>6</ele>
        <time>2022-04-25T19:23:41Z</time>
      </trkpt>
      <trkpt lat="47.13008" lon="-1.83152">
        <ele>11</ele>
        <time>2022-04-25T19:24:11Z</time>
      </trkpt>
      <trkpt lat="47.13" lon="-1.8313">
        <ele>11</ele>
        <time>2022-04-25T19:24:14Z</time>
      </trkpt>
      <trkpt lat="47.12992" lon="-1.8312">
        <ele>12</ele>
        <time>2022-04-25T19:24:15Z</time>
      </trkpt>
      <trkpt lat="47.12984" lon="-1.83118">
        <ele>12</ele>
        <time>2022-04-25T19:24:17Z</time>
      </trkpt>
      <trkpt lat="47.12968" lon="-1.83124">
        <ele>12</ele>
        <time>2022-04-25T19:24:20Z</time>
      </trkpt>
      <trkpt lat="47.12956" lon="-1.83132">
        <ele>12</ele>
        <time>2022-04-25T19:24:22Z</time>
      </trkpt>
      <trkpt lat="47.12889" lon="-1.83221">
        <ele>10</ele>
        <time>2022-04-25T19:24:38Z</time>
      </trkpt>
      <trkpt lat="47.12867" lon="-1.83238">
        <ele>8</ele>
        <time>2022-04-25T19:24:43Z</time>
      </trkpt>
      <trkpt lat="47.12844" lon="-1.83246">
        <ele>7</ele>
        <time>2022-04-25T19:24:47Z</time>
      </trkpt>
      <trkpt lat="47.12813" lon="-1.83247">
        <ele>7</ele>
        <time>2022-04-25T19:24:52Z</time>
      </trkpt>
      <trkpt lat="47.12797" lon="-1.83244">
        <ele>8</ele>
        <time>2022-04-25T19:24:55Z</time>
      </trkpt>
      <trkpt lat="47.12767" lon="-1.83224">
        <ele>8</ele>
        <time>2022-04-25T19:25:01Z</time>
      </trkpt>
      <trkpt lat="47.1237" lon="-1.82925">
        <ele>7</ele>
        <time>2022-04-25T19:26:20Z</time>
      </trkpt>
      <trkpt lat="47.12332" lon="-1.82907">
        <ele>6</ele>
        <time>2022-04-25T19:26:28Z</time>
      </trkpt>
      <trkpt lat="47.1198" lon="-1.8283">
        <ele>17</ele>
        <time>2022-04-25T19:27:31Z</time>
      </trkpt>
      <trkpt lat="47.11933" lon="-1.82811">
        <ele>18</ele>
        <time>2022-04-25T19:27:40Z</time>
      </trkpt>
      <trkpt lat="47.11756" lon="-1.82718">
        <ele>22</ele>
        <time>2022-04-25T19:28:13Z</time>
      </trkpt>
      <trkpt lat="47.11731" lon="-1.82698">
        <ele>23</ele>
        <time>2022-04-25T19:28:18Z</time>
      </trkpt>
      <trkpt lat="47.11701" lon="-1.82672">
        <ele>23</ele>
        <time>2022-04-25T19:28:24Z</time>
      </trkpt>
      <trkpt lat="47.11487" lon="-1.82468">
        <ele>23</ele>
        <time>2022-04-25T19:29:10Z</time>
      </trkpt>
      <trkpt lat="47.11468" lon="-1.82444">
        <ele>23</ele>
        <time>2022-04-25T19:29:14Z</time>
      </trkpt>
      <trkpt lat="47.11347" lon="-1.82279">
        <ele>23</ele>
        <time>2022-04-25T19:29:43Z</time>
      </trkpt>
      <trkpt lat="47.11327" lon="-1.82245">
        <ele>23</ele>
        <time>2022-04-25T19:29:49Z</time>
      </trkpt>
      <trkpt lat="47.11317" lon="-1.82227">
        <ele>23</ele>
        <time>2022-04-25T19:29:52Z</time>
      </trkpt>
      <trkpt lat="47.11223" lon="-1.81992">
        <ele>23</ele>
        <time>2022-04-25T19:30:25Z</time>
      </trkpt>
      <trkpt lat="47.11187" lon="-1.81925">
        <ele>25</ele>
        <time>2022-04-25T19:30:35Z</time>
      </trkpt>
      <trkpt lat="47.11133" lon="-1.81834">
        <ele>23</ele>
        <time>2022-04-25T19:30:50Z</time>
      </trkpt>
      <trkpt lat="47.11083" lon="-1.81759">
        <ele>24</ele>
        <time>2022-04-25T19:31:02Z</time>
      </trkpt>
      <trkpt lat="47.10993" lon="-1.81629">
        <ele>23</ele>
        <time>2022-04-25T19:31:25Z</time>
      </trkpt>
      <trkpt lat="47.10977" lon="-1.81609">
        <ele>23</ele>
        <time>2022-04-25T19:31:29Z</time>
      </trkpt>
      <trkpt lat="47.10923" lon="-1.81558">
        <ele>22</ele>
        <time>2022-04-25T19:31:40Z</time>
      </trkpt>
      <trkpt lat="47.10892" lon="-1.81533">
        <ele>21</ele>
        <time>2022-04-25T19:31:46Z</time>
      </trkpt>
      <trkpt lat="47.10866" lon="-1.81516">
        <ele>21</ele>
        <time>2022-04-25T19:31:51Z</time>
      </trkpt>
      <trkpt lat="47.10825" lon="-1.81496">
        <ele>20</ele>
        <time>2022-04-25T19:31:59Z</time>
      </trkpt>
      <trkpt lat="47.10749" lon="-1.81467">
        <ele>20</ele>
        <time>2022-04-25T19:32:13Z</time>
      </trkpt>
      <trkpt lat="47.10734" lon="-1.8146">
        <ele>19</ele>
        <time>2022-04-25T19:32:16Z</time>
      </trkpt>
      <trkpt lat="47.10724" lon="-1.81453">
        <ele>19</ele>
        <time>2022-04-25T19:32:18Z</time>
      </trkpt>
      <trkpt lat="47.10701" lon="-1.8143">
        <ele>18</ele>
        <time>2022-04-25T19:32:23Z</time>
      </trkpt>
      <trkpt lat="47.1061" lon="-1.81315">
        <ele>17</ele>
        <time>2022-04-25T19:32:44Z</time>
      </trkpt>
      <trkpt lat="47.10594" lon="-1.81299">
        <ele>17</ele>
        <time>2022-04-25T19:32:48Z</time>
      </trkpt>
      <trkpt lat="47.10408" lon="-1.81148">
        <ele>19</ele>
        <time>2022-04-25T19:33:25Z</time>
      </trkpt>
      <trkpt lat="47.10404" lon="-1.81149">
        <ele>19</ele>
        <time>2022-04-25T19:33:26Z</time>
      </trkpt>
      <trkpt lat="47.10396" lon="-1.81158">
        <ele>19</ele>
        <time>2022-04-25T19:33:28Z</time>
      </trkpt>
      <trkpt lat="47.10382" lon="-1.81184">
        <ele>18</ele>
        <time>2022-04-25T19:33:32Z</time>
      </trkpt>
      <trkpt lat="47.1032" lon="-1.81089">
        <ele>17</ele>
        <time>2022-04-25T19:33:48Z</time>
      </trkpt>
      <trkpt lat="47.10354" lon="-1.81051">
        <ele>17</ele>
        <time>2022-04-25T19:33:55Z</time>
      </trkpt>
      <trkpt lat="47.10336" lon="-1.81013">
        <ele>16</ele>
        <time>2022-04-25T19:34:01Z</time>
      </trkpt>
      <trkpt lat="47.10304" lon="-1.81009">
        <ele>15</ele>
        <time>2022-04-25T19:34:07Z</time>
      </trkpt>
      <trkpt lat="47.10232" lon="-1.81008">
        <ele>12</ele>
        <time>2022-04-25T19:34:20Z</time>
      </trkpt>
      <trkpt lat="47.10201" lon="-1.80999">
        <ele>11</ele>
        <time>2022-04-25T19:34:25Z</time>
      </trkpt>
      <trkpt lat="47.10142" lon="-1.80968">
        <ele>10</ele>
        <time>2022-04-25T19:34:36Z</time>
      </trkpt>
      <trkpt lat="47.10132" lon="-1.80966">
        <ele>10</ele>
        <time>2022-04-25T19:34:38Z</time>
      </trkpt>
      <trkpt lat="47.09812" lon="-1.80987">
        <ele>17</ele>
        <time>2022-04-25T19:35:35Z</time>
      </trkpt>
      <trkpt lat="47.09792" lon="-1.80986">
        <ele>17</ele>
        <time>2022-04-25T19:35:39Z</time>
      </trkpt>
      <trkpt lat="47.09705" lon="-1.80969">
        <ele>16</ele>
        <time>2022-04-25T19:35:54Z</time>
      </trkpt>
      <trkpt lat="47.096" lon="-1.80944">
        <ele>14</ele>
        <time>2022-04-25T19:36:13Z</time>
      </trkpt>
      <trkpt lat="47.09505" lon="-1.80925">
        <ele>11</ele>
        <time>2022-04-25T19:36:30Z</time>
      </trkpt>
      <trkpt lat="47.09486" lon="-1.80925">
        <ele>11</ele>
        <time>2022-04-25T19:36:34Z</time>
      </trkpt>
      <trkpt lat="47.09467" lon="-1.8093">
        <ele>11</ele>
        <time>2022-04-25T19:36:37Z</time>
      </trkpt>
      <trkpt lat="47.09255" lon="-1.81059">
        <ele>8</ele>
        <time>2022-04-25T19:37:18Z</time>
      </trkpt>
      <trkpt lat="47.09233" lon="-1.81074">
        <ele>8</ele>
        <time>2022-04-25T19:37:22Z</time>
      </trkpt>
      <trkpt lat="47.09219" lon="-1.81091">
        <ele>8</ele>
        <time>2022-04-25T19:37:26Z</time>
      </trkpt>
      <trkpt lat="47.09183" lon="-1.81059">
        <ele>8</ele>
        <time>2022-04-25T19:37:33Z</time>
      </trkpt>
      <trkpt lat="47.09172" lon="-1.8105">
        <ele>9</ele>
        <time>2022-04-25T19:37:35Z</time>
      </trkpt>
      <trkpt lat="47.08949" lon="-1.80885">
        <ele>12</ele>
        <time>2022-04-25T19:38:20Z</time>
      </trkpt>
      <trkpt lat="47.08923" lon="-1.80859">
        <ele>13</ele>
        <time>2022-04-25T19:38:25Z</time>
      </trkpt>
      <trkpt lat="47.08905" lon="-1.80831">
        <ele>13</ele>
        <time>2022-04-25T19:38:30Z</time>
      </trkpt>
      <trkpt lat="47.08789" lon="-1.80628">
        <ele>14</ele>
        <time>2022-04-25T19:39:02Z</time>
      </trkpt>
      <trkpt lat="47.08774" lon="-1.80608">
        <ele>15</ele>
        <time>2022-04-25T19:39:06Z</time>
      </trkpt>
      <trkpt lat="47.0874" lon="-1.80575">
        <ele>15</ele>
        <time>2022-04-25T19:39:13Z</time>
      </trkpt>
      <trkpt lat="47.08678" lon="-1.80528">
        <ele>17</ele>
        <time>2022-04-25T19:39:25Z</time>
      </trkpt>
      <trkpt lat="47.08661" lon="-1.80517">
        <ele>17</ele>
        <time>2022-04-25T19:39:29Z</time>
      </trkpt>
      <trkpt lat="47.08475" lon="-1.80468">
        <ele>20</ele>
        <time>2022-04-25T19:40:02Z</time>
      </trkpt>
      <trkpt lat="47.08447" lon="-1.80466">
        <ele>21</ele>
        <time>2022-04-25T19:40:07Z</time>
      </trkpt>
      <trkpt lat="47.08324" lon="-1.80471">
        <ele>23</ele>
        <time>2022-04-25T19:40:29Z</time>
      </trkpt>
      <trkpt lat="47.08249" lon="-1.80495">
        <ele>22</ele>
        <time>2022-04-25T19:40:43Z</time>
      </trkpt>
      <trkpt lat="47.08148" lon="-1.8054">
        <ele>19</ele>
        <time>2022-04-25T19:41:02Z</time>
      </trkpt>
      <trkpt lat="47.08121" lon="-1.8055">
        <ele>18</ele>
        <time>2022-04-25T19:41:06Z</time>
      </trkpt>
      <trkpt lat="47.08024" lon="-1.80575">
        <ele>15</ele>
        <time>2022-04-25T19:41:24Z</time>
      </trkpt>
      <trkpt lat="47.08001" lon="-1.80579">
        <ele>14</ele>
        <time>2022-04-25T19:41:28Z</time>
      </trkpt>
      <trkpt lat="47.07965" lon="-1.80578">
        <ele>14</ele>
        <time>2022-04-25T19:41:35Z</time>
      </trkpt>
      <trkpt lat="47.0795" lon="-1.80573">
        <ele>14</ele>
        <time>2022-04-25T19:41:37Z</time>
      </trkpt>
      <trkpt lat="47.07939" lon="-1.80563">
        <ele>14</ele>
        <time>2022-04-25T19:41:40Z</time>
      </trkpt>
      <trkpt lat="47.07919" lon="-1.80525">
        <ele>15</ele>
        <time>2022-04-25T19:41:45Z</time>
      </trkpt>
      <trkpt lat="47.07907" lon="-1.80492">
        <ele>15</ele>
        <time>2022-04-25T19:41:50Z</time>
      </trkpt>
      <trkpt lat="47.07903" lon="-1.80471">
        <ele>15</ele>
        <time>2022-04-25T19:41:53Z</time>
      </trkpt>
      <trkpt lat="47.079" lon="-1.80431">
        <ele>16</ele>
        <time>2022-04-25T19:41:57Z</time>
      </trkpt>
      <trkpt lat="47.07901" lon="-1.80256">
        <ele>15</ele>
        <time>2022-04-25T19:42:19Z</time>
      </trkpt>
      <trkpt lat="47.07898" lon="-1.80022">
        <ele>15</ele>
        <time>2022-04-25T19:42:47Z</time>
      </trkpt>
      <trkpt lat="47.07891" lon="-1.80019">
        <ele>15</ele>
        <time>2022-04-25T19:42:48Z</time>
      </trkpt>
      <trkpt lat="47.07885" lon="-1.8001">
        <ele>15</ele>
        <time>2022-04-25T19:42:50Z</time>
      </trkpt>
      <trkpt lat="47.07884" lon="-1.79997">
        <ele>15</ele>
        <time>2022-04-25T19:42:51Z</time>
      </trkpt>
      <trkpt lat="47.07888" lon="-1.79985">
        <ele>15</ele>
        <time>2022-04-25T19:42:53Z</time>
      </trkpt>
      <trkpt lat="47.07892" lon="-1.79981">
        <ele>15</ele>
        <time>2022-04-25T19:42:54Z</time>
      </trkpt>
      <trkpt lat="47.07902" lon="-1.79979">
        <ele>15</ele>
        <time>2022-04-25T19:42:56Z</time>
      </trkpt>
      <trkpt lat="47.07915" lon="-1.79909">
        <ele>14</ele>
        <time>2022-04-25T19:43:04Z</time>
      </trkpt>
      <trkpt lat="47.0795" lon="-1.79812">
        <ele>14</ele>
        <time>2022-04-25T19:43:18Z</time>
      </trkpt>
      <trkpt lat="47.07956" lon="-1.79789">
        <ele>15</ele>
        <time>2022-04-25T19:43:21Z</time>
      </trkpt>
      <trkpt lat="47.07966" lon="-1.79681">
        <ele>17</ele>
        <time>2022-04-25T19:43:34Z</time>
      </trkpt>
      <trkpt lat="47.07966" lon="-1.79615">
        <ele>17</ele>
        <time>2022-04-25T19:43:42Z</time>
      </trkpt>
      <trkpt lat="47.07964" lon="-1.79578">
        <ele>17</ele>
        <time>2022-04-25T19:43:46Z</time>
      </trkpt>
      <trkpt lat="47.07959" lon="-1.79542">
        <ele>16</ele>
        <time>2022-04-25T19:43:51Z</time>
      </trkpt>
      <trkpt lat="47.07945" lon="-1.79477">
        <ele>15</ele>
        <time>2022-04-25T19:43:59Z</time>
      </trkpt>
      <trkpt lat="47.07838" lon="-1.7907">
        <ele>4</ele>
        <time>2022-04-25T19:44:52Z</time>
      </trkpt>
      <trkpt lat="47.07828" lon="-1.79031">
        <ele>5</ele>
        <time>2022-04-25T19:44:57Z</time>
      </trkpt>
      <trkpt lat="47.07768" lon="-1.78797">
        <ele>13</ele>
        <time>2022-04-25T19:45:27Z</time>
      </trkpt>
      <trkpt lat="47.07756" lon="-1.78762">
        <ele>14</ele>
        <time>2022-04-25T19:45:32Z</time>
      </trkpt>
      <trkpt lat="47.07736" lon="-1.78717">
        <ele>16</ele>
        <time>2022-04-25T19:45:39Z</time>
      </trkpt>
      <trkpt lat="47.07684" lon="-1.7861">
        <ele>19</ele>
        <time>2022-04-25T19:45:55Z</time>
      </trkpt>
      <trkpt lat="47.07668" lon="-1.78572">
        <ele>20</ele>
        <time>2022-04-25T19:46:00Z</time>
      </trkpt>
      <trkpt lat="47.07657" lon="-1.78537">
        <ele>19</ele>
        <time>2022-04-25T19:46:05Z</time>
      </trkpt>
      <trkpt lat="47.07644" lon="-1.7849">
        <ele>18</ele>
        <time>2022-04-25T19:46:11Z</time>
      </trkpt>
      <trkpt lat="47.07631" lon="-1.78453">
        <ele>18</ele>
        <time>2022-04-25T19:46:16Z</time>
      </trkpt>
      <trkpt lat="47.07612" lon="-1.78408">
        <ele>18</ele>
        <time>2022-04-25T19:46:22Z</time>
      </trkpt>
      <trkpt lat="47.07521" lon="-1.78237">
        <ele>18</ele>
        <time>2022-04-25T19:46:49Z</time>
      </trkpt>
      <trkpt lat="47.07498" lon="-1.78198">
        <ele>18</ele>
        <time>2022-04-25T19:46:55Z</time>
      </trkpt>
      <trkpt lat="47.07477" lon="-1.78171">
        <ele>18</ele>
        <time>2022-04-25T19:47:00Z</time>
      </trkpt>
      <trkpt lat="47.07463" lon="-1.78156">
        <ele>18</ele>
        <time>2022-04-25T19:47:03Z</time>
      </trkpt>
      <trkpt lat="47.07413" lon="-1.7811">
        <ele>17</ele>
        <time>2022-04-25T19:47:13Z</time>
      </trkpt>
      <trkpt lat="47.07377" lon="-1.7807">
        <ele>19</ele>
        <time>2022-04-25T19:47:21Z</time>
      </trkpt>
      <trkpt lat="47.0716" lon="-1.77807">
        <ele>23</ele>
        <time>2022-04-25T19:48:11Z</time>
      </trkpt>
      <trkpt lat="47.0714" lon="-1.77778">
        <ele>23</ele>
        <time>2022-04-25T19:48:16Z</time>
      </trkpt>
      <trkpt lat="47.07123" lon="-1.77744">
        <ele>23</ele>
        <time>2022-04-25T19:48:22Z</time>
      </trkpt>
      <trkpt lat="47.07093" lon="-1.7767">
        <ele>23</ele>
        <time>2022-04-25T19:48:32Z</time>
      </trkpt>
      <trkpt lat="47.07021" lon="-1.77486">
        <ele>24</ele>
        <time>2022-04-25T19:48:58Z</time>
      </trkpt>
      <trkpt lat="47.07011" lon="-1.77462">
        <ele>24</ele>
        <time>2022-04-25T19:49:01Z</time>
      </trkpt>
      <trkpt lat="47.06991" lon="-1.77426">
        <ele>25</ele>
        <time>2022-04-25T19:49:07Z</time>
      </trkpt>
      <trkpt lat="47.06834" lon="-1.77208">
        <ele>27</ele>
        <time>2022-04-25T19:49:45Z</time>
      </trkpt>
      <trkpt lat="47.06814" lon="-1.77179">
        <ele>28</ele>
        <time>2022-04-25T19:49:50Z</time>
      </trkpt>
      <trkpt lat="47.06756" lon="-1.77082">
        <ele>27</ele>
        <time>2022-04-25T19:50:06Z</time>
      </trkpt>
      <trkpt lat="47.06494" lon="-1.76637">
        <ele>31</ele>
        <time>2022-04-25T19:51:17Z</time>
      </trkpt>
      <trkpt lat="47.06472" lon="-1.76597">
        <ele>30</ele>
        <time>2022-04-25T19:51:23Z</time>
      </trkpt>
      <trkpt lat="47.06416" lon="-1.7646">
        <ele>29</ele>
        <time>2022-04-25T19:51:43Z</time>
      </trkpt>
      <trkpt lat="47.06401" lon="-1.76433">
        <ele>29</ele>
        <time>2022-04-25T19:51:47Z</time>
      </trkpt>
      <trkpt lat="47.0639" lon="-1.7642">
        <ele>29</ele>
        <time>2022-04-25T19:51:49Z</time>
      </trkpt>
      <trkpt lat="47.06368" lon="-1.76401">
        <ele>29</ele>
        <time>2022-04-25T19:51:54Z</time>
      </trkpt>
      <trkpt lat="47.06323" lon="-1.76379">
        <ele>28</ele>
        <time>2022-04-25T19:52:02Z</time>
      </trkpt>
      <trkpt lat="47.06316" lon="-1.76374">
        <ele>28</ele>
        <time>2022-04-25T19:52:04Z</time>
      </trkpt>
      <trkpt lat="47.06313" lon="-1.76374">
        <ele>28</ele>
        <time>2022-04-25T19:52:04Z</time>
      </trkpt>
      <trkpt lat="47.06304" lon="-1.76364">
        <ele>28</ele>
        <time>2022-04-25T19:52:06Z</time>
      </trkpt>
      <trkpt lat="47.06294" lon="-1.76339">
        <ele>28</ele>
        <time>2022-04-25T19:52:10Z</time>
      </trkpt>
      <trkpt lat="47.06293" lon="-1.76326">
        <ele>28</ele>
        <time>2022-04-25T19:52:12Z</time>
      </trkpt>
      <trkpt lat="47.06294" lon="-1.76306">
        <ele>28</ele>
        <time>2022-04-25T19:52:14Z</time>
      </trkpt>
      <trkpt lat="47.06297" lon="-1.76293">
        <ele>29</ele>
        <time>2022-04-25T19:52:16Z</time>
      </trkpt>
      <trkpt lat="47.063" lon="-1.76289">
        <ele>29</ele>
        <time>2022-04-25T19:52:16Z</time>
      </trkpt>
      <trkpt lat="47.06302" lon="-1.76266">
        <ele>29</ele>
        <time>2022-04-25T19:52:19Z</time>
      </trkpt>
      <trkpt lat="47.06302" lon="-1.76244">
        <ele>29</ele>
        <time>2022-04-25T19:52:22Z</time>
      </trkpt>
      <trkpt lat="47.06298" lon="-1.76215">
        <ele>30</ele>
        <time>2022-04-25T19:52:25Z</time>
      </trkpt>
      <trkpt lat="47.06294" lon="-1.76199">
        <ele>30</ele>
        <time>2022-04-25T19:52:27Z</time>
      </trkpt>
      <trkpt lat="47.06284" lon="-1.76171">
        <ele>30</ele>
        <time>2022-04-25T19:52:31Z</time>
      </trkpt>
      <trkpt lat="47.0627" lon="-1.76145">
        <ele>30</ele>
        <time>2022-04-25T19:52:35Z</time>
      </trkpt>
      <trkpt lat="47.05975" lon="-1.75796">
        <ele>24</ele>
        <time>2022-04-25T19:53:43Z</time>
      </trkpt>
      <trkpt lat="47.05944" lon="-1.75744">
        <ele>25</ele>
        <time>2022-04-25T19:53:51Z</time>
      </trkpt>
      <trkpt lat="47.05827" lon="-1.75406">
        <ele>23</ele>
        <time>2022-04-25T19:54:37Z</time>
      </trkpt>
      <trkpt lat="47.05702" lon="-1.75125">
        <ele>18</ele>
        <time>2022-04-25T19:55:18Z</time>
      </trkpt>
      <trkpt lat="47.05666" lon="-1.75066">
        <ele>15</ele>
        <time>2022-04-25T19:55:27Z</time>
      </trkpt>
      <trkpt lat="47.05608" lon="-1.75004">
        <ele>14</ele>
        <time>2022-04-25T19:55:40Z</time>
      </trkpt>
      <trkpt lat="47.05536" lon="-1.74933">
        <ele>11</ele>
        <time>2022-04-25T19:55:56Z</time>
      </trkpt>
      <trkpt lat="47.0536" lon="-1.74777">
        <ele>9</ele>
        <time>2022-04-25T19:56:32Z</time>
      </trkpt>
      <trkpt lat="47.05336" lon="-1.7474">
        <ele>9</ele>
        <time>2022-04-25T19:56:38Z</time>
      </trkpt>
      <trkpt lat="47.05256" lon="-1.7457">
        <ele>13</ele>
        <time>2022-04-25T19:57:03Z</time>
      </trkpt>
      <trkpt lat="47.05237" lon="-1.74524">
        <ele>13</ele>
        <time>2022-04-25T19:57:10Z</time>
      </trkpt>
      <trkpt lat="47.05231" lon="-1.74505">
        <ele>13</ele>
        <time>2022-04-25T19:57:12Z</time>
      </trkpt>
      <trkpt lat="47.05225" lon="-1.74471">
        <ele>14</ele>
        <time>2022-04-25T19:57:17Z</time>
      </trkpt>
      <trkpt lat="47.05223" lon="-1.74424">
        <ele>15</ele>
        <time>2022-04-25T19:57:22Z</time>
      </trkpt>
      <trkpt lat="47.05224" lon="-1.7436">
        <ele>15</ele>
        <time>2022-04-25T19:57:30Z</time>
      </trkpt>
      <trkpt lat="47.05236" lon="-1.73711">
        <ele>22</ele>
        <time>2022-04-25T19:58:49Z</time>
      </trkpt>
      <trkpt lat="47.0522" lon="-1.73706">
        <ele>22</ele>
        <time>2022-04-25T19:58:52Z</time>
      </trkpt>
      <trkpt lat="47.05206" lon="-1.73695">
        <ele>23</ele>
        <time>2022-04-25T19:58:55Z</time>
      </trkpt>
      <trkpt lat="47.05165" lon="-1.73671">
        <ele>25</ele>
        <time>2022-04-25T19:59:02Z</time>
      </trkpt>
      <trkpt lat="47.0514" lon="-1.73645">
        <ele>27</ele>
        <time>2022-04-25T19:59:08Z</time>
      </trkpt>
      <trkpt lat="47.05128" lon="-1.73628">
        <ele>27</ele>
        <time>2022-04-25T19:59:11Z</time>
      </trkpt>
      <trkpt lat="47.04958" lon="-1.73308">
        <ele>33</ele>
        <time>2022-04-25T20:00:00Z</time>
      </trkpt>
      <trkpt lat="47.0492" lon="-1.73234">
        <ele>34</ele>
        <time>2022-04-25T20:00:11Z</time>
      </trkpt>
      <trkpt lat="47.04912" lon="-1.73209">
        <ele>34</ele>
        <time>2022-04-25T20:00:15Z</time>
      </trkpt>
      <trkpt lat="47.04909" lon="-1.73172">
        <ele>34</ele>
        <time>2022-04-25T20:00:19Z</time>
      </trkpt>
      <trkpt lat="47.04907" lon="-1.73129">
        <ele>34</ele>
        <time>2022-04-25T20:00:24Z</time>
      </trkpt>
      <trkpt lat="47.049" lon="-1.73085">
        <ele>34</ele>
        <time>2022-04-25T20:00:30Z</time>
      </trkpt>
      <trkpt lat="47.04895" lon="-1.73069">
        <ele>34</ele>
        <time>2022-04-25T20:00:32Z</time>
      </trkpt>
      <trkpt lat="47.04838" lon="-1.72926">
        <ele>34</ele>
        <time>2022-04-25T20:00:52Z</time>
      </trkpt>
      <trkpt lat="47.04817" lon="-1.72868">
        <ele>33</ele>
        <time>2022-04-25T20:01:00Z</time>
      </trkpt>
      <trkpt lat="47.04813" lon="-1.72849">
        <ele>33</ele>
        <time>2022-04-25T20:01:02Z</time>
      </trkpt>
      <trkpt lat="47.04801" lon="-1.72747">
        <ele>32</ele>
        <time>2022-04-25T20:01:15Z</time>
      </trkpt>
      <trkpt lat="47.04756" lon="-1.72452">
        <ele>29</ele>
        <time>2022-04-25T20:01:52Z</time>
      </trkpt>
      <trkpt lat="47.04692" lon="-1.72124">
        <ele>33</ele>
        <time>2022-04-25T20:02:33Z</time>
      </trkpt>
      <trkpt lat="47.0469" lon="-1.72102">
        <ele>32</ele>
        <time>2022-04-25T20:02:36Z</time>
      </trkpt>
      <trkpt lat="47.04692" lon="-1.72087">
        <ele>32</ele>
        <time>2022-04-25T20:02:38Z</time>
      </trkpt>
      <trkpt lat="47.04628" lon="-1.72035">
        <ele>32</ele>
        <time>2022-04-25T20:02:51Z</time>
      </trkpt>
      <trkpt lat="47.04614" lon="-1.7202">
        <ele>33</ele>
        <time>2022-04-25T20:02:54Z</time>
      </trkpt>
      <trkpt lat="47.04595" lon="-1.71995">
        <ele>33</ele>
        <time>2022-04-25T20:02:58Z</time>
      </trkpt>
      <trkpt lat="47.04484" lon="-1.71814">
        <ele>34</ele>
        <time>2022-04-25T20:03:28Z</time>
      </trkpt>
      <trkpt lat="47.04376" lon="-1.7167">
        <ele>33</ele>
        <time>2022-04-25T20:03:54Z</time>
      </trkpt>
      <trkpt lat="47.04347" lon="-1.71629">
        <ele>34</ele>
        <time>2022-04-25T20:04:01Z</time>
      </trkpt>
      <trkpt lat="47.04323" lon="-1.71587">
        <ele>34</ele>
        <time>2022-04-25T20:04:07Z</time>
      </trkpt>
      <trkpt lat="47.04303" lon="-1.71549">
        <ele>34</ele>
        <time>2022-04-25T20:04:13Z</time>
      </trkpt>
      <trkpt lat="47.04192" lon="-1.71304">
        <ele>32</ele>
        <time>2022-04-25T20:04:49Z</time>
      </trkpt>
      <trkpt lat="47.04001" lon="-1.70872">
        <ele>29</ele>
        <time>2022-04-25T20:05:51Z</time>
      </trkpt>
      <trkpt lat="47.03911" lon="-1.70667">
        <ele>32</ele>
        <time>2022-04-25T20:06:21Z</time>
      </trkpt>
      <trkpt lat="47.03884" lon="-1.70603">
        <ele>33</ele>
        <time>2022-04-25T20:06:30Z</time>
      </trkpt>
      <trkpt lat="47.03877" lon="-1.7058">
        <ele>33</ele>
        <time>2022-04-25T20:06:33Z</time>
      </trkpt>
      <trkpt lat="47.03868" lon="-1.70538">
        <ele>34</ele>
        <time>2022-04-25T20:06:39Z</time>
      </trkpt>
      <trkpt lat="47.03864" lon="-1.70472">
        <ele>34</ele>
        <time>2022-04-25T20:06:47Z</time>
      </trkpt>
      <trkpt lat="47.03865" lon="-1.70396">
        <ele>35</ele>
        <time>2022-04-25T20:06:56Z</time>
      </trkpt>
      <trkpt lat="47.0388" lon="-1.70104">
        <ele>32</ele>
        <time>2022-04-25T20:07:31Z</time>
      </trkpt>
      <trkpt lat="47.0388" lon="-1.70065">
        <ele>32</ele>
        <time>2022-04-25T20:07:36Z</time>
      </trkpt>
      <trkpt lat="47.03876" lon="-1.70036">
        <ele>32</ele>
        <time>2022-04-25T20:07:40Z</time>
      </trkpt>
      <trkpt lat="47.03869" lon="-1.70009">
        <ele>32</ele>
        <time>2022-04-25T20:07:43Z</time>
      </trkpt>
      <trkpt lat="47.03858" lon="-1.69982">
        <ele>32</ele>
        <time>2022-04-25T20:07:47Z</time>
      </trkpt>
      <trkpt lat="47.03673" lon="-1.69622">
        <ele>34</ele>
        <time>2022-04-25T20:08:42Z</time>
      </trkpt>
      <trkpt lat="47.03657" lon="-1.69587">
        <ele>35</ele>
        <time>2022-04-25T20:08:47Z</time>
      </trkpt>
      <trkpt lat="47.03645" lon="-1.69548">
        <ele>35</ele>
        <time>2022-04-25T20:08:52Z</time>
      </trkpt>
      <trkpt lat="47.03634" lon="-1.69499">
        <ele>36</ele>
        <time>2022-04-25T20:08:58Z</time>
      </trkpt>
      <trkpt lat="47.0356" lon="-1.6907">
        <ele>36</ele>
        <time>2022-04-25T20:09:52Z</time>
      </trkpt>
      <trkpt lat="47.03554" lon="-1.69025">
        <ele>36</ele>
        <time>2022-04-25T20:09:57Z</time>
      </trkpt>
      <trkpt lat="47.03524" lon="-1.68419">
        <ele>33</ele>
        <time>2022-04-25T20:11:11Z</time>
      </trkpt>
      <trkpt lat="47.0352" lon="-1.68294">
        <ele>33</ele>
        <time>2022-04-25T20:11:26Z</time>
      </trkpt>
      <trkpt lat="47.03513" lon="-1.67217">
        <ele>19</ele>
        <time>2022-04-25T20:13:37Z</time>
      </trkpt>
      <trkpt lat="47.03508" lon="-1.67158">
        <ele>19</ele>
        <time>2022-04-25T20:13:44Z</time>
      </trkpt>
      <trkpt lat="47.03484" lon="-1.66997">
        <ele>20</ele>
        <time>2022-04-25T20:14:04Z</time>
      </trkpt>
      <trkpt lat="47.03482" lon="-1.6695">
        <ele>19</ele>
        <time>2022-04-25T20:14:10Z</time>
      </trkpt>
      <trkpt lat="47.03491" lon="-1.66749">
        <ele>18</ele>
        <time>2022-04-25T20:14:34Z</time>
      </trkpt>
      <trkpt lat="47.03492" lon="-1.66684">
        <ele>17</ele>
        <time>2022-04-25T20:14:42Z</time>
      </trkpt>
      <trkpt lat="47.03485" lon="-1.66549">
        <ele>17</ele>
        <time>2022-04-25T20:14:58Z</time>
      </trkpt>
      <trkpt lat="47.03459" lon="-1.66146">
        <ele>20</ele>
        <time>2022-04-25T20:15:48Z</time>
      </trkpt>
      <trkpt lat="47.03455" lon="-1.66122">
        <ele>20</ele>
        <time>2022-04-25T20:15:51Z</time>
      </trkpt>
      <trkpt lat="47.03452" lon="-1.66113">
        <ele>19</ele>
        <time>2022-04-25T20:15:52Z</time>
      </trkpt>
      <trkpt lat="47.03444" lon="-1.66097">
        <ele>19</ele>
        <time>2022-04-25T20:15:54Z</time>
      </trkpt>
      <trkpt lat="47.03436" lon="-1.66089">
        <ele>20</ele>
        <time>2022-04-25T20:15:56Z</time>
      </trkpt>
      <trkpt lat="47.0342" lon="-1.66086">
        <ele>20</ele>
        <time>2022-04-25T20:15:59Z</time>
      </trkpt>
      <trkpt lat="47.03411" lon="-1.66095">
        <ele>20</ele>
        <time>2022-04-25T20:16:01Z</time>
      </trkpt>
      <trkpt lat="47.03398" lon="-1.66096">
        <ele>20</ele>
        <time>2022-04-25T20:16:03Z</time>
      </trkpt>
      <trkpt lat="47.03393" lon="-1.66093">
        <ele>20</ele>
        <time>2022-04-25T20:16:04Z</time>
      </trkpt>
      <trkpt lat="47.03388" lon="-1.66087">
        <ele>20</ele>
        <time>2022-04-25T20:16:05Z</time>
      </trkpt>
      <trkpt lat="47.03383" lon="-1.66077">
        <ele>20</ele>
        <time>2022-04-25T20:16:07Z</time>
      </trkpt>
      <trkpt lat="47.03382" lon="-1.66064">
        <ele>20</ele>
        <time>2022-04-25T20:16:08Z</time>
      </trkpt>
      <trkpt lat="47.03384" lon="-1.66052">
        <ele>20</ele>
        <time>2022-04-25T20:16:10Z</time>
      </trkpt>
      <trkpt lat="47.03388" lon="-1.66043">
        <ele>20</ele>
        <time>2022-04-25T20:16:11Z</time>
      </trkpt>
      <trkpt lat="47.03394" lon="-1.66037">
        <ele>20</ele>
        <time>2022-04-25T20:16:12Z</time>
      </trkpt>
      <trkpt lat="47.03402" lon="-1.65994">
        <ele>20</ele>
        <time>2022-04-25T20:16:18Z</time>
      </trkpt>
      <trkpt lat="47.03399" lon="-1.65947">
        <ele>19</ele>
        <time>2022-04-25T20:16:23Z</time>
      </trkpt>
      <trkpt lat="47.03393" lon="-1.65905">
        <ele>18</ele>
        <time>2022-04-25T20:16:29Z</time>
      </trkpt>
      <trkpt lat="47.03385" lon="-1.65875">
        <ele>17</ele>
        <time>2022-04-25T20:16:33Z</time>
      </trkpt>
      <trkpt lat="47.03374" lon="-1.6585">
        <ele>16</ele>
        <time>2022-04-25T20:16:36Z</time>
      </trkpt>
      <trkpt lat="47.03337" lon="-1.65771">
        <ele>16</ele>
        <time>2022-04-25T20:16:48Z</time>
      </trkpt>
      <trkpt lat="47.03323" lon="-1.65738">
        <ele>16</ele>
        <time>2022-04-25T20:16:52Z</time>
      </trkpt>
      <trkpt lat="47.03315" lon="-1.65706">
        <ele>17</ele>
        <time>2022-04-25T20:16:57Z</time>
      </trkpt>
      <trkpt lat="47.03313" lon="-1.65679">
        <ele>17</ele>
        <time>2022-04-25T20:17:00Z</time>
      </trkpt>
      <trkpt lat="47.03313" lon="-1.65652">
        <ele>17</ele>
        <time>2022-04-25T20:17:03Z</time>
      </trkpt>
      <trkpt lat="47.03318" lon="-1.65611">
        <ele>17</ele>
        <time>2022-04-25T20:17:08Z</time>
      </trkpt>
      <trkpt lat="47.03308" lon="-1.65602">
        <ele>17</ele>
        <time>2022-04-25T20:17:10Z</time>
      </trkpt>
      <trkpt lat="47.03302" lon="-1.65586">
        <ele>17</ele>
        <time>2022-04-25T20:17:13Z</time>
      </trkpt>
      <trkpt lat="47.03303" lon="-1.6557">
        <ele>17</ele>
        <time>2022-04-25T20:17:14Z</time>
      </trkpt>
      <trkpt lat="47.03305" lon="-1.65564">
        <ele>17</ele>
        <time>2022-04-25T20:17:15Z</time>
      </trkpt>
      <trkpt lat="47.03311" lon="-1.65554">
        <ele>17</ele>
        <time>2022-04-25T20:17:17Z</time>
      </trkpt>
      <trkpt lat="47.03315" lon="-1.65551">
        <ele>17</ele>
        <time>2022-04-25T20:17:18Z</time>
      </trkpt>
      <trkpt lat="47.03322" lon="-1.65549">
        <ele>17</ele>
        <time>2022-04-25T20:17:19Z</time>
      </trkpt>
      <trkpt lat="47.03329" lon="-1.6555">
        <ele>17</ele>
        <time>2022-04-25T20:17:20Z</time>
      </trkpt>
      <trkpt lat="47.03335" lon="-1.65554">
        <ele>16</ele>
        <time>2022-04-25T20:17:21Z</time>
      </trkpt>
      <trkpt lat="47.0334" lon="-1.65561">
        <ele>16</ele>
        <time>2022-04-25T20:17:23Z</time>
      </trkpt>
      <trkpt lat="47.03374" lon="-1.65528">
        <ele>15</ele>
        <time>2022-04-25T20:17:30Z</time>
      </trkpt>
      <trkpt lat="47.03383" lon="-1.65522">
        <ele>15</ele>
        <time>2022-04-25T20:17:32Z</time>
      </trkpt>
      <trkpt lat="47.03435" lon="-1.65506">
        <ele>14</ele>
        <time>2022-04-25T20:17:41Z</time>
      </trkpt>
      <trkpt lat="47.03454" lon="-1.65491">
        <ele>13</ele>
        <time>2022-04-25T20:17:45Z</time>
      </trkpt>
      <trkpt lat="47.03453" lon="-1.65481">
        <ele>13</ele>
        <time>2022-04-25T20:17:46Z</time>
      </trkpt>
      <trkpt lat="47.03458" lon="-1.65474">
        <ele>13</ele>
        <time>2022-04-25T20:17:47Z</time>
      </trkpt>
      <trkpt lat="47.03462" lon="-1.65474">
        <ele>13</ele>
        <time>2022-04-25T20:17:48Z</time>
      </trkpt>
      <trkpt lat="47.03466" lon="-1.65477">
        <ele>13</ele>
        <time>2022-04-25T20:17:49Z</time>
      </trkpt>
      <trkpt lat="47.03474" lon="-1.65467">
        <ele>13</ele>
        <time>2022-04-25T20:17:51Z</time>
      </trkpt>
      <trkpt lat="47.03485" lon="-1.65442">
        <ele>13</ele>
        <time>2022-04-25T20:17:54Z</time>
      </trkpt>
      <trkpt lat="47.03656" lon="-1.64977">
        <ele>8</ele>
        <time>2022-04-25T20:18:58Z</time>
      </trkpt>
      <trkpt lat="47.03652" lon="-1.64973">
        <ele>8</ele>
        <time>2022-04-25T20:18:59Z</time>
      </trkpt>
      <trkpt lat="47.03652" lon="-1.64966">
        <ele>8</ele>
        <time>2022-04-25T20:19:00Z</time>
      </trkpt>
      <trkpt lat="47.03657" lon="-1.64958">
        <ele>8</ele>
        <time>2022-04-25T20:19:01Z</time>
      </trkpt>
      <trkpt lat="47.03661" lon="-1.64959">
        <ele>8</ele>
        <time>2022-04-25T20:19:02Z</time>
      </trkpt>
      <trkpt lat="47.03681" lon="-1.64911">
        <ele>8</ele>
        <time>2022-04-25T20:19:09Z</time>
      </trkpt>
      <trkpt lat="47.03727" lon="-1.64786">
        <ele>7</ele>
        <time>2022-04-25T20:19:26Z</time>
      </trkpt>
      <trkpt lat="47.03731" lon="-1.6476">
        <ele>7</ele>
        <time>2022-04-25T20:19:29Z</time>
      </trkpt>
      <trkpt lat="47.03731" lon="-1.64739">
        <ele>6</ele>
        <time>2022-04-25T20:19:32Z</time>
      </trkpt>
      <trkpt lat="47.0374" lon="-1.64712">
        <ele>6</ele>
        <time>2022-04-25T20:19:36Z</time>
      </trkpt>
      <trkpt lat="47.03755" lon="-1.64544">
        <ele>5</ele>
        <time>2022-04-25T20:19:56Z</time>
      </trkpt>
      <trkpt lat="47.03756" lon="-1.64507">
        <ele>6</ele>
        <time>2022-04-25T20:20:01Z</time>
      </trkpt>
      <trkpt lat="47.03754" lon="-1.64446">
        <ele>6</ele>
        <time>2022-04-25T20:20:08Z</time>
      </trkpt>
      <trkpt lat="47.03745" lon="-1.64408">
        <ele>6</ele>
        <time>2022-04-25T20:20:13Z</time>
      </trkpt>
      <trkpt lat="47.03726" lon="-1.64349">
        <ele>5</ele>
        <time>2022-04-25T20:20:21Z</time>
      </trkpt>
      <trkpt lat="47.03696" lon="-1.64292">
        <ele>5</ele>
        <time>2022-04-25T20:20:30Z</time>
      </trkpt>
      <trkpt lat="47.03658" lon="-1.64208">
        <ele>7</ele>
        <time>2022-04-25T20:20:42Z</time>
      </trkpt>
      <trkpt lat="47.03648" lon="-1.64216">
        <ele>7</ele>
        <time>2022-04-25T20:20:44Z</time>
      </trkpt>
      <trkpt lat="47.03642" lon="-1.64216">
        <ele>7</ele>
        <time>2022-04-25T20:20:45Z</time>
      </trkpt>
      <trkpt lat="47.03637" lon="-1.6421">
        <ele>7</ele>
        <time>2022-04-25T20:20:46Z</time>
      </trkpt>
      <trkpt lat="47.03572" lon="-1.64051">
        <ele>6</ele>
        <time>2022-04-25T20:21:09Z</time>
      </trkpt>
      <trkpt lat="47.03572" lon="-1.64033">
        <ele>6</ele>
        <time>2022-04-25T20:21:11Z</time>
      </trkpt>
      <trkpt lat="47.03574" lon="-1.64026">
        <ele>5</ele>
        <time>2022-04-25T20:21:12Z</time>
      </trkpt>
      <trkpt lat="47.03579" lon="-1.64019">
        <ele>5</ele>
        <time>2022-04-25T20:21:13Z</time>
      </trkpt>
      <trkpt lat="47.03533" lon="-1.6391">
        <ele>3</ele>
        <time>2022-04-25T20:21:28Z</time>
      </trkpt>
      <trkpt lat="47.03527" lon="-1.63912">
        <ele>3</ele>
        <time>2022-04-25T20:21:30Z</time>
      </trkpt>
      <trkpt lat="47.03523" lon="-1.6391">
        <ele>3</ele>
        <time>2022-04-25T20:21:30Z</time>
      </trkpt>
      <trkpt lat="47.03515" lon="-1.63895">
        <ele>4</ele>
        <time>2022-04-25T20:21:33Z</time>
      </trkpt>
      <trkpt lat="47.03514" lon="-1.63891">
        <ele>4</ele>
        <time>2022-04-25T20:21:33Z</time>
      </trkpt>
      <trkpt lat="47.03515" lon="-1.63882">
        <ele>4</ele>
        <time>2022-04-25T20:21:34Z</time>
      </trkpt>
      <trkpt lat="47.03276" lon="-1.63665">
        <ele>7</ele>
        <time>2022-04-25T20:22:24Z</time>
      </trkpt>
      <trkpt lat="47.03266" lon="-1.63652">
        <ele>7</ele>
        <time>2022-04-25T20:22:27Z</time>
      </trkpt>
      <trkpt lat="47.03257" lon="-1.63643">
        <ele>7</ele>
        <time>2022-04-25T20:22:29Z</time>
      </trkpt>
      <trkpt lat="47.03237" lon="-1.63631">
        <ele>8</ele>
        <time>2022-04-25T20:22:32Z</time>
      </trkpt>
      <trkpt lat="47.03227" lon="-1.63621">
        <ele>8</ele>
        <time>2022-04-25T20:22:35Z</time>
      </trkpt>
      <trkpt lat="47.03235" lon="-1.63602">
        <ele>8</ele>
        <time>2022-04-25T20:22:37Z</time>
      </trkpt>
      <trkpt lat="47.03236" lon="-1.63587">
        <ele>8</ele>
        <time>2022-04-25T20:22:39Z</time>
      </trkpt>
      <trkpt lat="47.03234" lon="-1.63575">
        <ele>8</ele>
        <time>2022-04-25T20:22:41Z</time>
      </trkpt>
      <trkpt lat="47.03109" lon="-1.62969">
        <ele>5</ele>
        <time>2022-04-25T20:23:57Z</time>
      </trkpt>
      <trkpt lat="47.03093" lon="-1.62927">
        <ele>5</ele>
        <time>2022-04-25T20:24:03Z</time>
      </trkpt>
      <trkpt lat="47.03089" lon="-1.62924">
        <ele>5</ele>
        <time>2022-04-25T20:24:04Z</time>
      </trkpt>
      <trkpt lat="47.03085" lon="-1.62916">
        <ele>5</ele>
        <time>2022-04-25T20:24:05Z</time>
      </trkpt>
      <trkpt lat="47.03085" lon="-1.62904">
        <ele>5</ele>
        <time>2022-04-25T20:24:07Z</time>
      </trkpt>
      <trkpt lat="47.03088" lon="-1.62897">
        <ele>5</ele>
        <time>2022-04-25T20:24:08Z</time>
      </trkpt>
      <trkpt lat="47.03086" lon="-1.62859">
        <ele>6</ele>
        <time>2022-04-25T20:24:12Z</time>
      </trkpt>
      <trkpt lat="47.03017" lon="-1.62523">
        <ele>7</ele>
        <time>2022-04-25T20:24:55Z</time>
      </trkpt>
      <trkpt lat="47.03004" lon="-1.62496">
        <ele>7</ele>
        <time>2022-04-25T20:24:59Z</time>
      </trkpt>
      <trkpt lat="47.02997" lon="-1.62491">
        <ele>7</ele>
        <time>2022-04-25T20:25:00Z</time>
      </trkpt>
      <trkpt lat="47.02992" lon="-1.62483">
        <ele>7</ele>
        <time>2022-04-25T20:25:02Z</time>
      </trkpt>
      <trkpt lat="47.0299" lon="-1.62471">
        <ele>7</ele>
        <time>2022-04-25T20:25:03Z</time>
      </trkpt>
      <trkpt lat="47.02992" lon="-1.62462">
        <ele>6</ele>
        <time>2022-04-25T20:25:04Z</time>
      </trkpt>
      <trkpt lat="47.02989" lon="-1.62445">
        <ele>6</ele>
        <time>2022-04-25T20:25:06Z</time>
      </trkpt>
      <trkpt lat="47.02984" lon="-1.6243">
        <ele>6</ele>
        <time>2022-04-25T20:25:08Z</time>
      </trkpt>
      <trkpt lat="47.02935" lon="-1.62351">
        <ele>7</ele>
        <time>2022-04-25T20:25:21Z</time>
      </trkpt>
      <trkpt lat="47.02812" lon="-1.62164">
        <ele>9</ele>
        <time>2022-04-25T20:25:53Z</time>
      </trkpt>
      <trkpt lat="47.02784" lon="-1.62116">
        <ele>9</ele>
        <time>2022-04-25T20:26:01Z</time>
      </trkpt>
      <trkpt lat="47.02761" lon="-1.62069">
        <ele>10</ele>
        <time>2022-04-25T20:26:08Z</time>
      </trkpt>
      <trkpt lat="47.02522" lon="-1.61491">
        <ele>13</ele>
        <time>2022-04-25T20:27:30Z</time>
      </trkpt>
      <trkpt lat="47.02002" lon="-1.60225">
        <ele>18</ele>
        <time>2022-04-25T20:30:29Z</time>
      </trkpt>
      <trkpt lat="47.01641" lon="-1.59343">
        <ele>12</ele>
        <time>2022-04-25T20:32:34Z</time>
      </trkpt>
      <trkpt lat="47.01619" lon="-1.59263">
        <ele>11</ele>
        <time>2022-04-25T20:32:44Z</time>
      </trkpt>
      <trkpt lat="47.01609" lon="-1.59192">
        <ele>10</ele>
        <time>2022-04-25T20:32:53Z</time>
      </trkpt>
      <trkpt lat="47.01598" lon="-1.59022">
        <ele>8</ele>
        <time>2022-04-25T20:33:14Z</time>
      </trkpt>
      <trkpt lat="47.01595" lon="-1.58978">
        <ele>8</ele>
        <time>2022-04-25T20:33:19Z</time>
      </trkpt>
      <trkpt lat="47.01589" lon="-1.58888">
        <ele>8</ele>
        <time>2022-04-25T20:33:30Z</time>
      </trkpt>
      <trkpt lat="47.01584" lon="-1.58851">
        <ele>9</ele>
        <time>2022-04-25T20:33:34Z</time>
      </trkpt>
      <trkpt lat="47.01576" lon="-1.58824">
        <ele>10</ele>
        <time>2022-04-25T20:33:38Z</time>
      </trkpt>
      <trkpt lat="47.01566" lon="-1.58802">
        <ele>11</ele>
        <time>2022-04-25T20:33:41Z</time>
      </trkpt>
      <trkpt lat="47.01559" lon="-1.58791">
        <ele>11</ele>
        <time>2022-04-25T20:33:43Z</time>
      </trkpt>
      <trkpt lat="47.0154" lon="-1.58768">
        <ele>11</ele>
        <time>2022-04-25T20:33:47Z</time>
      </trkpt>
      <trkpt lat="47.01387" lon="-1.58609">
        <ele>11</ele>
        <time>2022-04-25T20:34:21Z</time>
      </trkpt>
      <trkpt lat="47.01369" lon="-1.58594">
        <ele>12</ele>
        <time>2022-04-25T20:34:25Z</time>
      </trkpt>
      <trkpt lat="47.01348" lon="-1.5858">
        <ele>13</ele>
        <time>2022-04-25T20:34:29Z</time>
      </trkpt>
      <trkpt lat="47.0131" lon="-1.58564">
        <ele>14</ele>
        <time>2022-04-25T20:34:36Z</time>
      </trkpt>
      <trkpt lat="47.01282" lon="-1.58556">
        <ele>14</ele>
        <time>2022-04-25T20:34:41Z</time>
      </trkpt>
      <trkpt lat="47.01174" lon="-1.58537">
        <ele>14</ele>
        <time>2022-04-25T20:35:00Z</time>
      </trkpt>
      <trkpt lat="47.01132" lon="-1.58525">
        <ele>14</ele>
        <time>2022-04-25T20:35:08Z</time>
      </trkpt>
      <trkpt lat="47.0111" lon="-1.5851">
        <ele>14</ele>
        <time>2022-04-25T20:35:12Z</time>
      </trkpt>
      <trkpt lat="47.01087" lon="-1.58481">
        <ele>14</ele>
        <time>2022-04-25T20:35:17Z</time>
      </trkpt>
      <trkpt lat="47.01057" lon="-1.5843">
        <ele>16</ele>
        <time>2022-04-25T20:35:26Z</time>
      </trkpt>
      <trkpt lat="47.01012" lon="-1.58331">
        <ele>18</ele>
        <time>2022-04-25T20:35:40Z</time>
      </trkpt>
      <trkpt lat="47.00988" lon="-1.58347">
        <ele>18</ele>
        <time>2022-04-25T20:35:45Z</time>
      </trkpt>
      <trkpt lat="47.00977" lon="-1.58348">
        <ele>18</ele>
        <time>2022-04-25T20:35:47Z</time>
      </trkpt>
      <trkpt lat="47.00967" lon="-1.58338">
        <ele>18</ele>
        <time>2022-04-25T20:35:49Z</time>
      </trkpt>
      <trkpt lat="47.00954" lon="-1.58312">
        <ele>18</ele>
        <time>2022-04-25T20:35:53Z</time>
      </trkpt>
      <trkpt lat="47.00949" lon="-1.58304">
        <ele>18</ele>
        <time>2022-04-25T20:35:54Z</time>
      </trkpt>
      <trkpt lat="47.00938" lon="-1.58296">
        <ele>19</ele>
        <time>2022-04-25T20:35:56Z</time>
      </trkpt>
      <trkpt lat="47.00931" lon="-1.58295">
        <ele>19</ele>
        <time>2022-04-25T20:35:58Z</time>
      </trkpt>
      <trkpt lat="47.0092" lon="-1.58297">
        <ele>18</ele>
        <time>2022-04-25T20:35:59Z</time>
      </trkpt>
      <trkpt lat="47.00888" lon="-1.5831">
        <ele>19</ele>
        <time>2022-04-25T20:36:05Z</time>
      </trkpt>
      <trkpt lat="47.00878" lon="-1.58305">
        <ele>19</ele>
        <time>2022-04-25T20:36:07Z</time>
      </trkpt>
      <trkpt lat="47.00856" lon="-1.58271">
        <ele>19</ele>
        <time>2022-04-25T20:36:13Z</time>
      </trkpt>
      <trkpt lat="47.00847" lon="-1.58253">
        <ele>19</ele>
        <time>2022-04-25T20:36:16Z</time>
      </trkpt>
      <trkpt lat="47.00757" lon="-1.58104">
        <ele>21</ele>
        <time>2022-04-25T20:36:40Z</time>
      </trkpt>
      <trkpt lat="47.00718" lon="-1.58029">
        <ele>22</ele>
        <time>2022-04-25T20:36:51Z</time>
      </trkpt>
      <trkpt lat="47.0069" lon="-1.57964">
        <ele>23</ele>
        <time>2022-04-25T20:37:01Z</time>
      </trkpt>
      <trkpt lat="47.00671" lon="-1.5791">
        <ele>24</ele>
        <time>2022-04-25T20:37:08Z</time>
      </trkpt>
      <trkpt lat="47.00644" lon="-1.57847">
        <ele>24</ele>
        <time>2022-04-25T20:37:17Z</time>
      </trkpt>
      <trkpt lat="47.00623" lon="-1.57804">
        <ele>23</ele>
        <time>2022-04-25T20:37:23Z</time>
      </trkpt>
      <trkpt lat="47.00541" lon="-1.57667">
        <ele>24</ele>
        <time>2022-04-25T20:37:46Z</time>
      </trkpt>
      <trkpt lat="47.00513" lon="-1.57615">
        <ele>24</ele>
        <time>2022-04-25T20:37:54Z</time>
      </trkpt>
      <trkpt lat="47.005" lon="-1.57585">
        <ele>25</ele>
        <time>2022-04-25T20:37:58Z</time>
      </trkpt>
      <trkpt lat="47.0049" lon="-1.57555">
        <ele>25</ele>
        <time>2022-04-25T20:38:02Z</time>
      </trkpt>
      <trkpt lat="47.0045" lon="-1.57431">
        <ele>24</ele>
        <time>2022-04-25T20:38:19Z</time>
      </trkpt>
      <trkpt lat="47.00432" lon="-1.57389">
        <ele>24</ele>
        <time>2022-04-25T20:38:25Z</time>
      </trkpt>
      <trkpt lat="47.00376" lon="-1.57275">
        <ele>24</ele>
        <time>2022-04-25T20:38:42Z</time>
      </trkpt>
      <trkpt lat="47.00335" lon="-1.57174">
        <ele>25</ele>
        <time>2022-04-25T20:38:56Z</time>
      </trkpt>
      <trkpt lat="47.00311" lon="-1.57106">
        <ele>25</ele>
        <time>2022-04-25T20:39:05Z</time>
      </trkpt>
      <trkpt lat="47.00303" lon="-1.57072">
        <ele>25</ele>
        <time>2022-04-25T20:39:10Z</time>
      </trkpt>
      <trkpt lat="47.00301" lon="-1.57042">
        <ele>25</ele>
        <time>2022-04-25T20:39:13Z</time>
      </trkpt>
      <trkpt lat="47.00303" lon="-1.5698">
        <ele>25</ele>
        <time>2022-04-25T20:39:21Z</time>
      </trkpt>
      <trkpt lat="47.00305" lon="-1.56969">
        <ele>25</ele>
        <time>2022-04-25T20:39:22Z</time>
      </trkpt>
      <trkpt lat="46.99988" lon="-1.56876">
        <ele>27</ele>
        <time>2022-04-25T20:40:20Z</time>
      </trkpt>
      <trkpt lat="46.99949" lon="-1.56867">
        <ele>27</ele>
        <time>2022-04-25T20:40:27Z</time>
      </trkpt>
      <trkpt lat="46.99536" lon="-1.56798">
        <ele>27</ele>
        <time>2022-04-25T20:41:41Z</time>
      </trkpt>
      <trkpt lat="46.99373" lon="-1.56774">
        <ele>28</ele>
        <time>2022-04-25T20:42:10Z</time>
      </trkpt>
      <trkpt lat="46.99355" lon="-1.56773">
        <ele>28</ele>
        <time>2022-04-25T20:42:13Z</time>
      </trkpt>
      <trkpt lat="46.98305" lon="-1.56873">
        <ele>28</ele>
        <time>2022-04-25T20:45:20Z</time>
      </trkpt>
      <trkpt lat="46.979" lon="-1.5691">
        <ele>27</ele>
        <time>2022-04-25T20:46:32Z</time>
      </trkpt>
      <trkpt lat="46.97873" lon="-1.56918">
        <ele>25</ele>
        <time>2022-04-25T20:46:37Z</time>
      </trkpt>
      <trkpt lat="46.97859" lon="-1.56925">
        <ele>25</ele>
        <time>2022-04-25T20:46:40Z</time>
      </trkpt>
      <trkpt lat="46.97786" lon="-1.5697">
        <ele>23</ele>
        <time>2022-04-25T20:46:54Z</time>
      </trkpt>
      <trkpt lat="46.97571" lon="-1.57115">
        <ele>19</ele>
        <time>2022-04-25T20:47:36Z</time>
      </trkpt>
      <trkpt lat="46.97536" lon="-1.5714">
        <ele>19</ele>
        <time>2022-04-25T20:47:43Z</time>
      </trkpt>
      <trkpt lat="46.97505" lon="-1.57159">
        <ele>19</ele>
        <time>2022-04-25T20:47:49Z</time>
      </trkpt>
      <trkpt lat="46.97431" lon="-1.57194">
        <ele>19</ele>
        <time>2022-04-25T20:48:03Z</time>
      </trkpt>
      <trkpt lat="46.97242" lon="-1.57255">
        <ele>18</ele>
        <time>2022-04-25T20:48:37Z</time>
      </trkpt>
      <trkpt lat="46.97232" lon="-1.5726">
        <ele>18</ele>
        <time>2022-04-25T20:48:39Z</time>
      </trkpt>
      <trkpt lat="46.97211" lon="-1.57274">
        <ele>18</ele>
        <time>2022-04-25T20:48:43Z</time>
      </trkpt>
      <trkpt lat="46.9719" lon="-1.57293">
        <ele>18</ele>
        <time>2022-04-25T20:48:48Z</time>
      </trkpt>
      <trkpt lat="46.97183" lon="-1.573">
        <ele>18</ele>
        <time>2022-04-25T20:48:49Z</time>
      </trkpt>
      <trkpt lat="46.97055" lon="-1.57445">
        <ele>22</ele>
        <time>2022-04-25T20:49:18Z</time>
      </trkpt>
      <trkpt lat="46.97058" lon="-1.57456">
        <ele>23</ele>
        <time>2022-04-25T20:49:19Z</time>
      </trkpt>
      <trkpt lat="46.97056" lon="-1.57468">
        <ele>23</ele>
        <time>2022-04-25T20:49:21Z</time>
      </trkpt>
      <trkpt lat="46.97052" lon="-1.57473">
        <ele>24</ele>
        <time>2022-04-25T20:49:22Z</time>
      </trkpt>
      <trkpt lat="46.97048" lon="-1.57475">
        <ele>24</ele>
        <time>2022-04-25T20:49:23Z</time>
      </trkpt>
      <trkpt lat="46.97043" lon="-1.57475">
        <ele>24</ele>
        <time>2022-04-25T20:49:23Z</time>
      </trkpt>
      <trkpt lat="46.97038" lon="-1.57473">
        <ele>24</ele>
        <time>2022-04-25T20:49:24Z</time>
      </trkpt>
      <trkpt lat="46.97035" lon="-1.57468">
        <ele>24</ele>
        <time>2022-04-25T20:49:25Z</time>
      </trkpt>
      <trkpt lat="46.97006" lon="-1.57491">
        <ele>25</ele>
        <time>2022-04-25T20:49:31Z</time>
      </trkpt>
      <trkpt lat="46.96944" lon="-1.57546">
        <ele>26</ele>
        <time>2022-04-25T20:49:44Z</time>
      </trkpt>
      <trkpt lat="46.96922" lon="-1.57559">
        <ele>26</ele>
        <time>2022-04-25T20:49:48Z</time>
      </trkpt>
      <trkpt lat="46.96897" lon="-1.57569">
        <ele>26</ele>
        <time>2022-04-25T20:49:53Z</time>
      </trkpt>
      <trkpt lat="46.96744" lon="-1.57621">
        <ele>24</ele>
        <time>2022-04-25T20:50:21Z</time>
      </trkpt>
      <trkpt lat="46.96611" lon="-1.5769">
        <ele>25</ele>
        <time>2022-04-25T20:50:46Z</time>
      </trkpt>
      <trkpt lat="46.96601" lon="-1.57698">
        <ele>24</ele>
        <time>2022-04-25T20:50:48Z</time>
      </trkpt>
      <trkpt lat="46.96592" lon="-1.57713">
        <ele>24</ele>
        <time>2022-04-25T20:50:50Z</time>
      </trkpt>
      <trkpt lat="46.96585" lon="-1.5772">
        <ele>23</ele>
        <time>2022-04-25T20:50:52Z</time>
      </trkpt>
      <trkpt lat="46.96566" lon="-1.57728">
        <ele>24</ele>
        <time>2022-04-25T20:50:55Z</time>
      </trkpt>
      <trkpt lat="46.96559" lon="-1.57728">
        <ele>25</ele>
        <time>2022-04-25T20:50:57Z</time>
      </trkpt>
      <trkpt lat="46.96556" lon="-1.57734">
        <ele>24</ele>
        <time>2022-04-25T20:50:57Z</time>
      </trkpt>
      <trkpt lat="46.96552" lon="-1.57733">
        <ele>25</ele>
        <time>2022-04-25T20:50:58Z</time>
      </trkpt>
      <trkpt lat="46.96546" lon="-1.57745">
        <ele>25</ele>
        <time>2022-04-25T20:51:00Z</time>
      </trkpt>
      <trkpt lat="46.96477" lon="-1.57785">
        <ele>26</ele>
        <time>2022-04-25T20:51:13Z</time>
      </trkpt>
      <trkpt lat="46.96383" lon="-1.57827">
        <ele>25</ele>
        <time>2022-04-25T20:51:31Z</time>
      </trkpt>
      <trkpt lat="46.96336" lon="-1.57852">
        <ele>25</ele>
        <time>2022-04-25T20:51:40Z</time>
      </trkpt>
      <trkpt lat="46.96254" lon="-1.57917">
        <ele>24</ele>
        <time>2022-04-25T20:51:56Z</time>
      </trkpt>
      <trkpt lat="46.96188" lon="-1.57957">
        <ele>27</ele>
        <time>2022-04-25T20:52:09Z</time>
      </trkpt>
      <trkpt lat="46.96167" lon="-1.57967">
        <ele>26</ele>
        <time>2022-04-25T20:52:13Z</time>
      </trkpt>
      <trkpt lat="46.96099" lon="-1.57989">
        <ele>26</ele>
        <time>2022-04-25T20:52:25Z</time>
      </trkpt>
      <trkpt lat="46.96037" lon="-1.58023">
        <ele>26</ele>
        <time>2022-04-25T20:52:37Z</time>
      </trkpt>
      <trkpt lat="46.95907" lon="-1.58066">
        <ele>24</ele>
        <time>2022-04-25T20:53:01Z</time>
      </trkpt>
      <trkpt lat="46.95881" lon="-1.58078">
        <ele>24</ele>
        <time>2022-04-25T20:53:06Z</time>
      </trkpt>
      <trkpt lat="46.95822" lon="-1.5811">
        <ele>23</ele>
        <time>2022-04-25T20:53:17Z</time>
      </trkpt>
      <trkpt lat="46.95778" lon="-1.58147">
        <ele>23</ele>
        <time>2022-04-25T20:53:26Z</time>
      </trkpt>
      <trkpt lat="46.9575" lon="-1.58174">
        <ele>23</ele>
        <time>2022-04-25T20:53:32Z</time>
      </trkpt>
      <trkpt lat="46.95736" lon="-1.58191">
        <ele>22</ele>
        <time>2022-04-25T20:53:35Z</time>
      </trkpt>
      <trkpt lat="46.95724" lon="-1.58209">
        <ele>22</ele>
        <time>2022-04-25T20:53:38Z</time>
      </trkpt>
      <trkpt lat="46.95691" lon="-1.58277">
        <ele>22</ele>
        <time>2022-04-25T20:53:48Z</time>
      </trkpt>
      <trkpt lat="46.95686" lon="-1.58286">
        <ele>21</ele>
        <time>2022-04-25T20:53:50Z</time>
      </trkpt>
      <trkpt lat="46.95673" lon="-1.58301">
        <ele>21</ele>
        <time>2022-04-25T20:53:53Z</time>
      </trkpt>
      <trkpt lat="46.95665" lon="-1.58306">
        <ele>20</ele>
        <time>2022-04-25T20:53:54Z</time>
      </trkpt>
      <trkpt lat="46.95614" lon="-1.58323">
        <ele>19</ele>
        <time>2022-04-25T20:54:03Z</time>
      </trkpt>
      <trkpt lat="46.95606" lon="-1.58326">
        <ele>19</ele>
        <time>2022-04-25T20:54:05Z</time>
      </trkpt>
      <trkpt lat="46.95547" lon="-1.58354">
        <ele>20</ele>
        <time>2022-04-25T20:54:16Z</time>
      </trkpt>
      <trkpt lat="46.95513" lon="-1.58375">
        <ele>20</ele>
        <time>2022-04-25T20:54:22Z</time>
      </trkpt>
      <trkpt lat="46.95502" lon="-1.58385">
        <ele>20</ele>
        <time>2022-04-25T20:54:25Z</time>
      </trkpt>
      <trkpt lat="46.95492" lon="-1.58394">
        <ele>20</ele>
        <time>2022-04-25T20:54:27Z</time>
      </trkpt>
      <trkpt lat="46.95478" lon="-1.58412">
        <ele>20</ele>
        <time>2022-04-25T20:54:30Z</time>
      </trkpt>
      <trkpt lat="46.9547" lon="-1.58431">
        <ele>21</ele>
        <time>2022-04-25T20:54:33Z</time>
      </trkpt>
      <trkpt lat="46.95467" lon="-1.58449">
        <ele>22</ele>
        <time>2022-04-25T20:54:35Z</time>
      </trkpt>
      <trkpt lat="46.95472" lon="-1.58498">
        <ele>23</ele>
        <time>2022-04-25T20:54:41Z</time>
      </trkpt>
      <trkpt lat="46.95471" lon="-1.58516">
        <ele>24</ele>
        <time>2022-04-25T20:54:43Z</time>
      </trkpt>
      <trkpt lat="46.95467" lon="-1.58531">
        <ele>25</ele>
        <time>2022-04-25T20:54:45Z</time>
      </trkpt>
      <trkpt lat="46.95453" lon="-1.58579">
        <ele>28</ele>
        <time>2022-04-25T20:54:52Z</time>
      </trkpt>
      <trkpt lat="46.95449" lon="-1.58612">
        <ele>30</ele>
        <time>2022-04-25T20:54:56Z</time>
      </trkpt>
      <trkpt lat="46.95451" lon="-1.58763">
        <ele>29</ele>
        <time>2022-04-25T20:55:14Z</time>
      </trkpt>
      <trkpt lat="46.95449" lon="-1.58809">
        <ele>28</ele>
        <time>2022-04-25T20:55:20Z</time>
      </trkpt>
      <trkpt lat="46.9544" lon="-1.58849">
        <ele>28</ele>
        <time>2022-04-25T20:55:25Z</time>
      </trkpt>
      <trkpt lat="46.95429" lon="-1.58873">
        <ele>27</ele>
        <time>2022-04-25T20:55:28Z</time>
      </trkpt>
      <trkpt lat="46.95412" lon="-1.58896">
        <ele>27</ele>
        <time>2022-04-25T20:55:32Z</time>
      </trkpt>
      <trkpt lat="46.95345" lon="-1.58961">
        <ele>30</ele>
        <time>2022-04-25T20:55:47Z</time>
      </trkpt>
      <trkpt lat="46.95328" lon="-1.58974">
        <ele>30</ele>
        <time>2022-04-25T20:55:50Z</time>
      </trkpt>
      <trkpt lat="46.95289" lon="-1.5899">
        <ele>33</ele>
        <time>2022-04-25T20:55:57Z</time>
      </trkpt>
      <trkpt lat="46.95281" lon="-1.58995">
        <ele>33</ele>
        <time>2022-04-25T20:55:59Z</time>
      </trkpt>
      <trkpt lat="46.95266" lon="-1.59007">
        <ele>33</ele>
        <time>2022-04-25T20:56:02Z</time>
      </trkpt>
      <trkpt lat="46.95235" lon="-1.59037">
        <ele>33</ele>
        <time>2022-04-25T20:56:08Z</time>
      </trkpt>
      <trkpt lat="46.95223" lon="-1.59045">
        <ele>34</ele>
        <time>2022-04-25T20:56:11Z</time>
      </trkpt>
      <trkpt lat="46.95195" lon="-1.59059">
        <ele>36</ele>
        <time>2022-04-25T20:56:16Z</time>
      </trkpt>
      <trkpt lat="46.95181" lon="-1.59074">
        <ele>37</ele>
        <time>2022-04-25T20:56:19Z</time>
      </trkpt>
      <trkpt lat="46.95164" lon="-1.59098">
        <ele>39</ele>
        <time>2022-04-25T20:56:23Z</time>
      </trkpt>
      <trkpt lat="46.9515" lon="-1.5911">
        <ele>38</ele>
        <time>2022-04-25T20:56:26Z</time>
      </trkpt>
      <trkpt lat="46.9514" lon="-1.59117">
        <ele>38</ele>
        <time>2022-04-25T20:56:28Z</time>
      </trkpt>
      <trkpt lat="46.95125" lon="-1.59122">
        <ele>38</ele>
        <time>2022-04-25T20:56:31Z</time>
      </trkpt>
      <trkpt lat="46.95085" lon="-1.59122">
        <ele>38</ele>
        <time>2022-04-25T20:56:38Z</time>
      </trkpt>
      <trkpt lat="46.9507" lon="-1.59127">
        <ele>38</ele>
        <time>2022-04-25T20:56:41Z</time>
      </trkpt>
      <trkpt lat="46.95055" lon="-1.59139">
        <ele>38</ele>
        <time>2022-04-25T20:56:44Z</time>
      </trkpt>
      <trkpt lat="46.95045" lon="-1.59152">
        <ele>38</ele>
        <time>2022-04-25T20:56:46Z</time>
      </trkpt>
      <trkpt lat="46.95023" lon="-1.59195">
        <ele>38</ele>
        <time>2022-04-25T20:56:53Z</time>
      </trkpt>
      <trkpt lat="46.95014" lon="-1.59211">
        <ele>38</ele>
        <time>2022-04-25T20:56:55Z</time>
      </trkpt>
      <trkpt lat="46.95003" lon="-1.59224">
        <ele>38</ele>
        <time>2022-04-25T20:56:58Z</time>
      </trkpt>
      <trkpt lat="46.94986" lon="-1.59237">
        <ele>39</ele>
        <time>2022-04-25T20:57:01Z</time>
      </trkpt>
      <trkpt lat="46.94973" lon="-1.59242">
        <ele>39</ele>
        <time>2022-04-25T20:57:04Z</time>
      </trkpt>
      <trkpt lat="46.94957" lon="-1.59243">
        <ele>39</ele>
        <time>2022-04-25T20:57:06Z</time>
      </trkpt>
      <trkpt lat="46.94898" lon="-1.59234">
        <ele>42</ele>
        <time>2022-04-25T20:57:17Z</time>
      </trkpt>
      <trkpt lat="46.94872" lon="-1.59237">
        <ele>42</ele>
        <time>2022-04-25T20:57:22Z</time>
      </trkpt>
      <trkpt lat="46.94852" lon="-1.59243">
        <ele>42</ele>
        <time>2022-04-25T20:57:25Z</time>
      </trkpt>
      <trkpt lat="46.94809" lon="-1.59267">
        <ele>42</ele>
        <time>2022-04-25T20:57:33Z</time>
      </trkpt>
      <trkpt lat="46.94787" lon="-1.59284">
        <ele>42</ele>
        <time>2022-04-25T20:57:38Z</time>
      </trkpt>
      <trkpt lat="46.94767" lon="-1.59306">
        <ele>42</ele>
        <time>2022-04-25T20:57:42Z</time>
      </trkpt>
      <trkpt lat="46.94743" lon="-1.59338">
        <ele>41</ele>
        <time>2022-04-25T20:57:48Z</time>
      </trkpt>
      <trkpt lat="46.94617" lon="-1.59515">
        <ele>46</ele>
        <time>2022-04-25T20:58:19Z</time>
      </trkpt>
      <trkpt lat="46.94573" lon="-1.59571">
        <ele>47</ele>
        <time>2022-04-25T20:58:30Z</time>
      </trkpt>
      <trkpt lat="46.9454" lon="-1.59608">
        <ele>46</ele>
        <time>2022-04-25T20:58:37Z</time>
      </trkpt>
      <trkpt lat="46.94506" lon="-1.5964">
        <ele>46</ele>
        <time>2022-04-25T20:58:44Z</time>
      </trkpt>
      <trkpt lat="46.94488" lon="-1.59655">
        <ele>46</ele>
        <time>2022-04-25T20:58:48Z</time>
      </trkpt>
      <trkpt lat="46.94401" lon="-1.59708">
        <ele>46</ele>
        <time>2022-04-25T20:59:05Z</time>
      </trkpt>
      <trkpt lat="46.94361" lon="-1.5974">
        <ele>45</ele>
        <time>2022-04-25T20:59:13Z</time>
      </trkpt>
      <trkpt lat="46.94334" lon="-1.59767">
        <ele>44</ele>
        <time>2022-04-25T20:59:19Z</time>
      </trkpt>
      <trkpt lat="46.9415" lon="-1.59979">
        <ele>47</ele>
        <time>2022-04-25T21:00:00Z</time>
      </trkpt>
      <trkpt lat="46.94009" lon="-1.60116">
        <ele>48</ele>
        <time>2022-04-25T21:00:30Z</time>
      </trkpt>
      <trkpt lat="46.9385" lon="-1.60259">
        <ele>49</ele>
        <time>2022-04-25T21:01:03Z</time>
      </trkpt>
      <trkpt lat="46.93823" lon="-1.60282">
        <ele>49</ele>
        <time>2022-04-25T21:01:09Z</time>
      </trkpt>
      <trkpt lat="46.93806" lon="-1.60292">
        <ele>49</ele>
        <time>2022-04-25T21:01:12Z</time>
      </trkpt>
      <trkpt lat="46.93782" lon="-1.60299">
        <ele>49</ele>
        <time>2022-04-25T21:01:17Z</time>
      </trkpt>
      <trkpt lat="46.93591" lon="-1.60313">
        <ele>50</ele>
        <time>2022-04-25T21:01:51Z</time>
      </trkpt>
      <trkpt lat="46.93565" lon="-1.6032">
        <ele>50</ele>
        <time>2022-04-25T21:01:55Z</time>
      </trkpt>
      <trkpt lat="46.93454" lon="-1.60369">
        <ele>49</ele>
        <time>2022-04-25T21:02:16Z</time>
      </trkpt>
      <trkpt lat="46.93433" lon="-1.60372">
        <ele>49</ele>
        <time>2022-04-25T21:02:20Z</time>
      </trkpt>
      <trkpt lat="46.93403" lon="-1.60367">
        <ele>49</ele>
        <time>2022-04-25T21:02:25Z</time>
      </trkpt>
      <trkpt lat="46.93148" lon="-1.60298">
        <ele>47</ele>
        <time>2022-04-25T21:03:11Z</time>
      </trkpt>
      <trkpt lat="46.9313" lon="-1.60295">
        <ele>47</ele>
        <time>2022-04-25T21:03:15Z</time>
      </trkpt>
      <trkpt lat="46.93108" lon="-1.60297">
        <ele>47</ele>
        <time>2022-04-25T21:03:18Z</time>
      </trkpt>
      <trkpt lat="46.92934" lon="-1.60331">
        <ele>42</ele>
        <time>2022-04-25T21:03:50Z</time>
      </trkpt>
      <trkpt lat="46.92836" lon="-1.60344">
        <ele>41</ele>
        <time>2022-04-25T21:04:07Z</time>
      </trkpt>
      <trkpt lat="46.92792" lon="-1.60339">
        <ele>40</ele>
        <time>2022-04-25T21:04:15Z</time>
      </trkpt>
      <trkpt lat="46.92502" lon="-1.60268">
        <ele>31</ele>
        <time>2022-04-25T21:05:07Z</time>
      </trkpt>
      <trkpt lat="46.92458" lon="-1.6025">
        <ele>30</ele>
        <time>2022-04-25T21:05:15Z</time>
      </trkpt>
      <trkpt lat="46.92436" lon="-1.60236">
        <ele>29</ele>
        <time>2022-04-25T21:05:20Z</time>
      </trkpt>
      <trkpt lat="46.92341" lon="-1.60164">
        <ele>29</ele>
        <time>2022-04-25T21:05:39Z</time>
      </trkpt>
      <trkpt lat="46.92211" lon="-1.6006">
        <ele>31</ele>
        <time>2022-04-25T21:06:05Z</time>
      </trkpt>
      <trkpt lat="46.92192" lon="-1.60042">
        <ele>30</ele>
        <time>2022-04-25T21:06:09Z</time>
      </trkpt>
      <trkpt lat="46.92177" lon="-1.60021">
        <ele>29</ele>
        <time>2022-04-25T21:06:13Z</time>
      </trkpt>
      <trkpt lat="46.92166" lon="-1.6">
        <ele>28</ele>
        <time>2022-04-25T21:06:16Z</time>
      </trkpt>
      <trkpt lat="46.92155" lon="-1.59979">
        <ele>29</ele>
        <time>2022-04-25T21:06:19Z</time>
      </trkpt>
      <trkpt lat="46.92145" lon="-1.59965">
        <ele>29</ele>
        <time>2022-04-25T21:06:22Z</time>
      </trkpt>
      <trkpt lat="46.92136" lon="-1.59959">
        <ele>29</ele>
        <time>2022-04-25T21:06:24Z</time>
      </trkpt>
      <trkpt lat="46.92119" lon="-1.59956">
        <ele>30</ele>
        <time>2022-04-25T21:06:27Z</time>
      </trkpt>
      <trkpt lat="46.92061" lon="-1.5996">
        <ele>30</ele>
        <time>2022-04-25T21:06:37Z</time>
      </trkpt>
      <trkpt lat="46.91919" lon="-1.59964">
        <ele>35</ele>
        <time>2022-04-25T21:07:02Z</time>
      </trkpt>
      <trkpt lat="46.91897" lon="-1.59968">
        <ele>36</ele>
        <time>2022-04-25T21:07:06Z</time>
      </trkpt>
      <trkpt lat="46.91857" lon="-1.59984">
        <ele>37</ele>
        <time>2022-04-25T21:07:13Z</time>
      </trkpt>
      <trkpt lat="46.91773" lon="-1.60026">
        <ele>37</ele>
        <time>2022-04-25T21:07:29Z</time>
      </trkpt>
      <trkpt lat="46.91718" lon="-1.6007">
        <ele>36</ele>
        <time>2022-04-25T21:07:40Z</time>
      </trkpt>
      <trkpt lat="46.91609" lon="-1.60167">
        <ele>34</ele>
        <time>2022-04-25T21:08:03Z</time>
      </trkpt>
      <trkpt lat="46.91593" lon="-1.60178">
        <ele>34</ele>
        <time>2022-04-25T21:08:06Z</time>
      </trkpt>
      <trkpt lat="46.91575" lon="-1.60185">
        <ele>34</ele>
        <time>2022-04-25T21:08:10Z</time>
      </trkpt>
      <trkpt lat="46.91552" lon="-1.6019">
        <ele>33</ele>
        <time>2022-04-25T21:08:14Z</time>
      </trkpt>
      <trkpt lat="46.91489" lon="-1.60195">
        <ele>31</ele>
        <time>2022-04-25T21:08:25Z</time>
      </trkpt>
      <trkpt lat="46.9146" lon="-1.60192">
        <ele>30</ele>
        <time>2022-04-25T21:08:30Z</time>
      </trkpt>
      <trkpt lat="46.9142" lon="-1.60178">
        <ele>28</ele>
        <time>2022-04-25T21:08:37Z</time>
      </trkpt>
      <trkpt lat="46.9141" lon="-1.60175">
        <ele>28</ele>
        <time>2022-04-25T21:08:39Z</time>
      </trkpt>
      <trkpt lat="46.91194" lon="-1.60105">
        <ele>31</ele>
        <time>2022-04-25T21:09:19Z</time>
      </trkpt>
      <trkpt lat="46.91075" lon="-1.60086">
        <ele>33</ele>
        <time>2022-04-25T21:09:40Z</time>
      </trkpt>
      <trkpt lat="46.91031" lon="-1.60069">
        <ele>34</ele>
        <time>2022-04-25T21:09:48Z</time>
      </trkpt>
      <trkpt lat="46.90982" lon="-1.60045">
        <ele>35</ele>
        <time>2022-04-25T21:09:57Z</time>
      </trkpt>
      <trkpt lat="46.90942" lon="-1.60031">
        <ele>35</ele>
        <time>2022-04-25T21:10:05Z</time>
      </trkpt>
      <trkpt lat="46.90921" lon="-1.60028">
        <ele>35</ele>
        <time>2022-04-25T21:10:08Z</time>
      </trkpt>
      <trkpt lat="46.90872" lon="-1.60028">
        <ele>33</ele>
        <time>2022-04-25T21:10:17Z</time>
      </trkpt>
      <trkpt lat="46.90859" lon="-1.60031">
        <ele>33</ele>
        <time>2022-04-25T21:10:19Z</time>
      </trkpt>
      <trkpt lat="46.90806" lon="-1.60045">
        <ele>32</ele>
        <time>2022-04-25T21:10:29Z</time>
      </trkpt>
      <trkpt lat="46.90771" lon="-1.60062">
        <ele>31</ele>
        <time>2022-04-25T21:10:35Z</time>
      </trkpt>
      <trkpt lat="46.90748" lon="-1.60068">
        <ele>31</ele>
        <time>2022-04-25T21:10:40Z</time>
      </trkpt>
      <trkpt lat="46.90677" lon="-1.60075">
        <ele>33</ele>
        <time>2022-04-25T21:10:52Z</time>
      </trkpt>
      <trkpt lat="46.90638" lon="-1.60081">
        <ele>34</ele>
        <time>2022-04-25T21:10:59Z</time>
      </trkpt>
      <trkpt lat="46.90566" lon="-1.60107">
        <ele>33</ele>
        <time>2022-04-25T21:11:12Z</time>
      </trkpt>
      <trkpt lat="46.90525" lon="-1.60115">
        <ele>33</ele>
        <time>2022-04-25T21:11:20Z</time>
      </trkpt>
      <trkpt lat="46.90502" lon="-1.60115">
        <ele>33</ele>
        <time>2022-04-25T21:11:24Z</time>
      </trkpt>
      <trkpt lat="46.90269" lon="-1.60098">
        <ele>32</ele>
        <time>2022-04-25T21:12:05Z</time>
      </trkpt>
      <trkpt lat="46.90226" lon="-1.60091">
        <ele>32</ele>
        <time>2022-04-25T21:12:13Z</time>
      </trkpt>
      <trkpt lat="46.90198" lon="-1.60083">
        <ele>33</ele>
        <time>2022-04-25T21:12:18Z</time>
      </trkpt>
      <trkpt lat="46.90116" lon="-1.60048">
        <ele>34</ele>
        <time>2022-04-25T21:12:33Z</time>
      </trkpt>
      <trkpt lat="46.90061" lon="-1.6002">
        <ele>34</ele>
        <time>2022-04-25T21:12:44Z</time>
      </trkpt>
      <trkpt lat="46.90017" lon="-1.60007">
        <ele>34</ele>
        <time>2022-04-25T21:12:52Z</time>
      </trkpt>
      <trkpt lat="46.89961" lon="-1.59995">
        <ele>33</ele>
        <time>2022-04-25T21:13:02Z</time>
      </trkpt>
      <trkpt lat="46.89911" lon="-1.59992">
        <ele>31</ele>
        <time>2022-04-25T21:13:11Z</time>
      </trkpt>
      <trkpt lat="46.89885" lon="-1.59994">
        <ele>30</ele>
        <time>2022-04-25T21:13:15Z</time>
      </trkpt>
      <trkpt lat="46.89863" lon="-1.59999">
        <ele>30</ele>
        <time>2022-04-25T21:13:19Z</time>
      </trkpt>
      <trkpt lat="46.8985" lon="-1.60005">
        <ele>29</ele>
        <time>2022-04-25T21:13:22Z</time>
      </trkpt>
      <trkpt lat="46.89839" lon="-1.6001">
        <ele>29</ele>
        <time>2022-04-25T21:13:24Z</time>
      </trkpt>
      <trkpt lat="46.89768" lon="-1.60042">
        <ele>31</ele>
        <time>2022-04-25T21:13:37Z</time>
      </trkpt>
      <trkpt lat="46.89733" lon="-1.60052">
        <ele>31</ele>
        <time>2022-04-25T21:13:43Z</time>
      </trkpt>
      <trkpt lat="46.89381" lon="-1.60105">
        <ele>31</ele>
        <time>2022-04-25T21:14:46Z</time>
      </trkpt>
      <trkpt lat="46.89202" lon="-1.60121">
        <ele>31</ele>
        <time>2022-04-25T21:15:18Z</time>
      </trkpt>
      <trkpt lat="46.89189" lon="-1.60123">
        <ele>31</ele>
        <time>2022-04-25T21:15:21Z</time>
      </trkpt>
      <trkpt lat="46.89172" lon="-1.60133">
        <ele>31</ele>
        <time>2022-04-25T21:15:24Z</time>
      </trkpt>
      <trkpt lat="46.89163" lon="-1.60142">
        <ele>31</ele>
        <time>2022-04-25T21:15:26Z</time>
      </trkpt>
      <trkpt lat="46.89155" lon="-1.60154">
        <ele>31</ele>
        <time>2022-04-25T21:15:28Z</time>
      </trkpt>
      <trkpt lat="46.89149" lon="-1.60157">
        <ele>31</ele>
        <time>2022-04-25T21:15:29Z</time>
      </trkpt>
      <trkpt lat="46.89142" lon="-1.60158">
        <ele>31</ele>
        <time>2022-04-25T21:15:30Z</time>
      </trkpt>
      <trkpt lat="46.89135" lon="-1.60156">
        <ele>31</ele>
        <time>2022-04-25T21:15:31Z</time>
      </trkpt>
      <trkpt lat="46.8913" lon="-1.6015">
        <ele>32</ele>
        <time>2022-04-25T21:15:33Z</time>
      </trkpt>
      <trkpt lat="46.89123" lon="-1.60136">
        <ele>32</ele>
        <time>2022-04-25T21:15:35Z</time>
      </trkpt>
      <trkpt lat="46.89117" lon="-1.60127">
        <ele>32</ele>
        <time>2022-04-25T21:15:36Z</time>
      </trkpt>
      <trkpt lat="46.89094" lon="-1.60113">
        <ele>32</ele>
        <time>2022-04-25T21:15:41Z</time>
      </trkpt>
      <trkpt lat="46.88848" lon="-1.60061">
        <ele>37</ele>
        <time>2022-04-25T21:16:25Z</time>
      </trkpt>
      <trkpt lat="46.88829" lon="-1.60056">
        <ele>37</ele>
        <time>2022-04-25T21:16:28Z</time>
      </trkpt>
      <trkpt lat="46.88804" lon="-1.60045">
        <ele>38</ele>
        <time>2022-04-25T21:16:33Z</time>
      </trkpt>
      <trkpt lat="46.88764" lon="-1.60022">
        <ele>39</ele>
        <time>2022-04-25T21:16:41Z</time>
      </trkpt>
      <trkpt lat="46.88688" lon="-1.59962">
        <ele>42</ele>
        <time>2022-04-25T21:16:56Z</time>
      </trkpt>
      <trkpt lat="46.88606" lon="-1.59893">
        <ele>46</ele>
        <time>2022-04-25T21:17:13Z</time>
      </trkpt>
      <trkpt lat="46.88558" lon="-1.59856">
        <ele>49</ele>
        <time>2022-04-25T21:17:22Z</time>
      </trkpt>
      <trkpt lat="46.8854" lon="-1.59873">
        <ele>50</ele>
        <time>2022-04-25T21:17:26Z</time>
      </trkpt>
      <trkpt lat="46.88519" lon="-1.59888">
        <ele>51</ele>
        <time>2022-04-25T21:17:30Z</time>
      </trkpt>
      <trkpt lat="46.88511" lon="-1.59798">
        <ele>53</ele>
        <time>2022-04-25T21:17:41Z</time>
      </trkpt>
      <trkpt lat="46.88471" lon="-1.59698">
        <ele>52</ele>
        <time>2022-04-25T21:17:56Z</time>
      </trkpt>
      <trkpt lat="46.88468" lon="-1.59668">
        <ele>52</ele>
        <time>2022-04-25T21:17:59Z</time>
      </trkpt>
      <trkpt lat="46.8847" lon="-1.59658">
        <ele>52</ele>
        <time>2022-04-25T21:18:01Z</time>
      </trkpt>
      <trkpt lat="46.88475" lon="-1.59646">
        <ele>51</ele>
        <time>2022-04-25T21:18:02Z</time>
      </trkpt>
      <trkpt lat="46.88485" lon="-1.59634">
        <ele>51</ele>
        <time>2022-04-25T21:18:05Z</time>
      </trkpt>
      <trkpt lat="46.8858" lon="-1.59545">
        <ele>46</ele>
        <time>2022-04-25T21:18:25Z</time>
      </trkpt>
      <trkpt lat="46.88587" lon="-1.59535">
        <ele>46</ele>
        <time>2022-04-25T21:18:26Z</time>
      </trkpt>
      <trkpt lat="46.88579" lon="-1.59512">
        <ele>44</ele>
        <time>2022-04-25T21:18:29Z</time>
      </trkpt>
      <trkpt lat="46.88552" lon="-1.59453">
        <ele>41</ele>
        <time>2022-04-25T21:18:38Z</time>
      </trkpt>
      <trkpt lat="46.88488" lon="-1.59314">
        <ele>35</ele>
        <time>2022-04-25T21:18:58Z</time>
      </trkpt>
      <trkpt lat="46.88247" lon="-1.58773">
        <ele>38</ele>
        <time>2022-04-25T21:20:17Z</time>
      </trkpt>
      <trkpt lat="46.88241" lon="-1.58776">
        <ele>38</ele>
        <time>2022-04-25T21:20:18Z</time>
      </trkpt>
      <trkpt lat="46.88236" lon="-1.58775">
        <ele>38</ele>
        <time>2022-04-25T21:20:19Z</time>
      </trkpt>
      <trkpt lat="46.88232" lon="-1.5877">
        <ele>38</ele>
        <time>2022-04-25T21:20:20Z</time>
      </trkpt>
      <trkpt lat="46.8823" lon="-1.58762">
        <ele>38</ele>
        <time>2022-04-25T21:20:21Z</time>
      </trkpt>
      <trkpt lat="46.88231" lon="-1.58754">
        <ele>38</ele>
        <time>2022-04-25T21:20:22Z</time>
      </trkpt>
      <trkpt lat="46.88235" lon="-1.58748">
        <ele>38</ele>
        <time>2022-04-25T21:20:23Z</time>
      </trkpt>
      <trkpt lat="46.88079" lon="-1.584">
        <ele>34</ele>
        <time>2022-04-25T21:21:14Z</time>
      </trkpt>
      <trkpt lat="46.88072" lon="-1.58385">
        <ele>34</ele>
        <time>2022-04-25T21:21:16Z</time>
      </trkpt>
      <trkpt lat="46.87545" lon="-1.57201">
        <ele>39</ele>
        <time>2022-04-25T21:24:08Z</time>
      </trkpt>
      <trkpt lat="46.87017" lon="-1.56026">
        <ele>52</ele>
        <time>2022-04-25T21:26:59Z</time>
      </trkpt>
      <trkpt lat="46.86791" lon="-1.5552">
        <ele>56</ele>
        <time>2022-04-25T21:28:12Z</time>
      </trkpt>
      <trkpt lat="46.86745" lon="-1.55415">
        <ele>58</ele>
        <time>2022-04-25T21:28:27Z</time>
      </trkpt>
      <trkpt lat="46.86676" lon="-1.55241">
        <ele>58</ele>
        <time>2022-04-25T21:28:52Z</time>
      </trkpt>
      <trkpt lat="46.86074" lon="-1.53688">
        <ele>64</ele>
        <time>2022-04-25T21:32:29Z</time>
      </trkpt>
      <trkpt lat="46.85737" lon="-1.52844">
        <ele>60</ele>
        <time>2022-04-25T21:34:28Z</time>
      </trkpt>
      <trkpt lat="46.85339" lon="-1.51868">
        <ele>63</ele>
        <time>2022-04-25T21:36:46Z</time>
      </trkpt>
      <trkpt lat="46.85158" lon="-1.51437">
        <ele>64</ele>
        <time>2022-04-25T21:37:48Z</time>
      </trkpt>
      <trkpt lat="46.84712" lon="-1.50383">
        <ele>67</ele>
        <time>2022-04-25T21:40:19Z</time>
      </trkpt>
      <trkpt lat="46.84704" lon="-1.50363">
        <ele>67</ele>
        <time>2022-04-25T21:40:21Z</time>
      </trkpt>
      <trkpt lat="46.84695" lon="-1.50342">
        <ele>67</ele>
        <time>2022-04-25T21:40:24Z</time>
      </trkpt>
      <trkpt lat="46.84658" lon="-1.50256">
        <ele>69</ele>
        <time>2022-04-25T21:40:37Z</time>
      </trkpt>
      <trkpt lat="46.84651" lon="-1.50257">
        <ele>69</ele>
        <time>2022-04-25T21:40:38Z</time>
      </trkpt>
      <trkpt lat="46.84646" lon="-1.50252">
        <ele>69</ele>
        <time>2022-04-25T21:40:39Z</time>
      </trkpt>
      <trkpt lat="46.84646" lon="-1.50242">
        <ele>69</ele>
        <time>2022-04-25T21:40:40Z</time>
      </trkpt>
      <trkpt lat="46.84648" lon="-1.50236">
        <ele>69</ele>
        <time>2022-04-25T21:40:41Z</time>
      </trkpt>
      <trkpt lat="46.84616" lon="-1.50158">
        <ele>70</ele>
        <time>2022-04-25T21:40:52Z</time>
      </trkpt>
      <trkpt lat="46.84524" lon="-1.49945">
        <ele>70</ele>
        <time>2022-04-25T21:41:23Z</time>
      </trkpt>
      <trkpt lat="46.84323" lon="-1.49472">
        <ele>67</ele>
        <time>2022-04-25T21:42:31Z</time>
      </trkpt>
      <trkpt lat="46.8431" lon="-1.49437">
        <ele>67</ele>
        <time>2022-04-25T21:42:36Z</time>
      </trkpt>
      <trkpt lat="46.84311" lon="-1.49418">
        <ele>66</ele>
        <time>2022-04-25T21:42:38Z</time>
      </trkpt>
      <trkpt lat="46.84298" lon="-1.49409">
        <ele>66</ele>
        <time>2022-04-25T21:42:40Z</time>
      </trkpt>
      <trkpt lat="46.84261" lon="-1.49374">
        <ele>66</ele>
        <time>2022-04-25T21:42:48Z</time>
      </trkpt>
      <trkpt lat="46.84154" lon="-1.4926">
        <ele>67</ele>
        <time>2022-04-25T21:43:12Z</time>
      </trkpt>
      <trkpt lat="46.84159" lon="-1.49249">
        <ele>67</ele>
        <time>2022-04-25T21:43:13Z</time>
      </trkpt>
      <trkpt lat="46.84165" lon="-1.49242">
        <ele>67</ele>
        <time>2022-04-25T21:43:15Z</time>
      </trkpt>
      <trkpt lat="46.84194" lon="-1.49231">
        <ele>67</ele>
        <time>2022-04-25T21:43:20Z</time>
      </trkpt>
      <trkpt lat="46.84241" lon="-1.49216">
        <ele>67</ele>
        <time>2022-04-25T21:43:29Z</time>
      </trkpt>
      <trkpt lat="46.84273" lon="-1.49216">
        <ele>67</ele>
        <time>2022-04-25T21:43:34Z</time>
      </trkpt>
      <trkpt lat="46.84316" lon="-1.49208">
        <ele>66</ele>
        <time>2022-04-25T21:43:42Z</time>
      </trkpt>
      <trkpt lat="46.84322" lon="-1.49206">
        <ele>65</ele>
        <time>2022-04-25T21:43:43Z</time>
      </trkpt>
      <trkpt lat="46.8433" lon="-1.49181">
        <ele>65</ele>
        <time>2022-04-25T21:43:47Z</time>
      </trkpt>
      <trkpt lat="46.84344" lon="-1.49118">
        <ele>66</ele>
        <time>2022-04-25T21:43:55Z</time>
      </trkpt>
      <trkpt lat="46.84346" lon="-1.49035">
        <ele>66</ele>
        <time>2022-04-25T21:44:05Z</time>
      </trkpt>
      <trkpt lat="46.84359" lon="-1.48965">
        <ele>65</ele>
        <time>2022-04-25T21:44:14Z</time>
      </trkpt>
      <trkpt lat="46.8437" lon="-1.48881">
        <ele>63</ele>
        <time>2022-04-25T21:44:24Z</time>
      </trkpt>
      <trkpt lat="46.84384" lon="-1.48786">
        <ele>61</ele>
        <time>2022-04-25T21:44:36Z</time>
      </trkpt>
      <trkpt lat="46.84389" lon="-1.48761">
        <ele>60</ele>
        <time>2022-04-25T21:44:39Z</time>
      </trkpt>
      <trkpt lat="46.844" lon="-1.48723">
        <ele>60</ele>
        <time>2022-04-25T21:44:44Z</time>
      </trkpt>
      <trkpt lat="46.84426" lon="-1.48644">
        <ele>61</ele>
        <time>2022-04-25T21:44:55Z</time>
      </trkpt>
      <trkpt lat="46.8444" lon="-1.48594">
        <ele>63</ele>
        <time>2022-04-25T21:45:01Z</time>
      </trkpt>
      <trkpt lat="46.84446" lon="-1.48535">
        <ele>65</ele>
        <time>2022-04-25T21:45:08Z</time>
      </trkpt>
      <trkpt lat="46.84444" lon="-1.485">
        <ele>66</ele>
        <time>2022-04-25T21:45:13Z</time>
      </trkpt>
      <trkpt lat="46.84437" lon="-1.48471">
        <ele>66</ele>
        <time>2022-04-25T21:45:16Z</time>
      </trkpt>
      <trkpt lat="46.84418" lon="-1.48406">
        <ele>66</ele>
        <time>2022-04-25T21:45:25Z</time>
      </trkpt>
      <trkpt lat="46.84363" lon="-1.48229">
        <ele>65</ele>
        <time>2022-04-25T21:45:49Z</time>
      </trkpt>
      <trkpt lat="46.84347" lon="-1.48188">
        <ele>65</ele>
        <time>2022-04-25T21:45:54Z</time>
      </trkpt>
      <trkpt lat="46.84305" lon="-1.48099">
        <ele>67</ele>
        <time>2022-04-25T21:46:08Z</time>
      </trkpt>
      <trkpt lat="46.84294" lon="-1.48065">
        <ele>67</ele>
        <time>2022-04-25T21:46:12Z</time>
      </trkpt>
      <trkpt lat="46.84285" lon="-1.48015">
        <ele>66</ele>
        <time>2022-04-25T21:46:18Z</time>
      </trkpt>
      <trkpt lat="46.84273" lon="-1.47917">
        <ele>68</ele>
        <time>2022-04-25T21:46:31Z</time>
      </trkpt>
      <trkpt lat="46.8425" lon="-1.47818">
        <ele>71</ele>
        <time>2022-04-25T21:46:43Z</time>
      </trkpt>
      <trkpt lat="46.8424" lon="-1.47764">
        <ele>70</ele>
        <time>2022-04-25T21:46:50Z</time>
      </trkpt>
      <trkpt lat="46.8423" lon="-1.47634">
        <ele>67</ele>
        <time>2022-04-25T21:47:06Z</time>
      </trkpt>
      <trkpt lat="46.84205" lon="-1.47435">
        <ele>66</ele>
        <time>2022-04-25T21:47:31Z</time>
      </trkpt>
      <trkpt lat="46.84183" lon="-1.47334">
        <ele>68</ele>
        <time>2022-04-25T21:47:44Z</time>
      </trkpt>
      <trkpt lat="46.84173" lon="-1.47299">
        <ele>67</ele>
        <time>2022-04-25T21:47:48Z</time>
      </trkpt>
      <trkpt lat="46.8416" lon="-1.47257">
        <ele>67</ele>
        <time>2022-04-25T21:47:54Z</time>
      </trkpt>
      <trkpt lat="46.84138" lon="-1.47214">
        <ele>68</ele>
        <time>2022-04-25T21:48:00Z</time>
      </trkpt>
      <trkpt lat="46.84127" lon="-1.47195">
        <ele>68</ele>
        <time>2022-04-25T21:48:03Z</time>
      </trkpt>
      <trkpt lat="46.84068" lon="-1.47114">
        <ele>69</ele>
        <time>2022-04-25T21:48:18Z</time>
      </trkpt>
      <trkpt lat="46.83957" lon="-1.46911">
        <ele>69</ele>
        <time>2022-04-25T21:48:49Z</time>
      </trkpt>
      <trkpt lat="46.83914" lon="-1.46827">
        <ele>70</ele>
        <time>2022-04-25T21:49:02Z</time>
      </trkpt>
      <trkpt lat="46.83899" lon="-1.46786">
        <ele>69</ele>
        <time>2022-04-25T21:49:08Z</time>
      </trkpt>
      <trkpt lat="46.83888" lon="-1.46736">
        <ele>69</ele>
        <time>2022-04-25T21:49:14Z</time>
      </trkpt>
      <trkpt lat="46.83886" lon="-1.46698">
        <ele>69</ele>
        <time>2022-04-25T21:49:19Z</time>
      </trkpt>
      <trkpt lat="46.83889" lon="-1.46575">
        <ele>69</ele>
        <time>2022-04-25T21:49:34Z</time>
      </trkpt>
      <trkpt lat="46.83889" lon="-1.46535">
        <ele>70</ele>
        <time>2022-04-25T21:49:39Z</time>
      </trkpt>
      <trkpt lat="46.83884" lon="-1.46501">
        <ele>70</ele>
        <time>2022-04-25T21:49:43Z</time>
      </trkpt>
      <trkpt lat="46.83808" lon="-1.46189">
        <ele>67</ele>
        <time>2022-04-25T21:50:23Z</time>
      </trkpt>
      <trkpt lat="46.83803" lon="-1.46155">
        <ele>67</ele>
        <time>2022-04-25T21:50:27Z</time>
      </trkpt>
      <trkpt lat="46.83798" lon="-1.46113">
        <ele>66</ele>
        <time>2022-04-25T21:50:33Z</time>
      </trkpt>
      <trkpt lat="46.83791" lon="-1.45864">
        <ele>66</ele>
        <time>2022-04-25T21:51:03Z</time>
      </trkpt>
      <trkpt lat="46.83793" lon="-1.45838">
        <ele>67</ele>
        <time>2022-04-25T21:51:06Z</time>
      </trkpt>
      <trkpt lat="46.83796" lon="-1.45826">
        <ele>67</ele>
        <time>2022-04-25T21:51:08Z</time>
      </trkpt>
      <trkpt lat="46.83798" lon="-1.45815">
        <ele>67</ele>
        <time>2022-04-25T21:51:09Z</time>
      </trkpt>
      <trkpt lat="46.83807" lon="-1.45797">
        <ele>66</ele>
        <time>2022-04-25T21:51:12Z</time>
      </trkpt>
      <trkpt lat="46.83825" lon="-1.45771">
        <ele>66</ele>
        <time>2022-04-25T21:51:16Z</time>
      </trkpt>
      <trkpt lat="46.8389" lon="-1.45698">
        <ele>64</ele>
        <time>2022-04-25T21:51:31Z</time>
      </trkpt>
      <trkpt lat="46.83921" lon="-1.45655">
        <ele>63</ele>
        <time>2022-04-25T21:51:39Z</time>
      </trkpt>
      <trkpt lat="46.83931" lon="-1.45636">
        <ele>62</ele>
        <time>2022-04-25T21:51:41Z</time>
      </trkpt>
      <trkpt lat="46.83942" lon="-1.45607">
        <ele>61</ele>
        <time>2022-04-25T21:51:46Z</time>
      </trkpt>
      <trkpt lat="46.83952" lon="-1.45576">
        <ele>60</ele>
        <time>2022-04-25T21:51:50Z</time>
      </trkpt>
      <trkpt lat="46.8396" lon="-1.45544">
        <ele>57</ele>
        <time>2022-04-25T21:51:54Z</time>
      </trkpt>
      <trkpt lat="46.83981" lon="-1.454">
        <ele>49</ele>
        <time>2022-04-25T21:52:12Z</time>
      </trkpt>
      <trkpt lat="46.84008" lon="-1.45273">
        <ele>45</ele>
        <time>2022-04-25T21:52:28Z</time>
      </trkpt>
      <trkpt lat="46.8402" lon="-1.45215">
        <ele>47</ele>
        <time>2022-04-25T21:52:35Z</time>
      </trkpt>
      <trkpt lat="46.84052" lon="-1.45068">
        <ele>57</ele>
        <time>2022-04-25T21:52:54Z</time>
      </trkpt>
      <trkpt lat="46.84057" lon="-1.45051">
        <ele>58</ele>
        <time>2022-04-25T21:52:56Z</time>
      </trkpt>
      <trkpt lat="46.8407" lon="-1.45022">
        <ele>58</ele>
        <time>2022-04-25T21:53:01Z</time>
      </trkpt>
      <trkpt lat="46.8409" lon="-1.44991">
        <ele>59</ele>
        <time>2022-04-25T21:53:06Z</time>
      </trkpt>
      <trkpt lat="46.84126" lon="-1.44946">
        <ele>61</ele>
        <time>2022-04-25T21:53:14Z</time>
      </trkpt>
      <trkpt lat="46.84142" lon="-1.44918">
        <ele>62</ele>
        <time>2022-04-25T21:53:19Z</time>
      </trkpt>
      <trkpt lat="46.84148" lon="-1.44904">
        <ele>62</ele>
        <time>2022-04-25T21:53:21Z</time>
      </trkpt>
      <trkpt lat="46.84156" lon="-1.44867">
        <ele>63</ele>
        <time>2022-04-25T21:53:25Z</time>
      </trkpt>
      <trkpt lat="46.84157" lon="-1.44852">
        <ele>64</ele>
        <time>2022-04-25T21:53:27Z</time>
      </trkpt>
      <trkpt lat="46.84156" lon="-1.44837">
        <ele>64</ele>
        <time>2022-04-25T21:53:29Z</time>
      </trkpt>
      <trkpt lat="46.84152" lon="-1.44814">
        <ele>65</ele>
        <time>2022-04-25T21:53:32Z</time>
      </trkpt>
      <trkpt lat="46.84145" lon="-1.44792">
        <ele>66</ele>
        <time>2022-04-25T21:53:35Z</time>
      </trkpt>
      <trkpt lat="46.84131" lon="-1.44756">
        <ele>67</ele>
        <time>2022-04-25T21:53:40Z</time>
      </trkpt>
      <trkpt lat="46.84094" lon="-1.44685">
        <ele>69</ele>
        <time>2022-04-25T21:53:51Z</time>
      </trkpt>
      <trkpt lat="46.84075" lon="-1.44635">
        <ele>71</ele>
        <time>2022-04-25T21:53:58Z</time>
      </trkpt>
      <trkpt lat="46.84065" lon="-1.44603">
        <ele>72</ele>
        <time>2022-04-25T21:54:02Z</time>
      </trkpt>
      <trkpt lat="46.84065" lon="-1.44582">
        <ele>73</ele>
        <time>2022-04-25T21:54:05Z</time>
      </trkpt>
      <trkpt lat="46.84072" lon="-1.44561">
        <ele>72</ele>
        <time>2022-04-25T21:54:07Z</time>
      </trkpt>
      <trkpt lat="46.84135" lon="-1.44403">
        <ele>75</ele>
        <time>2022-04-25T21:54:30Z</time>
      </trkpt>
      <trkpt lat="46.8418" lon="-1.44279">
        <ele>79</ele>
        <time>2022-04-25T21:54:47Z</time>
      </trkpt>
      <trkpt lat="46.84188" lon="-1.44248">
        <ele>78</ele>
        <time>2022-04-25T21:54:51Z</time>
      </trkpt>
      <trkpt lat="46.84193" lon="-1.44219">
        <ele>78</ele>
        <time>2022-04-25T21:54:54Z</time>
      </trkpt>
      <trkpt lat="46.84191" lon="-1.44178">
        <ele>78</ele>
        <time>2022-04-25T21:54:59Z</time>
      </trkpt>
      <trkpt lat="46.84054" lon="-1.43694">
        <ele>77</ele>
        <time>2022-04-25T21:56:03Z</time>
      </trkpt>
      <trkpt lat="46.84039" lon="-1.43629">
        <ele>77</ele>
        <time>2022-04-25T21:56:12Z</time>
      </trkpt>
      <trkpt lat="46.84032" lon="-1.43581">
        <ele>76</ele>
        <time>2022-04-25T21:56:17Z</time>
      </trkpt>
      <trkpt lat="46.84022" lon="-1.43465">
        <ele>78</ele>
        <time>2022-04-25T21:56:32Z</time>
      </trkpt>
      <trkpt lat="46.84013" lon="-1.43419">
        <ele>79</ele>
        <time>2022-04-25T21:56:38Z</time>
      </trkpt>
      <trkpt lat="46.83997" lon="-1.4337">
        <ele>78</ele>
        <time>2022-04-25T21:56:44Z</time>
      </trkpt>
      <trkpt lat="46.837" lon="-1.42631">
        <ele>79</ele>
        <time>2022-04-25T21:58:28Z</time>
      </trkpt>
      <trkpt lat="46.83672" lon="-1.42552">
        <ele>79</ele>
        <time>2022-04-25T21:58:39Z</time>
      </trkpt>
      <trkpt lat="46.83665" lon="-1.42527">
        <ele>80</ele>
        <time>2022-04-25T21:58:43Z</time>
      </trkpt>
      <trkpt lat="46.83651" lon="-1.42462">
        <ele>80</ele>
        <time>2022-04-25T21:58:51Z</time>
      </trkpt>
      <trkpt lat="46.83615" lon="-1.42264">
        <ele>79</ele>
        <time>2022-04-25T21:59:16Z</time>
      </trkpt>
      <trkpt lat="46.83601" lon="-1.42197">
        <ele>78</ele>
        <time>2022-04-25T21:59:24Z</time>
      </trkpt>
      <trkpt lat="46.83536" lon="-1.42236">
        <ele>78</ele>
        <time>2022-04-25T21:59:37Z</time>
      </trkpt>
      <trkpt lat="46.83534" lon="-1.42231">
        <ele>78</ele>
        <time>2022-04-25T21:59:38Z</time>
      </trkpt>
      <trkpt lat="46.83532" lon="-1.42218">
        <ele>78</ele>
        <time>2022-04-25T21:59:39Z</time>
      </trkpt>
      <trkpt lat="46.83533" lon="-1.42209">
        <ele>77</ele>
        <time>2022-04-25T21:59:40Z</time>
      </trkpt>
      <trkpt lat="46.83568" lon="-1.42119">
        <ele>78</ele>
        <time>2022-04-25T21:59:53Z</time>
      </trkpt>
      <trkpt lat="46.83573" lon="-1.42099">
        <ele>78</ele>
        <time>2022-04-25T21:59:55Z</time>
      </trkpt>
      <trkpt lat="46.83574" lon="-1.42073">
        <ele>78</ele>
        <time>2022-04-25T21:59:59Z</time>
      </trkpt>
      <trkpt lat="46.83571" lon="-1.42057">
        <ele>78</ele>
        <time>2022-04-25T22:00:01Z</time>
      </trkpt>
      <trkpt lat="46.83553" lon="-1.41999">
        <ele>79</ele>
        <time>2022-04-25T22:00:08Z</time>
      </trkpt>
      <trkpt lat="46.83543" lon="-1.41971">
        <ele>79</ele>
        <time>2022-04-25T22:00:12Z</time>
      </trkpt>
      <trkpt lat="46.83536" lon="-1.41959">
        <ele>78</ele>
        <time>2022-04-25T22:00:14Z</time>
      </trkpt>
      <trkpt lat="46.83523" lon="-1.41942">
        <ele>78</ele>
        <time>2022-04-25T22:00:17Z</time>
      </trkpt>
      <trkpt lat="46.83485" lon="-1.41902">
        <ele>78</ele>
        <time>2022-04-25T22:00:26Z</time>
      </trkpt>
      <trkpt lat="46.83465" lon="-1.41875">
        <ele>79</ele>
        <time>2022-04-25T22:00:30Z</time>
      </trkpt>
      <trkpt lat="46.83265" lon="-1.41558">
        <ele>74</ele>
        <time>2022-04-25T22:01:23Z</time>
      </trkpt>
      <trkpt lat="46.83256" lon="-1.41493">
        <ele>73</ele>
        <time>2022-04-25T22:01:31Z</time>
      </trkpt>
      <trkpt lat="46.83256" lon="-1.41463">
        <ele>73</ele>
        <time>2022-04-25T22:01:35Z</time>
      </trkpt>
      <trkpt lat="46.83262" lon="-1.41327">
        <ele>66</ele>
        <time>2022-04-25T22:01:51Z</time>
      </trkpt>
      <trkpt lat="46.83278" lon="-1.41286">
        <ele>65</ele>
        <time>2022-04-25T22:01:57Z</time>
      </trkpt>
      <trkpt lat="46.83294" lon="-1.41268">
        <ele>64</ele>
        <time>2022-04-25T22:02:01Z</time>
      </trkpt>
      <trkpt lat="46.83331" lon="-1.41245">
        <ele>64</ele>
        <time>2022-04-25T22:02:08Z</time>
      </trkpt>
      <trkpt lat="46.83351" lon="-1.4122">
        <ele>63</ele>
        <time>2022-04-25T22:02:12Z</time>
      </trkpt>
      <trkpt lat="46.83408" lon="-1.41137">
        <ele>61</ele>
        <time>2022-04-25T22:02:27Z</time>
      </trkpt>
      <trkpt lat="46.83415" lon="-1.41112">
        <ele>60</ele>
        <time>2022-04-25T22:02:30Z</time>
      </trkpt>
      <trkpt lat="46.83413" lon="-1.41092">
        <ele>58</ele>
        <time>2022-04-25T22:02:33Z</time>
      </trkpt>
      <trkpt lat="46.83406" lon="-1.41072">
        <ele>56</ele>
        <time>2022-04-25T22:02:35Z</time>
      </trkpt>
      <trkpt lat="46.83389" lon="-1.41047">
        <ele>55</ele>
        <time>2022-04-25T22:02:40Z</time>
      </trkpt>
      <trkpt lat="46.83366" lon="-1.41019">
        <ele>54</ele>
        <time>2022-04-25T22:02:45Z</time>
      </trkpt>
      <trkpt lat="46.83352" lon="-1.40961">
        <ele>55</ele>
        <time>2022-04-25T22:02:52Z</time>
      </trkpt>
      <trkpt lat="46.83343" lon="-1.40786">
        <ele>59</ele>
        <time>2022-04-25T22:03:14Z</time>
      </trkpt>
      <trkpt lat="46.83332" lon="-1.4073">
        <ele>62</ele>
        <time>2022-04-25T22:03:21Z</time>
      </trkpt>
      <trkpt lat="46.83153" lon="-1.4024">
        <ele>72</ele>
        <time>2022-04-25T22:04:28Z</time>
      </trkpt>
      <trkpt lat="46.83123" lon="-1.4014">
        <ele>69</ele>
        <time>2022-04-25T22:04:42Z</time>
      </trkpt>
      <trkpt lat="46.83115" lon="-1.40069">
        <ele>67</ele>
        <time>2022-04-25T22:04:50Z</time>
      </trkpt>
      <trkpt lat="46.83118" lon="-1.39972">
        <ele>66</ele>
        <time>2022-04-25T22:05:02Z</time>
      </trkpt>
      <trkpt lat="46.83126" lon="-1.39922">
        <ele>66</ele>
        <time>2022-04-25T22:05:09Z</time>
      </trkpt>
      <trkpt lat="46.83175" lon="-1.39756">
        <ele>67</ele>
        <time>2022-04-25T22:05:31Z</time>
      </trkpt>
      <trkpt lat="46.83179" lon="-1.39718">
        <ele>69</ele>
        <time>2022-04-25T22:05:35Z</time>
      </trkpt>
      <trkpt lat="46.83175" lon="-1.39669">
        <ele>70</ele>
        <time>2022-04-25T22:05:41Z</time>
      </trkpt>
      <trkpt lat="46.83159" lon="-1.39585">
        <ele>69</ele>
        <time>2022-04-25T22:05:52Z</time>
      </trkpt>
      <trkpt lat="46.83152" lon="-1.39464">
        <ele>68</ele>
        <time>2022-04-25T22:06:07Z</time>
      </trkpt>
      <trkpt lat="46.83133" lon="-1.39224">
        <ele>72</ele>
        <time>2022-04-25T22:06:36Z</time>
      </trkpt>
      <trkpt lat="46.83122" lon="-1.39154">
        <ele>73</ele>
        <time>2022-04-25T22:06:45Z</time>
      </trkpt>
      <trkpt lat="46.83011" lon="-1.38577">
        <ele>79</ele>
        <time>2022-04-25T22:07:58Z</time>
      </trkpt>
      <trkpt lat="46.82941" lon="-1.3823">
        <ele>80</ele>
        <time>2022-04-25T22:08:42Z</time>
      </trkpt>
      <trkpt lat="46.82923" lon="-1.38152">
        <ele>81</ele>
        <time>2022-04-25T22:08:52Z</time>
      </trkpt>
      <trkpt lat="46.82906" lon="-1.38105">
        <ele>81</ele>
        <time>2022-04-25T22:08:58Z</time>
      </trkpt>
      <trkpt lat="46.82892" lon="-1.38076">
        <ele>81</ele>
        <time>2022-04-25T22:09:03Z</time>
      </trkpt>
      <trkpt lat="46.82826" lon="-1.37979">
        <ele>80</ele>
        <time>2022-04-25T22:09:19Z</time>
      </trkpt>
      <trkpt lat="46.8278" lon="-1.37907">
        <ele>79</ele>
        <time>2022-04-25T22:09:31Z</time>
      </trkpt>
      <trkpt lat="46.82747" lon="-1.37837">
        <ele>80</ele>
        <time>2022-04-25T22:09:42Z</time>
      </trkpt>
      <trkpt lat="46.82659" lon="-1.37634">
        <ele>81</ele>
        <time>2022-04-25T22:10:11Z</time>
      </trkpt>
      <trkpt lat="46.82638" lon="-1.37574">
        <ele>81</ele>
        <time>2022-04-25T22:10:19Z</time>
      </trkpt>
      <trkpt lat="46.82522" lon="-1.37125">
        <ele>82</ele>
        <time>2022-04-25T22:11:17Z</time>
      </trkpt>
      <trkpt lat="46.8249" lon="-1.37025">
        <ele>82</ele>
        <time>2022-04-25T22:11:31Z</time>
      </trkpt>
      <trkpt lat="46.82458" lon="-1.36952">
        <ele>81</ele>
        <time>2022-04-25T22:11:41Z</time>
      </trkpt>
      <trkpt lat="46.82421" lon="-1.36827">
        <ele>78</ele>
        <time>2022-04-25T22:11:58Z</time>
      </trkpt>
      <trkpt lat="46.82337" lon="-1.36463">
        <ele>71</ele>
        <time>2022-04-25T22:12:45Z</time>
      </trkpt>
      <trkpt lat="46.8232" lon="-1.36363">
        <ele>68</ele>
        <time>2022-04-25T22:12:57Z</time>
      </trkpt>
      <trkpt lat="46.82295" lon="-1.36127">
        <ele>65</ele>
        <time>2022-04-25T22:13:26Z</time>
      </trkpt>
      <trkpt lat="46.82272" lon="-1.36026">
        <ele>65</ele>
        <time>2022-04-25T22:13:39Z</time>
      </trkpt>
      <trkpt lat="46.82253" lon="-1.35862">
        <ele>65</ele>
        <time>2022-04-25T22:14:00Z</time>
      </trkpt>
      <trkpt lat="46.8224" lon="-1.35797">
        <ele>65</ele>
        <time>2022-04-25T22:14:08Z</time>
      </trkpt>
      <trkpt lat="46.82253" lon="-1.35788">
        <ele>65</ele>
        <time>2022-04-25T22:14:10Z</time>
      </trkpt>
      <trkpt lat="46.8226" lon="-1.35779">
        <ele>64</ele>
        <time>2022-04-25T22:14:12Z</time>
      </trkpt>
      <trkpt lat="46.82296" lon="-1.35758">
        <ele>62</ele>
        <time>2022-04-25T22:14:19Z</time>
      </trkpt>
      <trkpt lat="46.82325" lon="-1.35739">
        <ele>61</ele>
        <time>2022-04-25T22:14:25Z</time>
      </trkpt>
      <trkpt lat="46.82337" lon="-1.35728">
        <ele>60</ele>
        <time>2022-04-25T22:14:27Z</time>
      </trkpt>
      <trkpt lat="46.82446" lon="-1.35617">
        <ele>60</ele>
        <time>2022-04-25T22:14:51Z</time>
      </trkpt>
      <trkpt lat="46.82548" lon="-1.35478">
        <ele>63</ele>
        <time>2022-04-25T22:15:16Z</time>
      </trkpt>
      <trkpt lat="46.82572" lon="-1.35464">
        <ele>63</ele>
        <time>2022-04-25T22:15:20Z</time>
      </trkpt>
      <trkpt lat="46.82571" lon="-1.35455">
        <ele>63</ele>
        <time>2022-04-25T22:15:21Z</time>
      </trkpt>
      <trkpt lat="46.82571" lon="-1.35451">
        <ele>63</ele>
        <time>2022-04-25T22:15:22Z</time>
      </trkpt>
      <trkpt lat="46.82575" lon="-1.35443">
        <ele>63</ele>
        <time>2022-04-25T22:15:23Z</time>
      </trkpt>
      <trkpt lat="46.82581" lon="-1.35441">
        <ele>63</ele>
        <time>2022-04-25T22:15:24Z</time>
      </trkpt>
      <trkpt lat="46.82587" lon="-1.35443">
        <ele>63</ele>
        <time>2022-04-25T22:15:25Z</time>
      </trkpt>
      <trkpt lat="46.82594" lon="-1.35418">
        <ele>64</ele>
        <time>2022-04-25T22:15:29Z</time>
      </trkpt>
      <trkpt lat="46.82632" lon="-1.3536">
        <ele>67</ele>
        <time>2022-04-25T22:15:38Z</time>
      </trkpt>
      <trkpt lat="46.83122" lon="-1.34693">
        <ele>78</ele>
        <time>2022-04-25T22:17:37Z</time>
      </trkpt>
      <trkpt lat="46.83149" lon="-1.34662">
        <ele>78</ele>
        <time>2022-04-25T22:17:44Z</time>
      </trkpt>
      <trkpt lat="46.83197" lon="-1.3461">
        <ele>79</ele>
        <time>2022-04-25T22:17:54Z</time>
      </trkpt>
      <trkpt lat="46.83316" lon="-1.34489">
        <ele>76</ele>
        <time>2022-04-25T22:18:20Z</time>
      </trkpt>
      <trkpt lat="46.83306" lon="-1.34465">
        <ele>76</ele>
        <time>2022-04-25T22:18:23Z</time>
      </trkpt>
      <trkpt lat="46.83261" lon="-1.34252">
        <ele>77</ele>
        <time>2022-04-25T22:18:51Z</time>
      </trkpt>
      <trkpt lat="46.83249" lon="-1.34194">
        <ele>78</ele>
        <time>2022-04-25T22:18:58Z</time>
      </trkpt>
      <trkpt lat="46.83243" lon="-1.34153">
        <ele>78</ele>
        <time>2022-04-25T22:19:03Z</time>
      </trkpt>
      <trkpt lat="46.8324" lon="-1.34112">
        <ele>77</ele>
        <time>2022-04-25T22:19:08Z</time>
      </trkpt>
      <trkpt lat="46.83236" lon="-1.33896">
        <ele>78</ele>
        <time>2022-04-25T22:19:34Z</time>
      </trkpt>
      <trkpt lat="46.83237" lon="-1.33846">
        <ele>78</ele>
        <time>2022-04-25T22:19:40Z</time>
      </trkpt>
      <trkpt lat="46.83241" lon="-1.33809">
        <ele>78</ele>
        <time>2022-04-25T22:19:45Z</time>
      </trkpt>
      <trkpt lat="46.83268" lon="-1.33605">
        <ele>78</ele>
        <time>2022-04-25T22:20:10Z</time>
      </trkpt>
      <trkpt lat="46.83269" lon="-1.33582">
        <ele>78</ele>
        <time>2022-04-25T22:20:13Z</time>
      </trkpt>
      <trkpt lat="46.83268" lon="-1.3356">
        <ele>77</ele>
        <time>2022-04-25T22:20:16Z</time>
      </trkpt>
      <trkpt lat="46.83263" lon="-1.33537">
        <ele>77</ele>
        <time>2022-04-25T22:20:19Z</time>
      </trkpt>
      <trkpt lat="46.83255" lon="-1.33513">
        <ele>76</ele>
        <time>2022-04-25T22:20:22Z</time>
      </trkpt>
      <trkpt lat="46.83215" lon="-1.33398">
        <ele>77</ele>
        <time>2022-04-25T22:20:38Z</time>
      </trkpt>
      <trkpt lat="46.83209" lon="-1.33373">
        <ele>77</ele>
        <time>2022-04-25T22:20:41Z</time>
      </trkpt>
      <trkpt lat="46.83207" lon="-1.33331">
        <ele>78</ele>
        <time>2022-04-25T22:20:46Z</time>
      </trkpt>
      <trkpt lat="46.83208" lon="-1.3332">
        <ele>78</ele>
        <time>2022-04-25T22:20:47Z</time>
      </trkpt>
      <trkpt lat="46.83226" lon="-1.33244">
        <ele>78</ele>
        <time>2022-04-25T22:20:57Z</time>
      </trkpt>
      <trkpt lat="46.83228" lon="-1.3322">
        <ele>77</ele>
        <time>2022-04-25T22:21:00Z</time>
      </trkpt>
      <trkpt lat="46.83228" lon="-1.33196">
        <ele>77</ele>
        <time>2022-04-25T22:21:03Z</time>
      </trkpt>
      <trkpt lat="46.83202" lon="-1.32844">
        <ele>78</ele>
        <time>2022-04-25T22:21:46Z</time>
      </trkpt>
      <trkpt lat="46.83201" lon="-1.32801">
        <ele>78</ele>
        <time>2022-04-25T22:21:51Z</time>
      </trkpt>
      <trkpt lat="46.83203" lon="-1.3276">
        <ele>78</ele>
        <time>2022-04-25T22:21:56Z</time>
      </trkpt>
      <trkpt lat="46.8321" lon="-1.32726">
        <ele>78</ele>
        <time>2022-04-25T22:22:01Z</time>
      </trkpt>
      <trkpt lat="46.83222" lon="-1.32689">
        <ele>79</ele>
        <time>2022-04-25T22:22:06Z</time>
      </trkpt>
      <trkpt lat="46.83281" lon="-1.32547">
        <ele>83</ele>
        <time>2022-04-25T22:22:26Z</time>
      </trkpt>
      <trkpt lat="46.8348" lon="-1.31955">
        <ele>77</ele>
        <time>2022-04-25T22:23:46Z</time>
      </trkpt>
      <trkpt lat="46.83491" lon="-1.3191">
        <ele>77</ele>
        <time>2022-04-25T22:23:52Z</time>
      </trkpt>
      <trkpt lat="46.83507" lon="-1.31826">
        <ele>79</ele>
        <time>2022-04-25T22:24:03Z</time>
      </trkpt>
      <trkpt lat="46.83535" lon="-1.31631">
        <ele>77</ele>
        <time>2022-04-25T22:24:27Z</time>
      </trkpt>
      <trkpt lat="46.83542" lon="-1.31567">
        <ele>77</ele>
        <time>2022-04-25T22:24:35Z</time>
      </trkpt>
      <trkpt lat="46.83543" lon="-1.31544">
        <ele>77</ele>
        <time>2022-04-25T22:24:38Z</time>
      </trkpt>
      <trkpt lat="46.83542" lon="-1.31525">
        <ele>77</ele>
        <time>2022-04-25T22:24:40Z</time>
      </trkpt>
      <trkpt lat="46.83539" lon="-1.31501">
        <ele>77</ele>
        <time>2022-04-25T22:24:43Z</time>
      </trkpt>
      <trkpt lat="46.83533" lon="-1.31478">
        <ele>76</ele>
        <time>2022-04-25T22:24:46Z</time>
      </trkpt>
      <trkpt lat="46.83525" lon="-1.31455">
        <ele>76</ele>
        <time>2022-04-25T22:24:49Z</time>
      </trkpt>
      <trkpt lat="46.83475" lon="-1.31345">
        <ele>75</ele>
        <time>2022-04-25T22:25:05Z</time>
      </trkpt>
      <trkpt lat="46.83464" lon="-1.31315">
        <ele>75</ele>
        <time>2022-04-25T22:25:09Z</time>
      </trkpt>
      <trkpt lat="46.83447" lon="-1.31258">
        <ele>75</ele>
        <time>2022-04-25T22:25:17Z</time>
      </trkpt>
      <trkpt lat="46.83372" lon="-1.30934">
        <ele>77</ele>
        <time>2022-04-25T22:25:58Z</time>
      </trkpt>
      <trkpt lat="46.8336" lon="-1.30892">
        <ele>77</ele>
        <time>2022-04-25T22:26:04Z</time>
      </trkpt>
      <trkpt lat="46.83344" lon="-1.30858">
        <ele>77</ele>
        <time>2022-04-25T22:26:09Z</time>
      </trkpt>
      <trkpt lat="46.83315" lon="-1.30814">
        <ele>77</ele>
        <time>2022-04-25T22:26:16Z</time>
      </trkpt>
      <trkpt lat="46.8329" lon="-1.30769">
        <ele>77</ele>
        <time>2022-04-25T22:26:23Z</time>
      </trkpt>
      <trkpt lat="46.8326" lon="-1.30704">
        <ele>77</ele>
        <time>2022-04-25T22:26:33Z</time>
      </trkpt>
      <trkpt lat="46.83207" lon="-1.30525">
        <ele>79</ele>
        <time>2022-04-25T22:26:57Z</time>
      </trkpt>
      <trkpt lat="46.832" lon="-1.30504">
        <ele>79</ele>
        <time>2022-04-25T22:27:00Z</time>
      </trkpt>
      <trkpt lat="46.83169" lon="-1.3044">
        <ele>79</ele>
        <time>2022-04-25T22:27:09Z</time>
      </trkpt>
      <trkpt lat="46.83018" lon="-1.30072">
        <ele>76</ele>
        <time>2022-04-25T22:28:01Z</time>
      </trkpt>
      <trkpt lat="46.83007" lon="-1.30042">
        <ele>76</ele>
        <time>2022-04-25T22:28:05Z</time>
      </trkpt>
      <trkpt lat="46.83001" lon="-1.30013">
        <ele>77</ele>
        <time>2022-04-25T22:28:09Z</time>
      </trkpt>
      <trkpt lat="46.82996" lon="-1.29984">
        <ele>77</ele>
        <time>2022-04-25T22:28:13Z</time>
      </trkpt>
      <trkpt lat="46.82985" lon="-1.29867">
        <ele>75</ele>
        <time>2022-04-25T22:28:27Z</time>
      </trkpt>
      <trkpt lat="46.82979" lon="-1.2983">
        <ele>73</ele>
        <time>2022-04-25T22:28:32Z</time>
      </trkpt>
      <trkpt lat="46.82957" lon="-1.29737">
        <ele>72</ele>
        <time>2022-04-25T22:28:44Z</time>
      </trkpt>
      <trkpt lat="46.8289" lon="-1.29296">
        <ele>70</ele>
        <time>2022-04-25T22:29:39Z</time>
      </trkpt>
      <trkpt lat="46.82864" lon="-1.29105">
        <ele>67</ele>
        <time>2022-04-25T22:30:03Z</time>
      </trkpt>
      <trkpt lat="46.82861" lon="-1.29073">
        <ele>67</ele>
        <time>2022-04-25T22:30:06Z</time>
      </trkpt>
      <trkpt lat="46.82861" lon="-1.29037">
        <ele>67</ele>
        <time>2022-04-25T22:30:11Z</time>
      </trkpt>
      <trkpt lat="46.82893" lon="-1.28747">
        <ele>68</ele>
        <time>2022-04-25T22:30:47Z</time>
      </trkpt>
      <trkpt lat="46.82923" lon="-1.28493">
        <ele>72</ele>
        <time>2022-04-25T22:31:18Z</time>
      </trkpt>
      <trkpt lat="46.82953" lon="-1.28258">
        <ele>71</ele>
        <time>2022-04-25T22:31:47Z</time>
      </trkpt>
      <trkpt lat="46.8295" lon="-1.28188">
        <ele>70</ele>
        <time>2022-04-25T22:31:56Z</time>
      </trkpt>
      <trkpt lat="46.82934" lon="-1.28055">
        <ele>69</ele>
        <time>2022-04-25T22:32:12Z</time>
      </trkpt>
      <trkpt lat="46.8293" lon="-1.27919">
        <ele>67</ele>
        <time>2022-04-25T22:32:29Z</time>
      </trkpt>
      <trkpt lat="46.82921" lon="-1.27729">
        <ele>69</ele>
        <time>2022-04-25T22:32:52Z</time>
      </trkpt>
      <trkpt lat="46.82914" lon="-1.27675">
        <ele>68</ele>
        <time>2022-04-25T22:32:58Z</time>
      </trkpt>
      <trkpt lat="46.82905" lon="-1.2764">
        <ele>67</ele>
        <time>2022-04-25T22:33:03Z</time>
      </trkpt>
      <trkpt lat="46.82892" lon="-1.27603">
        <ele>66</ele>
        <time>2022-04-25T22:33:08Z</time>
      </trkpt>
      <trkpt lat="46.82908" lon="-1.27547">
        <ele>67</ele>
        <time>2022-04-25T22:33:15Z</time>
      </trkpt>
      <trkpt lat="46.82908" lon="-1.27499">
        <ele>67</ele>
        <time>2022-04-25T22:33:21Z</time>
      </trkpt>
      <trkpt lat="46.82876" lon="-1.27329">
        <ele>70</ele>
        <time>2022-04-25T22:33:43Z</time>
      </trkpt>
      <trkpt lat="46.82877" lon="-1.2732">
        <ele>70</ele>
        <time>2022-04-25T22:33:44Z</time>
      </trkpt>
      <trkpt lat="46.82884" lon="-1.27306">
        <ele>71</ele>
        <time>2022-04-25T22:33:46Z</time>
      </trkpt>
      <trkpt lat="46.82868" lon="-1.27293">
        <ele>70</ele>
        <time>2022-04-25T22:33:49Z</time>
      </trkpt>
      <trkpt lat="46.82861" lon="-1.27282">
        <ele>70</ele>
        <time>2022-04-25T22:33:51Z</time>
      </trkpt>
      <trkpt lat="46.82857" lon="-1.27271">
        <ele>71</ele>
        <time>2022-04-25T22:33:53Z</time>
      </trkpt>
      <trkpt lat="46.82855" lon="-1.27252">
        <ele>71</ele>
        <time>2022-04-25T22:33:55Z</time>
      </trkpt>
      <trkpt lat="46.82858" lon="-1.27145">
        <ele>71</ele>
        <time>2022-04-25T22:34:08Z</time>
      </trkpt>
      <trkpt lat="46.82879" lon="-1.27091">
        <ele>71</ele>
        <time>2022-04-25T22:34:16Z</time>
      </trkpt>
      <trkpt lat="46.82878" lon="-1.27061">
        <ele>70</ele>
        <time>2022-04-25T22:34:19Z</time>
      </trkpt>
      <trkpt lat="46.8291" lon="-1.27044">
        <ele>69</ele>
        <time>2022-04-25T22:34:25Z</time>
      </trkpt>
      <trkpt lat="46.82922" lon="-1.2704">
        <ele>69</ele>
        <time>2022-04-25T22:34:27Z</time>
      </trkpt>
      <trkpt lat="46.82989" lon="-1.27007">
        <ele>65</ele>
        <time>2022-04-25T22:34:40Z</time>
      </trkpt>
      <trkpt lat="46.82993" lon="-1.27007">
        <ele>65</ele>
        <time>2022-04-25T22:34:41Z</time>
      </trkpt>
      <trkpt lat="46.82995" lon="-1.27">
        <ele>64</ele>
        <time>2022-04-25T22:34:42Z</time>
      </trkpt>
      <trkpt lat="46.83001" lon="-1.27">
        <ele>64</ele>
        <time>2022-04-25T22:34:43Z</time>
      </trkpt>
      <trkpt lat="46.83006" lon="-1.26989">
        <ele>64</ele>
        <time>2022-04-25T22:34:44Z</time>
      </trkpt>
      <trkpt lat="46.83023" lon="-1.26971">
        <ele>63</ele>
        <time>2022-04-25T22:34:48Z</time>
      </trkpt>
      <trkpt lat="46.83052" lon="-1.26926">
        <ele>60</ele>
        <time>2022-04-25T22:34:56Z</time>
      </trkpt>
      <trkpt lat="46.83099" lon="-1.26833">
        <ele>55</ele>
        <time>2022-04-25T22:35:10Z</time>
      </trkpt>
      <trkpt lat="46.83107" lon="-1.26814">
        <ele>55</ele>
        <time>2022-04-25T22:35:12Z</time>
      </trkpt>
      <trkpt lat="46.83118" lon="-1.2679">
        <ele>56</ele>
        <time>2022-04-25T22:35:16Z</time>
      </trkpt>
      <trkpt lat="46.83122" lon="-1.26775">
        <ele>57</ele>
        <time>2022-04-25T22:35:18Z</time>
      </trkpt>
      <trkpt lat="46.83125" lon="-1.26758">
        <ele>58</ele>
        <time>2022-04-25T22:35:20Z</time>
      </trkpt>
      <trkpt lat="46.83126" lon="-1.26735">
        <ele>58</ele>
        <time>2022-04-25T22:35:23Z</time>
      </trkpt>
      <trkpt lat="46.83113" lon="-1.26392">
        <ele>66</ele>
        <time>2022-04-25T22:36:05Z</time>
      </trkpt>
      <trkpt lat="46.83114" lon="-1.26369">
        <ele>66</ele>
        <time>2022-04-25T22:36:07Z</time>
      </trkpt>
      <trkpt lat="46.83118" lon="-1.26338">
        <ele>66</ele>
        <time>2022-04-25T22:36:11Z</time>
      </trkpt>
      <trkpt lat="46.83127" lon="-1.263">
        <ele>66</ele>
        <time>2022-04-25T22:36:16Z</time>
      </trkpt>
      <trkpt lat="46.83214" lon="-1.26088">
        <ele>66</ele>
        <time>2022-04-25T22:36:46Z</time>
      </trkpt>
      <trkpt lat="46.83223" lon="-1.26071">
        <ele>66</ele>
        <time>2022-04-25T22:36:49Z</time>
      </trkpt>
      <trkpt lat="46.8324" lon="-1.26051">
        <ele>66</ele>
        <time>2022-04-25T22:36:53Z</time>
      </trkpt>
      <trkpt lat="46.83378" lon="-1.25921">
        <ele>62</ele>
        <time>2022-04-25T22:37:22Z</time>
      </trkpt>
      <trkpt lat="46.83411" lon="-1.25875">
        <ele>63</ele>
        <time>2022-04-25T22:37:30Z</time>
      </trkpt>
      <trkpt lat="46.83511" lon="-1.25664">
        <ele>69</ele>
        <time>2022-04-25T22:38:01Z</time>
      </trkpt>
      <trkpt lat="46.83553" lon="-1.25581">
        <ele>71</ele>
        <time>2022-04-25T22:38:14Z</time>
      </trkpt>
      <trkpt lat="46.83571" lon="-1.25533">
        <ele>72</ele>
        <time>2022-04-25T22:38:21Z</time>
      </trkpt>
      <trkpt lat="46.83603" lon="-1.25466">
        <ele>73</ele>
        <time>2022-04-25T22:38:31Z</time>
      </trkpt>
      <trkpt lat="46.83627" lon="-1.25429">
        <ele>74</ele>
        <time>2022-04-25T22:38:37Z</time>
      </trkpt>
      <trkpt lat="46.83719" lon="-1.25318">
        <ele>76</ele>
        <time>2022-04-25T22:38:58Z</time>
      </trkpt>
      <trkpt lat="46.83738" lon="-1.25291">
        <ele>77</ele>
        <time>2022-04-25T22:39:03Z</time>
      </trkpt>
      <trkpt lat="46.83757" lon="-1.2526">
        <ele>78</ele>
        <time>2022-04-25T22:39:08Z</time>
      </trkpt>
      <trkpt lat="46.83768" lon="-1.25234">
        <ele>78</ele>
        <time>2022-04-25T22:39:11Z</time>
      </trkpt>
      <trkpt lat="46.83784" lon="-1.25183">
        <ele>79</ele>
        <time>2022-04-25T22:39:18Z</time>
      </trkpt>
      <trkpt lat="46.83929" lon="-1.24424">
        <ele>79</ele>
        <time>2022-04-25T22:40:54Z</time>
      </trkpt>
      <trkpt lat="46.83974" lon="-1.24185">
        <ele>74</ele>
        <time>2022-04-25T22:41:24Z</time>
      </trkpt>
      <trkpt lat="46.83979" lon="-1.24154">
        <ele>74</ele>
        <time>2022-04-25T22:41:28Z</time>
      </trkpt>
      <trkpt lat="46.83982" lon="-1.24114">
        <ele>73</ele>
        <time>2022-04-25T22:41:33Z</time>
      </trkpt>
      <trkpt lat="46.83982" lon="-1.24075">
        <ele>72</ele>
        <time>2022-04-25T22:41:38Z</time>
      </trkpt>
      <trkpt lat="46.83975" lon="-1.24017">
        <ele>72</ele>
        <time>2022-04-25T22:41:45Z</time>
      </trkpt>
      <trkpt lat="46.83951" lon="-1.23901">
        <ele>73</ele>
        <time>2022-04-25T22:42:00Z</time>
      </trkpt>
      <trkpt lat="46.83946" lon="-1.23864">
        <ele>75</ele>
        <time>2022-04-25T22:42:04Z</time>
      </trkpt>
      <trkpt lat="46.83943" lon="-1.23829">
        <ele>76</ele>
        <time>2022-04-25T22:42:09Z</time>
      </trkpt>
      <trkpt lat="46.83943" lon="-1.23771">
        <ele>77</ele>
        <time>2022-04-25T22:42:16Z</time>
      </trkpt>
      <trkpt lat="46.83949" lon="-1.23687">
        <ele>77</ele>
        <time>2022-04-25T22:42:26Z</time>
      </trkpt>
      <trkpt lat="46.83956" lon="-1.23601">
        <ele>77</ele>
        <time>2022-04-25T22:42:37Z</time>
      </trkpt>
      <trkpt lat="46.83979" lon="-1.23334">
        <ele>78</ele>
        <time>2022-04-25T22:43:09Z</time>
      </trkpt>
      <trkpt lat="46.83988" lon="-1.23279">
        <ele>77</ele>
        <time>2022-04-25T22:43:16Z</time>
      </trkpt>
      <trkpt lat="46.84049" lon="-1.23071">
        <ele>76</ele>
        <time>2022-04-25T22:43:44Z</time>
      </trkpt>
      <trkpt lat="46.84157" lon="-1.2271">
        <ele>75</ele>
        <time>2022-04-25T22:44:32Z</time>
      </trkpt>
      <trkpt lat="46.84168" lon="-1.2266">
        <ele>75</ele>
        <time>2022-04-25T22:44:38Z</time>
      </trkpt>
      <trkpt lat="46.84173" lon="-1.22596">
        <ele>76</ele>
        <time>2022-04-25T22:44:46Z</time>
      </trkpt>
      <trkpt lat="46.84173" lon="-1.22568">
        <ele>76</ele>
        <time>2022-04-25T22:44:49Z</time>
      </trkpt>
      <trkpt lat="46.84172" lon="-1.22542">
        <ele>76</ele>
        <time>2022-04-25T22:44:53Z</time>
      </trkpt>
      <trkpt lat="46.84158" lon="-1.22383">
        <ele>76</ele>
        <time>2022-04-25T22:45:12Z</time>
      </trkpt>
      <trkpt lat="46.84156" lon="-1.22333">
        <ele>76</ele>
        <time>2022-04-25T22:45:18Z</time>
      </trkpt>
      <trkpt lat="46.8416" lon="-1.22199">
        <ele>78</ele>
        <time>2022-04-25T22:45:34Z</time>
      </trkpt>
      <trkpt lat="46.84171" lon="-1.21953">
        <ele>79</ele>
        <time>2022-04-25T22:46:04Z</time>
      </trkpt>
      <trkpt lat="46.84178" lon="-1.21893">
        <ele>79</ele>
        <time>2022-04-25T22:46:12Z</time>
      </trkpt>
      <trkpt lat="46.84184" lon="-1.21867">
        <ele>79</ele>
        <time>2022-04-25T22:46:15Z</time>
      </trkpt>
      <trkpt lat="46.842" lon="-1.21813">
        <ele>78</ele>
        <time>2022-04-25T22:46:22Z</time>
      </trkpt>
      <trkpt lat="46.84213" lon="-1.21781">
        <ele>78</ele>
        <time>2022-04-25T22:46:27Z</time>
      </trkpt>
      <trkpt lat="46.84365" lon="-1.21482">
        <ele>73</ele>
        <time>2022-04-25T22:47:12Z</time>
      </trkpt>
      <trkpt lat="46.8444" lon="-1.21328">
        <ele>72</ele>
        <time>2022-04-25T22:47:35Z</time>
      </trkpt>
      <trkpt lat="46.84451" lon="-1.21303">
        <ele>72</ele>
        <time>2022-04-25T22:47:39Z</time>
      </trkpt>
      <trkpt lat="46.84458" lon="-1.21279">
        <ele>73</ele>
        <time>2022-04-25T22:47:42Z</time>
      </trkpt>
      <trkpt lat="46.84469" lon="-1.21235">
        <ele>73</ele>
        <time>2022-04-25T22:47:48Z</time>
      </trkpt>
      <trkpt lat="46.84548" lon="-1.20805">
        <ele>75</ele>
        <time>2022-04-25T22:48:42Z</time>
      </trkpt>
      <trkpt lat="46.84632" lon="-1.20324">
        <ele>65</ele>
        <time>2022-04-25T22:49:42Z</time>
      </trkpt>
      <trkpt lat="46.84642" lon="-1.20275">
        <ele>64</ele>
        <time>2022-04-25T22:49:49Z</time>
      </trkpt>
      <trkpt lat="46.8465" lon="-1.20255">
        <ele>63</ele>
        <time>2022-04-25T22:49:51Z</time>
      </trkpt>
      <trkpt lat="46.84658" lon="-1.20238">
        <ele>63</ele>
        <time>2022-04-25T22:49:54Z</time>
      </trkpt>
      <trkpt lat="46.8467" lon="-1.20219">
        <ele>63</ele>
        <time>2022-04-25T22:49:57Z</time>
      </trkpt>
      <trkpt lat="46.84789" lon="-1.20074">
        <ele>63</ele>
        <time>2022-04-25T22:50:25Z</time>
      </trkpt>
      <trkpt lat="46.84826" lon="-1.20023">
        <ele>62</ele>
        <time>2022-04-25T22:50:34Z</time>
      </trkpt>
      <trkpt lat="46.84867" lon="-1.19973">
        <ele>63</ele>
        <time>2022-04-25T22:50:43Z</time>
      </trkpt>
      <trkpt lat="46.84962" lon="-1.19892">
        <ele>61</ele>
        <time>2022-04-25T22:51:03Z</time>
      </trkpt>
      <trkpt lat="46.84978" lon="-1.19877">
        <ele>61</ele>
        <time>2022-04-25T22:51:06Z</time>
      </trkpt>
      <trkpt lat="46.84989" lon="-1.19863">
        <ele>61</ele>
        <time>2022-04-25T22:51:09Z</time>
      </trkpt>
      <trkpt lat="46.84997" lon="-1.19848">
        <ele>61</ele>
        <time>2022-04-25T22:51:11Z</time>
      </trkpt>
      <trkpt lat="46.85006" lon="-1.19823">
        <ele>61</ele>
        <time>2022-04-25T22:51:14Z</time>
      </trkpt>
      <trkpt lat="46.85048" lon="-1.19704">
        <ele>58</ele>
        <time>2022-04-25T22:51:31Z</time>
      </trkpt>
      <trkpt lat="46.85058" lon="-1.19668">
        <ele>57</ele>
        <time>2022-04-25T22:51:35Z</time>
      </trkpt>
      <trkpt lat="46.8506" lon="-1.19643">
        <ele>57</ele>
        <time>2022-04-25T22:51:39Z</time>
      </trkpt>
      <trkpt lat="46.85059" lon="-1.19631">
        <ele>58</ele>
        <time>2022-04-25T22:51:40Z</time>
      </trkpt>
      <trkpt lat="46.8505" lon="-1.19588">
        <ele>59</ele>
        <time>2022-04-25T22:51:45Z</time>
      </trkpt>
      <trkpt lat="46.84994" lon="-1.19414">
        <ele>62</ele>
        <time>2022-04-25T22:52:09Z</time>
      </trkpt>
      <trkpt lat="46.84981" lon="-1.19365">
        <ele>65</ele>
        <time>2022-04-25T22:52:15Z</time>
      </trkpt>
      <trkpt lat="46.84979" lon="-1.19341">
        <ele>66</ele>
        <time>2022-04-25T22:52:18Z</time>
      </trkpt>
      <trkpt lat="46.8498" lon="-1.19317">
        <ele>67</ele>
        <time>2022-04-25T22:52:21Z</time>
      </trkpt>
      <trkpt lat="46.84987" lon="-1.19273">
        <ele>67</ele>
        <time>2022-04-25T22:52:27Z</time>
      </trkpt>
      <trkpt lat="46.84985" lon="-1.19267">
        <ele>67</ele>
        <time>2022-04-25T22:52:27Z</time>
      </trkpt>
      <trkpt lat="46.84984" lon="-1.19253">
        <ele>67</ele>
        <time>2022-04-25T22:52:29Z</time>
      </trkpt>
      <trkpt lat="46.84989" lon="-1.19242">
        <ele>68</ele>
        <time>2022-04-25T22:52:31Z</time>
      </trkpt>
      <trkpt lat="46.84998" lon="-1.19237">
        <ele>68</ele>
        <time>2022-04-25T22:52:32Z</time>
      </trkpt>
      <trkpt lat="46.85007" lon="-1.19222">
        <ele>68</ele>
        <time>2022-04-25T22:52:35Z</time>
      </trkpt>
      <trkpt lat="46.85015" lon="-1.19207">
        <ele>69</ele>
        <time>2022-04-25T22:52:37Z</time>
      </trkpt>
      <trkpt lat="46.85024" lon="-1.1918">
        <ele>68</ele>
        <time>2022-04-25T22:52:41Z</time>
      </trkpt>
      <trkpt lat="46.85079" lon="-1.19004">
        <ele>74</ele>
        <time>2022-04-25T22:53:04Z</time>
      </trkpt>
      <trkpt lat="46.85091" lon="-1.18952">
        <ele>75</ele>
        <time>2022-04-25T22:53:11Z</time>
      </trkpt>
      <trkpt lat="46.85093" lon="-1.18929">
        <ele>76</ele>
        <time>2022-04-25T22:53:14Z</time>
      </trkpt>
      <trkpt lat="46.85093" lon="-1.18913">
        <ele>76</ele>
        <time>2022-04-25T22:53:16Z</time>
      </trkpt>
      <trkpt lat="46.85082" lon="-1.1882">
        <ele>79</ele>
        <time>2022-04-25T22:53:27Z</time>
      </trkpt>
      <trkpt lat="46.85061" lon="-1.18667">
        <ele>78</ele>
        <time>2022-04-25T22:53:46Z</time>
      </trkpt>
      <trkpt lat="46.85061" lon="-1.18628">
        <ele>77</ele>
        <time>2022-04-25T22:53:51Z</time>
      </trkpt>
      <trkpt lat="46.85055" lon="-1.18613">
        <ele>77</ele>
        <time>2022-04-25T22:53:53Z</time>
      </trkpt>
      <trkpt lat="46.85028" lon="-1.18424">
        <ele>74</ele>
        <time>2022-04-25T22:54:17Z</time>
      </trkpt>
      <trkpt lat="46.85002" lon="-1.18219">
        <ele>76</ele>
        <time>2022-04-25T22:54:42Z</time>
      </trkpt>
      <trkpt lat="46.84966" lon="-1.17973">
        <ele>75</ele>
        <time>2022-04-25T22:55:13Z</time>
      </trkpt>
      <trkpt lat="46.84957" lon="-1.17948">
        <ele>75</ele>
        <time>2022-04-25T22:55:16Z</time>
      </trkpt>
      <trkpt lat="46.84953" lon="-1.17951">
        <ele>75</ele>
        <time>2022-04-25T22:55:17Z</time>
      </trkpt>
      <trkpt lat="46.84947" lon="-1.17948">
        <ele>75</ele>
        <time>2022-04-25T22:55:18Z</time>
      </trkpt>
      <trkpt lat="46.84945" lon="-1.17944">
        <ele>75</ele>
        <time>2022-04-25T22:55:19Z</time>
      </trkpt>
      <trkpt lat="46.84944" lon="-1.17937">
        <ele>75</ele>
        <time>2022-04-25T22:55:20Z</time>
      </trkpt>
      <trkpt lat="46.84946" lon="-1.17932">
        <ele>75</ele>
        <time>2022-04-25T22:55:20Z</time>
      </trkpt>
      <trkpt lat="46.84949" lon="-1.17928">
        <ele>75</ele>
        <time>2022-04-25T22:55:21Z</time>
      </trkpt>
      <trkpt lat="46.84954" lon="-1.17928">
        <ele>75</ele>
        <time>2022-04-25T22:55:22Z</time>
      </trkpt>
      <trkpt lat="46.84964" lon="-1.17886">
        <ele>75</ele>
        <time>2022-04-25T22:55:27Z</time>
      </trkpt>
      <trkpt lat="46.84971" lon="-1.17862">
        <ele>75</ele>
        <time>2022-04-25T22:55:30Z</time>
      </trkpt>
      <trkpt lat="46.85009" lon="-1.17745">
        <ele>74</ele>
        <time>2022-04-25T22:55:46Z</time>
      </trkpt>
      <trkpt lat="46.8501" lon="-1.17735">
        <ele>74</ele>
        <time>2022-04-25T22:55:47Z</time>
      </trkpt>
      <trkpt lat="46.85007" lon="-1.17698">
        <ele>74</ele>
        <time>2022-04-25T22:55:52Z</time>
      </trkpt>
      <trkpt lat="46.85007" lon="-1.17676">
        <ele>75</ele>
        <time>2022-04-25T22:55:55Z</time>
      </trkpt>
      <trkpt lat="46.85019" lon="-1.17617">
        <ele>76</ele>
        <time>2022-04-25T22:56:02Z</time>
      </trkpt>
      <trkpt lat="46.85032" lon="-1.1762">
        <ele>76</ele>
        <time>2022-04-25T22:56:04Z</time>
      </trkpt>
      <trkpt lat="46.85058" lon="-1.17612">
        <ele>77</ele>
        <time>2022-04-25T22:56:09Z</time>
      </trkpt>
      <trkpt lat="46.85056" lon="-1.17598">
        <ele>77</ele>
        <time>2022-04-25T22:56:11Z</time>
      </trkpt>
      <trkpt lat="46.85041" lon="-1.17546">
        <ele>76</ele>
        <time>2022-04-25T22:56:18Z</time>
      </trkpt>
      <trkpt lat="46.85036" lon="-1.17525">
        <ele>76</ele>
        <time>2022-04-25T22:56:20Z</time>
      </trkpt>
      <trkpt lat="46.85029" lon="-1.1748">
        <ele>76</ele>
        <time>2022-04-25T22:56:26Z</time>
      </trkpt>
      <trkpt lat="46.85033" lon="-1.1745">
        <ele>76</ele>
        <time>2022-04-25T22:56:30Z</time>
      </trkpt>
      <trkpt lat="46.8503" lon="-1.17415">
        <ele>76</ele>
        <time>2022-04-25T22:56:34Z</time>
      </trkpt>
      <trkpt lat="46.85023" lon="-1.17376">
        <ele>77</ele>
        <time>2022-04-25T22:56:39Z</time>
      </trkpt>
      <trkpt lat="46.84998" lon="-1.17304">
        <ele>78</ele>
        <time>2022-04-25T22:56:49Z</time>
      </trkpt>
      <trkpt lat="46.84995" lon="-1.17305">
        <ele>78</ele>
        <time>2022-04-25T22:56:49Z</time>
      </trkpt>
      <trkpt lat="46.84992" lon="-1.17303">
        <ele>78</ele>
        <time>2022-04-25T22:56:50Z</time>
      </trkpt>
      <trkpt lat="46.84992" lon="-1.17296">
        <ele>79</ele>
        <time>2022-04-25T22:56:51Z</time>
      </trkpt>
      <trkpt lat="46.84996" lon="-1.17294">
        <ele>79</ele>
        <time>2022-04-25T22:56:52Z</time>
      </trkpt>
      <trkpt lat="46.85006" lon="-1.17222">
        <ele>79</ele>
        <time>2022-04-25T22:57:01Z</time>
      </trkpt>
      <trkpt lat="46.85018" lon="-1.17177">
        <ele>79</ele>
        <time>2022-04-25T22:57:06Z</time>
      </trkpt>
      <trkpt lat="46.85055" lon="-1.1703">
        <ele>81</ele>
        <time>2022-04-25T22:57:25Z</time>
      </trkpt>
      <trkpt lat="46.85066" lon="-1.16996">
        <ele>81</ele>
        <time>2022-04-25T22:57:30Z</time>
      </trkpt>
      <trkpt lat="46.85151" lon="-1.16794">
        <ele>86</ele>
        <time>2022-04-25T22:57:59Z</time>
      </trkpt>
      <trkpt lat="46.85168" lon="-1.16748">
        <ele>87</ele>
        <time>2022-04-25T22:58:05Z</time>
      </trkpt>
      <trkpt lat="46.85173" lon="-1.16728">
        <ele>87</ele>
        <time>2022-04-25T22:58:08Z</time>
      </trkpt>
      <trkpt lat="46.85173" lon="-1.167">
        <ele>87</ele>
        <time>2022-04-25T22:58:11Z</time>
      </trkpt>
      <trkpt lat="46.85168" lon="-1.16689">
        <ele>87</ele>
        <time>2022-04-25T22:58:13Z</time>
      </trkpt>
      <trkpt lat="46.85168" lon="-1.1668">
        <ele>87</ele>
        <time>2022-04-25T22:58:14Z</time>
      </trkpt>
      <trkpt lat="46.85174" lon="-1.16668">
        <ele>87</ele>
        <time>2022-04-25T22:58:16Z</time>
      </trkpt>
      <trkpt lat="46.8518" lon="-1.16664">
        <ele>87</ele>
        <time>2022-04-25T22:58:17Z</time>
      </trkpt>
      <trkpt lat="46.85189" lon="-1.16649">
        <ele>88</ele>
        <time>2022-04-25T22:58:19Z</time>
      </trkpt>
      <trkpt lat="46.85195" lon="-1.16629">
        <ele>88</ele>
        <time>2022-04-25T22:58:22Z</time>
      </trkpt>
      <trkpt lat="46.85222" lon="-1.16514">
        <ele>90</ele>
        <time>2022-04-25T22:58:37Z</time>
      </trkpt>
      <trkpt lat="46.85239" lon="-1.16438">
        <ele>92</ele>
        <time>2022-04-25T22:58:47Z</time>
      </trkpt>
      <trkpt lat="46.85381" lon="-1.15818">
        <ele>95</ele>
        <time>2022-04-25T23:00:06Z</time>
      </trkpt>
      <trkpt lat="46.85566" lon="-1.14978">
        <ele>97</ele>
        <time>2022-04-25T23:01:53Z</time>
      </trkpt>
      <trkpt lat="46.85622" lon="-1.14712">
        <ele>97</ele>
        <time>2022-04-25T23:02:27Z</time>
      </trkpt>
      <trkpt lat="46.85629" lon="-1.14667">
        <ele>97</ele>
        <time>2022-04-25T23:02:33Z</time>
      </trkpt>
      <trkpt lat="46.85668" lon="-1.1434">
        <ele>99</ele>
        <time>2022-04-25T23:03:13Z</time>
      </trkpt>
      <trkpt lat="46.85676" lon="-1.14276">
        <ele>99</ele>
        <time>2022-04-25T23:03:21Z</time>
      </trkpt>
      <trkpt lat="46.85684" lon="-1.14212">
        <ele>99</ele>
        <time>2022-04-25T23:03:29Z</time>
      </trkpt>
      <trkpt lat="46.85691" lon="-1.14182">
        <ele>100</ele>
        <time>2022-04-25T23:03:33Z</time>
      </trkpt>
      <trkpt lat="46.85699" lon="-1.14153">
        <ele>100</ele>
        <time>2022-04-25T23:03:37Z</time>
      </trkpt>
      <trkpt lat="46.85709" lon="-1.14126">
        <ele>101</ele>
        <time>2022-04-25T23:03:41Z</time>
      </trkpt>
      <trkpt lat="46.8572" lon="-1.14101">
        <ele>101</ele>
        <time>2022-04-25T23:03:44Z</time>
      </trkpt>
      <trkpt lat="46.85736" lon="-1.14073">
        <ele>102</ele>
        <time>2022-04-25T23:03:49Z</time>
      </trkpt>
      <trkpt lat="46.85763" lon="-1.14037">
        <ele>102</ele>
        <time>2022-04-25T23:03:55Z</time>
      </trkpt>
      <trkpt lat="46.85783" lon="-1.14016">
        <ele>103</ele>
        <time>2022-04-25T23:04:00Z</time>
      </trkpt>
      <trkpt lat="46.85815" lon="-1.13993">
        <ele>103</ele>
        <time>2022-04-25T23:04:06Z</time>
      </trkpt>
      <trkpt lat="46.85867" lon="-1.13963">
        <ele>103</ele>
        <time>2022-04-25T23:04:16Z</time>
      </trkpt>
      <trkpt lat="46.85895" lon="-1.13944">
        <ele>103</ele>
        <time>2022-04-25T23:04:21Z</time>
      </trkpt>
      <trkpt lat="46.85923" lon="-1.13921">
        <ele>104</ele>
        <time>2022-04-25T23:04:27Z</time>
      </trkpt>
      <trkpt lat="46.85949" lon="-1.13893">
        <ele>104</ele>
        <time>2022-04-25T23:04:33Z</time>
      </trkpt>
      <trkpt lat="46.85973" lon="-1.1386">
        <ele>103</ele>
        <time>2022-04-25T23:04:39Z</time>
      </trkpt>
      <trkpt lat="46.85995" lon="-1.13825">
        <ele>103</ele>
        <time>2022-04-25T23:04:44Z</time>
      </trkpt>
      <trkpt lat="46.86321" lon="-1.13175">
        <ele>102</ele>
        <time>2022-04-25T23:06:22Z</time>
      </trkpt>
      <trkpt lat="46.86344" lon="-1.13112">
        <ele>101</ele>
        <time>2022-04-25T23:06:31Z</time>
      </trkpt>
      <trkpt lat="46.86409" lon="-1.1288">
        <ele>99</ele>
        <time>2022-04-25T23:07:02Z</time>
      </trkpt>
      <trkpt lat="46.86421" lon="-1.12829">
        <ele>100</ele>
        <time>2022-04-25T23:07:08Z</time>
      </trkpt>
      <trkpt lat="46.86506" lon="-1.12319">
        <ele>95</ele>
        <time>2022-04-25T23:08:12Z</time>
      </trkpt>
      <trkpt lat="46.86515" lon="-1.12276">
        <ele>94</ele>
        <time>2022-04-25T23:08:18Z</time>
      </trkpt>
      <trkpt lat="46.86527" lon="-1.12226">
        <ele>93</ele>
        <time>2022-04-25T23:08:24Z</time>
      </trkpt>
      <trkpt lat="46.86622" lon="-1.1191">
        <ele>88</ele>
        <time>2022-04-25T23:09:06Z</time>
      </trkpt>
      <trkpt lat="46.86626" lon="-1.11891">
        <ele>87</ele>
        <time>2022-04-25T23:09:08Z</time>
      </trkpt>
      <trkpt lat="46.86628" lon="-1.11874">
        <ele>86</ele>
        <time>2022-04-25T23:09:11Z</time>
      </trkpt>
      <trkpt lat="46.86627" lon="-1.1185">
        <ele>86</ele>
        <time>2022-04-25T23:09:13Z</time>
      </trkpt>
      <trkpt lat="46.8662" lon="-1.11814">
        <ele>85</ele>
        <time>2022-04-25T23:09:18Z</time>
      </trkpt>
      <trkpt lat="46.86461" lon="-1.11239">
        <ele>95</ele>
        <time>2022-04-25T23:10:33Z</time>
      </trkpt>
      <trkpt lat="46.86449" lon="-1.1119">
        <ele>96</ele>
        <time>2022-04-25T23:10:40Z</time>
      </trkpt>
      <trkpt lat="46.8637" lon="-1.10715">
        <ele>94</ele>
        <time>2022-04-25T23:11:39Z</time>
      </trkpt>
      <trkpt lat="46.86361" lon="-1.10673">
        <ele>93</ele>
        <time>2022-04-25T23:11:45Z</time>
      </trkpt>
      <trkpt lat="46.86348" lon="-1.1063">
        <ele>94</ele>
        <time>2022-04-25T23:11:50Z</time>
      </trkpt>
      <trkpt lat="46.86174" lon="-1.1015">
        <ele>90</ele>
        <time>2022-04-25T23:12:56Z</time>
      </trkpt>
      <trkpt lat="46.8615" lon="-1.10086">
        <ele>86</ele>
        <time>2022-04-25T23:13:05Z</time>
      </trkpt>
      <trkpt lat="46.86142" lon="-1.10071">
        <ele>86</ele>
        <time>2022-04-25T23:13:08Z</time>
      </trkpt>
      <trkpt lat="46.86128" lon="-1.10052">
        <ele>87</ele>
        <time>2022-04-25T23:13:11Z</time>
      </trkpt>
      <trkpt lat="46.86078" lon="-1.09996">
        <ele>88</ele>
        <time>2022-04-25T23:13:22Z</time>
      </trkpt>
      <trkpt lat="46.86049" lon="-1.09936">
        <ele>89</ele>
        <time>2022-04-25T23:13:31Z</time>
      </trkpt>
      <trkpt lat="46.86077" lon="-1.09901">
        <ele>88</ele>
        <time>2022-04-25T23:13:38Z</time>
      </trkpt>
      <trkpt lat="46.86147" lon="-1.0983">
        <ele>85</ele>
        <time>2022-04-25T23:13:53Z</time>
      </trkpt>
      <trkpt lat="46.86161" lon="-1.09811">
        <ele>83</ele>
        <time>2022-04-25T23:13:56Z</time>
      </trkpt>
      <trkpt lat="46.8617" lon="-1.09787">
        <ele>82</ele>
        <time>2022-04-25T23:14:00Z</time>
      </trkpt>
      <trkpt lat="46.86175" lon="-1.09719">
        <ele>80</ele>
        <time>2022-04-25T23:14:08Z</time>
      </trkpt>
      <trkpt lat="46.86177" lon="-1.09696">
        <ele>80</ele>
        <time>2022-04-25T23:14:11Z</time>
      </trkpt>
      <trkpt lat="46.86178" lon="-1.09671">
        <ele>79</ele>
        <time>2022-04-25T23:14:14Z</time>
      </trkpt>
      <trkpt lat="46.86184" lon="-1.09641">
        <ele>79</ele>
        <time>2022-04-25T23:14:18Z</time>
      </trkpt>
      <trkpt lat="46.86193" lon="-1.09616">
        <ele>79</ele>
        <time>2022-04-25T23:14:21Z</time>
      </trkpt>
      <trkpt lat="46.86329" lon="-1.0934">
        <ele>82</ele>
        <time>2022-04-25T23:15:02Z</time>
      </trkpt>
      <trkpt lat="46.8636" lon="-1.09293">
        <ele>84</ele>
        <time>2022-04-25T23:15:10Z</time>
      </trkpt>
      <trkpt lat="46.86377" lon="-1.09275">
        <ele>85</ele>
        <time>2022-04-25T23:15:14Z</time>
      </trkpt>
      <trkpt lat="46.86443" lon="-1.09217">
        <ele>88</ele>
        <time>2022-04-25T23:15:28Z</time>
      </trkpt>
      <trkpt lat="46.86694" lon="-1.09003">
        <ele>96</ele>
        <time>2022-04-25T23:16:20Z</time>
      </trkpt>
      <trkpt lat="46.87102" lon="-1.0865">
        <ele>94</ele>
        <time>2022-04-25T23:17:44Z</time>
      </trkpt>
      <trkpt lat="46.8718" lon="-1.08581">
        <ele>95</ele>
        <time>2022-04-25T23:18:00Z</time>
      </trkpt>
      <trkpt lat="46.87198" lon="-1.08561">
        <ele>95</ele>
        <time>2022-04-25T23:18:04Z</time>
      </trkpt>
      <trkpt lat="46.87213" lon="-1.0854">
        <ele>96</ele>
        <time>2022-04-25T23:18:08Z</time>
      </trkpt>
      <trkpt lat="46.8723" lon="-1.08508">
        <ele>96</ele>
        <time>2022-04-25T23:18:13Z</time>
      </trkpt>
      <trkpt lat="46.87239" lon="-1.08489">
        <ele>96</ele>
        <time>2022-04-25T23:18:16Z</time>
      </trkpt>
      <trkpt lat="46.87278" lon="-1.08372">
        <ele>96</ele>
        <time>2022-04-25T23:18:31Z</time>
      </trkpt>
      <trkpt lat="46.87405" lon="-1.07982">
        <ele>91</ele>
        <time>2022-04-25T23:19:24Z</time>
      </trkpt>
      <trkpt lat="46.8751" lon="-1.07666">
        <ele>85</ele>
        <time>2022-04-25T23:20:07Z</time>
      </trkpt>
      <trkpt lat="46.87523" lon="-1.07621">
        <ele>84</ele>
        <time>2022-04-25T23:20:13Z</time>
      </trkpt>
      <trkpt lat="46.87532" lon="-1.07565">
        <ele>83</ele>
        <time>2022-04-25T23:20:20Z</time>
      </trkpt>
      <trkpt lat="46.87558" lon="-1.07329">
        <ele>82</ele>
        <time>2022-04-25T23:20:49Z</time>
      </trkpt>
      <trkpt lat="46.8756" lon="-1.0729">
        <ele>82</ele>
        <time>2022-04-25T23:20:53Z</time>
      </trkpt>
      <trkpt lat="46.87559" lon="-1.07226">
        <ele>83</ele>
        <time>2022-04-25T23:21:01Z</time>
      </trkpt>
      <trkpt lat="46.87533" lon="-1.06882">
        <ele>84</ele>
        <time>2022-04-25T23:21:43Z</time>
      </trkpt>
      <trkpt lat="46.87495" lon="-1.06621">
        <ele>86</ele>
        <time>2022-04-25T23:22:16Z</time>
      </trkpt>
      <trkpt lat="46.87491" lon="-1.06575">
        <ele>86</ele>
        <time>2022-04-25T23:22:21Z</time>
      </trkpt>
      <trkpt lat="46.87491" lon="-1.06535">
        <ele>86</ele>
        <time>2022-04-25T23:22:26Z</time>
      </trkpt>
      <trkpt lat="46.87509" lon="-1.06371">
        <ele>85</ele>
        <time>2022-04-25T23:22:46Z</time>
      </trkpt>
      <trkpt lat="46.876" lon="-1.05841">
        <ele>85</ele>
        <time>2022-04-25T23:23:53Z</time>
      </trkpt>
      <trkpt lat="46.87632" lon="-1.05667">
        <ele>87</ele>
        <time>2022-04-25T23:24:15Z</time>
      </trkpt>
      <trkpt lat="46.87669" lon="-1.05473">
        <ele>85</ele>
        <time>2022-04-25T23:24:39Z</time>
      </trkpt>
      <trkpt lat="46.87672" lon="-1.05447">
        <ele>86</ele>
        <time>2022-04-25T23:24:43Z</time>
      </trkpt>
      <trkpt lat="46.87672" lon="-1.05404">
        <ele>86</ele>
        <time>2022-04-25T23:24:48Z</time>
      </trkpt>
      <trkpt lat="46.87667" lon="-1.05353">
        <ele>87</ele>
        <time>2022-04-25T23:24:54Z</time>
      </trkpt>
      <trkpt lat="46.87647" lon="-1.05234">
        <ele>87</ele>
        <time>2022-04-25T23:25:09Z</time>
      </trkpt>
      <trkpt lat="46.87642" lon="-1.05206">
        <ele>87</ele>
        <time>2022-04-25T23:25:12Z</time>
      </trkpt>
      <trkpt lat="46.87629" lon="-1.05157">
        <ele>87</ele>
        <time>2022-04-25T23:25:19Z</time>
      </trkpt>
      <trkpt lat="46.87599" lon="-1.05073">
        <ele>87</ele>
        <time>2022-04-25T23:25:30Z</time>
      </trkpt>
      <trkpt lat="46.8755" lon="-1.04952">
        <ele>88</ele>
        <time>2022-04-25T23:25:47Z</time>
      </trkpt>
      <trkpt lat="46.87276" lon="-1.04301">
        <ele>88</ele>
        <time>2022-04-25T23:27:20Z</time>
      </trkpt>
      <trkpt lat="46.87239" lon="-1.04208">
        <ele>89</ele>
        <time>2022-04-25T23:27:34Z</time>
      </trkpt>
      <trkpt lat="46.87221" lon="-1.04151">
        <ele>91</ele>
        <time>2022-04-25T23:27:41Z</time>
      </trkpt>
      <trkpt lat="46.87213" lon="-1.04106">
        <ele>92</ele>
        <time>2022-04-25T23:27:47Z</time>
      </trkpt>
      <trkpt lat="46.87206" lon="-1.04041">
        <ele>92</ele>
        <time>2022-04-25T23:27:55Z</time>
      </trkpt>
      <trkpt lat="46.872" lon="-1.04009">
        <ele>92</ele>
        <time>2022-04-25T23:27:59Z</time>
      </trkpt>
      <trkpt lat="46.87181" lon="-1.03922">
        <ele>92</ele>
        <time>2022-04-25T23:28:10Z</time>
      </trkpt>
      <trkpt lat="46.8717" lon="-1.03886">
        <ele>91</ele>
        <time>2022-04-25T23:28:15Z</time>
      </trkpt>
      <trkpt lat="46.87164" lon="-1.03871">
        <ele>91</ele>
        <time>2022-04-25T23:28:17Z</time>
      </trkpt>
      <trkpt lat="46.87136" lon="-1.03817">
        <ele>90</ele>
        <time>2022-04-25T23:28:25Z</time>
      </trkpt>
      <trkpt lat="46.8713" lon="-1.03822">
        <ele>90</ele>
        <time>2022-04-25T23:28:26Z</time>
      </trkpt>
      <trkpt lat="46.87123" lon="-1.03821">
        <ele>91</ele>
        <time>2022-04-25T23:28:28Z</time>
      </trkpt>
      <trkpt lat="46.87117" lon="-1.03817">
        <ele>91</ele>
        <time>2022-04-25T23:28:29Z</time>
      </trkpt>
      <trkpt lat="46.87113" lon="-1.0381">
        <ele>91</ele>
        <time>2022-04-25T23:28:30Z</time>
      </trkpt>
      <trkpt lat="46.87112" lon="-1.03796">
        <ele>91</ele>
        <time>2022-04-25T23:28:32Z</time>
      </trkpt>
      <trkpt lat="46.87115" lon="-1.03787">
        <ele>91</ele>
        <time>2022-04-25T23:28:33Z</time>
      </trkpt>
      <trkpt lat="46.87121" lon="-1.03781">
        <ele>91</ele>
        <time>2022-04-25T23:28:34Z</time>
      </trkpt>
      <trkpt lat="46.87126" lon="-1.03779">
        <ele>90</ele>
        <time>2022-04-25T23:28:35Z</time>
      </trkpt>
      <trkpt lat="46.87117" lon="-1.03691">
        <ele>91</ele>
        <time>2022-04-25T23:28:46Z</time>
      </trkpt>
      <trkpt lat="46.87116" lon="-1.03652">
        <ele>91</ele>
        <time>2022-04-25T23:28:51Z</time>
      </trkpt>
      <trkpt lat="46.87118" lon="-1.03635">
        <ele>91</ele>
        <time>2022-04-25T23:28:53Z</time>
      </trkpt>
      <trkpt lat="46.87124" lon="-1.03601">
        <ele>91</ele>
        <time>2022-04-25T23:28:57Z</time>
      </trkpt>
      <trkpt lat="46.87167" lon="-1.03443">
        <ele>91</ele>
        <time>2022-04-25T23:29:18Z</time>
      </trkpt>
      <trkpt lat="46.87176" lon="-1.03388">
        <ele>91</ele>
        <time>2022-04-25T23:29:25Z</time>
      </trkpt>
      <trkpt lat="46.8718" lon="-1.03336">
        <ele>91</ele>
        <time>2022-04-25T23:29:31Z</time>
      </trkpt>
      <trkpt lat="46.87181" lon="-1.03298">
        <ele>90</ele>
        <time>2022-04-25T23:29:36Z</time>
      </trkpt>
      <trkpt lat="46.8718" lon="-1.03261">
        <ele>90</ele>
        <time>2022-04-25T23:29:40Z</time>
      </trkpt>
      <trkpt lat="46.87152" lon="-1.0295">
        <ele>93</ele>
        <time>2022-04-25T23:30:18Z</time>
      </trkpt>
      <trkpt lat="46.8715" lon="-1.02876">
        <ele>94</ele>
        <time>2022-04-25T23:30:27Z</time>
      </trkpt>
      <trkpt lat="46.87151" lon="-1.02839">
        <ele>94</ele>
        <time>2022-04-25T23:30:32Z</time>
      </trkpt>
      <trkpt lat="46.87149" lon="-1.0276">
        <ele>95</ele>
        <time>2022-04-25T23:30:41Z</time>
      </trkpt>
      <trkpt lat="46.87144" lon="-1.02741">
        <ele>95</ele>
        <time>2022-04-25T23:30:44Z</time>
      </trkpt>
      <trkpt lat="46.8714" lon="-1.02736">
        <ele>96</ele>
        <time>2022-04-25T23:30:45Z</time>
      </trkpt>
      <trkpt lat="46.87125" lon="-1.02729">
        <ele>96</ele>
        <time>2022-04-25T23:30:48Z</time>
      </trkpt>
      <trkpt lat="46.87115" lon="-1.02729">
        <ele>96</ele>
        <time>2022-04-25T23:30:49Z</time>
      </trkpt>
      <trkpt lat="46.87085" lon="-1.02734">
        <ele>95</ele>
        <time>2022-04-25T23:30:55Z</time>
      </trkpt>
      <trkpt lat="46.87122" lon="-1.02714">
        <ele>96</ele>
        <time>2022-04-25T23:31:02Z</time>
      </trkpt>
      <trkpt lat="46.87134" lon="-1.02703">
        <ele>97</ele>
        <time>2022-04-25T23:31:04Z</time>
      </trkpt>
      <trkpt lat="46.87135" lon="-1.02699">
        <ele>97</ele>
        <time>2022-04-25T23:31:05Z</time>
      </trkpt>
      <trkpt lat="46.87135" lon="-1.02683">
        <ele>98</ele>
        <time>2022-04-25T23:31:07Z</time>
      </trkpt>
      <trkpt lat="46.87133" lon="-1.02668">
        <ele>98</ele>
        <time>2022-04-25T23:31:09Z</time>
      </trkpt>
      <trkpt lat="46.87116" lon="-1.02635">
        <ele>99</ele>
        <time>2022-04-25T23:31:14Z</time>
      </trkpt>
      <trkpt lat="46.87103" lon="-1.0259">
        <ele>100</ele>
        <time>2022-04-25T23:31:20Z</time>
      </trkpt>
      <trkpt lat="46.87043" lon="-1.02436">
        <ele>103</ele>
        <time>2022-04-25T23:31:41Z</time>
      </trkpt>
      <trkpt lat="46.8703" lon="-1.02394">
        <ele>104</ele>
        <time>2022-04-25T23:31:47Z</time>
      </trkpt>
      <trkpt lat="46.8701" lon="-1.02264">
        <ele>105</ele>
        <time>2022-04-25T23:32:03Z</time>
      </trkpt>
      <trkpt lat="46.87006" lon="-1.02207">
        <ele>106</ele>
        <time>2022-04-25T23:32:10Z</time>
      </trkpt>
      <trkpt lat="46.87007" lon="-1.02146">
        <ele>107</ele>
        <time>2022-04-25T23:32:17Z</time>
      </trkpt>
      <trkpt lat="46.8701" lon="-1.02108">
        <ele>107</ele>
        <time>2022-04-25T23:32:22Z</time>
      </trkpt>
      <trkpt lat="46.87008" lon="-1.02102">
        <ele>107</ele>
        <time>2022-04-25T23:32:23Z</time>
      </trkpt>
      <trkpt lat="46.87003" lon="-1.02097">
        <ele>107</ele>
        <time>2022-04-25T23:32:24Z</time>
      </trkpt>
      <trkpt lat="46.87011" lon="-1.02077">
        <ele>107</ele>
        <time>2022-04-25T23:32:27Z</time>
      </trkpt>
      <trkpt lat="46.87023" lon="-1.0204">
        <ele>108</ele>
        <time>2022-04-25T23:32:32Z</time>
      </trkpt>
      <trkpt lat="46.87038" lon="-1.01927">
        <ele>108</ele>
        <time>2022-04-25T23:32:46Z</time>
      </trkpt>
      <trkpt lat="46.87057" lon="-1.01818">
        <ele>110</ele>
        <time>2022-04-25T23:32:59Z</time>
      </trkpt>
      <trkpt lat="46.87071" lon="-1.01733">
        <ele>110</ele>
        <time>2022-04-25T23:33:10Z</time>
      </trkpt>
      <trkpt lat="46.87075" lon="-1.01712">
        <ele>110</ele>
        <time>2022-04-25T23:33:13Z</time>
      </trkpt>
      <trkpt lat="46.87073" lon="-1.01709">
        <ele>110</ele>
        <time>2022-04-25T23:33:13Z</time>
      </trkpt>
      <trkpt lat="46.87072" lon="-1.01706">
        <ele>110</ele>
        <time>2022-04-25T23:33:14Z</time>
      </trkpt>
      <trkpt lat="46.87073" lon="-1.01702">
        <ele>110</ele>
        <time>2022-04-25T23:33:14Z</time>
      </trkpt>
      <trkpt lat="46.87077" lon="-1.017">
        <ele>110</ele>
        <time>2022-04-25T23:33:15Z</time>
      </trkpt>
      <trkpt lat="46.87103" lon="-1.01544">
        <ele>108</ele>
        <time>2022-04-25T23:33:34Z</time>
      </trkpt>
      <trkpt lat="46.87107" lon="-1.01537">
        <ele>109</ele>
        <time>2022-04-25T23:33:35Z</time>
      </trkpt>
      <trkpt lat="46.8711" lon="-1.01428">
        <ele>107</ele>
        <time>2022-04-25T23:33:49Z</time>
      </trkpt>
      <trkpt lat="46.87115" lon="-1.0134">
        <ele>108</ele>
        <time>2022-04-25T23:33:59Z</time>
      </trkpt>
      <trkpt lat="46.87115" lon="-1.0132">
        <ele>108</ele>
        <time>2022-04-25T23:34:02Z</time>
      </trkpt>
      <trkpt lat="46.87114" lon="-1.01307">
        <ele>108</ele>
        <time>2022-04-25T23:34:04Z</time>
      </trkpt>
      <trkpt lat="46.87064" lon="-1.01137">
        <ele>103</ele>
        <time>2022-04-25T23:34:26Z</time>
      </trkpt>
      <trkpt lat="46.8704" lon="-1.0106">
        <ele>102</ele>
        <time>2022-04-25T23:34:36Z</time>
      </trkpt>
      <trkpt lat="46.87006" lon="-1.00942">
        <ele>102</ele>
        <time>2022-04-25T23:34:52Z</time>
      </trkpt>
      <trkpt lat="46.87001" lon="-1.00935">
        <ele>103</ele>
        <time>2022-04-25T23:34:53Z</time>
      </trkpt>
      <trkpt lat="46.86996" lon="-1.00934">
        <ele>103</ele>
        <time>2022-04-25T23:34:54Z</time>
      </trkpt>
      <trkpt lat="46.86996" lon="-1.00928">
        <ele>103</ele>
        <time>2022-04-25T23:34:55Z</time>
      </trkpt>
      <trkpt lat="46.86998" lon="-1.00924">
        <ele>103</ele>
        <time>2022-04-25T23:34:55Z</time>
      </trkpt>
      <trkpt lat="46.86999" lon="-1.00914">
        <ele>103</ele>
        <time>2022-04-25T23:34:57Z</time>
      </trkpt>
      <trkpt lat="46.86983" lon="-1.00859">
        <ele>105</ele>
        <time>2022-04-25T23:35:04Z</time>
      </trkpt>
      <trkpt lat="46.86948" lon="-1.00671">
        <ele>109</ele>
        <time>2022-04-25T23:35:28Z</time>
      </trkpt>
      <trkpt lat="46.86937" lon="-1.00661">
        <ele>109</ele>
        <time>2022-04-25T23:35:30Z</time>
      </trkpt>
      <trkpt lat="46.86853" lon="-1.00633">
        <ele>112</ele>
        <time>2022-04-25T23:35:45Z</time>
      </trkpt>
      <trkpt lat="46.86836" lon="-1.00634">
        <ele>112</ele>
        <time>2022-04-25T23:35:48Z</time>
      </trkpt>
      <trkpt lat="46.86765" lon="-1.00654">
        <ele>111</ele>
        <time>2022-04-25T23:36:01Z</time>
      </trkpt>
      <trkpt lat="46.86714" lon="-1.00674">
        <ele>111</ele>
        <time>2022-04-25T23:36:10Z</time>
      </trkpt>
      <trkpt lat="46.86712" lon="-1.00666">
        <ele>111</ele>
        <time>2022-04-25T23:36:12Z</time>
      </trkpt>
      <trkpt lat="46.86708" lon="-1.0066">
        <ele>111</ele>
        <time>2022-04-25T23:36:13Z</time>
      </trkpt>
      <trkpt lat="46.86664" lon="-1.00646">
        <ele>111</ele>
        <time>2022-04-25T23:36:21Z</time>
      </trkpt>
      <trkpt lat="46.86595" lon="-1.00621">
        <ele>116</ele>
        <time>2022-04-25T23:36:33Z</time>
      </trkpt>
      <trkpt lat="46.86573" lon="-1.00609">
        <ele>117</ele>
        <time>2022-04-25T23:36:37Z</time>
      </trkpt>
      <trkpt lat="46.86523" lon="-1.00577">
        <ele>118</ele>
        <time>2022-04-25T23:36:47Z</time>
      </trkpt>
      <trkpt lat="46.86495" lon="-1.00567">
        <ele>119</ele>
        <time>2022-04-25T23:36:52Z</time>
      </trkpt>
      <trkpt lat="46.86461" lon="-1.00561">
        <ele>120</ele>
        <time>2022-04-25T23:36:58Z</time>
      </trkpt>
      <trkpt lat="46.86426" lon="-1.00564">
        <ele>120</ele>
        <time>2022-04-25T23:37:05Z</time>
      </trkpt>
      <trkpt lat="46.86419" lon="-1.00562">
        <ele>120</ele>
        <time>2022-04-25T23:37:06Z</time>
      </trkpt>
    </trkseg>
  </trk>
</gpx>